# Wetter Temperatur Luftdruck Luftfeuchtigkeit Sichtweite Windgeschwindigkeit Windrichtung Zeit
1 Clouds 2 1038 93 10000 3.09 70 08:28 02.10.2022
2 Clouds 5 1039 70 10000 3.6 80 05:19 02.10.2022
3 Clouds 13 1036 25 10000 5.66 50 00:58 02.10.2022
4 Clouds 13 1036 25 10000 5.66 50 00:38 02.10.2022
5 Clouds 15 1036 26 10000 6.17 40 23:28 01.10.2022
6 Clouds 16 1036 30 10000 5.14 110 21:39 01.10.2022
7 Clouds 16 1039 33 10000 3.6 250 18:54 01.10.2022
8 Clouds 13 1040 43 10000 2.57 300 17:28 01.10.2022
9 Clouds 10 1040 57 10000 1.03 0 15:28 01.10.2022
10 Clouds 3 1038 80 10000 2.06 70 13:52 01.10.2022
11 Clouds -1 1037 86 10000 2.06 70 12:34 01.10.2022
12 Clouds 3 1037 80 10000 1.03 0 11:22 01.10.2022
13 Clouds 3 1036 80 10000 1.03 0 10:47 01.10.2022
14 Clouds 3 1036 80 10000 1.03 0 10:26 01.10.2022
15 Clouds 5 1037 81 10000 1.03 0 09:21 01.10.2022
16 Clouds 4 1037 93 10000 1.03 0 08:26 01.10.2022
17 Clouds 8 1036 33 10000 5.66 80 03:39 01.10.2022
18 Clouds 11 1035 49 10000 6.17 50 01:31 01.10.2022
19 Clouds 16 1034 26 10000 5.66 90 23:21 30.09.2022
20 Clouds 17 1034 33 10000 5.14 100 21:57 30.09.2022
21 Clouds 17 1035 36 10000 4.63 110 20:45 30.09.2022
22 Clouds 17 1035 36 10000 4.63 110 20:20 30.09.2022
23 Clouds 14 1038 43 10000 2.57 270 17:59 30.09.2022
24 Clouds 11 1038 43 10000 3.09 250 16:31 30.09.2022
25 Clouds 7 1037 75 6000 1.03 0 14:22 30.09.2022
26 Fog 1 1035 93 4000 2.57 80 12:29 30.09.2022
27 Fog 1 1035 86 4000 2.57 70 11:54 30.09.2022
28 Fog 4 1035 87 4000 4.63 90 08:51 30.09.2022
29 Fog 4 1036 93 4000 3.6 80 06:34 30.09.2022
30 Clouds 11 1034 14 10000 2.06 260 02:50 30.09.2022
31 Clouds 16 1032 9 10000 4.12 270 00:35 30.09.2022
32 Clouds 18 1032 11 10000 4.63 280 21:39 29.09.2022
33 Clouds 18 1032 11 10000 4.63 280 21:18 29.09.2022
34 Clouds 17 1035 18 10000 5.14 270 18:54 29.09.2022
35 Clouds 14 1036 30 10000 6.17 270 17:48 29.09.2022
36 Clouds 13 1036 43 10000 6.17 280 16:29 29.09.2022
37 Clouds 10 1036 46 10000 1.03 0 15:36 29.09.2022
38 Clouds 8 1036 49 10000 1.03 0 14:59 29.09.2022
39 Clouds 1 1034 43 10000 0 0 11:53 29.09.2022
40 Clouds 6 1036 48 10000 1.03 0 07:39 29.09.2022
41 Clouds 9 1036 39 10000 2.57 80 03:24 29.09.2022
42 Clouds 18 1032 13 10000 3.09 290 00:29 29.09.2022
43 Clouds 18 1032 11 10000 2.57 310 23:19 28.09.2022
44 Clouds 18 1034 10 10000 5.66 300 21:30 28.09.2022
45 Clouds 19 1035 12 10000 6.17 290 20:45 28.09.2022
46 Clouds 17 1038 10 10000 5.14 290 18:53 28.09.2022
47 Clouds 11 1038 27 10000 3.6 290 15:46 28.09.2022
48 Clouds 5 1037 41 10000 2.57 360 13:28 28.09.2022
49 Clouds 0 1035 43 10000 1.03 0 11:34 28.09.2022
50 Clouds 4 1035 35 10000 2.57 20 09:26 28.09.2022
51 Clouds 4 1037 51 10000 2.06 330 07:40 28.09.2022
52 Clear 5 1038 25 10000 1.03 0 05:31 28.09.2022
53 Clouds 15 1034 21 10000 4.63 280 01:40 28.09.2022
54 Clouds 19 1033 11 10000 7.2 280 23:30 27.09.2022
55 Clouds 19 1034 11 10000 9.26 280 21:55 27.09.2022
56 Clouds 19 1035 12 10000 7.2 300 20:49 27.09.2022
57 Clouds 18 1036 13 10000 5.66 290 19:49 27.09.2022
58 Clouds 18 1036 13 10000 5.66 290 19:30 27.09.2022
59 Clouds 16 1037 21 10000 6.69 280 17:46 27.09.2022
60 Clouds 16 1037 21 10000 6.69 280 17:46 27.09.2022
61 Clouds 12 1037 50 10000 2.57 270 15:59 27.09.2022
62 Clouds 10 1037 66 10000 2.06 80 14:59 27.09.2022
63 Fog 3 1036 86 4000 2.06 60 13:28 27.09.2022
64 Clouds 2 1035 86 10000 0 0 12:22 27.09.2022
65 Clouds 7 1035 81 10000 1.03 0 09:46 27.09.2022
66 Clouds 7 1037 81 10000 1.03 0 07:28 27.09.2022
67 Clouds 10 1035 61 10000 5.14 90 02:51 27.09.2022
68 Clouds 11 1033 53 10000 4.63 80 01:35 27.09.2022
69 Clouds 18 1032 31 10000 5.14 310 23:35 26.09.2022
70 Clouds 18 1033 27 10000 6.69 300 22:40 26.09.2022
71 Clouds 17 1034 33 10000 5.66 280 20:46 26.09.2022
72 Clouds 16 1035 35 10000 4.63 270 19:34 26.09.2022
73 Clouds 17 1036 37 10000 4.63 270 18:34 26.09.2022
74 Clouds 12 1037 46 10000 3.09 260 16:41 26.09.2022
75 Clouds 8 1036 75 6000 4.12 70 14:41 26.09.2022
76 Fog 1 1034 93 4000 2.06 100 11:35 26.09.2022
77 Fog 3 1034 86 4000 2.06 80 10:41 26.09.2022
78 Fog 3 1034 86 4000 2.06 80 10:21 26.09.2022
79 Fog 2 1035 93 4000 2.57 80 09:55 26.09.2022
80 Fog 2 1035 93 4000 2.57 80 09:24 26.09.2022
81 Clouds 6 1035 65 10000 2.06 40 08:57 26.09.2022
82 Clouds 10 1034 46 10000 4.12 80 02:57 26.09.2022
83 Clouds 18 1032 11 10000 4.63 260 23:57 25.09.2022
84 Clouds 17 1032 11 10000 5.14 300 22:45 25.09.2022
85 Clouds 18 1033 11 10000 6.69 300 21:35 25.09.2022
86 Clouds 17 1034 17 10000 5.66 310 20:48 25.09.2022
87 Clouds 16 1035 19 10000 3.6 280 19:43 25.09.2022
88 Clouds 15 1037 18 10000 6.17 270 18:43 25.09.2022
89 Clouds 15 1037 18 10000 6.17 270 18:20 25.09.2022
90 Clouds 13 1037 30 10000 3.6 280 16:45 25.09.2022
91 Clouds 10 1037 39 10000 4.63 310 15:45 25.09.2022
92 Clouds 6 1036 70 10000 2.57 260 14:22 25.09.2022
93 Clouds 4 1034 80 10000 2.06 250 12:55 25.09.2022
94 Clouds 4 1034 93 10000 1.54 260 10:32 25.09.2022
95 Clouds 5 1035 81 10000 3.6 360 08:24 25.09.2022
96 Clouds 3 1039 93 3000 5.66 280 05:47 25.09.2022
97 Clouds 8 1035 65 6000 9.26 180 01:55 25.09.2022
98 Clouds 17 1032 36 10000 4.12 270 22:35 24.09.2022
99 Clouds 19 1033 22 10000 4.12 120 20:55 24.09.2022
100 Clouds 16 1034 35 10000 4.63 130 19:22 24.09.2022
101 Clouds 14 1037 43 10000 3.6 120 17:49 24.09.2022
102 Clouds 12 1037 62 10000 3.6 120 16:25 24.09.2022
103 Clouds 10 1037 66 6000 4.63 100 15:20 24.09.2022
104 Fog 5 1035 87 4000 3.09 80 13:25 24.09.2022
105 Fog 3 1035 93 4000 3.09 90 12:49 24.09.2022
106 Fog 5 1035 93 4000 3.09 80 10:38 24.09.2022
107 Fog 5 1035 93 4000 4.12 90 09:35 24.09.2022
108 Fog 6 1035 93 4000 4.12 80 08:43 24.09.2022
109 Clouds 5 1037 87 10000 3.6 70 06:53 24.09.2022
110 Clouds 9 1036 70 10000 3.6 100 04:35 24.09.2022
111 Clouds 13 1033 37 10000 4.63 70 01:45 24.09.2022
112 Clouds 20 1033 14 10000 3.6 280 22:24 23.09.2022
113 Clouds 20 1034 17 10000 4.12 320 21:26 23.09.2022
114 Clouds 19 1035 20 10000 4.12 260 20:55 23.09.2022
115 Clouds 18 1036 25 10000 3.6 230 19:46 23.09.2022
116 Clouds 17 1037 23 10000 3.09 240 18:24 23.09.2022
117 Fog 4 1037 87 2500 4.12 80 13:44 23.09.2022
118 Clouds 0 1036 74 10000 1.03 0 10:26 23.09.2022
119 Clouds 2 1037 80 10000 1.03 0 08:56 23.09.2022
120 Clouds 6 1037 70 10000 1.54 100 04:42 23.09.2022
121 Clouds 16 1033 38 10000 6.17 60 23:30 22.09.2022
122 Clouds 18 1033 31 10000 4.12 100 22:28 22.09.2022
123 Clouds 18 1034 29 10000 4.12 50 21:39 22.09.2022
124 Clouds 17 1035 31 10000 4.12 120 20:31 22.09.2022
125 Clouds 17 1038 21 10000 2.57 30 18:59 22.09.2022
126 Clouds 12 1039 43 10000 4.12 100 15:58 22.09.2022
127 Clouds 4 1036 44 10000 3.09 10 10:55 22.09.2022
128 Clouds 4 1036 44 10000 3.09 10 10:19 22.09.2022
129 Clouds 5 1036 28 10000 2.06 10 08:20 22.09.2022
130 Clouds 7 1038 33 10000 1.03 0 05:22 22.09.2022
131 Clouds 15 1035 33 10000 4.12 240 01:27 22.09.2022
132 Clouds 20 1034 16 10000 5.66 240 22:29 21.09.2022
133 Clouds 20 1034 11 10000 6.69 230 21:24 21.09.2022
134 Clouds 17 1037 21 10000 5.14 260 18:51 21.09.2022
135 Clouds 15 1038 24 10000 5.14 280 17:45 21.09.2022
136 Clouds 10 1038 31 10000 2.06 260 15:47 21.09.2022
137 Clouds 4 1036 23 10000 1.54 10 13:54 21.09.2022
138 Clouds 0 1034 16 10000 1.03 0 11:43 21.09.2022
139 Clouds 0 1035 34 10000 1.03 0 10:59 21.09.2022
140 Clouds 5 1035 32 10000 2.57 10 09:40 21.09.2022
141 Clouds 5 1036 35 10000 2.57 10 08:43 21.09.2022
142 Clouds 11 1037 21 10000 2.57 240 03:56 21.09.2022
143 Clouds 13 1035 37 10000 2.06 100 02:38 21.09.2022
144 Clouds 15 1034 21 10000 5.14 280 01:56 21.09.2022
145 Clouds 18 1033 20 10000 4.63 280 00:19 21.09.2022
146 Clouds 20 1034 16 10000 6.69 270 21:53 20.09.2022
147 Clouds 20 1035 20 10000 6.17 290 20:32 20.09.2022
148 Clouds 18 1037 25 10000 5.14 280 18:41 20.09.2022
149 Clouds 10 1038 49 10000 2.57 270 15:37 20.09.2022
150 Clouds 7 1038 56 9000 1.03 0 14:18 20.09.2022
151 Clouds 4 1035 55 10000 1.54 360 11:29 20.09.2022
152 Clouds 2 1036 80 10000 1.03 0 08:38 20.09.2022
153 Clouds 4 1037 60 10000 1.54 30 07:37 20.09.2022
154 Clear 8 1037 61 10000 1.03 0 04:35 20.09.2022
155 Clouds 14 1034 43 10000 3.09 100 01:42 20.09.2022
156 Clouds 19 1034 17 10000 4.63 300 22:42 19.09.2022
157 Clouds 19 1035 17 10000 4.12 240 21:28 19.09.2022
158 Clouds 19 1036 15 10000 5.14 250 20:40 19.09.2022
159 Clouds 17 1038 12 10000 5.14 330 18:45 19.09.2022
160 Clouds 14 1038 22 10000 1.03 0 16:48 19.09.2022
161 Clouds 2 1036 51 10000 1.03 0 13:47 19.09.2022
162 Clouds 0 1035 59 10000 1.03 0 11:57 19.09.2022
163 Clouds 3 1035 60 10000 1.03 0 09:38 19.09.2022
164 Clouds 2 1035 74 10000 1.03 0 08:32 19.09.2022
165 Clouds 11 1036 66 10000 1.03 0 03:37 19.09.2022
166 Clouds 17 1033 17 10000 4.63 280 00:44 19.09.2022
167 Clouds 20 1033 19 10000 5.66 300 22:32 18.09.2022
168 Clouds 20 1035 24 10000 5.14 310 20:47 18.09.2022
169 Clouds 18 1035 23 10000 5.66 280 19:33 18.09.2022
170 Clouds 15 1037 41 10000 4.63 240 17:51 18.09.2022
171 Clouds 13 1037 54 10000 4.12 240 16:47 18.09.2022
172 Clouds 9 1037 57 10000 1.03 0 14:44 18.09.2022
173 Clouds 3 1036 64 6000 1.03 0 13:34 18.09.2022
174 Clouds 4 1035 51 10000 2.06 300 11:55 18.09.2022
175 Clouds 5 1036 100 10000 1.03 0 07:46 18.09.2022
176 Clouds 14 1033 43 10000 2.57 300 01:41 18.09.2022
177 Clouds 14 1033 43 10000 2.57 300 01:19 18.09.2022
178 Clouds 19 1033 27 10000 5.14 270 22:55 17.09.2022
179 Clouds 18 1035 27 10000 4.63 310 20:51 17.09.2022
180 Clouds 17 1036 29 10000 3.09 250 19:36 17.09.2022
181 Clouds 14 1039 30 10000 3.6 250 17:36 17.09.2022
182 Clouds 8 1038 49 10000 2.06 250 14:22 17.09.2022
183 Clouds 5 1037 65 10000 2.06 10 12:44 17.09.2022
184 Clouds 5 1036 56 10000 2.06 360 10:48 17.09.2022
185 Clouds 7 1037 65 10000 1.03 0 06:31 17.09.2022
186 Clouds 8 1037 52 10000 3.6 90 03:55 17.09.2022
187 Clouds 17 1034 31 10000 3.6 300 23:36 16.09.2022
188 Clouds 16 1035 33 10000 3.09 320 21:47 16.09.2022
189 Clouds 13 1037 43 10000 7.2 360 20:41 16.09.2022
190 Clouds 15 1039 35 10000 2.57 250 18:28 16.09.2022
191 Clouds 11 1040 53 10000 3.09 270 16:21 16.09.2022
192 Clouds 5 1038 93 9000 1.03 0 14:44 16.09.2022
193 Fog 3 1037 93 4000 2.06 80 12:35 16.09.2022
194 Fog 3 1037 100 4000 2.57 70 09:37 16.09.2022
195 Fog 5 1038 93 3000 3.09 80 07:22 16.09.2022
196 Fog 5 1038 93 4000 3.6 90 06:47 16.09.2022
197 Fog 6 1039 87 4000 4.12 100 05:19 16.09.2022
198 Clouds 13 1034 43 10000 6.17 140 23:50 15.09.2022
199 Clouds 16 1035 26 10000 3.09 200 21:24 15.09.2022
200 Clouds 16 1036 26 10000 3.09 230 20:28 15.09.2022
201 Clouds 14 1038 30 10000 3.6 310 18:54 15.09.2022
202 Clouds 13 1039 35 10000 3.09 270 17:34 15.09.2022
203 Clouds 13 1039 35 10000 3.09 270 17:34 15.09.2022
204 Clouds 13 1039 35 10000 3.09 270 17:34 15.09.2022
205 Clouds 10 1039 61 10000 1.54 210 16:57 15.09.2022
206 Clouds 5 1038 70 10000 0 0 14:58 15.09.2022
207 Clouds 2 1036 93 10000 1.03 0 12:49 15.09.2022
208 Clouds 5 1036 75 10000 2.06 30 10:42 15.09.2022
209 Clouds 4 1036 87 10000 5.66 40 09:42 15.09.2022
210 Fog 7 1037 87 4000 3.6 110 04:46 15.09.2022
211 Clouds 8 1035 81 10000 5.14 110 02:18 15.09.2022
212 Clouds 19 1032 22 10000 5.14 300 22:26 14.09.2022
213 Clouds 18 1034 31 10000 5.14 290 20:19 14.09.2022
214 Clouds 17 1035 29 10000 4.63 280 19:32 14.09.2022
215 Clouds 13 1037 62 10000 4.12 280 17:26 14.09.2022
216 Clouds 9 1037 81 10000 1.03 0 15:58 14.09.2022
217 Clouds 7 1036 81 10000 1.03 0 14:35 14.09.2022
218 Fog 7 1035 93 4000 2.06 110 11:54 14.09.2022
219 Fog 7 1034 100 4000 3.09 130 09:48 14.09.2022
220 Fog 7 1036 93 4000 3.09 110 07:39 14.09.2022
221 Fog 8 1036 93 4000 3.09 120 06:47 14.09.2022
222 Fog 8 1035 93 4000 5.14 140 04:51 14.09.2022
223 Clouds 14 1032 32 10000 2.57 300 01:51 14.09.2022
224 Clouds 14 1032 32 10000 2.57 300 01:29 14.09.2022
225 Clouds 16 1031 24 10000 5.14 320 00:50 14.09.2022
226 Clouds 18 1032 20 10000 6.69 290 23:54 13.09.2022
227 Clouds 18 1032 20 10000 6.69 290 23:36 13.09.2022
228 Clouds 18 1032 20 10000 6.69 290 23:18 13.09.2022
229 Clouds 19 1032 16 10000 9.26 290 22:20 13.09.2022
230 Clouds 18 1034 25 10000 7.2 300 19:52 13.09.2022
231 Clouds 18 1035 21 10000 6.69 280 18:18 13.09.2022
232 Clouds 11 1036 53 8000 3.09 280 15:55 13.09.2022
233 Clouds 8 1036 49 8000 1.03 0 14:36 13.09.2022
234 Clouds 8 1036 49 8000 1.03 0 14:36 13.09.2022
235 Fog 2 1035 93 4000 1.54 30 12:40 13.09.2022
236 Fog 4 1035 100 4000 2.06 70 08:50 13.09.2022
237 Clouds 7 1035 87 10000 3.09 90 05:45 13.09.2022
238 Clouds 17 1032 26 10000 4.63 320 00:22 13.09.2022
239 Clouds 19 1033 22 10000 5.66 300 22:50 12.09.2022
240 Clouds 19 1033 23 10000 7.72 260 21:37 12.09.2022
241 Clouds 19 1034 22 10000 5.66 270 20:25 12.09.2022
242 Clouds 16 1037 23 10000 7.2 280 18:44 12.09.2022
243 Clouds 13 1038 28 10000 3.09 290 16:38 12.09.2022
244 Clouds 8 1038 75 10000 1.03 0 14:36 12.09.2022
245 Clouds 4 1036 64 10000 2.57 360 11:29 12.09.2022
246 Clouds 2 1036 86 10000 1.54 20 09:46 12.09.2022
247 Clouds 7 1038 81 10000 1.03 0 04:50 12.09.2022
248 Clouds 7 1038 81 10000 1.03 0 04:20 12.09.2022
249 Clouds 20 1034 19 10000 4.63 300 23:23 11.09.2022
250 Clouds 20 1036 22 10000 5.14 290 21:59 11.09.2022
251 Clouds 19 1037 22 10000 5.14 260 20:47 11.09.2022
252 Clouds 19 1011 22 10000 4.12 290 19:53 11.09.2022
253 Clouds 19 1013 22 10000 4.12 290 19:22 11.09.2022
254 Clouds 17 1039 26 10000 4.12 250 18:20 11.09.2022
255 Clouds 13 1040 37 9000 1.54 200 16:34 11.09.2022
256 Clouds 8 1040 81 9000 1.54 120 14:19 11.09.2022
257 Fog 6 1038 100 4000 2.06 130 12:40 11.09.2022
258 Fog 6 1039 93 4000 3.09 70 08:48 11.09.2022
259 Fog 7 1040 93 4000 3.6 100 06:56 11.09.2022
260 Clouds 14 1036 54 10000 4.12 80 00:50 11.09.2022
261 Clouds 17 1036 38 10000 4.63 270 22:55 10.09.2022
262 Clouds 17 1037 44 10000 3.09 110 20:59 10.09.2022
263 Clouds 15 1039 50 10000 3.6 120 19:46 10.09.2022
264 Clouds 15 1039 50 10000 3.6 120 19:28 10.09.2022
265 Clouds 15 1040 54 10000 2.57 150 18:22 10.09.2022
266 Clouds 11 1040 61 8000 1.03 0 15:49 10.09.2022
267 Clouds 7 1040 87 6000 1.03 0 14:40 10.09.2022
268 Fog 5 1038 93 4000 2.06 120 12:52 10.09.2022
269 Fog 2 1037 93 3000 2.06 100 10:46 10.09.2022
270 Fog 2 1038 86 4000 1.03 0 09:28 10.09.2022
271 Clouds 5 1038 75 10000 1.03 0 08:27 10.09.2022
272 Clouds 5 1038 75 10000 2.57 60 05:50 10.09.2022
273 Clouds 16 1035 41 9000 6.17 290 00:19 10.09.2022
274 Clouds 17 1034 36 10000 4.63 90 23:31 09.09.2022
275 Clouds 17 1035 29 10000 4.63 100 21:38 09.09.2022
276 Clouds 18 1036 27 10000 4.12 340 20:31 09.09.2022
277 Clouds 17 1037 31 10000 4.12 80 19:24 09.09.2022
278 Clouds 16 1038 26 10000 4.63 130 18:38 09.09.2022
279 Clear 12 1038 32 10000 4.12 130 16:21 09.09.2022
280 Clear 0 1036 80 10000 2.06 110 13:48 09.09.2022
281 Clouds 1 1035 86 10000 3.09 100 11:52 09.09.2022
282 Fog 4 1035 93 4000 4.12 70 09:21 09.09.2022
283 Clouds 9 1034 45 10000 3.6 90 03:48 09.09.2022
284 Clouds 17 1033 25 10000 4.12 280 00:40 09.09.2022
285 Clouds 19 1034 19 10000 4.63 240 21:52 08.09.2022
286 Clouds 19 1035 19 10000 5.66 280 20:50 08.09.2022
287 Clouds 19 1035 19 10000 5.66 280 20:29 08.09.2022
288 Clouds 18 1036 20 10000 4.63 260 19:28 08.09.2022
289 Clouds 15 1038 22 10000 2.57 250 17:40 08.09.2022
290 Clear 13 1038 24 10000 2.06 220 16:19 08.09.2022
291 Clouds 2 1036 80 10000 2.06 360 13:56 08.09.2022
292 Clouds 2 1035 80 10000 1.54 10 12:50 08.09.2022
293 Clouds 1 1034 74 10000 1.54 10 11:32 08.09.2022
294 Clouds 3 1034 64 10000 2.06 10 09:57 08.09.2022
295 Clear 3 1036 64 10000 1.03 0 07:38 08.09.2022
296 Clear 3 1036 80 10000 1.03 0 04:53 08.09.2022
297 Clear 10 1034 31 10000 3.09 30 02:36 08.09.2022
298 Clear 10 1034 31 10000 3.09 30 02:18 08.09.2022
299 Clouds 19 1034 15 10000 4.12 300 23:25 07.09.2022
300 Clouds 20 1035 14 10000 4.63 260 21:46 07.09.2022
301 Clouds 20 1035 14 10000 4.63 260 21:24 07.09.2022
302 Clouds 19 1036 16 10000 4.12 290 20:29 07.09.2022
303 Clouds 18 1038 16 10000 2.57 260 19:20 07.09.2022
304 Clouds 13 1040 19 10000 1.03 0 16:30 07.09.2022
305 Clear 1 1037 59 10000 1.03 0 11:28 07.09.2022
306 Clear 1 1038 64 10000 1.03 0 10:32 07.09.2022
307 Clear 1 1038 59 10000 2.57 30 08:29 07.09.2022
308 Clear 2 1039 86 10000 3.6 70 06:31 07.09.2022
309 Clouds 15 1036 26 10000 5.14 120 00:38 07.09.2022
310 Clouds 17 1037 18 10000 1.03 0 21:56 06.09.2022
311 Clouds 17 1037 18 10000 1.03 0 21:33 06.09.2022
312 Clouds 16 1039 15 10000 2.57 250 19:39 06.09.2022
313 Clouds 14 1040 20 10000 3.09 260 18:40 06.09.2022
314 Clouds 12 1041 27 10000 2.57 260 17:39 06.09.2022
315 Clear 9 1041 57 10000 3.6 260 16:47 06.09.2022
316 Clear 6 1041 56 6000 1.03 0 15:58 06.09.2022
317 Fog 0 1040 93 3000 1.03 0 13:48 06.09.2022
318 Clouds -2 1039 93 6000 1.03 0 13:27 06.09.2022
319 Clouds -4 1038 100 10000 1.03 0 12:57 06.09.2022
320 Fog -1 1037 100 4000 2.57 80 10:55 06.09.2022
321 Fog 2 1038 93 4000 3.6 80 09:18 06.09.2022
322 Fog 4 1039 100 4000 3.09 80 07:52 06.09.2022
323 Fog 4 1039 100 4000 3.09 80 07:52 06.09.2022
324 Fog 5 1039 93 4000 4.12 80 06:18 06.09.2022
325 Clouds 15 1034 26 10000 5.66 290 00:45 06.09.2022
326 Clouds 17 1034 23 10000 6.17 290 22:43 05.09.2022
327 Clouds 17 1035 25 10000 8.75 300 21:38 05.09.2022
328 Clouds 15 1037 44 10000 6.69 290 19:56 05.09.2022
329 Clouds 13 1039 46 10000 4.12 310 18:51 05.09.2022
330 Clouds 13 1039 46 10000 4.12 310 18:24 05.09.2022
331 Clouds 9 1040 61 10000 2.06 350 17:35 05.09.2022
332 Clouds 6 1039 81 6000 4.12 130 15:53 05.09.2022
333 Fog 1 1037 100 4000 3.6 70 13:54 05.09.2022
334 Fog 1 1037 100 4000 3.09 70 12:29 05.09.2022
335 Fog 2 1036 100 4000 3.6 90 10:35 05.09.2022
336 Fog 3 1038 93 4000 3.6 100 07:44 05.09.2022
337 Clouds 8 1036 75 10000 5.14 110 02:58 05.09.2022
338 Clouds 17 1034 20 10000 5.66 290 23:48 04.09.2022
339 Clouds 17 1034 21 10000 6.69 300 22:28 04.09.2022
340 Clouds 16 1035 23 10000 7.2 300 21:41 04.09.2022
341 Clouds 15 1037 35 10000 5.66 300 19:39 04.09.2022
342 Clouds 14 1038 40 10000 5.14 250 18:21 04.09.2022
343 Clouds 12 1039 50 10000 2.06 10 17:22 04.09.2022
344 Fog 6 1038 87 4000 2.06 90 14:56 04.09.2022
345 Fog 6 1038 87 4000 2.06 90 14:18 04.09.2022
346 Fog 4 1037 100 4000 3.09 70 12:21 04.09.2022
347 Fog 6 1037 81 4000 2.57 130 10:47 04.09.2022
348 Fog 6 1037 93 4000 2.06 90 08:21 04.09.2022
349 Fog 6 1038 93 4000 3.6 140 05:36 04.09.2022
350 Clouds 9 1037 70 10000 5.14 120 01:31 04.09.2022
351 Clouds 17 1034 21 10000 5.14 300 22:26 03.09.2022
352 Clouds 18 1035 23 10000 6.17 290 21:23 03.09.2022
353 Clouds 14 1038 37 10000 6.17 300 19:56 03.09.2022
354 Clouds 11 1039 66 10000 3.09 130 17:29 03.09.2022
355 Clouds 12 1039 53 10000 1.54 290 16:33 03.09.2022
356 Clouds 5 1038 93 6000 2.06 80 14:46 03.09.2022
357 Clouds 5 1038 93 6000 2.06 80 14:26 03.09.2022
358 Fog 1 1037 100 4000 2.06 70 12:32 03.09.2022
359 Fog 3 1037 100 2000 2.06 60 10:49 03.09.2022
360 Clouds 6 1037 75 10000 2.57 360 08:41 03.09.2022
361 Fog 7 1039 87 4000 5.14 290 06:58 03.09.2022
362 Fog 7 1039 87 4000 1.03 0 04:38 03.09.2022
363 Clouds 12 1034 50 10000 4.12 10 00:32 03.09.2022
364 Clouds 14 1034 43 10000 5.66 20 23:20 02.09.2022
365 Clouds 12 1035 57 10000 4.63 100 20:59 02.09.2022
366 Clouds 12 1035 57 10000 4.63 100 20:39 02.09.2022
367 Clouds 13 1036 50 8000 4.12 120 19:30 02.09.2022
368 Clouds 14 1037 47 10000 3.6 100 18:43 02.09.2022
369 Clouds 14 1037 47 10000 3.6 100 18:24 02.09.2022
370 Clouds 11 1038 61 8000 2.57 140 16:48 02.09.2022
371 Clouds 10 1037 66 6000 3.09 110 15:21 02.09.2022
372 Fog 0 1035 93 10000 0 0 12:39 02.09.2022
373 Clouds 1 1035 86 10000 1.03 0 10:22 02.09.2022
374 Clouds 3 1035 86 10000 0 0 09:40 02.09.2022
375 Clouds 3 1036 93 10000 1.54 70 07:32 02.09.2022
376 Fog 4 1036 100 4000 3.6 90 06:38 02.09.2022
377 Clouds 8 1034 52 10000 2.57 80 02:52 02.09.2022
378 Clouds 17 1033 20 10000 5.66 290 22:30 01.09.2022
379 Clouds 18 1034 23 10000 5.66 300 21:43 01.09.2022
380 Clouds 18 1034 23 10000 5.66 300 21:25 01.09.2022
381 Clouds 17 1035 29 10000 6.17 280 20:43 01.09.2022
382 Clouds 15 1037 33 10000 6.17 290 18:54 01.09.2022
383 Clouds 13 1038 46 10000 4.63 280 17:21 01.09.2022
384 Clouds 10 1037 66 10000 3.6 290 15:47 01.09.2022
385 Clouds 2 1036 86 10000 1.03 0 13:55 01.09.2022
386 Clouds 5 1036 87 10000 1.03 0 12:57 01.09.2022
387 Clouds 5 1035 81 10000 1.03 0 11:52 01.09.2022
388 Clouds 5 1035 81 10000 1.03 0 11:30 01.09.2022
389 Clouds 6 1036 75 10000 4.12 360 09:49 01.09.2022
390 Thunderstorm 7 1037 80 10000 1.03 0 07:50 01.09.2022
391 Clouds 9 1037 65 10000 3.09 90 05:58 01.09.2022
392 Clouds 12 1034 50 10000 2.57 70 01:31 01.09.2022
393 Clouds 12 1034 50 10000 2.57 70 01:31 01.09.2022
394 Clouds 12 1034 50 10000 2.57 70 01:31 01.09.2022
395 Clouds 18 1033 29 10000 4.12 290 23:19 31.08.2022
396 Clouds 18 1036 25 10000 3.09 190 20:48 31.08.2022
397 Clouds 17 1037 26 10000 5.14 250 19:23 31.08.2022
398 Clouds 12 1040 32 8000 4.12 220 16:49 31.08.2022
399 Clouds 10 1040 42 8000 2.06 230 15:28 31.08.2022
400 Fog 1 1038 93 4000 2.57 90 13:38 31.08.2022
401 Fog 1 1038 93 4000 2.57 90 13:38 31.08.2022
402 Fog 2 1038 93 4000 3.09 80 12:18 31.08.2022
403 Clouds 2 1038 93 10000 1.54 90 09:36 31.08.2022
404 Clouds 3 1038 100 10000 3.09 80 08:31 31.08.2022
405 Clouds 10 1037 57 10000 3.6 100 02:59 31.08.2022
406 Clouds 17 1035 33 10000 3.6 100 22:29 30.08.2022
407 Clouds 17 1035 33 10000 3.6 100 22:29 30.08.2022
408 Clouds 18 1036 33 10000 4.12 120 21:29 30.08.2022
409 Clouds 17 1037 33 10000 3.6 100 20:35 30.08.2022
410 Clouds 11 1041 53 10000 1.03 0 16:58 30.08.2022
411 Fog 4 1040 93 4000 2.06 50 13:53 30.08.2022
412 Fog 4 1039 93 4000 2.57 70 12:25 30.08.2022
413 Fog 3 1038 93 4000 2.57 70 11:20 30.08.2022
414 Fog 4 1039 93 4000 1.54 50 09:39 30.08.2022
415 Fog 3 1041 93 4000 1.03 0 06:48 30.08.2022
416 Clouds 8 1039 65 10000 2.57 90 01:18 30.08.2022
417 Clouds 14 1037 40 10000 5.66 100 22:38 29.08.2022
418 Clouds 14 1038 43 10000 5.14 90 21:53 29.08.2022
419 Clouds 15 1039 41 10000 5.14 110 20:47 29.08.2022
420 Clouds 13 1041 54 10000 3.09 140 18:59 29.08.2022
421 Clouds 11 1041 61 8000 3.09 110 17:33 29.08.2022
422 Clouds 10 1041 61 6000 2.06 120 16:58 29.08.2022
423 Fog 7 1041 75 4000 1.03 0 15:19 29.08.2022
424 Fog 4 1041 93 4000 2.57 260 13:54 29.08.2022
425 Fog 3 1040 93 4000 1.03 0 12:24 29.08.2022
426 Fog 4 1040 87 4000 1.03 0 10:43 29.08.2022
427 Fog 3 1040 93 4000 1.03 0 09:18 29.08.2022
428 Clouds 6 1041 65 10000 4.63 50 06:52 29.08.2022
429 Clouds 7 1038 60 10000 4.12 60 02:25 29.08.2022
430 Clouds 11 1037 46 10000 8.23 80 23:33 28.08.2022
431 Clouds 15 1038 41 10000 7.2 60 21:47 28.08.2022
432 Clouds 15 1038 41 10000 7.2 60 21:25 28.08.2022
433 Clouds 15 1039 38 10000 8.23 60 20:18 28.08.2022
434 Clouds 14 1040 37 10000 9.77 60 18:22 28.08.2022
435 Clouds 13 1040 37 10000 8.75 60 17:50 28.08.2022
436 Clouds 12 1040 43 10000 7.2 60 16:42 28.08.2022
437 Clouds 6 1039 81 6000 5.66 80 14:46 28.08.2022
438 Clouds 6 1039 81 6000 5.66 80 14:46 28.08.2022
439 Mist 3 1037 100 1600 5.14 90 12:56 28.08.2022
440 Clouds 1 1036 80 10000 1.03 0 11:19 28.08.2022
441 Clouds 3 1036 51 10000 2.57 40 10:19 28.08.2022
442 Clouds 2 1037 93 10000 1.03 0 08:42 28.08.2022
443 Clouds 3 1038 80 10000 2.06 60 07:50 28.08.2022
444 Clouds 9 1036 33 10000 1.03 0 03:44 28.08.2022
445 Clouds 13 1035 37 10000 4.12 70 00:33 28.08.2022
446 Clouds 17 1034 25 10000 2.57 30 22:41 27.08.2022
447 Clouds 17 1034 25 10000 2.57 30 22:18 27.08.2022
448 Clouds 18 1036 18 10000 4.12 140 20:27 27.08.2022
449 Clouds 16 1038 17 8000 2.57 130 18:42 27.08.2022
450 Clear 14 1039 20 8000 2.06 110 16:25 27.08.2022
451 Clear 10 1039 29 8000 1.03 0 15:30 27.08.2022
452 Clouds 2 1037 69 10000 2.06 340 12:41 27.08.2022
453 Clouds 4 1037 60 10000 1.03 0 11:53 27.08.2022
454 Clouds 3 1037 60 10000 2.57 10 09:51 27.08.2022
455 Clouds 3 1037 60 10000 2.57 20 08:53 27.08.2022
456 Clouds 3 1037 69 10000 3.09 60 04:39 27.08.2022
457 Clouds 14 1034 30 10000 5.14 40 00:20 27.08.2022
458 Clouds 16 1034 26 10000 6.17 50 23:24 26.08.2022
459 Clouds 16 1035 24 10000 5.14 110 21:43 26.08.2022
460 Clouds 17 1037 26 10000 3.09 120 19:25 26.08.2022
461 Clouds 14 1039 26 8000 3.09 270 17:29 26.08.2022
462 Clouds 10 1039 34 8000 1.03 0 15:35 26.08.2022
463 Clear 7 1038 36 10000 1.03 0 14:42 26.08.2022
464 Clouds -3 1037 54 10000 2.06 40 12:53 26.08.2022
465 Clouds -2 1037 50 10000 2.06 40 11:35 26.08.2022
466 Clouds 0 1037 54 10000 1.03 0 10:46 26.08.2022
467 Clouds 1 1038 80 10000 3.09 60 07:31 26.08.2022
468 Clouds 8 1037 39 10000 2.57 20 02:31 26.08.2022
469 Clouds 18 1036 17 10000 4.12 310 23:44 25.08.2022
470 Clouds 18 1037 16 10000 4.63 230 21:37 25.08.2022
471 Clouds 18 1038 18 10000 3.09 110 20:50 25.08.2022
472 Clouds 17 1039 20 10000 3.09 170 19:20 25.08.2022
473 Clouds 13 1040 25 10000 3.09 180 17:59 25.08.2022
474 Clouds 13 1040 25 10000 3.09 180 17:31 25.08.2022
475 Clear 9 1040 31 6000 1.03 0 15:43 25.08.2022
476 Clear 9 1040 31 6000 1.03 0 15:25 25.08.2022
477 Clear -1 1038 50 10000 2.06 20 11:55 25.08.2022
478 Clear -3 1037 54 10000 0 0 10:48 25.08.2022
479 Clear 1 1038 59 10000 1.03 0 09:20 25.08.2022
480 Clear 7 1039 48 10000 3.09 150 05:39 25.08.2022
481 Clear 11 1037 29 10000 4.63 120 01:42 25.08.2022
482 Clouds 18 1036 13 10000 4.63 290 23:26 24.08.2022
483 Clouds 18 1036 16 10000 3.09 250 22:22 24.08.2022
484 Clouds 18 1037 14 10000 4.12 160 21:36 24.08.2022
485 Clouds 17 1038 17 10000 4.63 100 20:52 24.08.2022
486 Clouds 16 1040 10 10000 4.63 150 18:58 24.08.2022
487 Clear 14 1041 12 10000 3.09 120 16:37 24.08.2022
488 Clear 10 1041 17 10000 1.03 0 15:52 24.08.2022
489 Clouds -5 1039 42 10000 1.54 30 13:40 24.08.2022
490 Clouds -6 1038 49 10000 1.03 0 11:38 24.08.2022
491 Clouds -5 1038 53 10000 1.03 0 09:35 24.08.2022
492 Clouds 0 1038 59 10000 1.03 0 07:50 24.08.2022
493 Clouds 3 1036 37 10000 3.6 70 02:29 24.08.2022
494 Clouds 18 1035 12 10000 4.12 150 23:26 23.08.2022
495 Clouds 19 1035 10 10000 4.12 240 22:32 23.08.2022
496 Clouds 19 1036 10 10000 4.12 220 21:29 23.08.2022
497 Clouds 18 1037 11 10000 2.57 240 20:20 23.08.2022
498 Clouds 16 1039 9 10000 4.12 230 18:44 23.08.2022
499 Clouds 14 1040 13 10000 3.09 270 17:48 23.08.2022
500 Clouds 11 1040 27 10000 2.06 260 16:53 23.08.2022
501 Clouds 8 1039 36 10000 2.06 250 15:37 23.08.2022
502 Clouds -2 1037 74 10000 1.03 0 13:26 23.08.2022
503 Clouds -2 1037 74 10000 1.03 0 13:26 23.08.2022
504 Clouds -4 1036 53 10000 1.03 0 11:24 23.08.2022
505 Clouds -2 1036 63 10000 2.06 10 10:36 23.08.2022
506 Clear -1 1036 68 10000 2.06 20 09:52 23.08.2022
507 Clouds -2 1037 80 10000 2.57 60 08:51 23.08.2022
508 Clouds -2 1037 80 10000 2.57 60 08:20 23.08.2022
509 Clouds -1 1038 93 10000 2.57 80 07:34 23.08.2022
510 Clear 0 1038 93 10000 3.6 70 06:27 23.08.2022
511 Clouds 7 1037 56 10000 2.57 90 03:24 23.08.2022
512 Clouds 16 1033 10 10000 2.57 290 00:28 23.08.2022
513 Clouds 18 1033 10 10000 4.12 310 23:33 22.08.2022
514 Clouds 19 1033 10 10000 4.63 300 22:34 22.08.2022
515 Clouds 19 1034 11 10000 3.6 250 21:25 22.08.2022
516 Clouds 17 1036 15 10000 2.06 270 19:47 22.08.2022
517 Clouds 15 1038 18 10000 2.06 260 18:45 22.08.2022
518 Clouds 10 1038 34 10000 2.06 230 16:47 22.08.2022
519 Clouds 8 1038 39 10000 1.03 0 15:39 22.08.2022
520 Clouds 8 1038 39 10000 1.03 0 15:39 22.08.2022
521 Fog -3 1037 86 4000 2.57 90 13:47 22.08.2022
522 Clouds -4 1037 93 10000 1.54 20 10:38 22.08.2022
523 Clouds -2 1038 86 10000 2.57 80 07:58 22.08.2022
524 Clear 6 1037 30 10000 5.66 80 03:49 22.08.2022
525 Clouds 13 1035 25 10000 6.17 100 00:38 22.08.2022
526 Clouds 13 1035 25 10000 6.17 100 00:18 22.08.2022
527 Clouds 18 1035 11 10000 5.66 110 22:18 21.08.2022
528 Clouds 18 1035 12 10000 4.12 90 21:23 21.08.2022
529 Clouds 16 1037 21 10000 3.6 120 20:27 21.08.2022
530 Clouds 16 1038 24 10000 2.57 130 19:23 21.08.2022
531 Clear 11 1039 34 10000 1.03 0 16:54 21.08.2022
532 Clouds 8 1039 49 10000 1.03 0 15:53 21.08.2022
533 Clouds 8 1039 49 10000 1.03 0 15:18 21.08.2022
534 Clear -7 1037 73 10000 1.03 0 13:51 21.08.2022
535 Clouds -6 1037 67 10000 1.03 0 12:57 21.08.2022
536 Clouds -5 1036 79 10000 2.06 60 10:49 21.08.2022
537 Clear -5 1037 73 10000 0 0 09:24 21.08.2022
538 Clear -3 1037 68 10000 0 0 08:56 21.08.2022
539 Clear -3 1037 68 10000 0 0 08:38 21.08.2022
540 Clear -2 1038 80 10000 0 0 07:26 21.08.2022
541 Clear 6 1037 41 10000 4.63 70 02:52 21.08.2022
542 Clouds 16 1035 9 10000 3.09 80 23:44 20.08.2022
543 Clouds 17 1036 7 10000 3.6 140 22:23 20.08.2022
544 Clouds 16 1036 8 10000 4.12 160 21:22 20.08.2022
545 Clouds 15 1039 11 10000 3.09 170 19:49 20.08.2022
546 Clouds 15 1039 11 10000 3.09 170 19:21 20.08.2022
547 Clouds 14 1040 14 10000 2.57 210 18:27 20.08.2022
548 Clouds 11 1040 21 10000 2.57 240 17:25 20.08.2022
549 Clear 8 1041 31 10000 2.57 240 16:23 20.08.2022
550 Clouds 3 1039 19 10000 0 0 14:35 20.08.2022
551 Clouds -6 1037 38 10000 1.54 360 12:19 20.08.2022
552 Clear 1 1022 56 10000 0.63 234 11:42 20.08.2022
553 Clear 3 1022 70 10000 1.02 277 09:20 20.08.2022
554 Clouds -2 1038 93 10000 3.6 80 07:31 20.08.2022
555 Clear 0 1039 93 10000 4.12 70 05:22 20.08.2022
556 Clouds 10 1035 49 10000 5.66 100 00:58 20.08.2022
557 Clouds 12 1035 40 10000 5.66 100 23:51 19.08.2022
558 Clouds 13 1035 37 10000 4.12 100 22:45 19.08.2022
559 Clouds 14 1036 32 10000 4.12 150 21:30 19.08.2022
560 Clouds 17 1038 29 10000 3.09 80 19:22 19.08.2022
561 Clouds 9 1040 53 10000 3.09 210 16:23 19.08.2022
562 Fog -4 1038 79 4000 2.57 100 13:56 19.08.2022
563 Clouds -3 1037 68 10000 1.03 0 11:51 19.08.2022
564 Clouds 2 1037 64 10000 2.06 10 10:33 19.08.2022
565 Clouds 0 1038 74 10000 1.03 0 08:43 19.08.2022
566 Clouds 2 1038 59 10000 3.09 80 04:39 19.08.2022
567 Clouds 14 1035 17 10000 3.09 70 00:40 19.08.2022
568 Clouds 14 1035 17 10000 3.09 70 00:19 19.08.2022
569 Clouds 16 1034 12 10000 4.12 120 22:56 18.08.2022
570 Clouds 16 1034 12 10000 4.12 120 22:23 18.08.2022
571 Clouds 15 1035 10 10000 4.63 130 21:47 18.08.2022
572 Clouds 15 1036 18 10000 3.6 160 20:45 18.08.2022
573 Clouds 14 1037 11 10000 2.06 170 19:34 18.08.2022
574 Clouds 13 1037 7 10000 2.57 230 18:43 18.08.2022
575 Clouds 10 1038 10 10000 3.6 230 17:32 18.08.2022
576 Clouds 5 1038 11 10000 1.03 0 15:51 18.08.2022
577 Clouds 3 1037 15 10000 1.54 360 14:21 18.08.2022
578 Clouds 0 1036 26 10000 1.03 0 13:42 18.08.2022
579 Clouds -3 1036 18 10000 1.03 0 12:27 18.08.2022
580 Clouds 0 1036 20 10000 3.09 20 10:52 18.08.2022
581 Clouds -3 1037 21 10000 1.03 0 09:42 18.08.2022
582 Clear 3 1037 15 10000 1.03 0 07:26 18.08.2022
583 Clouds 5 1036 15 10000 4.12 240 05:30 18.08.2022
584 Clouds 15 1031 12 10000 6.69 300 00:23 18.08.2022
585 Clouds 17 1031 9 10000 7.72 300 22:20 17.08.2022
586 Clouds 17 1033 10 10000 8.23 290 20:20 17.08.2022
587 Clear 17 1034 10 10000 8.75 290 19:33 17.08.2022
588 Clouds 15 1034 10 10000 8.75 280 18:21 17.08.2022
589 Clear 12 1035 27 10000 6.17 280 16:50 17.08.2022
590 Clear 8 1035 42 10000 2.06 320 15:30 17.08.2022
591 Clouds 0 1033 74 10000 1.03 0 13:52 17.08.2022
592 Clouds -2 1033 58 10000 1.54 350 11:42 17.08.2022
593 Clouds 4 1033 35 10000 3.09 360 10:22 17.08.2022
594 Clear 5 1034 41 10000 3.09 10 08:24 17.08.2022
595 Clear 4 1033 75 10000 3.6 80 03:52 17.08.2022
596 Clouds 15 1032 13 10000 4.63 290 00:38 17.08.2022
597 Clouds 18 1032 11 10000 5.66 290 22:42 16.08.2022
598 Clouds 17 1034 12 10000 6.69 280 20:59 16.08.2022
599 Clouds 17 1034 11 10000 6.69 290 19:54 16.08.2022
600 Clouds 17 1034 11 10000 6.69 290 19:19 16.08.2022
601 Clouds 14 1036 19 10000 5.66 260 17:53 16.08.2022
602 Clouds 8 1036 24 10000 2.06 230 15:59 16.08.2022
603 Clouds 5 1036 25 10000 1.03 0 14:55 16.08.2022
604 Clouds 5 1036 25 10000 1.03 0 14:37 16.08.2022
605 Clouds -1 1035 36 10000 1.54 350 13:54 16.08.2022
606 Clouds 1 1035 37 10000 1.03 0 11:39 16.08.2022
607 Clouds 3 1036 34 10000 1.54 20 09:52 16.08.2022
608 Clouds 4 1036 30 10000 1.03 0 08:48 16.08.2022
609 Clouds 4 1036 30 10000 1.03 0 08:18 16.08.2022
610 Clouds 9 1036 16 10000 3.6 250 04:25 16.08.2022
611 Clouds 18 1034 14 10000 6.17 270 22:55 15.08.2022
612 Clouds 18 1035 16 10000 5.66 280 21:56 15.08.2022
613 Clouds 18 1035 16 10000 5.66 280 21:35 15.08.2022
614 Clouds 18 1036 13 10000 4.63 280 20:29 15.08.2022
615 Clouds 15 1038 14 10000 3.09 240 18:43 15.08.2022
616 Clouds 14 1039 13 10000 3.09 220 17:46 15.08.2022
617 Clear 11 1039 15 10000 2.57 190 16:22 15.08.2022
618 Clouds 2 1037 34 10000 2.57 10 13:58 15.08.2022
619 Clouds 2 1036 32 10000 1.54 360 12:38 15.08.2022
620 Clouds 6 1017 68 10000 1.21 240 10:18 15.08.2022
621 Clear -1 1037 80 10000 1.03 0 08:51 15.08.2022
622 Clear 4 1038 55 10000 2.06 90 06:33 15.08.2022
623 Clear 9 1035 36 10000 2.57 90 02:57 15.08.2022
624 Clouds 18 1035 12 10000 4.63 270 23:22 14.08.2022
625 Clouds 20 1036 11 10000 5.14 280 21:42 14.08.2022
626 Clouds 18 1037 13 10000 2.57 340 20:29 14.08.2022
627 Clouds 18 1038 17 10000 2.57 320 19:32 14.08.2022
628 Clouds 16 1039 21 10000 4.12 250 18:20 14.08.2022
629 Clear 14 1040 26 10000 2.57 250 17:22 14.08.2022
630 Clear 9 1040 39 10000 2.57 230 15:51 14.08.2022
631 Clear 7 1039 42 10000 2.06 360 14:38 14.08.2022
632 Clouds 5 1038 48 10000 2.57 10 13:50 14.08.2022
633 Clouds 5 1038 48 10000 2.57 10 13:26 14.08.2022
634 Clouds 3 1037 55 10000 2.57 20 12:34 14.08.2022
635 Clouds -1 1037 80 10000 1.03 0 11:20 14.08.2022
636 Clouds 2 1038 69 10000 2.06 10 08:56 14.08.2022
637 Clouds 0 1021 86 10000 2.57 60 06:23 14.08.2022
638 Clouds 0 1021 86 10000 2.57 60 06:23 14.08.2022
639 Clear 4 1038 51 10000 2.57 110 04:21 14.08.2022
640 Clouds 17 1035 12 10000 2.57 300 00:42 14.08.2022
641 Clouds 19 1036 10 10000 3.09 300 22:56 13.08.2022
642 Clouds 20 1037 10 10000 3.6 260 21:55 13.08.2022
643 Clouds 19 1038 10 10000 2.57 230 20:49 13.08.2022
644 Clouds 18 1039 12 10000 2.57 240 19:46 13.08.2022
645 Clouds 17 1040 14 10000 1.03 0 18:19 13.08.2022
646 Clouds 9 1040 26 10000 1.03 0 15:57 13.08.2022
647 Clouds 6 1039 38 10000 1.54 360 14:40 13.08.2022
648 Clouds 1 1039 51 10000 1.54 20 13:46 13.08.2022
649 Clouds 2 1038 47 10000 1.54 20 11:59 13.08.2022
650 Clear 4 1038 44 10000 2.06 10 10:44 13.08.2022
651 Clear 4 1038 48 10000 2.57 360 09:22 13.08.2022
652 Clear 2 1038 51 10000 1.54 20 05:59 13.08.2022
653 Clouds 16 1036 17 10000 3.6 300 00:36 13.08.2022
654 Clouds 18 1036 10 10000 3.09 220 22:26 12.08.2022
655 Clouds 19 1037 10 10000 4.63 200 21:20 12.08.2022
656 Clouds 17 1039 11 10000 4.12 250 19:44 12.08.2022
657 Clouds 15 1040 14 10000 3.6 200 18:58 12.08.2022
658 Clear 13 1040 19 10000 4.12 230 17:57 12.08.2022
659 Clear 11 1040 23 10000 2.57 240 16:24 12.08.2022
660 Clear 5 1039 25 10000 1.03 0 14:47 12.08.2022
661 Clear 0 1038 40 10000 2.57 20 12:59 12.08.2022
662 Clear 0 1038 34 10000 1.03 0 11:19 12.08.2022
663 Clear 1 1039 13 10000 1.03 0 08:47 12.08.2022
664 Clear 4 1039 13 10000 2.57 30 07:44 12.08.2022
665 Clear 8 1039 12 10000 2.06 20 03:41 12.08.2022
666 Clouds 16 1037 8 10000 5.66 110 00:31 12.08.2022
667 Clouds 18 1036 10 10000 4.63 120 23:40 11.08.2022
668 Clouds 19 1036 11 10000 3.6 110 22:35 11.08.2022
669 Clouds 18 1037 12 10000 4.12 120 21:43 11.08.2022
670 Clouds 18 1037 12 10000 4.12 120 21:19 11.08.2022
671 Clouds 18 1038 11 10000 3.09 170 20:27 11.08.2022
672 Clouds 17 1039 10 10000 3.6 140 19:33 11.08.2022
673 Clear 15 1040 12 10000 3.09 140 18:39 11.08.2022
674 Clear 11 1041 34 10000 1.03 0 16:38 11.08.2022
675 Clear 9 1040 39 10000 1.03 0 15:37 11.08.2022
676 Clear -3 1039 74 10000 1.03 0 13:51 11.08.2022
677 Clouds -4 1038 86 10000 2.06 20 11:26 11.08.2022
678 Clear 2 1040 100 10000 2.06 70 07:49 11.08.2022
679 Clear 6 1039 65 10000 3.6 60 03:57 11.08.2022
680 Clouds 11 1038 37 10000 3.6 120 01:54 11.08.2022
681 Clouds 17 1038 13 10000 3.09 250 22:38 10.08.2022
682 Clouds 17 1038 12 10000 4.12 230 21:44 10.08.2022
683 Clouds 16 1040 18 10000 3.09 230 20:55 10.08.2022
684 Clouds 15 1041 30 10000 2.06 120 19:32 10.08.2022
685 Clouds 13 1042 35 10000 2.57 230 18:42 10.08.2022
686 Clouds 10 1042 49 10000 1.03 0 16:55 10.08.2022
687 Clouds 0 1040 100 10000 2.06 90 13:36 10.08.2022
688 Fog 1 1040 100 4000 2.57 120 12:46 10.08.2022
689 Fog 5 1040 93 4000 4.12 110 09:55 10.08.2022
690 Fog 5 1040 100 4000 4.12 110 08:35 10.08.2022
691 Fog 5 1041 100 4000 4.63 100 07:20 10.08.2022
692 Clouds 5 1040 81 10000 2.57 70 03:32 10.08.2022
693 Clouds 15 1036 16 10000 4.63 320 23:51 09.08.2022
694 Clouds 15 1036 16 10000 4.63 320 23:24 09.08.2022
695 Clouds 15 1037 18 10000 7.2 300 21:36 09.08.2022
696 Clouds 15 1038 19 10000 7.72 290 20:36 09.08.2022
697 Clouds 14 1040 26 10000 6.17 270 18:45 09.08.2022
698 Clouds 12 1041 29 10000 5.66 270 17:31 09.08.2022
699 Clouds 10 1041 39 10000 4.12 290 16:42 09.08.2022
700 Clouds 8 1040 52 10000 3.09 300 15:58 09.08.2022
701 Clouds 0 1039 86 10000 0 0 13:51 09.08.2022
702 Clouds 3 1038 100 10000 2.57 330 09:56 09.08.2022
703 Clouds 4 1038 93 10000 1.54 360 08:50 09.08.2022
704 Clouds 4 1038 93 10000 4.12 40 07:54 09.08.2022
705 Clouds 2 1039 100 3000 5.14 210 04:28 09.08.2022
706 Clouds 14 1033 28 10000 6.17 310 23:35 08.08.2022
707 Clouds 14 1033 28 10000 7.2 290 22:56 08.08.2022
708 Clouds 14 1033 28 10000 7.2 290 22:22 08.08.2022
709 Clouds 14 1034 35 10000 6.17 320 21:22 08.08.2022
710 Clouds 8 1036 70 10000 6.17 340 19:51 08.08.2022
711 Clouds 10 1037 42 10000 5.66 320 18:50 08.08.2022
712 Clouds 11 1037 40 10000 3.6 290 16:44 08.08.2022
713 Clouds 9 1037 49 10000 3.09 330 15:40 08.08.2022
714 Clouds 6 1035 52 10000 2.06 320 13:55 08.08.2022
715 Clouds 6 1035 65 8000 2.06 320 12:19 08.08.2022
716 Fog 6 1035 93 4000 1.03 0 09:46 08.08.2022
717 Clouds 6 1035 81 10000 1.03 0 05:54 08.08.2022
718 Clouds 10 1034 29 10000 2.57 320 02:55 08.08.2022
719 Clouds 14 1033 19 10000 7.2 290 22:32 07.08.2022
720 Clouds 14 1033 19 10000 7.2 290 21:39 07.08.2022
721 Clouds 14 1034 20 10000 6.69 310 20:26 07.08.2022
722 Clouds 14 1034 20 10000 6.69 310 20:26 07.08.2022
723 Clouds 13 1035 20 10000 7.72 300 19:55 07.08.2022
724 Clouds 13 1035 20 10000 7.72 300 19:34 07.08.2022
725 Clouds 13 1036 24 10000 4.12 270 18:23 07.08.2022
726 Clouds 10 1037 21 10000 3.6 250 16:54 07.08.2022
727 Clouds 10 1037 21 10000 3.6 250 16:35 07.08.2022
728 Clouds 8 1036 26 10000 1.03 0 15:19 07.08.2022
729 Clouds 3 1035 37 10000 2.06 280 13:24 07.08.2022
730 Clouds 3 1034 40 10000 1.03 0 10:59 07.08.2022
731 Clouds 3 1034 40 10000 1.03 0 10:33 07.08.2022
732 Clouds 3 1036 21 10000 1.54 220 06:52 07.08.2022
733 Clouds 8 1035 39 10000 2.06 150 03:19 07.08.2022
734 Clouds 14 1032 20 10000 5.14 300 23:44 06.08.2022
735 Clouds 16 1032 19 10000 6.17 290 22:20 06.08.2022
736 Clouds 16 1034 24 10000 4.63 280 20:26 06.08.2022
737 Clouds 15 1035 35 10000 5.14 270 19:41 06.08.2022
738 Clouds 15 1035 35 10000 5.14 270 19:41 06.08.2022
739 Clouds 13 1036 43 10000 4.63 290 18:25 06.08.2022
740 Clouds 11 1037 53 10000 2.57 250 17:28 06.08.2022
741 Clouds 6 1036 93 10000 1.03 0 14:31 06.08.2022
742 Clouds 2 1035 93 10000 1.54 50 13:40 06.08.2022
743 Clouds 4 1034 93 10000 2.57 240 11:24 06.08.2022
744 Clouds 4 1035 93 10000 1.03 0 09:51 06.08.2022
745 Clouds 5 1035 100 10000 0 0 08:28 06.08.2022
746 Clouds 8 1034 93 10000 4.12 110 03:35 06.08.2022
747 Clouds 16 1031 24 10000 5.14 280 23:32 05.08.2022
748 Clouds 16 1032 30 10000 6.17 280 21:54 05.08.2022
749 Clouds 16 1035 30 10000 4.12 260 19:32 05.08.2022
750 Clouds 16 1036 33 10000 3.6 310 18:44 05.08.2022
751 Clouds 13 1037 50 10000 1.03 0 17:27 05.08.2022
752 Clouds 11 1037 61 8000 1.03 0 16:48 05.08.2022
753 Clouds 9 1036 70 6000 1.03 0 15:21 05.08.2022
754 Fog 4 1036 100 3000 2.57 60 13:53 05.08.2022
755 Fog 4 1036 100 3000 2.57 60 13:22 05.08.2022
756 Fog 3 1035 100 4000 2.57 100 12:24 05.08.2022
757 Clouds 0 1035 100 10000 2.06 90 10:35 05.08.2022
758 Fog 5 1037 93 4000 2.57 290 07:58 05.08.2022
759 Clouds 3 1036 100 10000 2.57 70 05:32 05.08.2022
760 Clouds 15 1033 30 10000 3.09 160 00:30 05.08.2022
761 Clouds 20 1033 10 10000 3.09 310 22:25 04.08.2022
762 Clouds 19 1033 15 10000 4.12 150 21:25 04.08.2022
763 Clouds 18 1034 20 10000 2.06 80 20:42 04.08.2022
764 Clouds 17 1035 21 10000 3.09 160 19:23 04.08.2022
765 Clouds 16 1037 24 10000 3.6 130 18:35 04.08.2022
766 Clouds 14 1037 37 10000 2.06 190 17:31 04.08.2022
767 Clouds -3 1035 100 10000 0 0 13:57 04.08.2022
768 Clouds -4 1035 100 10000 0 0 12:43 04.08.2022
769 Clear 4 1018 87 10000 0.19 213 10:50 04.08.2022
770 Clouds -1 1036 100 10000 2.06 70 07:52 04.08.2022
771 Clouds 5 1036 100 10000 3.6 80 04:30 04.08.2022
772 Clouds 7 1034 75 10000 3.6 80 02:20 04.08.2022
773 Clouds 18 1032 10 10000 5.66 300 23:43 03.08.2022
774 Clouds 19 1034 14 10000 5.14 270 21:50 03.08.2022
775 Clouds 18 1035 16 10000 5.14 280 20:45 03.08.2022
776 Clouds 17 1036 21 10000 5.14 280 19:29 03.08.2022
777 Clouds 15 1037 33 10000 5.14 290 17:58 03.08.2022
778 Clouds 12 1038 50 10000 2.57 260 16:24 03.08.2022
779 Clouds 12 1038 50 10000 2.57 260 16:24 03.08.2022
780 Clouds 5 1036 87 10000 2.06 340 14:44 03.08.2022
781 Clouds 3 1035 93 10000 2.06 280 11:53 03.08.2022
782 Fog 4 1036 100 4000 3.6 100 08:20 03.08.2022
783 Clouds 8 1037 70 8000 1.03 0 04:46 03.08.2022
784 Clouds 8 1035 70 10000 3.6 110 03:27 03.08.2022
785 Clouds 10 1033 49 10000 4.12 90 01:18 03.08.2022
786 Clouds 10 1033 49 10000 4.12 90 01:18 03.08.2022
787 Clouds 10 1033 49 10000 4.12 90 01:18 03.08.2022
788 Clouds 19 1032 19 10000 5.66 110 22:59 02.08.2022
789 Clouds 19 1032 17 10000 5.14 110 21:53 02.08.2022
790 Clouds 18 1034 18 10000 3.6 150 20:58 02.08.2022
791 Clouds 17 1035 23 10000 2.57 120 18:48 02.08.2022
792 Clouds 13 1037 20 10000 1.03 0 16:24 02.08.2022
793 Clouds -2 1034 54 10000 1.03 0 12:34 02.08.2022
794 Clouds -1 1035 63 10000 2.57 30 09:34 02.08.2022
795 Clouds -1 1036 93 10000 2.57 70 07:54 02.08.2022
796 Clouds 3 1036 93 10000 3.09 40 06:43 02.08.2022
797 Clouds 3 1035 86 10000 3.6 70 04:55 02.08.2022
798 Clouds 19 1033 13 10000 4.63 270 23:51 01.08.2022
799 Clouds 19 1034 10 10000 4.12 310 22:25 01.08.2022
800 Clouds 19 1035 10 10000 3.6 230 20:52 01.08.2022
801 Clear 19 1036 10 10000 2.57 290 19:25 01.08.2022
802 Clear 17 1037 10 10000 2.06 270 18:31 01.08.2022
803 Clear 11 1038 15 10000 2.06 220 16:53 01.08.2022
804 Clear 11 1037 10 10000 2.57 290 15:52 01.08.2022
805 Clear 11 1037 10 10000 2.57 290 15:30 01.08.2022
806 Clear 6 1037 17 10000 2.06 30 14:20 01.08.2022
807 Clear 4 1036 21 10000 2.57 10 11:50 01.08.2022
808 Clear 4 1012 23 10000 2.06 10 09:40 01.08.2022
809 Clear 3 1037 34 10000 2.06 340 08:25 01.08.2022
810 Clear 8 1036 10 10000 4.12 70 04:48 01.08.2022
811 Clear 11 1035 15 10000 4.12 20 02:32 01.08.2022
812 Clouds 21 1034 10 10000 3.6 100 23:54 31.07.2022
813 Clouds 21 1034 10 10000 3.09 300 22:38 31.07.2022
814 Clouds 21 1035 10 10000 4.63 270 21:24 31.07.2022
815 Clear 18 1037 12 10000 3.6 200 19:41 31.07.2022
816 Clear 16 1039 14 10000 2.57 220 17:48 31.07.2022
817 Clear 10 1039 21 10000 2.57 230 15:37 31.07.2022
818 Clear 3 1037 25 10000 2.57 350 13:42 31.07.2022
819 Clear 4 1036 23 10000 2.06 350 11:55 31.07.2022
820 Clear 3 1037 25 10000 2.06 40 09:36 31.07.2022
821 Clouds 3 1038 19 10000 1.03 0 06:48 31.07.2022
822 Clear 10 1037 13 10000 2.57 10 02:57 31.07.2022
823 Clouds 19 1036 9 10000 3.09 130 23:35 30.07.2022
824 Clouds 20 1036 9 10000 2.57 130 22:19 30.07.2022
825 Clouds 19 1036 9 10000 4.12 150 21:47 30.07.2022
826 Clouds 19 1037 10 10000 4.12 130 20:56 30.07.2022
827 Clouds 18 1038 13 10000 4.12 130 19:58 30.07.2022
828 Clouds 17 1039 13 10000 3.6 130 18:51 30.07.2022
829 Clouds 15 1040 19 10000 2.57 170 17:41 30.07.2022
830 Clouds 10 1039 25 10000 2.57 240 15:38 30.07.2022
831 Clouds 7 1038 26 10000 2.57 10 14:53 30.07.2022
832 Clouds 1 1037 43 10000 1.03 0 12:47 30.07.2022
833 Clear 5 1036 32 10000 2.06 10 11:55 30.07.2022
834 Clear 5 1036 38 10000 3.09 10 10:25 30.07.2022
835 Clear 6 1037 35 10000 3.6 10 09:45 30.07.2022
836 Clear 1 1038 74 10000 1.03 0 07:47 30.07.2022
837 Clear 7 1037 48 10000 1.03 0 02:34 30.07.2022
838 Clear 9 1036 36 10000 2.06 90 01:43 30.07.2022
839 Clear 19 1037 10 10000 3.6 130 21:39 29.07.2022
840 Clear 20 1037 10 10000 2.06 300 20:58 29.07.2022
841 Clouds 18 1039 11 10000 2.06 320 19:48 29.07.2022
842 Clear 15 1040 14 10000 2.06 280 17:40 29.07.2022
843 Clear 6 1039 26 10000 1.03 0 14:53 29.07.2022
844 Clouds 3 1038 25 10000 2.57 10 12:58 29.07.2022
845 Clouds 3 1038 25 10000 2.57 360 09:35 29.07.2022
846 Clouds 0 1039 34 10000 2.06 30 08:46 29.07.2022
847 Clouds 0 1039 46 10000 1.03 0 07:39 29.07.2022
848 Clouds 14 1037 10 10000 3.09 130 01:46 29.07.2022
849 Clouds 20 1038 10 10000 2.06 190 21:57 28.07.2022
850 Clouds 19 1038 10 10000 2.06 190 20:55 28.07.2022
851 Clouds 19 1038 10 10000 2.06 190 20:22 28.07.2022
852 Clouds 18 1040 10 10000 2.06 210 19:41 28.07.2022
853 Clouds 17 1041 12 10000 2.57 230 18:26 28.07.2022
854 Clouds 15 1041 15 10000 2.57 250 17:42 28.07.2022
855 Clouds 13 1041 13 10000 2.57 240 16:41 28.07.2022
856 Clouds 5 1040 15 10000 2.06 10 14:50 28.07.2022
857 Clouds 2 1038 23 10000 2.57 10 12:41 28.07.2022
858 Clouds 3 1039 19 10000 2.06 10 09:34 28.07.2022
859 Clear 1 1040 31 10000 1.03 0 05:45 28.07.2022
860 Clear 1 1040 31 10000 1.03 0 05:24 28.07.2022
861 Clear 15 1038 18 10000 4.63 120 00:44 28.07.2022
862 Clear 18 1038 13 10000 3.6 120 22:26 27.07.2022
863 Clear 19 1039 13 10000 3.6 150 20:20 27.07.2022
864 Clear 18 1040 13 10000 2.57 140 19:32 27.07.2022
865 Clear 10 1042 36 10000 2.57 240 16:34 27.07.2022
866 Clear 8 1041 36 10000 1.03 0 15:51 27.07.2022
867 Clear 4 1040 30 10000 2.57 360 14:42 27.07.2022
868 Clouds -5 1039 63 10000 1.03 0 13:58 27.07.2022
869 Clouds 0 1039 54 10000 2.06 10 11:49 27.07.2022
870 Clouds 0 1040 93 10000 3.09 80 07:53 27.07.2022
871 Clouds 3 1040 93 10000 2.57 90 05:23 27.07.2022
872 Clouds 16 1037 30 10000 4.12 110 23:41 26.07.2022
873 Clouds 16 1037 35 10000 5.14 130 22:20 26.07.2022
874 Clouds 17 1038 31 10000 4.12 130 21:18 26.07.2022
875 Clouds 16 1039 35 10000 3.6 120 19:33 26.07.2022
876 Clouds 15 1040 38 10000 2.57 140 18:41 26.07.2022
877 Clouds 12 1041 53 10000 3.6 160 17:54 26.07.2022
878 Clouds 7 1040 87 6000 3.09 110 15:46 26.07.2022
879 Fog 4 1039 93 4000 3.09 90 14:43 26.07.2022
880 Fog -1 1037 100 500 2.06 110 12:35 26.07.2022
881 Clouds -2 1037 100 10000 1.54 50 10:32 26.07.2022
882 Fog 0 1038 100 4000 2.57 80 08:27 26.07.2022
883 Clouds 10 1036 53 10000 3.6 100 01:55 26.07.2022
884 Clouds 13 1035 32 10000 4.12 70 00:21 26.07.2022
885 Clouds 18 1035 21 10000 4.63 110 22:40 25.07.2022
886 Clouds 18 1036 18 10000 5.14 130 21:43 25.07.2022
887 Clouds 17 1037 17 10000 5.14 120 20:43 25.07.2022
888 Clouds 17 1037 17 10000 5.14 120 20:24 25.07.2022
889 Clouds 17 1038 17 10000 5.14 140 19:24 25.07.2022
890 Clouds 15 1039 18 10000 2.57 160 17:42 25.07.2022
891 Clouds 12 1040 22 10000 1.03 0 16:44 25.07.2022
892 Clouds 2 1038 43 10000 1.03 0 13:27 25.07.2022
893 Clear 3 1037 51 10000 1.03 0 10:54 25.07.2022
894 Clouds 2 1039 93 10000 2.57 70 07:53 25.07.2022
895 Clouds 17 1035 13 10000 3.09 260 00:57 25.07.2022
896 Clouds 18 1034 12 10000 4.12 260 23:45 24.07.2022
897 Clouds 19 1035 12 10000 4.12 280 22:44 24.07.2022
898 Clouds 19 1035 11 10000 3.09 240 21:41 24.07.2022
899 Clouds 17 1036 14 10000 3.09 140 20:58 24.07.2022
900 Clouds 17 1036 14 10000 3.09 140 20:37 24.07.2022
901 Clouds 17 1037 13 10000 2.57 240 19:18 24.07.2022
902 Clear 11 1039 18 10000 2.06 230 16:54 24.07.2022
903 Clear 9 1038 23 10000 1.03 0 15:54 24.07.2022
904 Clear 6 1038 35 10000 1.03 0 14:41 24.07.2022
905 Clear 3 1020 40 10000 2.57 20 13:47 24.07.2022
906 Clear 3 1036 40 10000 2.57 360 12:19 24.07.2022
907 Clear 1 1036 47 10000 2.57 360 11:29 24.07.2022
908 Clear 5 1036 35 10000 3.09 10 09:33 24.07.2022
909 Clouds -1 1036 63 10000 3.09 70 07:53 24.07.2022
910 Clouds 1 1036 59 10000 2.57 50 06:55 24.07.2022
911 Clouds 4 1035 38 10000 3.09 80 02:41 24.07.2022
912 Clouds 19 1034 10 10000 3.6 280 22:45 23.07.2022
913 Clouds 18 1036 14 10000 3.6 150 20:47 23.07.2022
914 Clear 16 1038 13 10000 3.09 250 18:59 23.07.2022
915 Clouds 14 1038 16 10000 1.54 180 17:58 23.07.2022
916 Clouds 14 1038 16 10000 1.54 180 17:25 23.07.2022
917 Clouds 11 1038 18 10000 2.57 230 16:21 23.07.2022
918 Clear 8 1038 26 8000 1.03 0 15:21 23.07.2022
919 Clear 6 1037 28 10000 2.57 10 14:50 23.07.2022
920 Clouds 1 1036 37 10000 1.54 10 13:54 23.07.2022
921 Clouds 0 1035 40 10000 2.06 360 11:47 23.07.2022
922 Clouds 2 1035 37 10000 2.57 20 10:28 23.07.2022
923 Clouds -3 1036 58 10000 2.57 70 09:26 23.07.2022
924 Clouds -2 1036 46 10000 3.09 70 05:58 23.07.2022
925 Clear 6 1036 22 10000 2.57 70 02:54 23.07.2022
926 Clear 18 1034 11 10000 4.12 270 23:59 22.07.2022
927 Clear 19 1035 10 10000 3.6 250 21:28 22.07.2022
928 Clear 17 1038 10 10000 4.63 290 19:58 22.07.2022
929 Clear 15 1014 11 10000 1.84 112 18:41 22.07.2022
930 Clear 14 1039 13 10000 3.6 270 17:38 22.07.2022
931 Clear 10 1038 21 8000 1.03 0 15:30 22.07.2022
932 Clear -1 1036 43 10000 1.03 0 12:33 22.07.2022
933 Clear -4 1036 53 10000 0 0 09:45 22.07.2022
934 Clear 5 1019 44 10000 1.82 44 09:19 22.07.2022
935 Clouds -1 1037 39 10000 1.54 90 07:23 22.07.2022
936 Clouds 5 1037 32 10000 2.06 40 04:18 22.07.2022
937 Clouds 19 1035 10 10000 2.06 340 22:56 21.07.2022
938 Clouds 19 1036 10 10000 2.06 210 21:35 21.07.2022
939 Clouds 17 1038 10 10000 2.57 190 19:31 21.07.2022
940 Clouds 16 1039 12 10000 3.09 230 18:29 21.07.2022
941 Clouds 15 1039 14 10000 1.03 0 17:20 21.07.2022
942 Clouds 11 1040 13 10000 1.03 0 15:39 21.07.2022
943 Clouds 5 1039 22 10000 2.57 10 14:44 21.07.2022
944 Clouds 2 1038 32 10000 2.57 360 12:54 21.07.2022
945 Clouds -2 1037 36 10000 1.03 0 11:23 21.07.2022
946 Clouds -1 1037 46 10000 1.03 0 09:42 21.07.2022
947 Clouds 5 1038 35 10000 3.09 20 08:52 21.07.2022
948 Clouds 1 1039 47 10000 2.57 40 07:50 21.07.2022
949 Clear 6 1039 35 10000 3.09 20 06:24 21.07.2022
950 Clouds 10 1038 29 10000 1.03 0 01:42 21.07.2022
951 Clouds 18 1036 11 10000 4.12 140 22:22 20.07.2022
952 Clouds 18 1037 12 10000 3.6 220 21:30 20.07.2022
953 Clouds 17 1039 13 10000 2.06 160 19:54 20.07.2022
954 Clouds 17 1039 13 10000 2.06 160 19:25 20.07.2022
955 Clouds 15 1040 16 10000 3.09 220 18:51 20.07.2022
956 Clouds 15 1040 16 10000 3.09 220 18:22 20.07.2022
957 Clouds 10 1040 25 10000 3.09 250 16:46 20.07.2022
958 Clouds 6 1040 41 10000 1.03 0 15:32 20.07.2022
959 Clouds 4 1039 18 10000 2.06 360 14:20 20.07.2022
960 Clouds -4 1038 53 10000 1.03 0 11:55 20.07.2022
961 Clouds -4 1039 93 10000 1.03 0 09:43 20.07.2022
962 Clouds 0 1040 100 10000 2.57 70 04:36 20.07.2022
963 Clouds 12 1039 50 10000 4.12 110 00:52 20.07.2022
964 Clouds 13 1038 46 10000 4.63 120 23:41 19.07.2022
965 Clouds 14 1038 40 10000 4.12 110 22:33 19.07.2022
966 Clouds 16 1039 35 10000 4.12 100 21:35 19.07.2022
967 Clouds 15 1040 41 10000 4.12 120 20:33 19.07.2022
968 Clouds 13 1042 54 10000 3.09 150 18:58 19.07.2022
969 Clouds 13 1042 54 10000 3.09 150 18:28 19.07.2022
970 Clouds 11 1042 61 10000 2.57 190 16:37 19.07.2022
971 Clouds 4 1041 64 10000 1.03 0 14:53 19.07.2022
972 Clouds -2 1040 86 10000 0 0 11:43 19.07.2022
973 Clouds 3 1040 86 10000 1.54 350 10:52 19.07.2022
974 Fog 0 1040 93 4000 0 0 09:23 19.07.2022
975 Fog 2 1041 100 4000 1.03 0 08:38 19.07.2022
976 Fog 5 1041 100 4000 1.03 0 07:19 19.07.2022
977 Fog 6 1041 100 3000 4.63 100 05:28 19.07.2022
978 Fog 6 1041 100 3000 4.63 80 04:53 19.07.2022
979 Clouds 13 1039 35 10000 4.12 20 00:38 19.07.2022
980 Clouds 15 1039 38 10000 3.6 60 23:36 18.07.2022
981 Clouds 15 1039 38 10000 3.6 60 23:18 18.07.2022
982 Clouds 16 1039 35 10000 3.09 150 21:58 18.07.2022
983 Clouds 16 1039 33 10000 3.09 160 20:51 18.07.2022
984 Clouds 14 1040 40 10000 2.57 180 19:26 18.07.2022
985 Clouds 11 1042 57 10000 2.57 250 17:24 18.07.2022
986 Clouds 5 1042 87 6000 1.03 0 15:51 18.07.2022
987 Clouds 4 1041 93 6000 1.03 0 14:30 18.07.2022
988 Fog 1 1039 93 4000 1.03 0 12:58 18.07.2022
989 Fog 4 1039 87 4000 2.06 20 11:30 18.07.2022
990 Fog 6 1039 100 4000 4.63 100 08:54 18.07.2022
991 Fog 6 1039 100 3000 4.12 100 07:28 18.07.2022
992 Clouds 16 1035 15 10000 4.12 280 00:42 18.07.2022
993 Clouds 18 1035 12 10000 8.23 290 22:37 17.07.2022
994 Clouds 16 1036 24 10000 8.23 310 21:49 17.07.2022
995 Clouds 16 1036 24 10000 8.23 310 21:18 17.07.2022
996 Clouds 18 1037 18 10000 8.23 280 20:37 17.07.2022
997 Clouds 17 1037 23 10000 6.17 290 19:29 17.07.2022
998 Clouds 15 1038 35 10000 5.66 290 18:27 17.07.2022
999 Clouds 13 1039 43 10000 3.6 260 17:38 17.07.2022
1000 Clouds 10 1039 53 10000 1.03 0 16:50 17.07.2022
1001 Clouds 10 1039 53 10000 1.03 0 16:26 17.07.2022
1002 Clouds 3 1038 100 10000 1.03 0 14:44 17.07.2022
1003 Fog -5 1037 100 500 1.03 0 13:31 17.07.2022
1004 Clouds -1 1036 93 10000 2.57 60 11:35 17.07.2022
1005 Clouds -1 1037 74 10000 2.06 50 08:57 17.07.2022
1006 Clear 1 1036 29 10000 2.57 80 03:43 17.07.2022
1007 Clear 3 1035 29 10000 2.06 40 02:32 17.07.2022
1008 Clouds 15 1034 9 10000 7.2 300 23:20 16.07.2022
1009 Clouds 16 1034 9 10000 7.2 300 21:25 16.07.2022
1010 Clouds 14 1036 8 10000 6.69 280 19:26 16.07.2022
1011 Clouds 13 1037 7 10000 4.12 270 18:27 16.07.2022
1012 Clouds 9 1038 12 10000 1.03 0 16:31 16.07.2022
1013 Clouds -2 1036 28 10000 1.03 0 13:47 16.07.2022
1014 Clouds -2 1035 39 10000 2.06 280 10:50 16.07.2022
1015 Clouds -4 1035 38 10000 1.03 0 09:32 16.07.2022
1016 Clouds 1 1036 34 10000 1.54 10 08:43 16.07.2022
1017 Clouds -3 1036 36 10000 0 0 07:59 16.07.2022
1018 Clouds 8 1035 21 10000 2.57 220 03:41 16.07.2022
1019 Clouds 9 1034 14 10000 2.06 330 02:35 16.07.2022
1020 Clouds 15 1033 10 10000 8.23 300 23:28 15.07.2022
1021 Clouds 16 1033 10 10000 7.2 300 22:38 15.07.2022
1022 Clouds 15 1033 12 10000 7.2 300 21:24 15.07.2022
1023 Clouds 14 1035 14 10000 7.72 290 19:59 15.07.2022
1024 Clouds 14 1036 20 10000 7.2 280 18:35 15.07.2022
1025 Clouds 11 1036 31 10000 7.72 280 17:34 15.07.2022
1026 Clouds 3 1035 37 10000 3.09 280 14:48 15.07.2022
1027 Clouds -3 1035 42 10000 1.03 0 12:49 15.07.2022
1028 Clouds -3 1035 36 10000 1.03 0 10:54 15.07.2022
1029 Clouds 2 1036 25 10000 2.57 10 08:49 15.07.2022
1030 Clouds 4 1037 23 10000 2.57 280 05:55 15.07.2022
1031 Clouds 12 1034 12 10000 6.17 300 00:52 15.07.2022
1032 Clouds 14 1034 12 10000 5.14 290 23:35 14.07.2022
1033 Clouds 16 1033 11 10000 6.17 300 22:42 14.07.2022
1034 Clouds 15 1034 13 10000 7.72 280 21:43 14.07.2022
1035 Clouds 15 1034 13 10000 7.72 280 21:24 14.07.2022
1036 Clouds 16 1035 11 10000 8.75 300 20:43 14.07.2022
1037 Clouds 16 1035 11 10000 8.75 300 20:19 14.07.2022
1038 Clouds 14 1037 16 10000 8.23 300 18:41 14.07.2022
1039 Clouds 10 1037 23 10000 5.66 270 16:21 14.07.2022
1040 Clouds 8 1037 22 10000 5.14 290 15:26 14.07.2022
1041 Clouds 3 1035 29 10000 2.57 320 13:52 14.07.2022
1042 Clouds 0 1035 37 10000 1.03 0 12:40 14.07.2022
1043 Clouds 2 1035 29 10000 2.57 320 11:41 14.07.2022
1044 Clouds 2 1035 29 10000 2.57 320 11:21 14.07.2022
1045 Clouds 4 1036 41 10000 2.06 360 09:29 14.07.2022
1046 Clouds 5 1037 30 10000 1.03 0 05:20 14.07.2022
1047 Clouds 12 1034 29 10000 3.09 290 01:22 14.07.2022
1048 Clouds 15 1033 24 10000 6.69 310 00:52 14.07.2022
1049 Clouds 16 1034 26 10000 8.75 310 22:32 13.07.2022
1050 Clouds 17 1034 29 10000 7.72 300 21:51 13.07.2022
1051 Clouds 16 1035 30 10000 9.26 280 20:44 13.07.2022
1052 Clouds 15 1037 35 10000 9.26 300 18:48 13.07.2022
1053 Clouds 14 1037 47 10000 5.66 270 17:34 13.07.2022
1054 Clouds 11 1038 61 10000 4.63 280 16:19 13.07.2022
1055 Clouds 5 1036 100 9000 1.03 0 14:54 13.07.2022
1056 Fog 6 1035 100 4000 2.06 80 11:56 13.07.2022
1057 Fog 6 1035 100 4000 1.54 90 10:45 13.07.2022
1058 Fog 6 1035 93 4000 2.06 60 09:56 13.07.2022
1059 Fog 6 1035 93 4000 2.06 60 09:20 13.07.2022
1060 Fog 6 1037 100 4000 2.06 90 05:29 13.07.2022
1061 Clouds 10 1035 71 10000 2.06 330 01:27 13.07.2022
1062 Clouds 16 1034 41 10000 5.14 280 23:39 12.07.2022
1063 Clouds 17 1034 31 10000 5.66 270 21:54 12.07.2022
1064 Clouds 17 1034 31 10000 5.66 270 21:18 12.07.2022
1065 Clouds 17 1036 26 10000 4.12 240 20:41 12.07.2022
1066 Clouds 13 1037 28 10000 3.6 240 18:56 12.07.2022
1067 Clouds 11 1038 25 10000 1.03 0 17:38 12.07.2022
1068 Clouds 7 1038 24 10000 1.03 0 15:42 12.07.2022
1069 Clouds 4 1037 30 10000 1.03 0 14:23 12.07.2022
1070 Clouds -6 1036 53 10000 0 0 12:19 12.07.2022
1071 Clouds -6 1036 62 10000 1.54 60 10:51 12.07.2022
1072 Clouds -4 1036 73 10000 2.57 70 09:22 12.07.2022
1073 Clouds -4 1037 63 10000 3.09 60 08:18 12.07.2022
1074 Clear 3 1037 19 10000 1.54 60 05:57 12.07.2022
1075 Clear 3 1037 19 10000 1.54 60 05:39 12.07.2022
1076 Clear 10 1035 15 10000 3.09 280 01:43 12.07.2022
1077 Clouds 16 1034 10 10000 4.63 260 22:52 11.07.2022
1078 Clouds 16 1035 9 10000 6.17 280 21:44 11.07.2022
1079 Clouds 16 1035 9 10000 6.17 270 20:33 11.07.2022
1080 Clouds 15 1036 11 10000 7.2 290 19:32 11.07.2022
1081 Clouds 12 1038 13 10000 6.17 300 18:32 11.07.2022
1082 Clouds 11 1038 18 10000 7.72 300 17:31 11.07.2022
1083 Clouds 7 1038 33 10000 4.12 300 15:46 11.07.2022
1084 Clouds -3 1036 63 10000 0 0 13:39 11.07.2022
1085 Clouds 1 1036 51 10000 0 0 11:38 11.07.2022
1086 Clouds -2 1035 63 10000 1.03 0 10:18 11.07.2022
1087 Clouds 3 1036 47 10000 1.03 0 09:41 11.07.2022
1088 Clouds 3 1036 47 10000 2.06 30 08:33 11.07.2022
1089 Clouds 9 1035 36 10000 2.57 340 03:23 11.07.2022
1090 Clouds 14 1034 24 10000 5.66 290 00:20 11.07.2022
1091 Clouds 16 1035 21 10000 7.2 280 22:55 10.07.2022
1092 Clouds 16 1036 21 10000 8.23 270 21:39 10.07.2022
1093 Clouds 16 1037 26 10000 7.72 320 20:41 10.07.2022
1094 Clouds 16 1038 28 10000 6.69 280 19:48 10.07.2022
1095 Clouds 15 1039 33 10000 7.72 280 18:43 10.07.2022
1096 Clouds 14 1039 35 10000 5.14 290 17:36 10.07.2022
1097 Clouds 13 1040 40 10000 3.6 250 16:41 10.07.2022
1098 Clouds 10 1039 49 10000 1.54 30 15:24 10.07.2022
1099 Clouds 0 1038 86 10000 1.03 0 13:48 10.07.2022
1100 Clouds 3 1038 86 10000 2.06 60 12:26 10.07.2022
1101 Clouds 0 1038 93 10000 1.03 0 09:57 10.07.2022
1102 Clouds 3 1038 80 10000 1.03 0 08:44 10.07.2022
1103 Clouds 3 1038 100 10000 2.06 60 07:29 10.07.2022
1104 Clouds 10 1037 39 10000 2.57 10 01:23 10.07.2022
1105 Clouds 16 1037 28 10000 5.66 290 22:27 09.07.2022
1106 Clouds 17 1037 25 10000 5.14 260 21:56 09.07.2022
1107 Clouds 15 1038 33 10000 6.17 280 20:23 09.07.2022
1108 Clouds 14 1041 40 10000 3.09 280 18:35 09.07.2022
1109 Clouds 13 1041 46 10000 3.09 250 17:33 09.07.2022
1110 Clouds 10 1042 53 10000 1.03 0 16:44 09.07.2022
1111 Clouds 7 1041 70 8000 0 0 15:40 09.07.2022
1112 Clouds 2 1040 86 8000 2.06 60 14:27 09.07.2022
1113 Fog 1 1040 86 4000 2.06 360 13:49 09.07.2022
1114 Fog -1 1039 100 4000 2.06 60 12:43 09.07.2022
1115 Fog -2 1038 100 4000 2.57 80 11:19 09.07.2022
1116 Fog -1 1038 100 4000 3.09 70 10:22 09.07.2022
1117 Fog 3 1040 100 4000 2.57 70 07:45 09.07.2022
1118 Fog 3 1040 100 4000 2.57 70 07:45 09.07.2022
1119 Fog 4 1039 100 4000 3.6 60 04:53 09.07.2022
1120 Clouds 14 1037 20 10000 3.09 320 00:59 09.07.2022
1121 Clouds 17 1037 17 10000 7.72 250 22:42 08.07.2022
1122 Clouds 17 1037 17 10000 6.69 270 21:31 08.07.2022
1123 Clouds 17 1038 17 10000 5.66 250 20:40 08.07.2022
1124 Clouds 15 1039 33 10000 3.6 140 19:48 08.07.2022
1125 Clouds 14 1039 43 10000 2.57 120 18:19 08.07.2022
1126 Clouds 10 1040 61 8000 2.57 140 16:39 08.07.2022
1127 Clouds 3 1039 86 8000 2.57 80 14:51 08.07.2022
1128 Fog 1 1038 100 4000 3.6 90 13:24 08.07.2022
1129 Fog 1 1038 100 4000 3.6 90 13:24 08.07.2022
1130 Fog 3 1037 100 4000 3.6 90 11:25 08.07.2022
1131 Fog -2 1037 100 2000 3.6 80 10:26 08.07.2022
1132 Clouds -2 1037 68 10000 1.03 0 08:26 08.07.2022
1133 Clouds 3 1038 51 10000 1.03 0 06:47 08.07.2022
1134 Clouds 11 1036 31 10000 5.14 30 01:19 08.07.2022
1135 Clouds 15 1035 24 10000 6.17 70 22:57 07.07.2022
1136 Clouds 15 1035 24 10000 6.17 70 22:57 07.07.2022
1137 Clouds 15 1035 24 10000 6.17 70 22:27 07.07.2022
1138 Clouds 17 1038 20 10000 3.09 180 19:53 07.07.2022
1139 Clouds 15 1039 22 10000 3.09 200 18:18 07.07.2022
1140 Clouds 11 1040 29 10000 3.6 130 16:43 07.07.2022
1141 Clouds 4 1038 60 10000 1.03 0 14:32 07.07.2022
1142 Clouds 1 1037 64 10000 2.06 20 12:46 07.07.2022
1143 Clouds 1 1037 64 10000 2.06 20 12:23 07.07.2022
1144 Clouds -3 1036 74 10000 0 0 11:34 07.07.2022
1145 Clear -1 1036 80 10000 1.03 0 10:46 07.07.2022
1146 Clear -1 1036 80 10000 1.03 0 10:28 07.07.2022
1147 Clear 0 1036 80 10000 2.06 100 09:32 07.07.2022
1148 Clear 3 1038 44 10000 1.03 0 06:31 07.07.2022
1149 Clouds 11 1013 49 10000 2.44 87 00:28 07.07.2022
1150 Clouds 13 1012 36 10000 2.47 112 23:36 06.07.2022
1151 Clouds 13 1012 37 10000 2.46 110 23:18 06.07.2022
1152 Clouds 18 1035 13 10000 2.57 210 22:51 06.07.2022
1153 Clouds 18 1035 13 10000 2.57 210 22:33 06.07.2022
1154 Clouds 17 1037 15 10000 3.09 160 20:23 06.07.2022
1155 Clouds 16 1038 18 10000 3.09 130 19:18 06.07.2022
1156 Clouds 14 1040 22 10000 2.57 190 17:21 06.07.2022
1157 Clouds 8 1040 36 10000 1.03 0 15:50 06.07.2022
1158 Clouds 0 1037 54 10000 1.54 10 12:44 06.07.2022
1159 Clouds -2 1037 58 10000 1.03 0 11:52 06.07.2022
1160 Clouds 1 1038 55 10000 1.54 20 10:48 06.07.2022
1161 Clear 0 1038 64 10000 2.57 80 08:46 06.07.2022
1162 Clouds 1 1039 47 10000 2.06 30 07:41 06.07.2022
1163 Clouds 2 1039 47 10000 2.06 30 06:40 06.07.2022
1164 Clouds 17 1037 14 10000 3.6 140 22:52 05.07.2022
1165 Clouds 17 1037 14 10000 3.6 140 22:34 05.07.2022
1166 Clouds 18 1039 13 10000 3.09 100 20:45 05.07.2022
1167 Clouds 17 1040 17 10000 3.6 140 19:54 05.07.2022
1168 Clouds 17 1040 17 10000 3.6 140 19:35 05.07.2022
1169 Clouds 13 1042 24 10000 2.06 240 17:49 05.07.2022
1170 Clouds 13 1042 24 10000 2.06 240 17:18 05.07.2022
1171 Clouds 9 1041 39 8000 0 0 15:39 05.07.2022
1172 Clouds 3 1041 60 10000 1.03 0 14:39 05.07.2022
1173 Clouds -3 1039 68 10000 1.03 0 12:52 05.07.2022
1174 Clouds -3 1039 68 10000 1.03 0 12:19 05.07.2022
1175 Clouds -2 1039 68 10000 1.03 0 10:44 05.07.2022
1176 Clouds 0 1040 80 10000 2.57 90 09:28 05.07.2022
1177 Clouds 2 1040 74 10000 4.12 70 08:18 05.07.2022
1178 Clouds 2 1040 64 10000 3.09 80 05:45 05.07.2022
1179 Clouds 2 1040 59 10000 3.6 70 04:25 05.07.2022
1180 Clouds 13 1038 19 10000 3.09 120 00:37 05.07.2022
1181 Clouds 16 1038 13 10000 4.12 110 23:34 04.07.2022
1182 Clouds 17 1038 11 10000 4.63 120 22:47 04.07.2022
1183 Clouds 18 1039 11 10000 4.12 120 21:48 04.07.2022
1184 Clouds 17 1040 11 10000 3.6 130 20:53 04.07.2022
1185 Clouds 17 1040 11 10000 3.6 130 20:34 04.07.2022
1186 Clouds 16 1040 11 10000 2.57 130 19:55 04.07.2022
1187 Clouds 16 1040 11 10000 2.57 130 19:35 04.07.2022
1188 Clouds 15 1042 10 10000 1.03 0 17:58 04.07.2022
1189 Clouds 10 1042 18 10000 1.03 0 15:58 04.07.2022
1190 Clouds 10 1042 18 10000 1.03 0 15:33 04.07.2022
1191 Clouds 0 1041 40 10000 1.03 0 13:29 04.07.2022
1192 Clouds 1 1040 40 10000 1.03 0 12:30 04.07.2022
1193 Clouds 2 1040 43 10000 1.03 0 10:34 04.07.2022
1194 Clouds 1 1040 59 10000 1.03 0 09:52 04.07.2022
1195 Clouds 3 1041 55 10000 1.03 0 07:37 04.07.2022
1196 Clouds 1 1040 59 10000 2.06 120 04:48 04.07.2022
1197 Clouds 12 1038 14 10000 4.63 270 00:36 04.07.2022
1198 Clouds 17 1038 9 10000 4.12 270 22:59 03.07.2022
1199 Clouds 18 1039 8 10000 4.12 270 20:58 03.07.2022
1200 Clouds 18 1039 8 10000 4.12 270 20:31 03.07.2022
1201 Clouds 17 1040 7 10000 2.57 290 19:27 03.07.2022
1202 Clouds 15 1041 8 10000 1.03 0 18:43 03.07.2022
1203 Clouds 13 1041 11 10000 3.09 240 17:43 03.07.2022
1204 Clouds 9 1041 15 10000 1.03 0 15:51 03.07.2022
1205 Clouds 8 1040 11 10000 2.06 20 14:59 03.07.2022
1206 Clouds 8 1040 11 10000 2.06 20 14:18 03.07.2022
1207 Clouds 2 1039 29 10000 2.06 360 13:48 03.07.2022
1208 Clouds 3 1039 29 10000 2.06 360 12:33 03.07.2022
1209 Clouds 1 1038 29 10000 1.54 350 11:20 03.07.2022
1210 Clouds 5 1038 20 10000 2.06 360 10:38 03.07.2022
1211 Clouds -2 1038 42 10000 0 0 09:31 03.07.2022
1212 Clouds -1 1038 46 10000 2.57 60 07:34 03.07.2022
1213 Clouds 11 1037 27 10000 3.09 10 01:42 03.07.2022
1214 Clouds 15 1036 21 10000 5.14 110 23:50 02.07.2022
1215 Clouds 17 1036 17 10000 5.66 90 22:33 02.07.2022
1216 Clouds 17 1037 13 10000 2.57 150 20:37 02.07.2022
1217 Clouds 17 1038 15 10000 2.57 250 19:51 02.07.2022
1218 Clouds 17 1038 15 10000 2.57 250 19:19 02.07.2022
1219 Clouds 13 1039 20 8000 2.57 160 17:41 02.07.2022
1220 Clouds 11 1039 25 8000 3.09 250 16:38 02.07.2022
1221 Clouds -4 1037 63 10000 2.06 20 13:51 02.07.2022
1222 Clouds -1 1036 50 10000 1.54 20 11:52 02.07.2022
1223 Clouds 3 1036 44 10000 2.06 20 10:53 02.07.2022
1224 Clouds 3 1036 44 10000 2.06 20 10:32 02.07.2022
1225 Clear 2 1037 51 10000 2.06 40 08:39 02.07.2022
1226 Clear 2 1037 51 10000 2.06 40 08:19 02.07.2022
1227 Clear 2 1037 55 10000 1.03 0 05:59 02.07.2022
1228 Clouds 15 1035 15 10000 2.57 280 00:47 02.07.2022
1229 Clouds 18 1035 11 10000 2.57 250 23:31 01.07.2022
1230 Clouds 19 1035 14 10000 5.66 260 22:40 01.07.2022
1231 Clouds 19 1035 12 10000 4.12 280 21:40 01.07.2022
1232 Clouds 18 1037 11 10000 5.14 270 20:59 01.07.2022
1233 Clouds 18 1037 11 10000 5.14 270 20:37 01.07.2022
1234 Clouds 17 1037 13 10000 5.14 270 19:41 01.07.2022
1235 Clouds 14 1038 24 10000 4.12 280 17:45 01.07.2022
1236 Clouds 9 1038 29 10000 2.06 310 15:21 01.07.2022
1237 Clouds 2 1037 40 10000 2.57 360 13:54 01.07.2022
1238 Clouds 1 1036 40 10000 2.57 20 11:49 01.07.2022
1239 Clouds 1 1036 37 10000 2.06 340 10:19 01.07.2022
1240 Clouds 1 1037 40 10000 2.06 20 08:46 01.07.2022
1241 Clear 10 1037 19 10000 2.06 320 02:49 01.07.2022
1242 Clouds 15 1036 13 10000 2.57 70 00:25 01.07.2022
1243 Clouds 18 1036 11 10000 3.09 120 22:54 30.06.2022
1244 Clouds 18 1036 11 10000 3.09 120 22:32 30.06.2022
1245 Clouds 18 1037 8 10000 2.57 200 21:59 30.06.2022
1246 Clouds 18 1037 8 10000 2.57 200 21:34 30.06.2022
1247 Clouds 17 1038 10 10000 2.57 230 20:22 30.06.2022
1248 Clouds 17 1039 11 10000 2.57 200 19:53 30.06.2022
1249 Clouds 17 1039 11 10000 2.57 200 19:18 30.06.2022
1250 Clouds 17 1040 13 10000 1.03 0 18:34 30.06.2022
1251 Clouds 14 1041 22 10000 1.03 0 17:37 30.06.2022
1252 Clouds 11 1041 27 10000 1.03 0 16:28 30.06.2022
1253 Clouds 4 1040 48 10000 1.03 0 14:31 30.06.2022
1254 Clouds 0 1039 54 10000 1.03 0 13:29 30.06.2022
1255 Clouds 3 1038 47 10000 2.57 10 12:34 30.06.2022
1256 Clear 2 1038 51 10000 1.03 0 11:23 30.06.2022
1257 Clear 4 1039 48 10000 3.09 10 09:53 30.06.2022
1258 Clouds 4 1039 48 10000 3.09 10 09:29 30.06.2022
1259 Clear -1 1039 74 10000 1.03 0 07:41 30.06.2022
1260 Clear 1 1040 74 10000 1.54 30 05:47 30.06.2022
1261 Clouds 15 1037 22 10000 3.09 110 00:27 30.06.2022
1262 Clouds 18 1037 13 10000 2.57 220 22:58 29.06.2022
1263 Clouds 18 1037 13 10000 2.57 220 22:37 29.06.2022
1264 Clouds 18 1038 16 10000 3.6 190 21:34 29.06.2022
1265 Clouds 18 1039 16 10000 2.57 260 20:33 29.06.2022
1266 Clouds 18 1039 16 10000 2.57 260 20:33 29.06.2022
1267 Clouds 17 1040 20 10000 2.57 190 19:34 29.06.2022
1268 Clear 14 1041 24 10000 3.09 150 17:40 29.06.2022
1269 Clear 11 1041 31 10000 1.03 0 16:35 29.06.2022
1270 Clear 5 1040 41 10000 1.03 0 14:50 29.06.2022
1271 Clear 0 1039 46 10000 1.03 0 12:39 29.06.2022
1272 Clear -2 1038 54 10000 1.54 40 10:25 29.06.2022
1273 Clear -1 1039 43 10000 1.03 0 09:31 29.06.2022
1274 Clear 0 1040 54 10000 2.06 40 07:30 29.06.2022
1275 Clear 1 1040 51 10000 2.06 100 04:49 29.06.2022
1276 Clouds 14 1038 13 10000 3.6 320 00:55 29.06.2022
1277 Clouds 14 1038 13 10000 3.6 320 00:35 29.06.2022
1278 Clouds 18 1038 12 10000 4.12 280 22:53 28.06.2022
1279 Clouds 18 1038 12 10000 4.12 280 22:21 28.06.2022
1280 Clouds 17 1039 14 10000 4.12 250 21:50 28.06.2022
1281 Clouds 17 1039 14 10000 4.12 250 21:30 28.06.2022
1282 Clouds 17 1040 17 10000 4.12 240 20:20 28.06.2022
1283 Clear 15 1041 22 10000 3.6 240 19:32 28.06.2022
1284 Clear 14 1042 24 10000 3.09 230 18:42 28.06.2022
1285 Clear 12 1042 27 10000 3.09 230 17:37 28.06.2022
1286 Clear 9 1042 36 10000 1.03 0 15:56 28.06.2022
1287 Clear 6 1041 41 10000 2.06 10 14:59 28.06.2022
1288 Clear 6 1041 41 10000 2.06 10 14:19 28.06.2022
1289 Clear 1 1040 51 10000 1.03 0 13:47 28.06.2022
1290 Clear -1 1039 50 10000 1.03 0 12:47 28.06.2022
1291 Clear -1 1038 43 10000 0 0 10:44 28.06.2022
1292 Clear 4 1038 27 10000 2.57 20 08:56 28.06.2022
1293 Clear 4 1038 27 10000 2.57 20 08:38 28.06.2022
1294 Clear 4 1039 25 10000 2.57 30 07:20 28.06.2022
1295 Clear 7 1038 19 10000 2.57 40 04:56 28.06.2022
1296 Clouds 16 1037 17 10000 5.14 300 23:56 27.06.2022
1297 Clouds 16 1037 17 10000 5.14 300 23:28 27.06.2022
1298 Clouds 17 1037 15 10000 4.12 290 22:42 27.06.2022
1299 Clouds 17 1038 14 10000 4.63 260 21:30 27.06.2022
1300 Clouds 17 1038 14 10000 3.09 270 20:34 27.06.2022
1301 Clouds 15 1040 21 10000 2.57 250 18:52 27.06.2022
1302 Clouds 12 1041 23 10000 1.54 200 17:45 27.06.2022
1303 Clear 9 1041 24 10000 1.03 0 15:51 27.06.2022
1304 Clouds 5 1040 28 10000 1.54 10 14:26 27.06.2022
1305 Clouds -1 1038 50 10000 2.06 360 12:59 27.06.2022
1306 Clouds -1 1038 50 10000 2.06 360 12:36 27.06.2022
1307 Clear -2 1037 80 10000 3.6 80 09:53 27.06.2022
1308 Clear 0 1037 54 10000 4.12 90 08:43 27.06.2022
1309 Clear 0 1038 50 10000 3.6 90 07:52 27.06.2022
1310 Clear 0 1038 50 10000 3.09 80 06:28 27.06.2022
1311 Clear 10 1038 27 10000 3.6 280 01:25 27.06.2022
1312 Clouds 16 1036 18 10000 6.17 280 23:22 26.06.2022
1313 Clouds 17 1037 13 10000 5.66 280 21:40 26.06.2022
1314 Clouds 17 1038 12 10000 6.17 260 20:33 26.06.2022
1315 Clouds 15 1040 18 10000 4.12 280 18:38 26.06.2022
1316 Clouds 15 1040 18 10000 4.12 280 18:20 26.06.2022
1317 Clear 9 1041 24 10000 3.09 310 15:37 26.06.2022
1318 Clouds 2 1040 40 10000 1.03 0 14:23 26.06.2022
1319 Clouds -5 1039 53 10000 1.03 0 13:26 26.06.2022
1320 Clouds 2 1039 34 10000 2.57 360 11:49 26.06.2022
1321 Clouds -3 1038 50 10000 1.03 0 10:42 26.06.2022
1322 Clouds -3 1038 50 10000 1.03 0 10:22 26.06.2022
1323 Clouds 0 1039 59 10000 2.57 60 08:36 26.06.2022
1324 Clouds 1 1040 51 10000 1.54 140 06:31 26.06.2022
1325 Clouds 11 1038 17 10000 5.66 10 00:37 26.06.2022
1326 Clouds 11 1038 17 10000 5.66 10 00:19 26.06.2022
1327 Clouds 14 1038 12 10000 6.17 20 23:31 25.06.2022
1328 Clouds 15 1038 13 10000 5.66 20 22:48 25.06.2022
1329 Clouds 15 1038 13 10000 5.66 20 22:25 25.06.2022
1330 Clouds 16 1038 13 10000 5.14 360 21:21 25.06.2022
1331 Clouds 16 1039 12 10000 5.14 40 20:48 25.06.2022
1332 Clouds 16 1039 12 10000 5.14 40 20:25 25.06.2022
1333 Clouds 16 1039 12 10000 5.14 40 20:25 25.06.2022
1334 Clouds 14 1041 22 10000 4.12 110 18:24 25.06.2022
1335 Clouds 13 1042 25 10000 1.03 0 17:27 25.06.2022
1336 Clear 10 1042 23 10000 1.03 0 16:28 25.06.2022
1337 Clouds 3 1041 75 10000 1.03 0 14:41 25.06.2022
1338 Clouds -5 1039 86 10000 1.03 0 12:51 25.06.2022
1339 Clouds -5 1039 86 10000 1.03 0 12:27 25.06.2022
1340 Clouds 2 1038 100 10000 2.57 80 09:24 25.06.2022
1341 Clouds 2 1038 100 10000 2.57 80 09:24 25.06.2022
1342 Clear 2 1038 64 10000 2.06 80 08:54 25.06.2022
1343 Clear 2 1038 64 10000 2.06 80 08:20 25.06.2022
1344 Clear 1 1039 59 10000 3.6 80 06:35 25.06.2022
1345 Clouds 11 1037 46 10000 3.09 110 00:45 25.06.2022
1346 Clouds 12 1037 40 10000 4.12 110 23:54 24.06.2022
1347 Clouds 13 1037 37 10000 4.12 110 22:26 24.06.2022
1348 Clouds 14 1037 35 10000 2.57 100 21:22 24.06.2022
1349 Clouds 14 1038 32 10000 2.57 120 20:23 24.06.2022
1350 Clouds 15 1038 28 10000 2.57 270 19:24 24.06.2022
1351 Clouds 14 1039 32 10000 2.06 170 18:51 24.06.2022
1352 Clouds 14 1039 32 10000 2.06 170 18:31 24.06.2022
1353 Clouds 14 1040 35 10000 2.57 120 17:47 24.06.2022
1354 Clouds 11 1040 43 7000 1.03 0 16:45 24.06.2022
1355 Clouds 11 1040 43 7000 1.03 0 16:45 24.06.2022
1356 Clouds 3 1039 86 6000 1.03 0 14:30 24.06.2022
1357 Clouds -3 1038 100 6000 2.06 20 13:58 24.06.2022
1358 Clouds -3 1038 100 6000 2.06 20 13:58 24.06.2022
1359 Clouds -2 1038 93 6000 2.06 50 12:49 24.06.2022
1360 Mist 2 1037 93 4000 2.06 10 11:40 24.06.2022
1361 Mist 0 1037 93 4000 2.06 70 10:34 24.06.2022
1362 Mist -1 1037 100 4000 2.06 80 09:41 24.06.2022
1363 Mist 4 1037 100 3000 2.57 20 08:53 24.06.2022
1364 Mist 5 1038 93 2000 2.57 30 07:39 24.06.2022
1365 Mist 5 1037 93 4000 1.03 0 06:42 24.06.2022
1366 Mist 5 1037 93 4000 1.03 0 06:18 24.06.2022
1367 Clear 4 1036 100 8000 3.6 80 03:33 24.06.2022
1368 Clouds 11 1034 49 10000 2.57 80 22:59 23.06.2022
1369 Clouds 11 1034 49 10000 2.57 80 22:40 23.06.2022
1370 Clouds 11 1035 46 10000 3.6 80 20:58 23.06.2022
1371 Clouds 11 1035 46 10000 3.6 80 20:35 23.06.2022
1372 Clouds 13 1036 35 10000 3.09 230 19:34 23.06.2022
1373 Clouds 12 1038 37 10000 1.03 0 17:52 23.06.2022
1374 Clouds 12 1038 37 10000 1.03 0 17:23 23.06.2022
1375 Clouds 7 1037 42 8000 1.03 0 15:50 23.06.2022
1376 Clouds 7 1037 42 8000 1.03 0 15:24 23.06.2022
1377 Clouds -3 1035 93 10000 1.54 30 13:40 23.06.2022
1378 Fog -3 1035 93 4000 2.06 70 11:27 23.06.2022
1379 Fog -3 1035 100 4000 3.09 70 10:35 23.06.2022
1380 Fog -2 1035 93 4000 1.03 0 08:53 23.06.2022
1381 Clear 2 1035 86 10000 3.6 60 03:35 23.06.2022
1382 Clouds 12 1033 14 10000 6.17 310 00:26 23.06.2022
1383 Clouds 14 1033 9 10000 7.2 300 23:30 22.06.2022
1384 Clouds 15 1033 15 10000 7.2 290 22:39 22.06.2022
1385 Clouds 14 1034 16 10000 7.72 290 21:22 22.06.2022
1386 Clouds 16 1035 19 10000 7.72 290 20:42 22.06.2022
1387 Clouds 14 1035 22 10000 7.72 290 19:56 22.06.2022
1388 Clouds 14 1036 24 10000 7.2 300 18:40 22.06.2022
1389 Clouds 12 1037 27 10000 6.17 280 17:27 22.06.2022
1390 Clouds 10 1037 25 10000 4.12 270 16:18 22.06.2022
1391 Clouds 7 1036 26 10000 2.57 280 15:26 22.06.2022
1392 Clouds 1 1035 47 10000 1.03 0 14:18 22.06.2022
1393 Clouds -1 1035 43 10000 1.03 0 13:37 22.06.2022
1394 Clouds -1 1035 43 10000 1.03 0 13:37 22.06.2022
1395 Clouds -1 1035 43 10000 1.03 0 13:18 22.06.2022
1396 Clouds 2 1034 32 10000 1.03 0 11:49 22.06.2022
1397 Clouds 2 1034 40 10000 2.06 10 10:55 22.06.2022
1398 Clouds -2 1035 42 10000 0 0 09:59 22.06.2022
1399 Clouds 1 1036 31 10000 1.03 0 07:59 22.06.2022
1400 Clouds 8 1036 21 10000 2.06 200 03:40 22.06.2022
1401 Clouds 10 1034 29 10000 3.09 280 01:23 22.06.2022
1402 Clouds 14 1034 20 10000 6.69 280 23:42 21.06.2022
1403 Clouds 15 1035 19 10000 7.72 290 21:49 21.06.2022
1404 Clouds 15 1036 13 10000 10.8 290 19:50 21.06.2022
1405 Clouds 14 1037 26 10000 7.72 280 18:35 21.06.2022
1406 Clouds 12 1038 34 10000 7.2 290 17:31 21.06.2022
1407 Clouds 4 1036 87 10000 2.06 320 13:45 21.06.2022
1408 Clouds 1 1035 100 10000 1.03 0 11:31 21.06.2022
1409 Fog 4 1036 93 4000 1.03 0 09:48 21.06.2022
1410 Fog 6 1036 93 4000 2.06 220 08:37 21.06.2022
1411 Fog 4 1036 100 4000 3.09 80 06:35 21.06.2022
1412 Clouds 12 1034 32 10000 4.63 320 00:43 21.06.2022
1413 Clouds 14 1034 22 10000 7.2 300 23:18 20.06.2022
1414 Clouds 16 1034 19 10000 7.2 290 21:52 20.06.2022
1415 Clouds 16 1035 18 10000 7.2 280 20:47 20.06.2022
1416 Clouds 15 1038 18 10000 5.66 290 19:39 20.06.2022
1417 Clouds 14 1038 17 10000 2.57 270 18:45 20.06.2022
1418 Clouds 12 1038 17 10000 2.57 230 17:52 20.06.2022
1419 Clouds 12 1038 17 10000 2.57 230 17:29 20.06.2022
1420 Clouds 7 1039 33 10000 1.03 0 15:56 20.06.2022
1421 Clear -4 1037 58 10000 1.03 0 12:44 20.06.2022
1422 Clear -4 1036 49 10000 1.03 0 10:41 20.06.2022
1423 Clear 1 1037 37 10000 2.06 20 09:41 20.06.2022
1424 Clear 0 1037 37 10000 2.57 30 08:44 20.06.2022
1425 Clear 4 1038 25 10000 2.57 20 05:55 20.06.2022
1426 Clear 7 1037 15 10000 3.09 350 02:27 20.06.2022
1427 Clouds 12 1036 13 10000 4.12 300 00:26 20.06.2022
1428 Clouds 14 1036 14 10000 7.2 290 22:53 19.06.2022
1429 Clouds 15 1036 14 10000 7.2 290 21:58 19.06.2022
1430 Clouds 15 1036 14 10000 7.2 290 21:40 19.06.2022
1431 Clouds 15 1037 13 10000 5.66 280 20:39 19.06.2022
1432 Clouds 14 1038 14 10000 6.17 280 19:47 19.06.2022
1433 Clear 13 1039 13 10000 3.09 270 18:46 19.06.2022
1434 Clear 13 1039 13 10000 3.09 270 18:26 19.06.2022
1435 Clear 12 1040 16 10000 4.63 270 17:22 19.06.2022
1436 Clear 10 1040 34 10000 3.09 260 16:35 19.06.2022
1437 Clear 8 1039 36 10000 3.09 340 15:41 19.06.2022
1438 Clouds 5 1038 44 10000 3.6 10 14:57 19.06.2022
1439 Clouds 5 1038 44 10000 3.6 10 14:20 19.06.2022
1440 Clouds 2 1037 55 10000 3.09 10 13:23 19.06.2022
1441 Clouds 0 1037 54 10000 1.03 0 11:21 19.06.2022
1442 Clouds -2 1037 68 10000 1.03 0 09:58 19.06.2022
1443 Fog -3 1037 93 4000 2.06 30 08:47 19.06.2022
1444 Fog -3 1037 93 4000 2.06 30 08:19 19.06.2022
1445 Fog 1 1037 93 4000 3.6 80 05:37 19.06.2022
1446 Clear 10 1034 14 10000 3.09 320 01:29 19.06.2022
1447 Clouds 12 1034 9 10000 6.17 310 00:25 19.06.2022
1448 Clouds 14 1034 9 10000 7.72 310 23:36 18.06.2022
1449 Clouds 15 1034 13 10000 8.75 280 22:39 18.06.2022
1450 Clouds 15 1035 24 10000 8.23 280 20:57 18.06.2022
1451 Clouds 15 1035 24 10000 8.23 280 20:38 18.06.2022
1452 Clouds 15 1037 24 10000 7.2 280 19:38 18.06.2022
1453 Clouds 14 1037 30 10000 6.17 270 18:45 18.06.2022
1454 Clouds 11 1038 43 10000 5.14 280 17:35 18.06.2022
1455 Clouds 8 1038 42 10000 2.57 250 16:47 18.06.2022
1456 Clouds 5 1038 44 10000 1.03 0 15:31 18.06.2022
1457 Clouds 1 1037 59 10000 1.03 0 14:44 18.06.2022
1458 Clouds -6 1036 79 10000 0 0 13:22 18.06.2022
1459 Clouds -1 1036 59 10000 1.54 20 11:39 18.06.2022
1460 Clouds -1 1036 74 10000 1.54 360 10:47 18.06.2022
1461 Fog 2 1036 100 4000 1.03 0 09:23 18.06.2022
1462 Fog -4 1036 93 4000 2.06 90 08:24 18.06.2022
1463 Clouds -2 1036 93 10000 3.6 70 06:46 18.06.2022
1464 Clear 4 1035 15 10000 2.06 30 03:30 18.06.2022
1465 Clear 9 1035 14 10000 3.09 290 01:25 18.06.2022
1466 Clear 11 1034 11 10000 4.63 300 00:46 18.06.2022
1467 Clear 13 1034 10 10000 6.69 290 23:52 17.06.2022
1468 Clear 13 1034 10 10000 6.69 290 23:20 17.06.2022
1469 Clear 14 1035 8 10000 9.26 280 20:55 17.06.2022
1470 Clear 13 1036 10 10000 7.72 300 19:31 17.06.2022
1471 Clear 13 1037 10 10000 8.23 280 18:37 17.06.2022
1472 Clear 12 1037 8 10000 8.23 290 17:43 17.06.2022
1473 Clear 10 1038 23 10000 6.17 290 16:43 17.06.2022
1474 Clear 8 1037 22 10000 5.14 300 15:43 17.06.2022
1475 Clear 5 1037 35 10000 2.57 320 14:58 17.06.2022
1476 Clear 5 1037 35 10000 2.57 320 14:20 17.06.2022
1477 Clear 3 1036 37 10000 3.09 330 13:44 17.06.2022
1478 Clear 3 1036 40 10000 3.09 330 12:45 17.06.2022
1479 Clear 2 1035 34 10000 2.57 290 11:56 17.06.2022
1480 Clear 2 1035 34 10000 2.57 290 11:35 17.06.2022
1481 Clear 3 1035 34 10000 2.06 310 10:48 17.06.2022
1482 Clear 3 1035 34 10000 2.06 310 10:48 17.06.2022
1483 Clear 3 1035 34 10000 2.06 310 10:48 17.06.2022
1484 Clear 3 1035 34 10000 2.57 20 08:29 17.06.2022
1485 Clear 0 1036 43 10000 1.54 230 06:58 17.06.2022
1486 Clear 3 1035 34 10000 2.57 40 05:35 17.06.2022
1487 Clouds 10 1033 21 10000 2.06 340 02:47 17.06.2022
1488 Clouds 13 1033 16 10000 5.14 300 00:36 17.06.2022
1489 Clouds 15 1034 14 10000 9.77 280 22:44 16.06.2022
1490 Clouds 15 1034 18 10000 9.77 290 21:36 16.06.2022
1491 Clouds 15 1034 18 10000 9.77 290 21:18 16.06.2022
1492 Clouds 15 1035 14 10000 9.26 290 20:36 16.06.2022
1493 Clouds 15 1037 16 10000 8.75 290 19:56 16.06.2022
1494 Clouds 14 1038 26 10000 7.2 280 18:30 16.06.2022
1495 Clouds 13 1038 25 10000 6.17 290 17:44 16.06.2022
1496 Clouds 11 1038 21 10000 3.6 270 16:40 16.06.2022
1497 Clouds 8 1038 39 10000 2.57 250 15:24 16.06.2022
1498 Clouds 4 1037 48 10000 2.57 350 14:46 16.06.2022
1499 Clouds -6 1036 67 10000 2.57 350 13:34 16.06.2022
1500 Clear -4 1036 63 10000 0 0 12:37 16.06.2022
1501 Clear -5 1035 58 10000 0 0 11:52 16.06.2022
1502 Clear -5 1035 58 10000 0 0 11:18 16.06.2022
1503 Clear 0 1035 50 10000 0 0 10:32 16.06.2022
1504 Clear 2 1036 47 10000 2.57 360 09:22 16.06.2022
1505 Clear -2 1036 63 10000 1.03 0 08:36 16.06.2022
1506 Clear -2 1036 86 10000 1.03 0 07:28 16.06.2022
1507 Clear 3 1036 64 10000 3.6 80 05:29 16.06.2022
1508 Clear 2 1035 47 10000 2.57 70 02:50 16.06.2022
1509 Clear 6 1035 33 10000 1.54 80 01:50 16.06.2022
1510 Clear 6 1035 33 10000 1.54 80 01:21 16.06.2022
1511 Clouds 16 1034 21 10000 4.63 280 23:47 15.06.2022
1512 Clouds 17 1034 23 10000 3.6 200 22:42 15.06.2022
1513 Clouds 18 1034 18 10000 3.09 280 21:23 15.06.2022
1514 Clouds 16 1035 21 10000 3.09 250 20:45 15.06.2022
1515 Clouds 16 1035 21 10000 3.09 250 20:27 15.06.2022
1516 Clear 14 1036 30 10000 3.09 260 19:30 15.06.2022
1517 Clear 12 1037 25 10000 4.12 280 17:56 15.06.2022
1518 Clear 12 1037 25 10000 4.12 280 17:32 15.06.2022
1519 Clear 9 1036 15 10000 2.06 300 15:38 15.06.2022
1520 Clear 4 1036 21 10000 2.57 10 14:23 15.06.2022
1521 Clear 0 1035 24 10000 2.57 10 12:54 15.06.2022
1522 Clear 0 1035 24 10000 2.57 10 12:28 15.06.2022
1523 Clear 0 1034 29 10000 2.57 10 10:24 15.06.2022
1524 Clear -1 1035 36 10000 2.06 10 09:43 15.06.2022
1525 Clear -5 1036 38 10000 1.03 0 08:50 15.06.2022
1526 Clear -4 1035 53 10000 1.54 100 06:36 15.06.2022
1527 Clear 1 1036 27 10000 1.03 0 04:46 15.06.2022
1528 Clear 8 1034 16 10000 1.03 0 01:55 15.06.2022
1529 Clear 13 1034 11 10000 3.6 270 00:51 15.06.2022
1530 Clear 16 1034 7 10000 3.09 280 23:39 14.06.2022
1531 Clear 16 1034 7 10000 3.09 280 23:21 14.06.2022
1532 Clear 17 1034 6 10000 3.09 280 22:23 14.06.2022
1533 Clear 16 1034 8 10000 3.6 230 21:38 14.06.2022
1534 Clear 16 1035 4 10000 2.57 210 20:54 14.06.2022
1535 Clear 16 1035 4 10000 2.57 210 20:28 14.06.2022
1536 Clear 14 1036 7 10000 3.09 230 19:18 14.06.2022
1537 Clear 11 1038 17 10000 2.57 260 17:54 14.06.2022
1538 Clear 8 1038 19 10000 2.06 260 16:47 14.06.2022
1539 Clear 5 1037 23 10000 2.06 250 15:50 14.06.2022
1540 Clear 5 1037 23 10000 2.06 250 15:24 14.06.2022
1541 Clear 1 1036 22 10000 3.09 360 14:33 14.06.2022
1542 Clouds -2 1036 28 10000 3.09 350 13:42 14.06.2022
1543 Clouds -4 1035 30 10000 2.06 350 12:44 14.06.2022
1544 Clouds -1 1035 26 10000 2.06 360 11:32 14.06.2022
1545 Clouds -1 1035 26 10000 2.06 350 10:47 14.06.2022
1546 Clouds -1 1035 26 10000 2.06 350 10:20 14.06.2022
1547 Clear 0 1036 34 10000 2.06 10 08:47 14.06.2022
1548 Clear -3 1037 50 10000 2.06 20 07:33 14.06.2022
1549 Clear -2 1038 50 10000 1.03 0 05:21 14.06.2022
1550 Clear 4 1037 30 10000 2.06 90 02:57 14.06.2022
1551 Clear 10 1036 15 10000 3.09 110 00:32 14.06.2022
1552 Clear 13 1035 11 10000 2.57 70 23:27 13.06.2022
1553 Clear 15 1035 10 10000 2.57 60 22:26 13.06.2022
1554 Clouds 15 1036 11 10000 2.57 80 21:49 13.06.2022
1555 Clouds 14 1037 11 10000 3.09 120 20:31 13.06.2022
1556 Clouds 13 1038 11 10000 3.09 170 19:34 13.06.2022
1557 Clear 11 1039 14 10000 3.6 150 17:58 13.06.2022
1558 Clear 11 1039 14 10000 3.6 150 17:38 13.06.2022
1559 Clear 9 1040 19 10000 2.06 210 16:40 13.06.2022
1560 Clear 6 1040 26 10000 1.03 0 15:37 13.06.2022
1561 Clear 1 1038 47 10000 2.06 20 14:42 13.06.2022
1562 Clear -3 1037 63 10000 2.06 40 13:53 13.06.2022
1563 Clear -5 1037 73 10000 2.06 50 12:47 13.06.2022
1564 Clear -5 1037 93 10000 2.06 40 11:26 13.06.2022
1565 Clear -6 1036 93 10000 2.57 70 10:26 13.06.2022
1566 Clear 1 1023 74 10000 1.19 133 09:31 13.06.2022
1567 Clouds -2 1038 86 10000 3.09 80 07:38 13.06.2022
1568 Clear -2 1038 80 10000 2.06 100 05:42 13.06.2022
1569 Clear 2 1036 43 10000 3.09 80 02:50 13.06.2022
1570 Clear 5 1035 35 10000 3.09 70 01:37 13.06.2022
1571 Clear 12 1035 10 10000 2.57 280 00:18 13.06.2022
1572 Clouds 14 1035 8 10000 4.63 270 23:24 12.06.2022
1573 Clouds 15 1035 8 10000 5.66 270 22:22 12.06.2022
1574 Clouds 15 1036 12 10000 4.12 290 21:20 12.06.2022
1575 Clouds 15 1037 14 10000 4.12 260 20:29 12.06.2022
1576 Clouds 14 1038 15 10000 2.57 290 19:30 12.06.2022
1577 Clouds 14 1038 15 10000 2.57 290 19:30 12.06.2022
1578 Clear 11 1039 34 10000 3.09 260 17:51 12.06.2022
1579 Clear 9 1039 36 10000 2.57 270 16:24 12.06.2022
1580 Clear 4 1038 41 10000 1.54 20 14:57 12.06.2022
1581 Clear 4 1038 41 10000 1.54 20 14:21 12.06.2022
1582 Clear -5 1037 58 10000 1.03 0 13:51 12.06.2022
1583 Clear -3 1036 54 10000 2.06 30 12:37 12.06.2022
1584 Clear -2 1036 50 10000 2.06 10 11:37 12.06.2022
1585 Clear -1 1036 43 10000 2.06 20 10:22 12.06.2022
1586 Clear -6 1036 62 10000 1.03 0 08:54 12.06.2022
1587 Clear -6 1036 62 10000 1.03 0 08:35 12.06.2022
1588 Clear -5 1037 73 10000 3.09 90 07:32 12.06.2022
1589 Clear -3 1037 63 10000 3.09 60 04:35 12.06.2022
1590 Clear 0 1036 50 10000 2.57 80 02:38 12.06.2022
1591 Clear 5 1035 30 10000 2.06 60 01:37 12.06.2022
1592 Clear 11 1035 14 10000 1.03 0 00:58 12.06.2022
1593 Clear 11 1035 14 10000 1.03 0 00:20 12.06.2022
1594 Clouds 14 1034 11 10000 2.57 330 23:40 11.06.2022
1595 Clouds 14 1035 13 10000 2.57 250 22:38 11.06.2022
1596 Clouds 14 1035 13 10000 2.57 250 22:38 11.06.2022
1597 Clouds 14 1035 11 10000 4.12 290 21:42 11.06.2022
1598 Clouds 13 1036 11 10000 3.09 260 20:34 11.06.2022
1599 Clouds 13 1038 10 10000 3.6 280 19:46 11.06.2022
1600 Clouds 12 1039 18 10000 3.09 250 18:56 11.06.2022
1601 Clouds 12 1039 18 10000 3.09 250 18:33 11.06.2022
1602 Clouds 9 1039 45 10000 2.57 240 17:50 11.06.2022
1603 Clouds 9 1039 45 10000 2.57 240 17:26 11.06.2022
1604 Clear 7 1039 56 10000 3.6 250 16:50 11.06.2022
1605 Clear 7 1039 56 10000 3.6 250 16:26 11.06.2022
1606 Clouds 4 1039 64 10000 1.03 0 15:27 11.06.2022
1607 Clouds -3 1037 74 10000 1.03 0 13:53 11.06.2022
1608 Clouds -6 1037 93 10000 1.54 30 12:25 11.06.2022
1609 Fog -4 1037 100 4000 0 0 10:40 11.06.2022
1610 Fog -2 1037 93 4000 1.03 0 09:43 11.06.2022
1611 Fog -1 1038 93 4000 1.54 70 08:46 11.06.2022
1612 Fog -1 1038 100 4000 2.57 90 06:47 11.06.2022
1613 Clouds 1 1038 93 10000 3.6 80 05:58 11.06.2022
1614 Clouds 4 1037 75 10000 4.12 90 03:45 11.06.2022
1615 Clouds 5 1035 70 10000 5.14 110 01:52 11.06.2022
1616 Clouds 5 1035 70 10000 5.14 110 01:26 11.06.2022
1617 Clouds 11 1035 23 10000 2.57 260 23:28 10.06.2022
1618 Clouds 12 1035 17 10000 3.09 300 22:27 10.06.2022
1619 Clouds 13 1035 13 10000 3.09 280 21:46 10.06.2022
1620 Clouds 12 1036 18 10000 3.6 280 20:39 10.06.2022
1621 Clouds 12 1036 18 10000 3.6 280 20:20 10.06.2022
1622 Clouds 13 1037 15 10000 3.6 270 19:19 10.06.2022
1623 Clouds 11 1038 25 10000 1.03 0 18:44 10.06.2022
1624 Clouds 9 1039 42 10000 1.03 0 17:54 10.06.2022
1625 Clouds 9 1039 42 10000 1.03 0 17:22 10.06.2022
1626 Clouds 7 1039 48 10000 1.03 0 16:26 10.06.2022
1627 Clouds 6 1039 60 10000 1.03 0 15:39 10.06.2022
1628 Clouds 0 1038 74 10000 1.03 0 14:24 10.06.2022
1629 Clouds -4 1037 49 10000 2.06 360 12:57 10.06.2022
1630 Clouds 0 1036 37 10000 2.57 20 11:59 10.06.2022
1631 Clouds -2 1036 39 10000 2.06 10 10:45 10.06.2022
1632 Clouds -4 1036 45 10000 1.54 70 09:55 10.06.2022
1633 Clouds -4 1037 53 10000 1.03 0 08:47 10.06.2022
1634 Clouds 0 1037 43 10000 2.57 60 07:31 10.06.2022
1635 Clear 1 1038 51 10000 2.57 40 06:45 10.06.2022
1636 Clear 1 1038 51 10000 2.57 40 06:26 10.06.2022
1637 Clear 1 1037 29 10000 1.03 0 04:37 10.06.2022
1638 Clouds 7 1034 16 10000 2.06 270 01:42 10.06.2022
1639 Clouds 11 1034 11 10000 2.57 310 00:40 10.06.2022
1640 Clouds 14 1034 10 10000 4.12 320 23:49 09.06.2022
1641 Clouds 14 1034 10 10000 4.63 290 22:18 09.06.2022
1642 Clouds 15 1034 11 10000 4.63 310 21:37 09.06.2022
1643 Clouds 15 1035 10 10000 4.12 260 20:55 09.06.2022
1644 Clouds 15 1035 10 10000 4.12 260 20:21 09.06.2022
1645 Clouds 13 1036 11 10000 4.63 280 19:29 09.06.2022
1646 Clouds 12 1037 12 10000 4.12 240 18:34 09.06.2022
1647 Clear 8 1038 16 10000 3.09 230 16:56 09.06.2022
1648 Clear 6 1038 20 10000 1.03 0 15:49 09.06.2022
1649 Clear 3 1037 34 10000 2.06 10 14:38 09.06.2022
1650 Clear 0 1036 43 10000 2.57 10 13:54 09.06.2022
1651 Clear 0 1036 43 10000 2.57 10 13:28 09.06.2022
1652 Clear -1 1035 46 10000 2.06 10 11:54 09.06.2022
1653 Clear -1 1035 46 10000 2.06 10 11:19 09.06.2022
1654 Clear -4 1035 42 10000 1.03 0 09:45 09.06.2022
1655 Clear -4 1035 42 10000 1.03 0 09:24 09.06.2022
1656 Clear 1 1036 29 10000 2.06 20 07:52 09.06.2022
1657 Clear -1 1036 36 10000 2.06 30 06:33 09.06.2022
1658 Clear 8 1035 31 10000 2.06 330 02:52 09.06.2022
1659 Clear 15 1033 5 10000 5.66 300 23:39 08.06.2022
1660 Clear 15 1034 7 10000 4.12 280 22:58 08.06.2022
1661 Clear 15 1034 7 10000 4.12 280 22:27 08.06.2022
1662 Clouds 16 1034 7 10000 5.14 270 21:54 08.06.2022
1663 Clouds 16 1034 7 10000 5.14 270 21:21 08.06.2022
1664 Clouds 15 1035 6 10000 4.12 260 20:20 08.06.2022
1665 Clear 13 1011 6 10000 4.12 260 19:38 08.06.2022
1666 Clear 13 1037 6 10000 2.06 270 18:43 08.06.2022
1667 Clear 7 1039 19 10000 2.57 250 16:54 08.06.2022
1668 Clear 5 1038 22 10000 2.57 250 15:44 08.06.2022
1669 Clear -1 1036 31 10000 2.57 360 13:51 08.06.2022
1670 Clouds -2 1035 36 10000 1.54 30 11:52 08.06.2022
1671 Clouds -2 1035 36 10000 1.54 30 11:29 08.06.2022
1672 Clear -5 1036 53 10000 1.03 0 09:55 08.06.2022
1673 Clear -5 1036 53 10000 1.03 0 09:21 08.06.2022
1674 Clear -2 1036 46 10000 1.54 10 08:22 08.06.2022
1675 Clear 3 1037 32 10000 2.06 10 05:47 08.06.2022
1676 Clear 7 1036 24 10000 3.09 240 03:20 08.06.2022
1677 Clouds 12 1033 23 10000 3.09 280 00:28 08.06.2022
1678 Clouds 15 1033 15 10000 3.6 290 23:25 07.06.2022
1679 Clouds 17 1033 15 10000 6.69 280 22:42 07.06.2022
1680 Clouds 17 1033 15 10000 6.69 280 22:20 07.06.2022
1681 Clouds 17 1034 18 10000 6.69 280 21:28 07.06.2022
1682 Clouds 16 1035 24 10000 7.2 280 20:52 07.06.2022
1683 Clouds 16 1035 24 10000 7.2 280 20:31 07.06.2022
1684 Clouds 15 1035 26 10000 6.17 300 19:24 07.06.2022
1685 Clouds 10 1037 71 10000 4.12 260 17:57 07.06.2022
1686 Clouds 10 1037 71 10000 4.12 260 17:19 07.06.2022
1687 Clouds 9 1038 76 8000 3.09 270 16:39 07.06.2022
1688 Clouds 6 1037 81 10000 1.03 0 15:42 07.06.2022
1689 Clouds 6 1037 81 10000 1.03 0 15:23 07.06.2022
1690 Fog 3 1037 100 8000 1.03 0 14:46 07.06.2022
1691 Clouds 0 1035 80 10000 2.06 40 13:50 07.06.2022
1692 Clouds 0 1035 80 10000 2.06 40 13:29 07.06.2022
1693 Clouds 1 1035 93 10000 2.06 20 12:39 07.06.2022
1694 Fog 0 1035 100 4000 1.03 0 10:57 07.06.2022
1695 Fog 1 1035 100 4000 0 0 09:58 07.06.2022
1696 Fog 3 1036 93 4000 2.06 80 08:32 07.06.2022
1697 Fog 3 1036 93 4000 3.09 80 07:22 07.06.2022
1698 Fog 7 1036 93 4000 4.12 110 05:48 07.06.2022
1699 Clouds 9 1035 57 10000 2.57 20 02:28 07.06.2022
1700 Clouds 12 1034 22 10000 7.2 280 00:33 07.06.2022
1701 Clouds 14 1034 32 10000 6.69 270 23:32 06.06.2022
1702 Clouds 16 1033 28 10000 6.69 280 22:37 06.06.2022
1703 Clouds 16 1034 30 10000 7.2 280 21:36 06.06.2022
1704 Clouds 15 1036 44 10000 6.17 290 19:53 06.06.2022
1705 Clouds 15 1036 44 10000 6.17 290 19:19 06.06.2022
1706 Clouds 13 1037 58 10000 6.17 280 18:34 06.06.2022
1707 Clouds 12 1037 62 10000 5.14 280 17:42 06.06.2022
1708 Clouds 11 1037 71 10000 3.09 270 16:33 06.06.2022
1709 Clouds 7 1037 93 10000 3.09 250 15:39 06.06.2022
1710 Clouds 7 1036 87 10000 2.06 230 14:39 06.06.2022
1711 Fog 6 1036 93 4000 1.03 0 13:27 06.06.2022
1712 Clouds 6 1035 93 10000 2.06 280 12:37 06.06.2022
1713 Fog 7 1035 93 4000 3.6 330 11:58 06.06.2022
1714 Fog 7 1035 93 4000 3.6 330 11:28 06.06.2022
1715 Rain 7 1035 93 4000 1.03 0 09:40 06.06.2022
1716 Fog 7 1036 100 4000 1.03 0 08:35 06.06.2022
1717 Fog 7 1036 100 4000 2.06 100 07:28 06.06.2022
1718 Clouds 4 1037 100 10000 1.54 60 05:29 06.06.2022
1719 Clouds 4 1037 100 10000 1.54 60 05:29 06.06.2022
1720 Clouds 4 1037 100 10000 1.54 60 05:29 06.06.2022
1721 Rain 5 1036 100 10000 2.57 80 03:44 06.06.2022
1722 Clouds 9 1035 87 10000 2.57 90 01:23 06.06.2022
1723 Clouds 12 1035 66 10000 3.6 90 00:42 06.06.2022
1724 Clouds 14 1035 43 10000 5.14 270 23:44 05.06.2022
1725 Clouds 15 1035 44 10000 5.66 270 22:47 05.06.2022
1726 Clouds 14 1037 58 10000 4.63 260 20:59 05.06.2022
1727 Clouds 14 1038 58 10000 4.12 270 19:50 05.06.2022
1728 Clouds 12 1039 66 10000 3.6 230 18:30 05.06.2022
1729 Clouds 12 1039 66 10000 3.6 230 18:30 05.06.2022
1730 Clouds 10 1040 76 10000 3.09 70 17:55 05.06.2022
1731 Clouds 10 1040 76 10000 3.09 70 17:26 05.06.2022
1732 Clouds 7 1040 87 10000 2.57 260 16:52 05.06.2022
1733 Clouds 7 1040 87 10000 2.57 260 16:34 05.06.2022
1734 Clouds 3 1040 100 500 5.14 320 14:27 05.06.2022
1735 Fog 7 1038 100 4000 1.03 0 12:57 05.06.2022
1736 Fog 7 1037 100 4000 2.57 100 11:47 05.06.2022
1737 Fog 7 1037 100 4000 2.57 150 10:34 05.06.2022
1738 Fog 8 1037 93 4000 2.06 70 09:59 05.06.2022
1739 Fog 8 1038 93 4000 2.57 130 08:34 05.06.2022
1740 Fog 8 1038 93 4000 2.57 100 07:43 05.06.2022
1741 Fog 8 1037 93 800 4.63 90 05:22 05.06.2022
1742 Clouds 6 1036 93 10000 2.57 80 03:47 05.06.2022
1743 Clouds 10 1036 76 10000 3.6 130 01:32 05.06.2022
1744 Clouds 12 1035 57 10000 5.14 110 00:33 05.06.2022
1745 Clouds 14 1035 50 10000 3.09 70 22:22 04.06.2022
1746 Rain 14 1037 50 10000 3.09 280 20:31 04.06.2022
1747 Clouds 11 1039 66 10000 3.09 280 18:19 04.06.2022
1748 Clouds 8 1039 87 6000 2.57 170 16:44 04.06.2022
1749 Clouds 8 1039 87 6000 2.57 170 16:18 04.06.2022
1750 Fog 6 1038 100 4000 3.09 100 14:53 04.06.2022
1751 Fog 1 1037 100 4000 3.09 80 12:35 04.06.2022
1752 Fog 2 1037 100 4000 1.03 0 11:18 04.06.2022
1753 Fog 4 1037 100 4000 2.57 90 10:43 04.06.2022
1754 Fog 6 1037 100 4000 2.57 110 09:42 04.06.2022
1755 Fog 7 1038 93 4000 2.06 120 08:41 04.06.2022
1756 Fog 7 1038 100 4000 3.09 90 07:40 04.06.2022
1757 Fog 6 1036 100 4000 4.12 90 04:57 04.06.2022
1758 Clouds 11 1035 46 10000 2.06 350 01:27 04.06.2022
1759 Clouds 15 1035 33 10000 6.17 280 23:59 03.06.2022
1760 Clouds 15 1035 33 10000 3.6 250 22:40 03.06.2022
1761 Clouds 16 1036 30 10000 5.14 270 21:24 03.06.2022
1762 Clouds 16 1036 30 10000 3.6 270 20:33 03.06.2022
1763 Clouds 15 1038 33 10000 4.12 270 18:23 03.06.2022
1764 Clouds 12 1039 50 10000 1.03 0 16:47 03.06.2022
1765 Clouds 10 1039 66 10000 1.03 0 15:18 03.06.2022
1766 Fog 7 1037 93 4000 2.06 130 13:20 03.06.2022
1767 Fog 4 1037 100 4000 2.06 110 11:19 03.06.2022
1768 Fog 4 1037 100 4000 1.54 80 09:38 03.06.2022
1769 Fog 6 1037 100 4000 2.57 120 08:45 03.06.2022
1770 Fog 5 1037 93 4000 2.57 90 07:26 03.06.2022
1771 Fog 5 1037 93 4000 2.57 90 07:26 03.06.2022
1772 Fog 8 1037 93 4000 3.6 110 06:34 03.06.2022
1773 Fog 7 1037 93 4000 2.57 80 05:36 03.06.2022
1774 Clouds 13 1034 37 10000 4.12 300 00:28 03.06.2022
1775 Clouds 17 1034 26 10000 6.17 290 22:41 02.06.2022
1776 Clouds 16 1034 28 10000 6.17 290 21:40 02.06.2022
1777 Clouds 16 1035 28 10000 7.2 290 20:22 02.06.2022
1778 Clouds 16 1036 26 10000 7.2 280 19:46 02.06.2022
1779 Clouds 16 1036 26 10000 7.2 280 19:28 02.06.2022
1780 Clouds 13 1037 32 10000 4.63 270 17:32 02.06.2022
1781 Clouds 10 1037 49 10000 2.57 260 16:27 02.06.2022
1782 Clouds 4 1036 93 10000 1.03 0 14:19 02.06.2022
1783 Clouds 5 1035 81 10000 2.06 10 13:29 02.06.2022
1784 Clouds 4 1035 93 10000 1.03 0 11:24 02.06.2022
1785 Clouds 4 1034 100 10000 1.03 0 10:20 02.06.2022
1786 Fog 5 1035 100 4000 1.03 0 09:27 02.06.2022
1787 Fog 5 1035 100 4000 1.54 150 08:26 02.06.2022
1788 Fog 4 1035 100 4000 2.06 100 07:21 02.06.2022
1789 Fog 6 1035 100 4000 2.57 70 04:49 02.06.2022
1790 Clouds 8 1033 87 10000 3.09 90 02:37 02.06.2022
1791 Clouds 14 1032 37 10000 5.14 300 23:43 01.06.2022
1792 Clouds 14 1032 37 10000 5.14 300 23:43 01.06.2022
1793 Rain 15 1032 33 10000 7.72 290 22:31 01.06.2022
1794 Clouds 16 1032 28 10000 9.77 280 21:32 01.06.2022
1795 Clouds 16 1032 30 10000 9.26 290 20:40 01.06.2022
1796 Clouds 16 1033 28 10000 9.26 290 19:59 01.06.2022
1797 Clouds 16 1033 28 10000 9.26 290 19:19 01.06.2022
1798 Clouds 15 1035 33 10000 7.2 300 17:44 01.06.2022
1799 Clouds 13 1035 40 10000 6.69 310 16:34 01.06.2022
1800 Clouds 7 1034 70 10000 2.06 250 14:52 01.06.2022
1801 Fog 4 1034 93 4000 0 0 13:45 01.06.2022
1802 Fog 2 1033 93 4000 0 0 12:25 01.06.2022
1803 Clouds 7 1033 70 10000 1.03 0 09:36 01.06.2022
1804 Clouds 3 1033 93 10000 1.03 0 08:29 01.06.2022
1805 Clouds 5 1034 93 10000 2.57 40 07:21 01.06.2022
1806 Clouds 10 1034 49 10000 2.57 210 04:59 01.06.2022
1807 Clouds 15 1031 24 10000 6.69 320 23:57 31.05.2022
1808 Clouds 15 1031 22 10000 8.75 300 22:51 31.05.2022
1809 Clouds 15 1031 22 10000 8.75 300 22:29 31.05.2022
1810 Clouds 16 1032 23 10000 8.23 310 21:45 31.05.2022
1811 Clouds 17 1033 23 10000 7.2 300 20:44 31.05.2022
1812 Clouds 16 1034 26 10000 6.69 290 19:52 31.05.2022
1813 Clouds 15 1035 33 10000 6.69 290 18:45 31.05.2022
1814 Clouds 14 1036 30 10000 5.14 290 17:49 31.05.2022
1815 Clouds 12 1036 46 10000 5.66 290 16:48 31.05.2022
1816 Clouds 10 1036 66 10000 3.09 310 15:40 31.05.2022
1817 Clouds 4 1034 93 10000 1.03 0 13:37 31.05.2022
1818 Clouds 4 1034 100 10000 0 0 12:19 31.05.2022
1819 Clouds 0 1033 93 10000 0 0 10:52 31.05.2022
1820 Fog 3 1035 100 4000 2.06 60 08:37 31.05.2022
1821 Fog 2 1035 100 4000 2.06 60 06:52 31.05.2022
1822 Clouds 3 1034 100 10000 3.09 80 04:34 31.05.2022
1823 Clouds 16 1032 19 10000 7.2 300 23:49 30.05.2022
1824 Clouds 16 1032 19 10000 7.2 300 23:25 30.05.2022
1825 Clouds 17 1033 21 10000 6.69 290 22:43 30.05.2022
1826 Clouds 17 1033 23 10000 6.17 300 21:47 30.05.2022
1827 Clouds 17 1033 23 10000 6.17 300 21:29 30.05.2022
1828 Clouds 16 1035 23 10000 6.17 280 19:51 30.05.2022
1829 Clouds 15 1036 21 10000 6.17 280 18:26 30.05.2022
1830 Clouds 13 1037 24 10000 4.12 280 17:23 30.05.2022
1831 Clouds 12 1037 23 10000 3.6 270 16:36 30.05.2022
1832 Clouds 1 1036 59 10000 2.57 10 13:44 30.05.2022
1833 Clear 3 1035 44 10000 2.57 10 11:54 30.05.2022
1834 Clear 2 1035 51 10000 2.57 360 10:20 30.05.2022
1835 Clear 3 1035 51 10000 2.57 10 09:18 30.05.2022
1836 Clear 0 1036 93 10000 2.06 50 06:28 30.05.2022
1837 Clear 4 1036 80 10000 2.57 90 04:52 30.05.2022
1838 Clear 11 1034 23 10000 2.57 300 01:23 30.05.2022
1839 Clouds 16 1033 15 10000 7.2 290 22:49 29.05.2022
1840 Clouds 16 1033 15 10000 7.2 290 22:28 29.05.2022
1841 Clouds 16 1035 17 10000 6.69 280 20:29 29.05.2022
1842 Clouds 16 1036 15 10000 6.17 280 19:29 29.05.2022
1843 Clouds 15 1037 19 10000 5.66 260 18:34 29.05.2022
1844 Clouds 12 1038 22 10000 4.12 300 16:25 29.05.2022
1845 Clouds 11 1037 23 10000 2.57 300 15:46 29.05.2022
1846 Clouds 5 1036 41 10000 1.03 0 14:54 29.05.2022
1847 Clear -2 1035 74 10000 2.06 10 12:57 29.05.2022
1848 Clear -1 1035 74 10000 1.03 0 11:20 29.05.2022
1849 Clear 3 1035 55 10000 2.57 10 10:34 29.05.2022
1850 Clear 3 1036 44 10000 3.09 10 08:31 29.05.2022
1851 Clear 3 1036 86 10000 2.57 60 04:58 29.05.2022
1852 Clear 3 1036 86 10000 2.57 60 04:36 29.05.2022
1853 Clear 11 1034 25 10000 3.6 310 01:28 29.05.2022
1854 Clouds 15 1033 19 10000 6.17 300 23:48 28.05.2022
1855 Clouds 15 1033 19 10000 6.17 300 23:19 28.05.2022
1856 Clouds 16 1034 19 10000 6.69 290 21:53 28.05.2022
1857 Clouds 16 1035 17 10000 6.69 270 20:58 28.05.2022
1858 Clouds 16 1036 15 10000 5.14 280 19:20 28.05.2022
1859 Clouds 15 1037 15 10000 4.63 280 18:24 28.05.2022
1860 Clouds 13 1038 17 10000 3.6 280 17:33 28.05.2022
1861 Clear 9 1038 21 10000 1.03 0 15:51 28.05.2022
1862 Clear 9 1038 21 10000 1.03 0 15:20 28.05.2022
1863 Clear 2 1037 47 10000 2.06 10 13:38 28.05.2022
1864 Clear 1 1036 55 10000 1.03 0 12:43 28.05.2022
1865 Clear -1 1035 54 10000 2.06 360 11:37 28.05.2022
1866 Clear 0 1036 46 10000 1.03 0 10:39 28.05.2022
1867 Clear -1 1036 54 10000 2.06 40 09:54 28.05.2022
1868 Clear 0 1037 54 10000 1.03 0 08:33 28.05.2022
1869 Clear 5 1038 56 10000 2.06 360 06:50 28.05.2022
1870 Clear 1 1038 80 10000 1.03 0 05:18 28.05.2022
1871 Clear 5 1036 60 10000 3.09 80 02:26 28.05.2022
1872 Clouds 16 1035 15 10000 5.66 300 23:57 27.05.2022
1873 Clouds 18 1035 12 10000 5.66 290 22:38 27.05.2022
1874 Clouds 17 1036 13 10000 3.09 270 21:28 27.05.2022
1875 Clouds 17 1037 13 10000 4.63 250 20:44 27.05.2022
1876 Clouds 17 1037 13 10000 4.63 250 20:19 27.05.2022
1877 Clouds 16 1038 14 10000 4.63 260 19:38 27.05.2022
1878 Clouds 16 1038 14 10000 4.63 260 19:19 27.05.2022
1879 Clouds 14 1039 16 10000 1.54 220 17:19 27.05.2022
1880 Clouds 11 1040 18 10000 1.54 80 15:56 27.05.2022
1881 Clouds 6 1040 45 10000 1.03 0 14:53 27.05.2022
1882 Clouds -1 1039 63 10000 1.03 0 13:40 27.05.2022
1883 Clouds 2 1037 51 10000 2.57 10 11:55 27.05.2022
1884 Clouds 2 1037 51 10000 2.57 10 11:30 27.05.2022
1885 Clouds 1 1038 55 10000 2.06 10 10:38 27.05.2022
1886 Clouds -1 1038 74 10000 1.03 0 09:58 27.05.2022
1887 Clouds -1 1038 74 10000 1.03 0 09:28 27.05.2022
1888 Clear 3 1039 80 10000 2.57 30 07:30 27.05.2022
1889 Clouds 6 1039 81 10000 3.09 200 03:38 27.05.2022
1890 Clouds 6 1036 65 10000 3.6 80 01:19 27.05.2022
1891 Clouds 15 1036 24 10000 3.6 110 23:23 26.05.2022
1892 Clouds 16 1037 24 10000 2.57 150 21:53 26.05.2022
1893 Clouds 16 1037 24 10000 2.57 150 21:27 26.05.2022
1894 Clouds 16 1039 23 10000 1.54 80 19:34 26.05.2022
1895 Clouds 13 1040 28 10000 2.06 170 18:31 26.05.2022
1896 Clouds 13 1040 24 10000 2.06 150 17:36 26.05.2022
1897 Clouds 13 1041 17 10000 1.03 0 16:18 26.05.2022
1898 Clouds 10 1041 34 10000 1.03 0 15:19 26.05.2022
1899 Clouds 3 1039 47 10000 2.06 360 13:56 26.05.2022
1900 Clouds 1 1038 64 10000 2.06 30 11:49 26.05.2022
1901 Clouds 2 1038 80 10000 1.03 0 10:39 26.05.2022
1902 Clouds 1 1038 100 10000 1.03 0 09:38 26.05.2022
1903 Fog 1 1038 93 4000 2.06 70 08:38 26.05.2022
1904 Clouds 3 1039 86 10000 2.57 60 05:26 26.05.2022
1905 Clouds 5 1037 70 10000 3.6 80 02:19 26.05.2022
1906 Clouds 15 1035 15 10000 5.14 300 23:41 25.05.2022
1907 Clouds 16 1035 17 10000 5.14 280 22:51 25.05.2022
1908 Clouds 16 1035 18 10000 4.63 290 21:39 25.05.2022
1909 Clouds 16 1037 18 10000 4.63 280 20:43 25.05.2022
1910 Clouds 16 1038 19 10000 4.12 280 19:32 25.05.2022
1911 Clouds 15 1038 22 10000 3.09 250 18:23 25.05.2022
1912 Clouds 10 1039 34 10000 3.09 260 16:42 25.05.2022
1913 Clouds 10 1039 34 10000 3.09 260 16:21 25.05.2022
1914 Clouds 8 1039 36 10000 2.06 270 15:24 25.05.2022
1915 Clouds 3 1038 47 10000 1.03 0 14:38 25.05.2022
1916 Clouds 3 1038 47 10000 1.03 0 14:19 25.05.2022
1917 Clear 1 1037 47 10000 1.03 0 12:52 25.05.2022
1918 Clear 2 1021 66 10000 0.77 307 11:31 25.05.2022
1919 Clear 2 1037 43 10000 3.09 10 10:22 25.05.2022
1920 Clear 2 1020 72 10000 0.72 112 08:45 25.05.2022
1921 Clear 3 1020 73 10000 1.1 114 07:23 25.05.2022
1922 Clear 3 1020 73 10000 1.1 114 07:23 25.05.2022
1923 Clear 2 1037 80 10000 4.12 80 05:23 25.05.2022
1924 Clear 13 1035 13 10000 3.6 280 00:31 25.05.2022
1925 Clouds 16 1034 12 10000 3.6 290 23:47 24.05.2022
1926 Clouds 16 1034 9 10000 4.63 260 22:52 24.05.2022
1927 Clouds 17 1035 10 10000 4.12 320 21:46 24.05.2022
1928 Clouds 17 1035 10 10000 4.12 320 21:21 24.05.2022
1929 Clouds 16 1036 9 10000 4.63 290 20:38 24.05.2022
1930 Clouds 15 1038 11 10000 3.09 270 18:57 24.05.2022
1931 Clear 13 1038 20 10000 4.63 270 17:19 24.05.2022
1932 Clear 10 1038 31 10000 3.6 260 16:28 24.05.2022
1933 Clear 8 1038 26 10000 2.57 290 15:20 24.05.2022
1934 Clear 4 1037 35 10000 1.03 0 14:34 24.05.2022
1935 Clear 0 1036 54 10000 0 0 13:27 24.05.2022
1936 Clear 2 1035 34 10000 3.09 10 11:53 24.05.2022
1937 Clear -1 1036 43 10000 1.03 0 09:49 24.05.2022
1938 Clear 2 1019 47 10000 0.83 281 08:51 24.05.2022
1939 Clear -1 1037 46 10000 1.54 10 07:30 24.05.2022
1940 Clear 0 1037 46 10000 3.09 90 05:59 24.05.2022
1941 Clear 5 1036 22 10000 0 0 02:53 24.05.2022
1942 Clear 10 1035 19 10000 2.57 290 01:44 24.05.2022
1943 Clouds 16 1035 8 10000 2.06 290 23:44 23.05.2022
1944 Clouds 16 1035 9 10000 2.06 290 22:22 23.05.2022
1945 Clouds 15 1035 8 10000 3.09 320 21:41 23.05.2022
1946 Clouds 15 1036 8 10000 3.6 250 20:45 23.05.2022
1947 Clear 14 1037 9 10000 3.09 250 19:41 23.05.2022
1948 Clear 14 1037 9 10000 3.09 250 19:18 23.05.2022
1949 Clear 13 1039 9 10000 3.09 260 18:37 23.05.2022
1950 Clear 11 1039 17 10000 2.57 250 17:55 23.05.2022
1951 Clear 6 1038 17 10000 2.06 250 15:53 23.05.2022
1952 Clear -2 1037 42 10000 1.54 280 13:44 23.05.2022
1953 Clear -6 1037 57 10000 2.06 360 11:40 23.05.2022
1954 Clear -4 1037 49 10000 1.03 0 10:44 23.05.2022
1955 Clear 1 1037 40 10000 2.57 360 09:45 23.05.2022
1956 Clouds 1 1038 31 10000 2.06 10 08:44 23.05.2022
1957 Clear 3 1038 25 10000 2.06 350 06:48 23.05.2022
1958 Clear 3 1038 25 10000 2.06 350 06:24 23.05.2022
1959 Clouds 8 1037 26 10000 2.57 320 02:36 23.05.2022
1960 Clouds 10 1036 21 10000 3.6 280 01:48 23.05.2022
1961 Clouds 10 1036 21 10000 3.6 280 01:19 23.05.2022
1962 Clouds 15 1036 15 10000 5.14 270 22:48 22.05.2022
1963 Clouds 15 1036 15 10000 5.14 270 22:21 22.05.2022
1964 Clouds 16 1036 15 10000 8.23 270 21:50 22.05.2022
1965 Clouds 16 1037 14 10000 7.72 270 20:42 22.05.2022
1966 Clouds 16 1037 14 10000 7.72 270 20:20 22.05.2022
1967 Clouds 14 1039 19 10000 7.72 270 18:58 22.05.2022
1968 Clouds 14 1039 19 10000 7.72 270 18:31 22.05.2022
1969 Clouds 13 1040 20 10000 4.12 270 17:55 22.05.2022
1970 Clouds 11 1041 20 10000 3.09 270 16:51 22.05.2022
1971 Clouds 9 1040 36 10000 2.57 260 15:22 22.05.2022
1972 Clouds 7 1039 38 10000 2.06 360 14:35 22.05.2022
1973 Clouds 3 1038 55 10000 0 0 12:54 22.05.2022
1974 Clouds 4 1038 51 10000 0 0 11:53 22.05.2022
1975 Clouds 3 1038 55 10000 0 0 10:38 22.05.2022
1976 Clouds 2 1038 59 10000 2.06 70 09:27 22.05.2022
1977 Clouds 1 1039 74 10000 1.03 0 07:44 22.05.2022
1978 Clouds 1 1039 74 10000 2.57 80 06:41 22.05.2022
1979 Clear 4 1039 48 10000 3.09 70 03:25 22.05.2022
1980 Clouds 14 1037 19 10000 4.12 300 00:49 22.05.2022
1981 Clouds 16 1037 18 10000 6.17 290 23:56 21.05.2022
1982 Clouds 16 1037 18 10000 6.17 290 23:27 21.05.2022
1983 Clouds 17 1037 14 10000 6.17 290 21:59 21.05.2022
1984 Clouds 17 1037 14 10000 6.17 290 21:34 21.05.2022
1985 Clouds 17 1038 14 10000 4.63 260 20:34 21.05.2022
1986 Clouds 17 1039 14 10000 4.63 260 19:44 21.05.2022
1987 Clouds 16 1040 12 10000 4.12 300 18:45 21.05.2022
1988 Clouds 12 1041 22 10000 2.57 250 16:57 21.05.2022
1989 Clouds 6 1040 38 10000 2.06 10 14:39 21.05.2022
1990 Clouds 2 1039 51 10000 2.57 360 13:55 21.05.2022
1991 Clouds 2 1039 51 10000 2.57 360 13:19 21.05.2022
1992 Clouds 3 1038 51 10000 3.09 360 12:38 21.05.2022
1993 Clouds 3 1038 47 10000 3.09 360 11:20 21.05.2022
1994 Clouds 2 1038 47 10000 2.06 20 09:57 21.05.2022
1995 Clouds -1 1039 68 10000 1.54 60 08:59 21.05.2022
1996 Clouds -1 1039 68 10000 1.54 60 08:37 21.05.2022
1997 Clouds 5 1020 55 10000 1.05 142 05:52 21.05.2022
1998 Clouds 10 1038 18 10000 3.6 280 01:33 21.05.2022
1999 Clouds 16 1036 14 10000 5.14 250 23:30 20.05.2022
2000 Clouds 17 1036 13 10000 5.66 250 22:26 20.05.2022
2001 Clouds 17 1037 13 10000 4.63 230 21:55 20.05.2022
2002 Clouds 17 1037 13 10000 4.63 230 21:55 20.05.2022
2003 Clouds 17 1037 13 10000 4.63 230 21:18 20.05.2022
2004 Clouds 17 1038 13 10000 4.12 290 20:44 20.05.2022
2005 Clouds 16 1039 12 10000 4.63 310 19:45 20.05.2022
2006 Clouds 14 1040 16 10000 4.63 290 18:48 20.05.2022
2007 Clouds 12 1040 20 10000 3.09 260 17:47 20.05.2022
2008 Clouds 10 1040 23 10000 3.09 240 16:21 20.05.2022
2009 Clouds 8 1040 24 10000 2.06 260 15:53 20.05.2022
2010 Clouds 5 1039 35 10000 2.06 350 14:31 20.05.2022
2011 Clouds 1 1039 47 10000 2.57 360 13:56 20.05.2022
2012 Clouds 1 1038 43 10000 2.57 10 11:49 20.05.2022
2013 Clouds 3 1038 40 10000 2.57 350 10:24 20.05.2022
2014 Clouds 3 1039 37 10000 1.03 0 08:50 20.05.2022
2015 Clouds 4 1040 38 10000 1.03 0 07:25 20.05.2022
2016 Clouds 5 1040 35 10000 2.57 260 06:36 20.05.2022
2017 Clouds 6 1040 30 10000 1.03 0 05:22 20.05.2022
2018 Clouds 12 1037 22 10000 2.06 250 00:54 20.05.2022
2019 Clouds 14 1037 17 10000 3.6 270 23:25 19.05.2022
2020 Clouds 15 1037 18 10000 6.17 230 22:26 19.05.2022
2021 Clouds 16 1037 17 10000 5.14 230 21:49 19.05.2022
2022 Clouds 16 1037 17 10000 5.14 230 21:23 19.05.2022
2023 Clouds 17 1038 15 10000 4.12 250 20:40 19.05.2022
2024 Clouds 16 1039 18 10000 6.17 280 19:53 19.05.2022
2025 Clouds 14 1040 20 10000 4.12 230 18:34 19.05.2022
2026 Clouds 13 1041 24 10000 4.12 240 17:31 19.05.2022
2027 Clouds 11 1040 29 10000 1.54 240 15:21 19.05.2022
2028 Clouds 6 1039 45 10000 1.03 0 14:26 19.05.2022
2029 Clouds 3 1039 51 10000 2.57 10 13:47 19.05.2022
2030 Clouds 4 1038 44 10000 2.57 360 11:41 19.05.2022
2031 Clouds 4 1038 41 10000 2.06 360 09:34 19.05.2022
2032 Clouds 3 1039 47 10000 2.06 10 08:18 19.05.2022
2033 Clouds 3 1040 47 10000 2.06 30 06:18 19.05.2022
2034 Clouds 3 1040 47 10000 2.06 30 06:18 19.05.2022
2035 Clouds 8 1038 45 10000 1.54 60 02:27 19.05.2022
2036 Clouds 15 1036 13 10000 2.57 250 00:40 19.05.2022
2037 Clouds 19 1037 14 10000 4.12 280 22:51 18.05.2022
2038 Clouds 19 1037 14 10000 4.12 280 22:24 18.05.2022
2039 Clouds 19 1037 12 10000 2.06 260 21:30 18.05.2022
2040 Clouds 19 1039 11 10000 5.14 230 20:50 18.05.2022
2041 Clouds 19 1039 11 10000 5.14 230 20:18 18.05.2022
2042 Clouds 19 1039 11 10000 5.14 230 20:18 18.05.2022
2043 Clouds 16 1041 12 10000 3.6 240 18:33 18.05.2022
2044 Clouds 16 1042 11 10000 3.6 270 17:41 18.05.2022
2045 Clouds 16 1042 11 10000 3.6 270 17:23 18.05.2022
2046 Clouds 14 1042 12 10000 1.03 0 16:34 18.05.2022
2047 Clouds 11 1042 11 10000 1.03 0 15:42 18.05.2022
2048 Clouds 6 1041 28 10000 2.57 10 14:35 18.05.2022
2049 Clouds 2 1040 29 10000 1.03 0 13:41 18.05.2022
2050 Clouds 3 1039 21 10000 2.57 10 12:43 18.05.2022
2051 Clouds 3 1039 21 10000 2.57 360 11:34 18.05.2022
2052 Clouds 1 1039 29 10000 1.54 20 10:56 18.05.2022
2053 Clear 2 1039 25 10000 1.03 0 09:31 18.05.2022
2054 Clouds 2 1040 29 10000 1.03 0 07:51 18.05.2022
2055 Clouds 5 1040 30 10000 3.09 10 06:41 18.05.2022
2056 Clouds 12 1038 20 10000 1.54 330 01:22 18.05.2022
2057 Clouds 15 1037 18 10000 2.06 300 00:23 18.05.2022
2058 Clouds 18 1038 16 10000 4.12 290 21:57 17.05.2022
2059 Clouds 18 1038 16 10000 4.12 290 21:20 17.05.2022
2060 Clouds 18 1038 16 10000 4.12 290 21:20 17.05.2022
2061 Clouds 18 1039 14 10000 4.63 270 20:19 17.05.2022
2062 Clouds 17 1040 15 10000 4.63 270 19:28 17.05.2022
2063 Clouds 14 1042 19 10000 3.09 250 17:51 17.05.2022
2064 Clouds 13 1042 20 10000 1.03 0 16:59 17.05.2022
2065 Clouds 13 1042 20 10000 1.03 0 16:29 17.05.2022
2066 Clouds 10 1042 27 10000 1.03 0 15:25 17.05.2022
2067 Clouds 6 1041 38 10000 2.06 360 14:30 17.05.2022
2068 Clouds 1 1040 55 10000 2.57 10 13:35 17.05.2022
2069 Clouds 2 1039 55 10000 2.06 10 11:43 17.05.2022
2070 Clouds -2 1040 93 10000 2.57 60 09:27 17.05.2022
2071 Clouds 0 1040 100 8000 1.54 60 08:25 17.05.2022
2072 Clouds 4 1040 64 8000 1.03 0 06:46 17.05.2022
2073 Clear 9 1039 39 10000 2.57 310 03:20 17.05.2022
2074 Clouds 14 1037 26 10000 3.6 320 00:36 17.05.2022
2075 Clouds 17 1037 23 10000 5.14 280 22:42 16.05.2022
2076 Clouds 17 1038 23 10000 5.66 280 21:37 16.05.2022
2077 Clouds 17 1038 25 10000 6.17 300 20:46 16.05.2022
2078 Clouds 17 1039 26 10000 5.66 280 19:22 16.05.2022
2079 Clouds 15 1040 35 10000 4.63 310 18:18 16.05.2022
2080 Clouds 8 1041 33 10000 1.03 0 15:49 16.05.2022
2081 Clouds 1 1039 80 10000 1.54 10 13:49 16.05.2022
2082 Clouds 1 1039 80 10000 1.54 10 13:20 16.05.2022
2083 Clouds 0 1038 86 10000 1.03 0 10:53 16.05.2022
2084 Fog 0 1039 100 4000 2.06 90 09:23 16.05.2022
2085 Fog 3 1039 93 4000 2.06 90 06:34 16.05.2022
2086 Clouds 9 1037 36 10000 1.03 0 02:38 16.05.2022
2087 Clouds 16 1036 15 10000 5.66 280 23:19 15.05.2022
2088 Clouds 17 1036 21 10000 5.66 280 22:29 15.05.2022
2089 Clouds 18 1036 18 10000 6.17 270 21:39 15.05.2022
2090 Clouds 16 1037 19 10000 5.14 280 20:53 15.05.2022
2091 Clouds 16 1038 19 10000 5.14 300 19:24 15.05.2022
2092 Clouds 13 1040 20 10000 4.12 300 17:48 15.05.2022
2093 Clouds 11 1040 21 10000 1.54 320 15:44 15.05.2022
2094 Clouds 3 1038 44 10000 2.57 10 13:49 15.05.2022
2095 Clouds 3 1038 44 10000 3.09 10 12:22 15.05.2022
2096 Clouds 3 1038 40 10000 3.09 10 11:38 15.05.2022
2097 Clouds 3 1038 44 10000 2.06 360 10:20 15.05.2022
2098 Clear 1 1038 47 10000 1.03 0 07:36 15.05.2022
2099 Clear 4 1038 35 10000 1.03 0 06:57 15.05.2022
2100 Clear 8 1038 36 10000 2.06 170 04:26 15.05.2022
2101 Clouds 14 1035 32 10000 6.69 320 00:48 15.05.2022
2102 Clouds 16 1035 19 10000 6.69 300 23:38 14.05.2022
2103 Clouds 17 1035 23 10000 8.23 310 22:45 14.05.2022
2104 Clouds 17 1035 26 10000 7.72 300 21:27 14.05.2022
2105 Clouds 18 1036 21 10000 6.69 270 20:32 14.05.2022
2106 Clouds 17 1037 21 10000 7.2 290 19:21 14.05.2022
2107 Clouds 16 1038 19 10000 4.63 270 18:59 14.05.2022
2108 Clouds 15 1039 21 10000 4.63 250 17:53 14.05.2022
2109 Clouds 13 1039 22 10000 3.6 250 16:23 14.05.2022
2110 Clouds 7 1038 45 10000 1.03 0 14:50 14.05.2022
2111 Clouds 7 1038 45 10000 1.03 0 14:26 14.05.2022
2112 Clouds 3 1037 55 10000 2.57 360 12:18 14.05.2022
2113 Clouds 3 1037 60 10000 1.03 0 10:53 14.05.2022
2114 Clouds 3 1037 60 10000 1.03 0 10:20 14.05.2022
2115 Clouds 4 1037 60 10000 2.57 80 09:46 14.05.2022
2116 Clouds 2 1038 74 10000 1.03 0 07:59 14.05.2022
2117 Clouds 3 1038 93 10000 2.57 70 05:21 14.05.2022
2118 Clouds 12 1034 27 10000 2.57 320 01:57 14.05.2022
2119 Clouds 17 1034 17 10000 6.17 290 23:28 13.05.2022
2120 Clouds 17 1034 18 10000 7.2 290 22:56 13.05.2022
2121 Clouds 17 1034 18 10000 7.2 290 22:22 13.05.2022
2122 Clouds 18 1035 18 10000 6.17 300 21:24 13.05.2022
2123 Clouds 18 1036 17 10000 6.17 270 20:43 13.05.2022
2124 Clouds 18 1036 17 10000 6.17 270 20:22 13.05.2022
2125 Clouds 17 1037 20 10000 5.66 270 19:19 13.05.2022
2126 Clouds 15 1038 22 10000 3.6 290 17:47 13.05.2022
2127 Clouds 15 1038 22 10000 3.6 290 17:23 13.05.2022
2128 Clouds 10 1038 39 10000 2.57 260 15:48 13.05.2022
2129 Clouds 7 1037 45 10000 2.06 360 14:45 13.05.2022
2130 Clear 2 1036 64 10000 1.54 270 12:54 13.05.2022
2131 Clear 2 1036 64 10000 1.54 270 12:20 13.05.2022
2132 Clear -2 1035 80 10000 2.06 40 10:19 13.05.2022
2133 Clear -1 1036 74 10000 1.03 0 09:29 13.05.2022
2134 Clear 0 1037 69 10000 3.09 90 07:59 13.05.2022
2135 Clear 0 1037 69 10000 3.09 90 07:26 13.05.2022
2136 Clear 1 1037 93 10000 2.57 50 05:31 13.05.2022
2137 Clouds 11 1035 34 10000 3.09 310 01:21 13.05.2022
2138 Clouds 16 1034 18 10000 5.66 290 23:24 12.05.2022
2139 Clouds 17 1035 14 10000 5.14 290 22:34 12.05.2022
2140 Clouds 17 1035 15 10000 4.12 300 21:26 12.05.2022
2141 Clouds 17 1037 14 10000 4.12 260 19:51 12.05.2022
2142 Clouds 16 1038 17 10000 2.06 260 18:27 12.05.2022
2143 Clouds 11 1040 43 10000 1.03 0 16:45 12.05.2022
2144 Clouds 5 1038 65 10000 1.03 0 14:57 12.05.2022
2145 Clouds 0 1038 74 10000 1.03 0 13:50 12.05.2022
2146 Fog 2 1037 100 4000 0 0 11:55 12.05.2022
2147 Fog 4 1037 100 4000 1.03 0 10:32 12.05.2022
2148 Fog 6 1037 93 4000 4.12 80 08:53 12.05.2022
2149 Clouds 5 1038 100 4000 4.63 90 07:59 12.05.2022
2150 Clouds 5 1038 100 4000 4.63 90 07:22 12.05.2022
2151 Clouds 5 1037 93 10000 3.09 90 03:50 12.05.2022
2152 Clouds 10 1035 19 10000 1.03 0 01:29 12.05.2022
2153 Clouds 15 1035 21 10000 5.14 300 23:18 11.05.2022
2154 Clouds 16 1035 13 10000 5.66 290 22:18 11.05.2022
2155 Clouds 17 1035 12 10000 3.6 270 21:24 11.05.2022
2156 Clouds 16 1036 13 10000 3.6 270 20:20 11.05.2022
2157 Clouds 14 1039 30 10000 4.63 130 17:33 11.05.2022
2158 Clouds 12 1039 34 10000 4.12 100 16:19 11.05.2022
2159 Clouds 7 1039 45 10000 1.03 0 14:47 11.05.2022
2160 Clouds 7 1039 45 10000 1.03 0 14:24 11.05.2022
2161 Clouds 1 1038 80 10000 1.03 0 12:39 11.05.2022
2162 Clouds 1 1037 100 10000 2.06 50 11:47 11.05.2022
2163 Clouds 6 1038 87 10000 1.03 0 09:29 11.05.2022
2164 Fog 7 1039 93 4000 3.6 90 06:27 11.05.2022
2165 Clouds 10 1036 57 10000 3.6 100 01:53 11.05.2022
2166 Clouds 17 1035 21 10000 6.17 280 22:56 10.05.2022
2167 Clouds 17 1035 21 10000 6.17 280 22:21 10.05.2022
2168 Clouds 17 1036 25 10000 5.14 260 21:26 10.05.2022
2169 Clouds 17 1036 23 10000 5.14 300 20:26 10.05.2022
2170 Clouds 15 1016 24 10000 3.09 300 18:38 10.05.2022
2171 Clouds 14 1039 37 10000 2.57 250 17:38 10.05.2022
2172 Clouds 7 1040 87 6000 1.03 0 15:56 10.05.2022
2173 Fog 3 1038 100 4000 2.06 90 12:51 10.05.2022
2174 Fog 3 1037 100 4000 2.57 70 11:53 10.05.2022
2175 Fog 3 1037 100 4000 2.57 70 11:30 10.05.2022
2176 Fog 5 1037 100 4000 2.57 90 10:56 10.05.2022
2177 Fog 4 1038 93 4000 2.57 80 09:28 10.05.2022
2178 Fog 3 1038 100 4000 2.57 80 07:51 10.05.2022
2179 Fog 6 1038 100 4000 4.12 90 05:43 10.05.2022
2180 Clear 11 1035 37 10000 2.57 50 01:53 10.05.2022
2181 Clouds 16 1035 24 10000 5.14 280 23:43 09.05.2022
2182 Clouds 17 1035 23 10000 6.69 280 22:33 09.05.2022
2183 Clouds 17 1035 18 10000 6.69 270 21:36 09.05.2022
2184 Clouds 17 1037 17 10000 5.66 320 19:52 09.05.2022
2185 Clouds 16 1038 33 10000 6.17 290 18:25 09.05.2022
2186 Clouds 14 1039 35 10000 4.63 270 17:25 09.05.2022
2187 Clouds 9 1039 39 10000 1.03 0 15:54 09.05.2022
2188 Clouds 9 1039 39 10000 1.03 0 15:35 09.05.2022
2189 Clouds 4 1038 87 10000 1.54 90 14:33 09.05.2022
2190 Clouds -3 1037 80 10000 0 0 13:51 09.05.2022
2191 Clouds 0 1036 74 10000 1.03 0 12:51 09.05.2022
2192 Clouds 2 1036 69 10000 1.54 10 11:52 09.05.2022
2193 Clouds -3 1036 93 10000 0 0 10:46 09.05.2022
2194 Clouds -1 1037 93 10000 0 0 09:59 09.05.2022
2195 Clouds 3 1037 86 10000 2.06 40 07:56 09.05.2022
2196 Fog 6 1038 100 4000 3.09 90 04:33 09.05.2022
2197 Fog 6 1038 100 4000 3.09 90 04:33 09.05.2022
2198 Clouds 14 1034 30 10000 4.63 300 00:22 09.05.2022
2199 Clouds 17 1035 21 10000 6.69 280 22:58 08.05.2022
2200 Clouds 17 1035 21 10000 6.69 280 22:27 08.05.2022
2201 Clouds 17 1036 23 10000 6.17 290 20:41 08.05.2022
2202 Clouds 16 1037 38 10000 5.66 290 19:53 08.05.2022
2203 Clouds 16 1037 38 10000 5.66 290 19:27 08.05.2022
2204 Clouds 16 1037 38 10000 5.66 290 19:27 08.05.2022
2205 Clouds 15 1038 47 10000 4.63 270 18:25 08.05.2022
2206 Clouds 13 1039 58 10000 4.12 230 17:21 08.05.2022
2207 Clouds 9 1038 76 6000 2.06 100 15:43 08.05.2022
2208 Clouds 9 1038 76 6000 2.06 100 15:20 08.05.2022
2209 Mist 4 1036 100 2500 3.09 90 12:41 08.05.2022
2210 Fog 3 1037 100 4000 3.09 80 10:34 08.05.2022
2211 Fog 4 1037 100 3000 3.09 80 09:59 08.05.2022
2212 Fog 4 1037 100 3000 3.09 80 09:33 08.05.2022
2213 Fog 1 1038 93 4000 2.57 90 07:33 08.05.2022
2214 Clouds 5 1038 93 10000 3.09 80 04:24 08.05.2022
2215 Clouds 6 1037 93 10000 4.12 90 03:19 08.05.2022
2216 Clouds 12 1036 53 10000 3.6 120 00:28 08.05.2022
2217 Clouds 15 1035 44 10000 4.12 120 23:53 07.05.2022
2218 Clouds 16 1035 38 10000 3.6 110 22:51 07.05.2022
2219 Clouds 16 1035 38 10000 3.6 110 22:33 07.05.2022
2220 Clouds 17 1036 36 10000 3.6 130 21:34 07.05.2022
2221 Clouds 16 1037 38 10000 2.57 160 20:42 07.05.2022
2222 Clouds 16 1039 35 10000 3.09 250 19:57 07.05.2022
2223 Clouds 12 1040 40 10000 1.03 0 17:43 07.05.2022
2224 Clouds 7 1040 81 10000 2.57 90 15:51 07.05.2022
2225 Clouds 4 1040 93 6000 5.14 90 14:19 07.05.2022
2226 Fog 2 1038 100 4000 3.6 80 10:56 07.05.2022
2227 Fog 2 1038 100 3000 4.12 80 09:20 07.05.2022
2228 Fog 4 1039 100 4000 4.63 70 07:51 07.05.2022
2229 Fog 4 1040 100 4000 4.12 70 06:43 07.05.2022
2230 Clear 5 1040 100 10000 4.12 70 04:56 07.05.2022
2231 Clouds 10 1037 53 10000 3.6 80 01:46 07.05.2022
2232 Clouds 17 1036 23 10000 6.69 110 23:38 06.05.2022
2233 Clouds 19 1036 16 10000 6.17 110 22:28 06.05.2022
2234 Clouds 19 1037 15 10000 4.63 110 21:43 06.05.2022
2235 Clear 18 1038 14 10000 4.63 120 20:34 06.05.2022
2236 Clear 18 1039 12 10000 4.12 120 19:30 06.05.2022
2237 Clear 17 1040 12 10000 3.09 140 18:59 06.05.2022
2238 Clear 17 1040 12 10000 3.09 140 18:18 06.05.2022
2239 Clear 14 1041 26 10000 1.03 0 16:39 06.05.2022
2240 Clear 11 1040 40 10000 1.03 0 15:39 06.05.2022
2241 Clear 8 1040 42 10000 2.06 10 14:46 06.05.2022
2242 Clear 1 1038 59 10000 1.03 0 12:54 06.05.2022
2243 Clear 1 1038 59 10000 1.03 0 12:33 06.05.2022
2244 Clear 1 1038 59 10000 2.06 10 11:41 06.05.2022
2245 Clear 3 1038 51 10000 2.06 20 10:26 06.05.2022
2246 Clear 2 1038 64 10000 2.06 30 09:39 06.05.2022
2247 Clear 2 1039 59 10000 2.06 30 08:27 06.05.2022
2248 Clear 1 1040 69 10000 2.57 80 06:42 06.05.2022
2249 Clear 3 1040 69 10000 3.09 70 04:51 06.05.2022
2250 Clear 9 1038 42 10000 1.03 0 02:43 06.05.2022
2251 Clouds 18 1037 16 10000 3.6 110 23:36 05.05.2022
2252 Clouds 18 1038 13 10000 2.06 180 21:52 05.05.2022
2253 Clouds 18 1038 13 10000 2.06 180 21:19 05.05.2022
2254 Clouds 17 1039 20 10000 1.03 0 19:49 05.05.2022
2255 Clouds 12 1041 43 10000 2.06 90 16:57 05.05.2022
2256 Clouds 12 1041 43 10000 2.06 90 16:18 05.05.2022
2257 Clouds 6 1040 87 10000 2.57 80 14:43 05.05.2022
2258 Fog 0 1039 93 4000 3.6 80 13:20 05.05.2022
2259 Fog -1 1038 100 4000 3.09 90 12:24 05.05.2022
2260 Fog 1 1038 100 4000 2.06 90 10:30 05.05.2022
2261 Fog 4 1038 100 3000 3.09 80 09:34 05.05.2022
2262 Fog 4 1039 100 2000 3.6 70 07:19 05.05.2022
2263 Clear 8 1037 56 10000 3.09 100 02:30 05.05.2022
2264 Clouds 11 1036 46 10000 4.12 110 01:47 05.05.2022
2265 Clouds 11 1036 46 10000 4.12 110 01:20 05.05.2022
2266 Clouds 18 1036 20 10000 3.09 240 23:28 04.05.2022
2267 Clouds 19 1036 17 10000 3.09 300 22:25 04.05.2022
2268 Clouds 19 1037 20 10000 4.63 290 21:48 04.05.2022
2269 Clouds 19 1037 20 10000 4.63 290 21:22 04.05.2022
2270 Clouds 17 1038 23 10000 3.09 200 20:20 04.05.2022
2271 Clouds 17 1039 18 10000 3.6 200 19:44 04.05.2022
2272 Clouds 15 1040 30 10000 2.57 160 18:45 04.05.2022
2273 Clouds 15 1040 30 10000 2.57 160 18:20 04.05.2022
2274 Clouds 14 1041 35 10000 4.12 120 17:22 04.05.2022
2275 Clouds 10 1040 71 10000 2.06 90 15:35 04.05.2022
2276 Clouds 6 1039 100 6000 3.09 80 14:46 04.05.2022
2277 Clouds 6 1039 100 6000 3.09 80 14:20 04.05.2022
2278 Fog 7 1038 93 4000 3.09 110 12:58 04.05.2022
2279 Fog 7 1038 93 4000 3.09 110 12:24 04.05.2022
2280 Fog 7 1038 100 3000 3.6 90 10:28 04.05.2022
2281 Fog 7 1038 100 4000 2.57 120 09:22 04.05.2022
2282 Fog 4 1038 100 4000 3.09 90 08:26 04.05.2022
2283 Fog 8 1038 100 3000 5.66 100 05:42 04.05.2022
2284 Clear 8 1036 93 10000 3.6 110 02:42 04.05.2022
2285 Clouds 18 1035 33 10000 7.72 290 23:23 03.05.2022
2286 Clouds 19 1035 25 10000 6.17 290 21:55 03.05.2022
2287 Clouds 19 1035 25 10000 6.17 290 21:31 03.05.2022
2288 Clouds 20 1036 19 10000 6.17 310 20:52 03.05.2022
2289 Clouds 19 1037 16 10000 6.69 300 19:33 03.05.2022
2290 Clouds 18 1038 25 10000 5.66 290 18:47 03.05.2022
2291 Clouds 16 1038 35 10000 3.09 250 17:22 03.05.2022
2292 Clouds 14 1038 37 10000 1.03 0 16:19 03.05.2022
2293 Clouds 6 1038 81 10000 1.03 0 14:25 03.05.2022
2294 Clouds 1 1036 100 10000 1.54 20 12:42 03.05.2022
2295 Fog 2 1036 100 4000 2.57 80 11:39 03.05.2022
2296 Fog 4 1037 100 4000 3.09 80 10:49 03.05.2022
2297 Mist 5 1037 100 1000 2.57 90 08:29 03.05.2022
2298 Fog 5 1037 100 4000 4.12 80 06:45 03.05.2022
2299 Clouds 8 1035 87 10000 3.09 80 02:48 03.05.2022
2300 Clouds 19 1034 19 10000 4.63 290 23:32 02.05.2022
2301 Clouds 20 1034 17 10000 4.63 280 22:29 02.05.2022
2302 Clouds 20 1034 17 10000 4.63 280 22:29 02.05.2022
2303 Clouds 21 1034 18 10000 6.69 260 21:47 02.05.2022
2304 Clouds 19 1036 19 10000 5.14 280 19:30 02.05.2022
2305 Clouds 19 1037 20 10000 4.12 310 18:26 02.05.2022
2306 Clouds 17 1039 23 10000 4.63 290 17:41 02.05.2022
2307 Clouds 17 1039 23 10000 4.63 290 17:41 02.05.2022
2308 Clouds 14 1039 35 10000 3.09 280 16:43 02.05.2022
2309 Clear 13 1038 28 10000 2.57 300 15:41 02.05.2022
2310 Clear 9 1038 53 10000 1.03 0 14:45 02.05.2022
2311 Clouds 4 1037 75 10000 2.57 360 13:42 02.05.2022
2312 Clouds 2 1036 80 10000 2.57 10 11:41 02.05.2022
2313 Clouds 2 1036 86 10000 1.03 0 09:45 02.05.2022
2314 Clouds 5 1037 81 10000 1.03 0 08:29 02.05.2022
2315 Clouds 5 1038 87 10000 2.06 30 06:53 02.05.2022
2316 Clouds 13 1035 46 10000 3.09 50 00:47 02.05.2022
2317 Clouds 13 1035 46 10000 3.09 50 00:22 02.05.2022
2318 Clouds 10 1036 61 10000 6.69 20 22:55 01.05.2022
2319 Clouds 11 1036 53 8000 7.2 350 21:43 01.05.2022
2320 Thunderstorm 10 1036 61 8000 8.23 340 20:36 01.05.2022
2321 Clouds 16 1036 41 10000 3.6 120 19:22 01.05.2022
2322 Clouds 16 1038 54 10000 2.06 100 18:52 01.05.2022
2323 Clouds 15 1038 54 10000 2.06 100 17:49 01.05.2022
2324 Clouds 14 1038 62 10000 1.03 0 16:37 01.05.2022
2325 Clouds 11 1038 66 8000 1.03 0 15:51 01.05.2022
2326 Clouds 8 1038 93 8000 1.03 0 14:45 01.05.2022
2327 Fog 6 1036 100 1600 3.6 80 12:24 01.05.2022
2328 Fog 5 1036 100 2000 3.09 90 10:22 01.05.2022
2329 Fog 6 1036 100 500 5.14 90 08:50 01.05.2022
2330 Clouds 9 1037 76 10000 3.09 30 06:50 01.05.2022
2331 Clouds 11 1036 61 10000 3.6 80 01:56 01.05.2022
2332 Clouds 19 1011 22 10000 3.09 110 22:18 30.04.2022
2333 Clouds 18 1036 29 10000 3.09 160 21:32 30.04.2022
2334 Clouds 16 1038 44 10000 3.09 30 19:54 30.04.2022
2335 Clouds 17 1040 44 10000 3.09 60 18:53 30.04.2022
2336 Clouds 15 1040 50 10000 3.09 110 17:26 30.04.2022
2337 Clouds 10 1040 76 6000 1.03 0 15:51 30.04.2022
2338 Clouds 10 1040 76 6000 1.03 0 15:18 30.04.2022
2339 Fog 3 1039 93 4000 1.03 0 13:52 30.04.2022
2340 Fog 5 1038 100 4000 1.03 0 11:41 30.04.2022
2341 Fog 3 1038 100 4000 1.54 90 10:56 30.04.2022
2342 Fog 5 1039 100 4000 2.06 90 09:57 30.04.2022
2343 Fog 7 1040 100 4000 2.57 100 07:47 30.04.2022
2344 Clouds 7 1040 93 10000 1.03 0 03:58 30.04.2022
2345 Clouds 15 1038 28 10000 4.63 60 23:55 29.04.2022
2346 Clouds 14 1038 32 10000 5.66 40 22:37 29.04.2022
2347 Clouds 15 1038 47 10000 5.14 110 21:55 29.04.2022
2348 Clouds 15 1038 47 10000 5.14 110 21:24 29.04.2022
2349 Clouds 16 1040 41 10000 2.06 90 19:55 29.04.2022
2350 Clouds 16 1040 41 10000 2.06 90 19:26 29.04.2022
2351 Clouds 14 1042 47 10000 2.57 300 17:34 29.04.2022
2352 Clouds 12 1042 57 10000 1.03 0 16:30 29.04.2022
2353 Clouds 6 1041 93 8000 2.06 30 14:34 29.04.2022
2354 Fog 4 1040 100 4000 2.06 360 13:27 29.04.2022
2355 Fog 2 1039 93 4000 1.54 350 12:33 29.04.2022
2356 Fog 5 1038 100 4000 1.54 100 09:52 29.04.2022
2357 Fog 5 1039 100 4000 1.03 0 07:52 29.04.2022
2358 Fog 5 1039 100 4000 1.03 0 07:24 29.04.2022
2359 Clouds 4 1039 100 10000 3.09 70 05:57 29.04.2022
2360 Clouds 14 1036 37 10000 4.63 60 00:51 29.04.2022
2361 Clouds 15 1036 33 10000 5.14 60 23:49 28.04.2022
2362 Clouds 19 1036 25 10000 6.17 70 22:47 28.04.2022
2363 Clouds 19 1036 25 10000 6.17 100 21:59 28.04.2022
2364 Clouds 19 1036 25 10000 6.17 100 21:37 28.04.2022
2365 Clouds 19 1037 22 10000 5.14 120 20:41 28.04.2022
2366 Clouds 18 1038 20 10000 5.14 140 19:46 28.04.2022
2367 Clouds 18 1038 20 10000 5.14 140 19:23 28.04.2022
2368 Clouds 17 1039 11 10000 5.66 120 18:38 28.04.2022
2369 Clouds 16 1039 15 10000 6.17 130 17:32 28.04.2022
2370 Clouds 15 1039 16 10000 5.14 120 16:49 28.04.2022
2371 Clouds 15 1039 16 10000 5.14 120 16:19 28.04.2022
2372 Clouds 12 1039 27 10000 3.6 100 15:41 28.04.2022
2373 Clouds 7 1038 56 10000 1.03 0 14:47 28.04.2022
2374 Clouds 3 1038 64 10000 1.54 10 13:20 28.04.2022
2375 Clouds -1 1037 74 10000 1.54 360 12:28 28.04.2022
2376 Clouds 0 1037 59 10000 1.54 40 10:47 28.04.2022
2377 Clouds 0 1037 59 10000 1.54 40 10:26 28.04.2022
2378 Clouds 2 1037 59 10000 2.06 20 08:59 28.04.2022
2379 Clear 3 1038 64 10000 2.06 40 07:37 28.04.2022
2380 Clear 3 1038 93 10000 1.54 60 06:33 28.04.2022
2381 Clear 3 1038 86 10000 1.54 80 05:39 28.04.2022
2382 Clear 4 1037 75 10000 3.6 80 04:40 28.04.2022
2383 Clouds 17 1035 11 10000 3.09 100 00:36 28.04.2022
2384 Clouds 20 1035 9 10000 3.09 120 22:49 27.04.2022
2385 Clouds 20 1036 9 10000 3.6 150 21:57 27.04.2022
2386 Clouds 20 1036 9 10000 3.6 150 21:27 27.04.2022
2387 Clouds 19 1037 5 10000 4.12 120 20:43 27.04.2022
2388 Clouds 19 1008 8 10000 2.57 130 19:39 27.04.2022
2389 Clouds 19 1008 8 10000 2.57 130 19:18 27.04.2022
2390 Clouds 17 1039 6 10000 3.09 130 18:25 27.04.2022
2391 Clouds 16 1040 7 10000 2.57 160 17:26 27.04.2022
2392 Clouds 10 1039 39 8000 1.03 0 15:22 27.04.2022
2393 Clouds 2 1037 64 10000 1.54 10 12:27 27.04.2022
2394 Clouds -1 1037 80 10000 1.03 0 11:21 27.04.2022
2395 Clouds 1 1037 80 10000 0 0 09:45 27.04.2022
2396 Clouds 4 1038 93 10000 2.57 70 07:19 27.04.2022
2397 Clouds 5 1038 100 10000 2.57 80 05:37 27.04.2022
2398 Clouds 13 1036 28 10000 3.6 340 01:35 27.04.2022
2399 Clouds 16 1035 19 10000 3.6 160 00:38 27.04.2022
2400 Clouds 19 1035 9 10000 2.57 150 23:40 26.04.2022
2401 Clouds 19 1035 9 10000 2.57 150 23:22 26.04.2022
2402 Clouds 19 1036 12 10000 3.6 280 22:41 26.04.2022
2403 Clouds 20 1036 15 10000 5.66 160 21:37 26.04.2022
2404 Clouds 20 1037 12 10000 4.63 140 20:53 26.04.2022
2405 Clouds 20 1037 12 10000 4.63 140 20:33 26.04.2022
2406 Clouds 19 1038 15 10000 4.63 130 19:32 26.04.2022
2407 Clouds 18 1039 14 10000 3.09 150 18:45 26.04.2022
2408 Clouds 16 1040 30 10000 3.09 270 17:59 26.04.2022
2409 Clouds 14 1041 47 10000 3.09 240 16:58 26.04.2022
2410 Clouds 8 1040 61 8000 1.03 0 14:27 26.04.2022
2411 Clouds 5 1039 65 10000 1.03 0 13:33 26.04.2022
2412 Clouds 6 1037 65 10000 2.57 10 11:57 26.04.2022
2413 Clouds 5 1037 75 10000 2.57 20 10:37 26.04.2022
2414 Clouds 3 1038 80 10000 1.03 0 09:25 26.04.2022
2415 Clouds 6 1039 70 10000 2.06 360 07:22 26.04.2022
2416 Clouds 6 1038 87 10000 3.6 80 04:33 26.04.2022
2417 Clouds 9 1037 57 10000 3.6 80 01:25 26.04.2022
2418 Clouds 15 1036 26 10000 3.09 110 00:26 26.04.2022
2419 Clouds 19 1036 12 10000 3.09 130 22:36 25.04.2022
2420 Clouds 19 1037 12 10000 4.12 130 21:40 25.04.2022
2421 Clouds 19 1038 13 10000 3.6 140 20:40 25.04.2022
2422 Clouds 14 1039 37 8000 2.06 210 18:58 25.04.2022
2423 Clouds 13 1040 40 8000 2.06 230 17:54 25.04.2022
2424 Haze 13 1040 32 5000 1.03 0 16:55 25.04.2022
2425 Haze 9 1040 70 5000 1.03 0 15:29 25.04.2022
2426 Clouds 5 1039 93 8000 1.03 0 14:38 25.04.2022
2427 Clouds 3 1038 100 10000 2.57 70 13:32 25.04.2022
2428 Fog 4 1037 100 4000 4.12 80 11:37 25.04.2022
2429 Fog 1 1037 100 4000 3.09 80 10:23 25.04.2022
2430 Clouds 2 1037 100 10000 2.57 80 08:35 25.04.2022
2431 Clouds 4 1038 100 10000 2.06 50 06:38 25.04.2022
2432 Clouds 7 1037 93 10000 2.06 100 03:44 25.04.2022
2433 Clouds 15 1035 21 10000 2.57 320 00:33 25.04.2022
2434 Clouds 16 1035 24 10000 5.14 280 23:51 24.04.2022
2435 Clouds 18 1035 23 10000 6.17 280 22:41 24.04.2022
2436 Clouds 18 1035 23 10000 5.14 270 21:58 24.04.2022
2437 Clouds 18 1035 23 10000 5.14 270 21:24 24.04.2022
2438 Clouds 18 1036 23 10000 4.12 270 20:48 24.04.2022
2439 Clouds 18 1036 23 10000 4.12 270 20:21 24.04.2022
2440 Clouds 16 1038 41 10000 3.6 280 18:59 24.04.2022
2441 Clouds 15 1039 47 10000 2.57 270 17:55 24.04.2022
2442 Clouds 15 1039 47 10000 2.57 270 17:22 24.04.2022
2443 Clouds 12 1039 62 10000 2.06 230 16:58 24.04.2022
2444 Clouds 12 1039 62 10000 2.06 230 16:30 24.04.2022
2445 Clouds 9 1038 87 10000 2.06 240 15:53 24.04.2022
2446 Clouds 7 1038 87 10000 1.03 0 14:40 24.04.2022
2447 Clouds 4 1037 93 10000 2.06 60 13:38 24.04.2022
2448 Clouds 4 1037 93 10000 2.06 60 13:18 24.04.2022
2449 Fog 3 1036 100 4000 2.57 80 11:53 24.04.2022
2450 Fog 5 1035 100 4000 3.09 80 10:59 24.04.2022
2451 Clear 5 1018 81 10000 0.58 46 09:47 24.04.2022
2452 Fog 4 1036 93 4000 2.57 90 08:23 24.04.2022
2453 Clouds 4 1036 93 10000 2.57 90 05:46 24.04.2022
2454 Clouds 12 1034 37 10000 3.09 350 02:48 24.04.2022
2455 Clouds 16 1034 23 10000 5.14 270 00:47 24.04.2022
2456 Clouds 18 1033 18 10000 5.66 300 23:55 23.04.2022
2457 Clouds 18 1033 18 10000 5.66 300 23:25 23.04.2022
2458 Clouds 19 1033 15 10000 5.14 270 22:39 23.04.2022
2459 Clouds 19 1034 15 10000 5.14 280 21:41 23.04.2022
2460 Clouds 19 1034 15 10000 5.14 280 21:22 23.04.2022
2461 Clouds 18 1036 11 10000 4.12 230 19:56 23.04.2022
2462 Clouds 18 1036 11 10000 4.12 230 19:20 23.04.2022
2463 Clouds 17 1037 10 10000 4.12 240 18:54 23.04.2022
2464 Clouds 17 1037 10 10000 4.12 240 18:32 23.04.2022
2465 Clouds 16 1038 9 10000 2.57 200 17:46 23.04.2022
2466 Clouds 14 1015 9 10000 3.09 220 16:45 23.04.2022
2467 Clouds 12 1037 9 10000 1.03 0 15:51 23.04.2022
2468 Clouds 5 1036 30 10000 3.09 360 13:31 23.04.2022
2469 Clouds 1 1035 51 10000 1.54 360 11:29 23.04.2022
2470 Clouds 6 1035 33 10000 2.57 10 09:41 23.04.2022
2471 Clouds 6 1037 30 10000 1.03 0 07:52 23.04.2022
2472 Clouds 12 1036 20 10000 4.12 220 03:57 23.04.2022
2473 Clouds 12 1035 29 10000 3.6 250 02:34 23.04.2022
2474 Clouds 19 1033 16 10000 2.57 280 23:34 22.04.2022
2475 Clouds 20 1033 16 10000 4.12 290 22:40 22.04.2022
2476 Clouds 20 1034 16 10000 3.6 290 21:55 22.04.2022
2477 Clouds 20 1034 16 10000 3.6 290 21:55 22.04.2022
2478 Clouds 20 1034 16 10000 3.6 290 21:37 22.04.2022
2479 Clouds 19 1035 17 10000 4.63 280 20:29 22.04.2022
2480 Clouds 19 1036 17 10000 4.63 270 19:23 22.04.2022
2481 Clouds 18 1037 17 10000 2.06 270 18:53 22.04.2022
2482 Clouds 15 1013 33 10000 3.86 263 18:20 22.04.2022
2483 Clouds 14 1038 24 10000 2.57 270 16:53 22.04.2022
2484 Clouds 12 1038 27 10000 1.03 0 15:56 22.04.2022
2485 Clouds 12 1038 27 10000 1.03 0 15:22 22.04.2022
2486 Clouds 2 1037 80 10000 1.03 0 13:54 22.04.2022
2487 Clouds 2 1037 80 10000 1.03 0 13:27 22.04.2022
2488 Clear 2 1036 74 10000 1.54 360 12:29 22.04.2022
2489 Clear 4 1036 60 10000 1.03 0 11:22 22.04.2022
2490 Clear 4 1036 60 10000 0 0 10:52 22.04.2022
2491 Clear 4 1036 60 10000 0 0 10:31 22.04.2022
2492 Clear 6 1036 56 10000 2.57 360 09:53 22.04.2022
2493 Clear 3 1037 86 10000 1.03 0 08:56 22.04.2022
2494 Clouds 3 1038 93 10000 2.57 60 07:44 22.04.2022
2495 Clouds 6 1037 87 10000 2.57 50 04:24 22.04.2022
2496 Clouds 16 1035 23 10000 5.14 310 00:52 22.04.2022
2497 Clouds 20 1035 17 10000 2.57 260 23:26 21.04.2022
2498 Clouds 20 1035 19 10000 2.57 130 22:29 21.04.2022
2499 Clouds 20 1037 13 10000 2.57 250 20:43 21.04.2022
2500 Clouds 20 1037 13 10000 2.57 250 20:24 21.04.2022
2501 Clouds 18 1039 17 10000 2.06 240 18:44 21.04.2022
2502 Clouds 18 1039 17 10000 2.06 240 18:19 21.04.2022
2503 Clear 13 1040 30 10000 2.06 220 16:47 21.04.2022
2504 Clear 10 1040 46 10000 2.06 230 15:22 21.04.2022
2505 Clear 8 1039 45 10000 1.03 0 14:50 21.04.2022
2506 Clouds 4 1038 55 10000 1.54 10 13:23 21.04.2022
2507 Clouds 2 1037 64 10000 1.03 0 12:57 21.04.2022
2508 Clouds 3 1037 80 10000 2.06 20 10:57 21.04.2022
2509 Clouds 2 1038 100 10000 2.57 50 08:57 21.04.2022
2510 Clouds 4 1038 100 10000 3.6 80 07:32 21.04.2022
2511 Clouds 5 1038 87 10000 1.54 70 05:42 21.04.2022
2512 Clouds 6 1038 93 10000 3.6 70 03:32 21.04.2022
2513 Clouds 8 1037 81 10000 4.12 70 02:47 21.04.2022
2514 Clouds 15 1036 44 10000 3.09 60 00:47 21.04.2022
2515 Clouds 15 1035 41 10000 4.63 110 23:50 20.04.2022
2516 Clouds 15 1035 41 10000 4.63 110 23:22 20.04.2022
2517 Clouds 19 1035 23 10000 4.63 120 22:49 20.04.2022
2518 Clouds 19 1035 23 10000 4.63 120 22:30 20.04.2022
2519 Clouds 19 1036 27 10000 3.6 110 21:27 20.04.2022
2520 Clouds 18 1037 29 10000 3.09 150 20:24 20.04.2022
2521 Clouds 17 1037 36 10000 4.12 130 19:52 20.04.2022
2522 Clouds 17 1037 36 10000 4.12 130 19:20 20.04.2022
2523 Clear 16 1039 35 10000 4.12 150 17:56 20.04.2022
2524 Clear 14 1039 40 10000 1.03 0 16:48 20.04.2022
2525 Clear 14 1039 40 10000 1.03 0 16:30 20.04.2022
2526 Clouds 0 1037 86 10000 2.06 20 13:59 20.04.2022
2527 Clouds 2 1036 86 10000 2.06 50 11:50 20.04.2022
2528 Clouds 2 1036 86 10000 2.06 50 11:21 20.04.2022
2529 Clouds 1 1037 93 10000 0 0 10:19 20.04.2022
2530 Clouds 2 1037 93 10000 0 0 09:25 20.04.2022
2531 Clouds 3 1037 93 10000 2.06 50 08:22 20.04.2022
2532 Clouds 3 1037 93 10000 2.06 50 08:22 20.04.2022
2533 Clouds 3 1037 93 10000 3.09 60 07:36 20.04.2022
2534 Clouds 7 1036 87 10000 4.12 70 03:38 20.04.2022
2535 Clouds 16 1035 33 10000 3.6 100 00:23 20.04.2022
2536 Clouds 19 1034 15 10000 4.12 120 23:41 19.04.2022
2537 Clouds 20 1034 15 10000 4.12 120 22:26 19.04.2022
2538 Clouds 20 1035 16 10000 3.6 280 21:56 19.04.2022
2539 Clouds 20 1035 16 10000 3.6 280 21:23 19.04.2022
2540 Clouds 20 1036 16 10000 3.6 280 20:41 19.04.2022
2541 Clouds 19 1037 15 10000 3.09 250 19:56 19.04.2022
2542 Clouds 17 1038 25 10000 1.03 0 18:47 19.04.2022
2543 Clouds 15 1039 33 10000 2.57 270 17:32 19.04.2022
2544 Clear 13 1039 35 10000 2.06 250 16:43 19.04.2022
2545 Clear 13 1039 35 10000 2.06 250 16:22 19.04.2022
2546 Clear 8 1038 52 10000 1.03 0 14:48 19.04.2022
2547 Mist -2 1037 93 4000 1.54 60 13:35 19.04.2022
2548 Fog -1 1036 93 4000 1.03 0 12:50 19.04.2022
2549 Clouds 1 1036 74 10000 1.54 30 11:55 19.04.2022
2550 Clouds 0 1036 93 10000 1.54 40 10:25 19.04.2022
2551 Clouds 2 1036 80 10000 1.03 0 09:18 19.04.2022
2552 Clear 6 1037 93 10000 3.6 70 04:42 19.04.2022
2553 Clear 6 1036 87 10000 4.12 70 03:25 19.04.2022
2554 Clouds 17 1035 13 10000 2.57 270 00:54 19.04.2022
2555 Clouds 19 1035 13 10000 4.12 280 23:29 18.04.2022
2556 Clear 16 1011 27 10000 2.91 218 21:30 18.04.2022
2557 Clouds 18 1037 14 10000 4.63 300 20:54 18.04.2022
2558 Clouds 18 1037 14 10000 4.63 300 20:30 18.04.2022
2559 Clouds 19 1038 16 10000 4.63 280 19:42 18.04.2022
2560 Clouds 16 1039 23 10000 4.63 250 18:54 18.04.2022
2561 Clouds 14 1039 26 10000 3.09 230 17:55 18.04.2022
2562 Clouds 14 1039 26 10000 3.09 230 17:33 18.04.2022
2563 Clouds 11 1039 37 10000 2.57 160 16:50 18.04.2022
2564 Clouds 11 1039 37 10000 2.57 160 16:21 18.04.2022
2565 Clouds 5 1038 93 10000 3.6 110 14:43 18.04.2022
2566 Clouds 3 1037 93 6000 4.12 90 13:35 18.04.2022
2567 Clouds 3 1037 93 6000 4.12 90 13:35 18.04.2022
2568 Fog 3 1036 93 4000 4.12 90 12:29 18.04.2022
2569 Fog 3 1036 93 4000 4.12 80 11:34 18.04.2022
2570 Fog 3 1036 93 4000 3.6 90 10:31 18.04.2022
2571 Fog 3 1036 93 4000 3.6 80 09:30 18.04.2022
2572 Fog 3 1037 100 4000 4.63 90 07:42 18.04.2022
2573 Clouds 4 1037 87 10000 1.54 20 05:35 18.04.2022
2574 Clouds 19 1034 13 10000 3.09 270 23:51 17.04.2022
2575 Clear 19 1034 14 10000 5.14 260 22:40 17.04.2022
2576 Clear 19 1035 15 10000 3.6 290 21:42 17.04.2022
2577 Clear 19 1035 15 10000 3.6 290 21:21 17.04.2022
2578 Clear 19 1036 15 10000 5.14 250 20:32 17.04.2022
2579 Clear 18 1037 11 10000 4.12 260 19:23 17.04.2022
2580 Clouds 15 1039 19 10000 2.57 270 17:43 17.04.2022
2581 Clouds 9 1038 31 10000 2.06 250 15:39 17.04.2022
2582 Clouds 6 1037 26 10000 1.03 0 14:54 17.04.2022
2583 Clouds -1 1036 50 10000 1.03 0 13:45 17.04.2022
2584 Clouds 2 1036 37 10000 2.06 20 12:56 17.04.2022
2585 Clouds 3 1036 44 10000 2.57 20 11:53 17.04.2022
2586 Clouds 3 1036 55 10000 2.06 20 10:40 17.04.2022
2587 Clouds 3 1036 55 10000 2.06 20 10:19 17.04.2022
2588 Clouds 1 1036 64 10000 1.03 0 09:23 17.04.2022
2589 Clouds 5 1037 41 10000 2.06 30 08:41 17.04.2022
2590 Clouds 6 1037 38 10000 2.57 10 06:53 17.04.2022
2591 Clouds 10 1037 42 10000 1.03 0 03:20 17.04.2022
2592 Clouds 17 1034 12 10000 3.6 320 00:53 17.04.2022
2593 Clouds 19 1034 13 10000 5.14 280 23:48 16.04.2022
2594 Clear 20 1035 11 10000 6.69 280 21:55 16.04.2022
2595 Clear 20 1035 11 10000 6.69 280 21:23 16.04.2022
2596 Clear 19 1037 15 10000 5.14 260 19:33 16.04.2022
2597 Clear 18 1038 12 10000 4.12 290 18:45 16.04.2022
2598 Clear 16 1039 19 10000 3.6 290 17:38 16.04.2022
2599 Clear 14 1039 32 10000 4.63 270 16:31 16.04.2022
2600 Clouds 10 1038 39 10000 2.57 260 15:23 16.04.2022
2601 Clear 8 1037 45 10000 1.03 0 14:43 16.04.2022
2602 Clouds 1 1037 86 10000 1.03 0 13:55 16.04.2022
2603 Clouds 1 1037 86 10000 1.03 0 13:24 16.04.2022
2604 Clouds 4 1036 55 10000 2.06 10 11:58 16.04.2022
2605 Clouds 2 1036 74 10000 2.06 10 10:35 16.04.2022
2606 Clouds 5 1036 56 10000 2.06 10 09:39 16.04.2022
2607 Clear 4 1037 60 10000 2.06 360 08:54 16.04.2022
2608 Clear 3 1037 75 10000 2.06 20 07:31 16.04.2022
2609 Clear 3 1037 93 10000 2.06 50 06:18 16.04.2022
2610 Clear 13 1035 25 10000 3.6 310 01:53 16.04.2022
2611 Clouds 18 1035 21 10000 5.14 300 23:53 15.04.2022
2612 Clouds 19 1035 22 10000 5.14 270 22:51 15.04.2022
2613 Clouds 19 1035 22 10000 5.14 270 22:31 15.04.2022
2614 Clouds 18 1035 21 10000 6.17 260 21:34 15.04.2022
2615 Clouds 18 1036 21 10000 5.66 280 20:38 15.04.2022
2616 Clouds 17 1037 33 10000 5.14 260 19:46 15.04.2022
2617 Clear 15 1013 27 10000 4.49 265 19:23 15.04.2022
2618 Clouds 15 1038 41 10000 5.66 270 18:42 15.04.2022
2619 Clouds 15 1038 41 10000 5.66 270 18:22 15.04.2022
2620 Clouds 14 1039 50 10000 3.6 280 17:27 15.04.2022
2621 Clouds 10 1039 81 6000 2.06 240 16:25 15.04.2022
2622 Fog 7 1038 93 4000 1.03 0 15:46 15.04.2022
2623 Fog 6 1038 100 500 2.57 260 14:18 15.04.2022
2624 Fog 5 1037 100 500 1.54 270 12:52 15.04.2022
2625 Fog 5 1037 100 500 1.54 270 12:26 15.04.2022
2626 Fog 5 1037 100 1000 1.03 0 11:51 15.04.2022
2627 Fog 8 1037 93 3000 2.06 130 10:46 15.04.2022
2628 Fog 8 1037 93 3000 2.06 130 10:20 15.04.2022
2629 Fog 7 1037 100 3000 4.63 90 09:22 15.04.2022
2630 Fog 7 1037 100 3000 3.6 80 08:40 15.04.2022
2631 Fog 7 1038 100 4000 3.09 80 06:51 15.04.2022
2632 Fog 9 1038 93 4000 3.6 110 04:49 15.04.2022
2633 Clouds 15 1034 30 10000 3.6 300 00:47 15.04.2022
2634 Clouds 17 1034 26 10000 6.17 300 23:26 14.04.2022
2635 Clouds 18 1035 29 10000 5.14 300 22:46 14.04.2022
2636 Clouds 18 1035 29 10000 5.14 300 22:27 14.04.2022
2637 Clouds 19 1035 25 10000 4.63 290 21:50 14.04.2022
2638 Clouds 17 1037 33 10000 3.6 290 19:41 14.04.2022
2639 Clouds 17 1037 33 10000 3.6 290 19:20 14.04.2022
2640 Clouds 14 1039 40 10000 4.12 250 17:45 14.04.2022
2641 Clouds 12 1039 46 10000 3.09 250 16:51 14.04.2022
2642 Clouds 10 1039 53 10000 1.03 0 15:51 14.04.2022
2643 Clouds 2 1038 100 10000 2.06 60 13:53 14.04.2022
2644 Clouds 2 1038 100 10000 2.06 60 13:21 14.04.2022
2645 Fog 0 1037 100 4000 2.57 70 12:32 14.04.2022
2646 Clouds 0 1037 93 10000 2.57 100 11:43 14.04.2022
2647 Clouds 0 1037 93 10000 2.57 100 11:18 14.04.2022
2648 Clouds 0 1036 93 10000 2.06 70 10:31 14.04.2022
2649 Clouds 1 1037 86 10000 1.03 0 09:30 14.04.2022
2650 Clouds 3 1037 80 10000 1.03 0 08:23 14.04.2022
2651 Clouds 3 1037 80 10000 2.57 80 05:52 14.04.2022
2652 Clouds 15 1035 12 10000 5.14 300 00:29 14.04.2022
2653 Clouds 18 1035 8 10000 6.17 290 22:37 13.04.2022
2654 Clouds 19 1035 7 10000 5.14 290 21:42 13.04.2022
2655 Clouds 18 1036 10 10000 4.63 280 20:39 13.04.2022
2656 Clouds 17 1037 10 10000 4.63 270 19:48 13.04.2022
2657 Clouds 16 1037 13 10000 2.57 270 18:37 13.04.2022
2658 Clear 15 1038 15 10000 3.09 250 17:25 13.04.2022
2659 Clear 14 1038 7 10000 2.06 270 16:52 13.04.2022
2660 Clear 11 1038 20 10000 1.03 0 15:45 13.04.2022
2661 Clear 11 1038 20 10000 1.03 0 15:23 13.04.2022
2662 Clear 7 1037 28 10000 1.03 0 14:34 13.04.2022
2663 Clear 4 1036 35 10000 3.09 10 13:37 13.04.2022
2664 Clouds 4 1036 41 10000 3.6 10 12:45 13.04.2022
2665 Clouds 3 1035 44 10000 3.09 10 11:32 13.04.2022
2666 Clouds -1 1035 68 10000 2.06 20 10:27 13.04.2022
2667 Clear 4 1036 44 10000 2.06 20 08:45 13.04.2022
2668 Clear 2 1037 55 10000 1.03 0 07:44 13.04.2022
2669 Clear 2 1037 64 10000 2.06 50 06:47 13.04.2022
2670 Clear 2 1037 64 10000 2.06 50 06:23 13.04.2022
2671 Clouds 16 1033 15 10000 7.2 300 00:52 13.04.2022
2672 Clouds 16 1033 15 10000 7.2 300 00:19 13.04.2022
2673 Clouds 18 1034 17 10000 7.2 300 22:33 12.04.2022
2674 Clouds 18 1034 16 10000 7.72 280 21:47 12.04.2022
2675 Clouds 18 1035 14 10000 7.2 280 20:44 12.04.2022
2676 Clouds 18 1035 14 10000 7.2 280 20:18 12.04.2022
2677 Clouds 17 1037 14 10000 4.63 270 19:39 12.04.2022
2678 Clouds 17 1037 10 10000 2.57 250 18:52 12.04.2022
2679 Clouds 16 1038 17 10000 3.09 260 17:37 12.04.2022
2680 Clouds 13 1038 32 10000 2.57 250 16:34 12.04.2022
2681 Clouds 11 1037 31 10000 1.03 0 15:33 12.04.2022
2682 Clear 7 1037 42 10000 2.06 10 14:33 12.04.2022
2683 Clouds 4 1036 51 8000 2.57 360 13:40 12.04.2022
2684 Clouds 4 1036 51 8000 2.57 360 13:20 12.04.2022
2685 Clouds 4 1035 51 10000 2.57 10 11:47 12.04.2022
2686 Clouds 4 1035 51 10000 2.57 10 11:24 12.04.2022
2687 Clouds 5 1035 48 10000 3.09 10 09:25 12.04.2022
2688 Clouds 5 1035 56 10000 2.06 10 08:26 12.04.2022
2689 Clouds 4 1036 100 10000 1.03 0 06:33 12.04.2022
2690 Clouds 5 1036 93 10000 1.03 0 05:36 12.04.2022
2691 Clouds 13 1033 30 10000 2.06 310 01:47 12.04.2022
2692 Clouds 18 1033 17 10000 5.14 270 23:19 11.04.2022
2693 Clouds 18 1034 23 10000 5.66 250 21:49 11.04.2022
2694 Clouds 18 1034 23 10000 5.66 250 21:18 11.04.2022
2695 Clouds 17 1035 36 10000 4.12 270 20:30 11.04.2022
2696 Clouds 17 1035 41 10000 3.6 240 19:56 11.04.2022
2697 Clouds 17 1035 41 10000 3.6 240 19:21 11.04.2022
2698 Clouds 15 1037 47 10000 3.6 250 18:48 11.04.2022
2699 Clouds 14 1038 54 10000 2.57 270 17:57 11.04.2022
2700 Clouds 13 1038 54 10000 2.57 250 16:57 11.04.2022
2701 Clouds 11 1037 49 10000 1.03 0 15:58 11.04.2022
2702 Clouds 8 1037 75 10000 0 0 14:35 11.04.2022
2703 Clouds 6 1035 75 10000 1.03 0 12:53 11.04.2022
2704 Clouds 6 1035 75 10000 1.03 0 12:35 11.04.2022
2705 Clouds 6 1035 93 10000 1.03 0 11:37 11.04.2022
2706 Clouds 4 1035 100 10000 1.03 0 10:31 11.04.2022
2707 Clouds 4 1035 100 10000 1.03 0 09:20 11.04.2022
2708 Clouds 8 1036 87 10000 2.57 20 06:44 11.04.2022
2709 Clouds 8 1034 87 10000 3.09 70 01:55 11.04.2022
2710 Clouds 11 1034 81 8000 2.57 280 22:38 10.04.2022
2711 Clouds 13 1034 58 8000 3.6 50 21:55 10.04.2022
2712 Clouds 13 1034 58 8000 3.6 50 21:32 10.04.2022
2713 Clouds 14 1036 62 10000 4.63 40 20:31 10.04.2022
2714 Clouds 14 1036 62 10000 3.09 100 19:44 10.04.2022
2715 Clouds 14 1036 62 10000 3.09 100 19:20 10.04.2022
2716 Clouds 14 1038 66 10000 2.57 250 18:42 10.04.2022
2717 Clouds 15 1038 62 10000 3.09 250 17:52 10.04.2022
2718 Clouds 15 1038 62 10000 3.09 250 17:33 10.04.2022
2719 Clouds 12 1038 76 10000 3.09 270 16:21 10.04.2022
2720 Clouds 10 1038 81 10000 2.06 270 15:19 10.04.2022
2721 Clouds 4 1037 93 10000 1.03 0 13:58 10.04.2022
2722 Clouds 4 1036 93 10000 1.03 0 12:33 10.04.2022
2723 Clouds 4 1036 93 10000 2.06 40 11:46 10.04.2022
2724 Clouds 4 1036 93 10000 2.06 40 11:28 10.04.2022
2725 Clouds 6 1036 87 10000 2.06 350 10:43 10.04.2022
2726 Clouds 6 1037 93 10000 2.06 360 09:50 10.04.2022
2727 Rain 7 1038 93 10000 2.06 340 08:56 10.04.2022
2728 Rain 7 1038 93 10000 2.06 340 08:21 10.04.2022
2729 Rain 7 1039 100 10000 2.06 300 06:59 10.04.2022
2730 Clouds 7 1039 100 10000 1.03 0 04:42 10.04.2022
2731 Clouds 7 1038 100 10000 1.54 250 02:20 10.04.2022
2732 Clouds 7 1038 93 7000 1.03 0 23:54 09.04.2022
2733 Clouds 7 1038 93 7000 1.03 0 23:29 09.04.2022
2734 Rain 9 1038 87 8000 3.6 360 22:39 09.04.2022
2735 Rain 9 1038 93 10000 2.57 330 21:31 09.04.2022
2736 Clouds 8 1038 100 10000 1.54 310 20:35 09.04.2022
2737 Rain 8 1040 93 4000 3.09 230 19:59 09.04.2022
2738 Rain 8 1040 93 4000 3.09 230 19:41 09.04.2022
2739 Rain 9 1040 81 8000 2.57 300 18:26 09.04.2022
2740 Rain 11 1040 81 10000 1.03 0 17:52 09.04.2022
2741 Clouds 12 1040 71 5000 2.57 320 16:59 09.04.2022
2742 Clouds 12 1040 71 5000 2.57 320 16:40 09.04.2022
2743 Clouds 9 1040 93 10000 1.03 0 15:51 09.04.2022
2744 Clouds 9 1040 93 10000 1.03 0 15:26 09.04.2022
2745 Fog 8 1039 100 4000 2.06 80 14:26 09.04.2022
2746 Fog 7 1038 100 4000 1.03 0 13:33 09.04.2022
2747 Fog 7 1038 100 4000 2.06 60 12:56 09.04.2022
2748 Fog 7 1037 100 4000 2.57 90 11:50 09.04.2022
2749 Fog 8 1037 100 4000 2.57 90 10:52 09.04.2022
2750 Fog 8 1037 100 4000 2.57 90 10:18 09.04.2022
2751 Fog 8 1038 100 4000 2.57 100 09:22 09.04.2022
2752 Fog 7 1038 100 3000 2.06 40 08:26 09.04.2022
2753 Fog 8 1039 100 4000 2.06 80 04:38 09.04.2022
2754 Clouds 12 1036 71 10000 1.03 0 00:35 09.04.2022
2755 Clouds 11 1036 71 10000 2.06 310 23:23 08.04.2022
2756 Rain 11 1037 76 10000 4.12 30 21:49 08.04.2022
2757 Clouds 12 1037 76 10000 4.63 70 20:43 08.04.2022
2758 Clouds 12 1039 71 8000 1.03 0 19:47 08.04.2022
2759 Clouds 10 1040 93 6000 3.6 360 18:46 08.04.2022
2760 Clouds 10 1040 93 6000 3.6 360 18:22 08.04.2022
2761 Clouds 13 1040 66 10000 1.54 270 17:29 08.04.2022
2762 Clouds 10 1040 87 8000 2.57 270 16:58 08.04.2022
2763 Clouds 10 1040 87 8000 2.57 270 16:27 08.04.2022
2764 Clouds 9 1040 93 6000 1.03 0 15:36 08.04.2022
2765 Fog 8 1039 93 4000 1.03 0 14:52 08.04.2022
2766 Fog 8 1039 93 4000 1.03 0 14:19 08.04.2022
2767 Fog 6 1038 100 4000 1.54 10 13:31 08.04.2022
2768 Fog 7 1038 100 4000 1.03 0 12:49 08.04.2022
2769 Fog 7 1037 100 4000 2.57 130 11:26 08.04.2022
2770 Mist 6 1037 100 2500 2.57 60 09:57 08.04.2022
2771 Fog 6 1037 100 4000 2.57 80 08:59 08.04.2022
2772 Fog 8 1038 100 3000 2.57 70 07:44 08.04.2022
2773 Fog 9 1038 100 3000 3.6 120 06:45 08.04.2022
2774 Clouds 6 1036 100 10000 3.6 80 02:53 08.04.2022
2775 Clouds 9 1036 87 8000 2.06 330 00:30 08.04.2022
2776 Clouds 7 1036 100 6000 4.12 340 23:43 07.04.2022
2777 Clouds 9 1036 93 2000 3.6 130 22:44 07.04.2022
2778 Thunderstorm 11 1036 81 5000 3.6 160 22:23 07.04.2022
2779 Clouds 16 1035 47 10000 4.63 70 21:58 07.04.2022
2780 Clouds 16 1035 47 10000 4.63 70 21:30 07.04.2022
2781 Clouds 15 1037 54 10000 2.57 70 20:42 07.04.2022
2782 Clouds 15 1038 67 10000 3.6 60 19:51 07.04.2022
2783 Clouds 14 1039 66 10000 2.57 180 17:29 07.04.2022
2784 Clouds 14 1039 62 10000 1.03 0 16:59 07.04.2022
2785 Clouds 14 1039 62 10000 1.03 0 16:33 07.04.2022
2786 Clouds 12 1039 66 10000 1.03 0 15:47 07.04.2022
2787 Clouds 6 1038 100 10000 2.06 90 13:54 07.04.2022
2788 Clouds 6 1038 100 10000 2.06 90 13:23 07.04.2022
2789 Fog 6 1037 100 3000 2.57 60 11:52 07.04.2022
2790 Fog 7 1037 100 3000 2.06 90 10:46 07.04.2022
2791 Clouds 6 1019 85 10000 1.42 21 08:43 07.04.2022
2792 Fog 5 1039 100 4000 1.54 60 06:59 07.04.2022
2793 Fog 6 1039 93 4000 1.03 0 05:21 07.04.2022
2794 Clouds 7 1037 93 10000 2.57 60 02:34 07.04.2022
2795 Clouds 13 1036 58 10000 2.57 50 00:43 07.04.2022
2796 Clouds 14 1037 62 10000 5.14 50 23:28 06.04.2022
2797 Clouds 11 1037 81 8000 3.6 30 22:44 06.04.2022
2798 Clouds 11 1037 81 8000 3.6 30 22:19 06.04.2022
2799 Clouds 14 1038 62 10000 2.57 130 20:47 06.04.2022
2800 Clouds 13 1039 66 10000 2.57 130 19:59 06.04.2022
2801 Clouds 13 1039 66 10000 2.57 130 19:20 06.04.2022
2802 Clouds 14 1040 58 10000 3.09 180 18:48 06.04.2022
2803 Clouds 13 1041 62 10000 2.57 130 17:36 06.04.2022
2804 Clouds 11 1041 71 10000 2.06 160 16:39 06.04.2022
2805 Clouds 11 1041 71 10000 2.06 160 16:19 06.04.2022
2806 Clouds 9 1040 87 6000 2.06 140 15:40 06.04.2022
2807 Fog 6 1038 100 4000 1.54 80 13:34 06.04.2022
2808 Fog 6 1038 100 4000 1.54 80 13:34 06.04.2022
2809 Fog 6 1038 100 4000 1.03 0 12:29 06.04.2022
2810 Fog 6 1038 100 4000 3.09 90 10:57 06.04.2022
2811 Fog 6 1038 100 4000 3.09 90 10:33 06.04.2022
2812 Fog 7 1038 100 4000 4.12 100 09:46 06.04.2022
2813 Fog 7 1038 100 1500 5.14 100 08:51 06.04.2022
2814 Fog 8 1038 93 2000 4.63 100 07:58 06.04.2022
2815 Fog 7 1039 93 4000 2.57 90 05:23 06.04.2022
2816 Clouds 13 1037 62 10000 2.57 90 00:20 06.04.2022
2817 Clouds 12 1037 76 10000 2.06 50 23:47 05.04.2022
2818 Clouds 14 1037 58 10000 2.57 130 21:48 05.04.2022
2819 Clouds 15 1038 50 10000 2.57 110 20:58 05.04.2022
2820 Clouds 15 1038 50 10000 2.57 110 20:23 05.04.2022
2821 Clouds 13 1040 71 10000 2.57 300 18:28 05.04.2022
2822 Clouds 12 1041 76 10000 4.12 280 17:20 05.04.2022
2823 Clouds 12 1040 62 10000 1.03 0 16:42 05.04.2022
2824 Clouds 9 1040 81 10000 4.12 60 15:50 05.04.2022
2825 Clouds 9 1040 81 10000 4.12 60 15:30 05.04.2022
2826 Clouds 7 1039 93 4000 4.12 50 13:45 05.04.2022
2827 Fog 8 1038 93 4000 3.09 100 11:55 05.04.2022
2828 Fog 8 1038 93 4000 3.09 100 11:33 05.04.2022
2829 Fog 7 1038 100 4000 4.12 110 10:58 05.04.2022
2830 Fog 7 1038 100 4000 1.54 80 09:31 05.04.2022
2831 Fog 7 1038 100 3000 1.03 0 08:22 05.04.2022
2832 Fog 8 1036 93 4000 2.57 90 02:58 05.04.2022
2833 Clouds 13 1035 76 10000 2.57 120 23:22 04.04.2022
2834 Clouds 11 1036 81 10000 1.54 60 22:32 04.04.2022
2835 Clouds 8 1037 100 6000 4.12 20 21:43 04.04.2022
2836 Clouds 8 1037 100 6000 4.12 20 21:18 04.04.2022
2837 Clouds 8 1037 93 8000 1.03 0 20:46 04.04.2022
2838 Clouds 12 1038 76 8000 4.63 110 19:27 04.04.2022
2839 Clouds 13 1038 76 10000 2.06 130 18:39 04.04.2022
2840 Clouds 13 1039 62 10000 2.06 230 17:19 04.04.2022
2841 Clouds 11 1039 76 10000 2.06 210 16:27 04.04.2022
2842 Clouds 10 1038 71 10000 1.03 0 15:33 04.04.2022
2843 Clouds 7 1038 93 10000 0 0 14:46 04.04.2022
2844 Clouds 5 1037 93 10000 1.03 0 13:58 04.04.2022
2845 Clouds 7 1036 93 10000 0 0 12:41 04.04.2022
2846 Clouds 7 1036 87 10000 0 0 11:29 04.04.2022
2847 Clouds 8 1037 87 10000 0 0 09:53 04.04.2022
2848 Clouds 7 1039 93 10000 4.63 200 05:34 04.04.2022
2849 Clouds 9 1036 93 10000 2.06 70 02:51 04.04.2022
2850 Clouds 17 1034 44 10000 3.6 270 22:54 03.04.2022
2851 Clouds 16 1035 51 10000 2.06 280 21:59 03.04.2022
2852 Clouds 16 1035 51 10000 2.06 280 21:25 03.04.2022
2853 Clouds 14 1036 54 10000 2.57 260 20:21 03.04.2022
2854 Clouds 13 1038 62 10000 2.06 310 18:37 03.04.2022
2855 Clouds 12 1038 66 10000 1.03 0 17:50 03.04.2022
2856 Clouds 12 1038 66 10000 1.03 0 17:32 03.04.2022
2857 Clouds 9 1038 87 10000 1.54 60 16:49 03.04.2022
2858 Fog 6 1038 93 4000 3.09 60 15:42 03.04.2022
2859 Clouds 3 1038 100 2000 2.06 360 14:20 03.04.2022
2860 Snow 3 1037 100 1500 4.12 310 12:58 03.04.2022
2861 Rain 7 1036 100 4000 1.03 0 11:39 03.04.2022
2862 Clouds 7 1036 100 10000 2.06 60 09:52 03.04.2022
2863 Clouds 7 1036 100 10000 2.06 50 08:57 03.04.2022
2864 Clouds 7 1038 100 6000 2.06 350 05:45 03.04.2022
2865 Clouds 7 1038 100 6000 2.06 350 05:45 03.04.2022
2866 Thunderstorm 9 1036 93 6000 4.63 100 02:55 03.04.2022
2867 Clouds 13 1034 71 10000 4.63 100 23:27 02.04.2022
2868 Clouds 13 1034 66 10000 6.17 90 22:43 02.04.2022
2869 Clouds 14 1034 62 10000 5.66 90 21:55 02.04.2022
2870 Clouds 14 1034 62 10000 5.66 90 21:19 02.04.2022
2871 Clouds 13 1035 76 10000 4.63 70 20:36 02.04.2022
2872 Clouds 13 1038 71 10000 3.09 90 18:47 02.04.2022
2873 Clouds 13 1038 71 10000 3.09 90 18:19 02.04.2022
2874 Clouds 12 1038 71 10000 1.03 0 16:50 02.04.2022
2875 Clouds 10 1038 81 6000 2.06 110 15:42 02.04.2022
2876 Clouds 10 1038 81 6000 2.06 110 15:18 02.04.2022
2877 Fog 9 1038 87 4000 3.09 80 14:26 02.04.2022
2878 Fog 6 1037 93 4000 2.06 80 13:31 02.04.2022
2879 Fog 6 1036 100 4000 2.57 70 12:21 02.04.2022
2880 Fog 6 1036 93 4000 2.57 80 10:22 02.04.2022
2881 Fog 7 1037 100 4000 2.06 90 07:48 02.04.2022
2882 Fog 8 1037 100 3000 3.6 70 04:34 02.04.2022
2883 Clouds 11 1035 61 10000 4.12 70 01:21 02.04.2022
2884 Clouds 13 1034 58 10000 5.66 50 23:54 01.04.2022
2885 Clouds 14 1034 58 10000 4.63 60 22:46 01.04.2022
2886 Clouds 14 1035 62 10000 4.12 70 21:22 01.04.2022
2887 Clouds 17 1036 51 10000 4.12 90 20:46 01.04.2022
2888 Clouds 15 1037 58 10000 3.09 110 19:45 01.04.2022
2889 Clouds 15 1037 58 10000 3.09 110 19:25 01.04.2022
2890 Clouds 15 1038 58 10000 4.12 100 18:37 01.04.2022
2891 Clouds 14 1038 62 6000 3.09 110 17:38 01.04.2022
2892 Clouds 10 1038 81 6000 3.6 100 15:46 01.04.2022
2893 Fog 8 1037 93 4000 3.09 100 14:51 01.04.2022
2894 Fog 5 1037 93 4000 3.09 80 13:39 01.04.2022
2895 Fog 4 1036 100 4000 2.06 90 12:33 01.04.2022
2896 Fog 4 1035 100 4000 2.06 90 11:47 01.04.2022
2897 Fog 4 1036 100 4000 2.57 80 10:49 01.04.2022
2898 Fog 4 1036 100 4000 1.03 0 09:35 01.04.2022
2899 Fog 7 1037 100 4000 1.54 310 07:24 01.04.2022
2900 Fog 8 1036 100 3000 4.12 80 04:57 01.04.2022
2901 Fog 8 1036 100 3000 4.12 80 04:39 01.04.2022
2902 Clouds 10 1035 87 10000 2.57 80 02:37 01.04.2022
2903 Clouds 11 1034 81 10000 4.63 130 01:33 01.04.2022
2904 Rain 15 1034 41 10000 4.12 120 22:27 31.03.2022
2905 Clouds 16 1034 41 10000 4.12 130 21:38 31.03.2022
2906 Clouds 16 1035 44 10000 3.09 140 20:50 31.03.2022
2907 Clouds 16 1035 44 10000 3.09 140 20:28 31.03.2022
2908 Clouds 15 1036 54 10000 3.09 140 19:18 31.03.2022
2909 Clouds 16 1037 54 10000 2.06 90 18:31 31.03.2022
2910 Clouds 16 1037 54 10000 2.06 90 18:31 31.03.2022
2911 Rain 11 1037 81 6000 3.6 100 16:46 31.03.2022
2912 Clouds 10 1037 87 6000 2.57 90 15:54 31.03.2022
2913 Clouds 10 1037 87 6000 2.57 90 15:24 31.03.2022
2914 Fog 8 1036 93 4000 3.09 80 14:44 31.03.2022
2915 Fog 5 1036 100 4000 2.57 70 13:28 31.03.2022
2916 Fog 3 1034 100 4000 2.06 60 11:30 31.03.2022
2917 Fog 4 1035 100 4000 1.03 0 10:22 31.03.2022
2918 Fog 6 1035 93 4000 1.03 0 09:19 31.03.2022
2919 Fog 7 1036 93 4000 1.03 0 07:31 31.03.2022
2920 Clouds 12 1033 53 10000 4.63 110 01:27 31.03.2022
2921 Clouds 17 1033 36 10000 6.69 90 23:23 30.03.2022
2922 Clouds 15 1034 35 10000 5.14 120 21:50 30.03.2022
2923 Clouds 15 1034 35 10000 5.14 120 21:27 30.03.2022
2924 Clouds 16 1035 35 10000 4.63 130 20:22 30.03.2022
2925 Clouds 17 1035 25 10000 3.6 160 19:43 30.03.2022
2926 Clouds 17 1036 36 10000 2.57 150 18:40 30.03.2022
2927 Clouds 15 1037 47 10000 1.03 0 17:49 30.03.2022
2928 Clouds 13 1037 62 10000 2.06 260 16:58 30.03.2022
2929 Clouds 13 1037 62 10000 2.06 260 16:38 30.03.2022
2930 Clouds 11 1037 71 10000 2.06 250 15:38 30.03.2022
2931 Clouds 4 1036 93 6000 2.06 70 13:57 30.03.2022
2932 Clouds 4 1036 93 6000 2.06 70 13:19 30.03.2022
2933 Fog 8 1035 93 4000 2.57 90 11:40 30.03.2022
2934 Fog 8 1035 100 4000 1.03 0 10:37 30.03.2022
2935 Fog 8 1035 93 4000 3.09 120 09:27 30.03.2022
2936 Fog 8 1036 100 4000 1.03 0 07:41 30.03.2022
2937 Clear 6 1036 93 10000 2.57 90 05:41 30.03.2022
2938 Clear 6 1036 87 10000 3.6 70 04:19 30.03.2022
2939 Clouds 17 1035 20 10000 3.6 140 00:42 30.03.2022
2940 Clouds 18 1035 21 10000 5.66 140 22:34 29.03.2022
2941 Clouds 18 1036 25 10000 4.63 110 21:45 29.03.2022
2942 Clouds 17 1037 25 10000 4.12 20 20:54 29.03.2022
2943 Clouds 17 1037 25 10000 4.12 20 20:20 29.03.2022
2944 Clouds 15 1039 44 10000 1.03 0 18:56 29.03.2022
2945 Clouds 15 1039 44 10000 1.03 0 18:31 29.03.2022
2946 Clouds 13 1040 58 10000 2.06 130 17:36 29.03.2022
2947 Clouds 13 1040 54 10000 1.03 0 16:57 29.03.2022
2948 Clouds 10 1040 76 10000 1.03 0 15:57 29.03.2022
2949 Clouds 9 1039 87 10000 1.03 0 14:53 29.03.2022
2950 Clouds 4 1038 100 10000 1.03 0 13:58 29.03.2022
2951 Fog 6 1038 100 4000 2.06 20 12:51 29.03.2022
2952 Fog 8 1038 93 4000 1.03 0 11:43 29.03.2022
2953 Fog 8 1038 93 4000 1.03 0 11:43 29.03.2022
2954 Fog 8 1038 100 4000 1.03 0 10:51 29.03.2022
2955 Fog 6 1038 100 4000 1.03 0 09:42 29.03.2022
2956 Fog 6 1039 100 4000 2.57 60 07:35 29.03.2022
2957 Clouds 6 1039 93 10000 2.57 90 04:41 29.03.2022
2958 Clouds 9 1038 87 7000 3.09 320 00:35 29.03.2022
2959 Clouds 12 1038 66 10000 2.57 310 23:23 28.03.2022
2960 Clouds 15 1037 54 10000 3.09 120 22:52 28.03.2022
2961 Clouds 15 1037 54 10000 3.09 120 22:26 28.03.2022
2962 Clouds 14 1039 58 10000 5.14 70 20:56 28.03.2022
2963 Clouds 14 1039 58 10000 5.14 70 20:21 28.03.2022
2964 Clouds 14 1039 66 10000 5.14 90 19:41 28.03.2022
2965 Clouds 16 1041 62 10000 4.63 110 18:56 28.03.2022
2966 Clouds 16 1041 62 10000 4.63 110 18:36 28.03.2022
2967 Clouds 13 1041 71 10000 3.6 170 17:38 28.03.2022
2968 Haze 11 1041 81 5000 2.06 150 16:19 28.03.2022
2969 Clouds 8 1040 93 6000 1.03 0 14:27 28.03.2022
2970 Clouds 7 1039 100 6000 1.03 0 13:47 28.03.2022
2971 Clouds 7 1038 93 10000 1.03 0 11:58 28.03.2022
2972 Clouds 7 1038 100 10000 1.54 70 10:50 28.03.2022
2973 Fog 7 1038 100 4000 2.57 110 09:41 28.03.2022
2974 Fog 8 1039 100 4000 2.57 110 08:49 28.03.2022
2975 Fog 8 1039 100 4000 2.57 110 08:21 28.03.2022
2976 Fog 9 1039 87 4000 3.6 110 07:27 28.03.2022
2977 Clouds 10 1038 87 10000 3.6 130 02:48 28.03.2022
2978 Clouds 12 1036 76 8000 2.57 100 22:59 27.03.2022
2979 Clouds 12 1036 76 8000 2.57 100 22:22 27.03.2022
2980 Clouds 14 1036 58 10000 4.63 70 21:40 27.03.2022
2981 Clouds 16 1037 54 10000 4.63 100 20:42 27.03.2022
2982 Clouds 15 1038 67 10000 5.14 110 19:44 27.03.2022
2983 Clouds 14 1039 71 10000 4.63 110 18:47 27.03.2022
2984 Clouds 14 1039 71 10000 4.63 110 18:25 27.03.2022
2985 Clouds 11 1039 81 6000 4.63 120 17:37 27.03.2022
2986 Fog 10 1039 87 4000 3.6 90 15:55 27.03.2022
2987 Fog 7 1038 100 4000 2.06 130 14:22 27.03.2022
2988 Fog 7 1037 93 4000 1.54 140 13:33 27.03.2022
2989 Fog 7 1036 100 4000 1.03 0 11:41 27.03.2022
2990 Fog 7 1036 100 4000 2.06 120 09:49 27.03.2022
2991 Fog 8 1037 100 4000 5.14 110 07:47 27.03.2022
2992 Fog 9 1037 93 500 4.63 100 04:49 27.03.2022
2993 Clouds 10 1034 93 10000 4.12 110 00:27 27.03.2022
2994 Clouds 15 1033 62 10000 4.63 70 22:52 26.03.2022
2995 Clouds 15 1033 62 10000 4.63 70 22:25 26.03.2022
2996 Clouds 15 1034 50 10000 3.6 60 21:31 26.03.2022
2997 Clouds 15 1035 50 10000 3.09 60 19:38 26.03.2022
2998 Clouds 16 1036 47 10000 2.57 90 18:44 26.03.2022
2999 Clouds 13 1037 66 10000 2.06 80 17:44 26.03.2022
3000 Clouds 13 1038 66 10000 2.57 110 16:46 26.03.2022
3001 Clouds 12 1038 76 10000 3.09 90 15:43 26.03.2022
3002 Fog 9 1037 100 4000 2.06 100 13:57 26.03.2022
3003 Fog 9 1037 100 4000 2.06 100 13:36 26.03.2022
3004 Fog 8 1036 100 4000 2.57 80 12:18 26.03.2022
3005 Fog 9 1035 93 3000 2.57 130 10:49 26.03.2022
3006 Fog 9 1035 93 4000 2.57 110 09:19 26.03.2022
3007 Clouds 9 1036 100 7000 1.03 0 06:56 26.03.2022
3008 Fog 8 1037 100 3000 2.06 50 05:31 26.03.2022
3009 Fog 9 1035 93 4000 4.63 110 02:24 26.03.2022
3010 Clouds 16 1033 54 10000 3.6 40 22:47 25.03.2022
3011 Clouds 10 1035 100 8000 4.12 70 20:58 25.03.2022
3012 Clouds 10 1035 100 8000 4.12 70 20:26 25.03.2022
3013 Clouds 11 1036 87 10000 1.03 0 19:19 25.03.2022
3014 Clouds 11 1036 93 3000 4.63 20 18:35 25.03.2022
3015 Clouds 14 1037 66 10000 3.6 110 17:30 25.03.2022
3016 Clouds 13 1037 76 10000 2.57 120 16:27 25.03.2022
3017 Clouds 12 1038 76 6000 1.03 0 15:34 25.03.2022
3018 Fog 9 1037 93 4000 1.03 0 13:29 25.03.2022
3019 Fog 8 1036 93 4000 1.03 0 11:21 25.03.2022
3020 Fog 5 1035 100 4000 1.03 0 09:31 25.03.2022
3021 Fog 6 1035 100 4000 2.06 60 08:49 25.03.2022
3022 Fog 6 1036 100 4000 2.06 40 07:35 25.03.2022
3023 Fog 6 1036 100 4000 1.03 0 06:29 25.03.2022
3024 Clouds 10 1035 76 10000 2.57 20 02:37 25.03.2022
3025 Clouds 13 1034 66 10000 2.57 320 22:56 24.03.2022
3026 Clouds 13 1034 71 10000 2.57 350 21:56 24.03.2022
3027 Rain 14 1034 58 10000 5.66 30 20:51 24.03.2022
3028 Clouds 16 1034 58 10000 4.63 50 19:49 24.03.2022
3029 Clouds 17 1036 58 10000 1.03 0 18:34 24.03.2022
3030 Clouds 15 1037 58 10000 2.57 210 17:33 24.03.2022
3031 Clouds 14 1037 58 10000 2.06 140 16:24 24.03.2022
3032 Clouds 12 1038 71 10000 1.03 0 14:51 24.03.2022
3033 Clouds 12 1038 71 10000 1.03 0 14:21 24.03.2022
3034 Clouds 8 1037 93 10000 2.57 90 13:31 24.03.2022
3035 Fog 7 1036 100 2500 2.57 80 12:23 24.03.2022
3036 Clouds 6 1035 93 10000 1.03 0 10:32 24.03.2022
3037 Clouds 6 1035 100 10000 1.03 0 09:23 24.03.2022
3038 Clouds 8 1036 93 10000 3.09 70 07:42 24.03.2022
3039 Clouds 10 1037 87 10000 5.14 60 04:43 24.03.2022
3040 Clouds 17 1033 63 10000 4.63 100 23:38 23.03.2022
3041 Clouds 20 1033 34 10000 4.63 260 22:18 23.03.2022
3042 Clouds 20 1033 39 10000 5.14 260 21:20 23.03.2022
3043 Clouds 19 1035 39 10000 4.12 220 19:50 23.03.2022
3044 Clouds 19 1035 39 10000 4.12 220 19:25 23.03.2022
3045 Clouds 16 1038 54 10000 3.6 290 17:47 23.03.2022
3046 Clouds 15 1038 62 10000 4.12 250 16:55 23.03.2022
3047 Clouds 10 1038 93 6000 2.06 110 14:57 23.03.2022
3048 Clouds 10 1038 93 6000 2.06 110 14:38 23.03.2022
3049 Fog 9 1038 100 4000 2.57 120 13:22 23.03.2022
3050 Fog 6 1036 100 4000 2.06 40 10:20 23.03.2022
3051 Fog 9 1036 93 2000 3.6 70 07:44 23.03.2022
3052 Fog 9 1037 100 4000 3.09 70 05:27 23.03.2022
3053 Clouds 9 1035 100 10000 2.57 70 01:18 23.03.2022
3054 Clouds 11 1034 93 10000 3.09 90 00:23 23.03.2022
3055 Clouds 13 1034 71 10000 3.6 60 21:31 22.03.2022
3056 Thunderstorm 14 1035 62 10000 2.06 240 20:51 22.03.2022
3057 Clouds 14 1035 62 10000 3.09 140 19:52 22.03.2022
3058 Clouds 14 1035 62 10000 3.09 140 19:25 22.03.2022
3059 Clouds 14 1036 71 10000 2.06 150 18:45 22.03.2022
3060 Clouds 13 1037 76 10000 2.06 150 17:38 22.03.2022
3061 Clouds 14 1038 62 10000 2.57 110 16:28 22.03.2022
3062 Clouds 13 1038 66 10000 2.06 270 15:23 22.03.2022
3063 Clouds 11 1038 81 10000 2.06 300 14:57 22.03.2022
3064 Clouds 11 1038 81 10000 2.06 300 14:38 22.03.2022
3065 Clouds 8 1037 100 10000 0 0 13:36 22.03.2022
3066 Fog 7 1036 100 3000 2.06 40 11:52 22.03.2022
3067 Fog 6 1035 100 3000 1.03 0 10:44 22.03.2022
3068 Clouds 6 1036 100 10000 2.57 70 08:38 22.03.2022
3069 Clouds 8 1038 100 10000 1.54 60 06:53 22.03.2022
3070 Clouds 8 1038 100 6000 6.17 240 03:52 22.03.2022
3071 Clouds 12 1035 76 10000 2.06 80 00:29 22.03.2022
3072 Rain 13 1034 66 10000 2.57 70 22:42 21.03.2022
3073 Clouds 11 1035 81 8000 4.63 360 21:18 21.03.2022
3074 Clouds 12 1035 71 8000 6.17 360 20:40 21.03.2022
3075 Clouds 17 1036 51 10000 1.03 0 19:58 21.03.2022
3076 Clouds 17 1036 51 10000 1.03 0 19:34 21.03.2022
3077 Clouds 17 1037 47 10000 2.57 300 18:31 21.03.2022
3078 Clouds 14 1038 58 10000 2.57 300 17:19 21.03.2022
3079 Clouds 14 1039 58 10000 1.03 0 16:51 21.03.2022
3080 Clouds 12 1039 76 10000 1.03 0 15:59 21.03.2022
3081 Clouds 12 1039 76 10000 1.03 0 15:20 21.03.2022
3082 Clouds 10 1039 87 6000 3.09 270 14:25 21.03.2022
3083 Clouds 8 1038 93 6000 2.57 300 12:42 21.03.2022
3084 Fog 8 1037 100 4000 2.06 260 11:53 21.03.2022
3085 Fog 6 1037 100 4000 1.03 0 10:40 21.03.2022
3086 Fog 8 1037 100 3000 2.06 80 08:56 21.03.2022
3087 Fog 8 1038 100 3000 2.57 90 06:57 21.03.2022
3088 Fog 9 1037 100 4000 3.09 100 02:55 21.03.2022
3089 Clouds 9 1036 93 10000 2.57 300 00:35 21.03.2022
3090 Clouds 13 1035 76 6000 1.03 0 22:54 20.03.2022
3091 Clouds 14 1036 66 6000 3.6 280 21:56 20.03.2022
3092 Clouds 14 1036 66 6000 3.6 280 21:29 20.03.2022
3093 Clouds 13 1037 66 10000 2.57 250 20:43 20.03.2022
3094 Clouds 15 1037 62 10000 5.14 110 19:59 20.03.2022
3095 Clouds 15 1037 62 10000 5.14 110 19:34 20.03.2022
3096 Clouds 15 1038 54 10000 3.6 80 18:34 20.03.2022
3097 Clouds 15 1039 58 10000 4.63 110 17:33 20.03.2022
3098 Clouds 13 1039 71 10000 4.12 110 16:57 20.03.2022
3099 Clouds 13 1040 71 10000 3.6 80 15:35 20.03.2022
3100 Clouds 10 1040 87 6000 3.09 90 14:35 20.03.2022
3101 Fog 7 1038 100 4000 2.57 80 12:35 20.03.2022
3102 Fog 7 1037 100 4000 3.09 100 11:23 20.03.2022
3103 Fog 8 1037 93 4000 4.63 80 09:30 20.03.2022
3104 Fog 8 1038 100 4000 3.09 120 07:47 20.03.2022
3105 Fog 8 1039 100 4000 4.63 120 05:48 20.03.2022
3106 Rain 11 1037 71 10000 6.17 50 01:56 20.03.2022
3107 Clouds 11 1036 76 10000 2.57 90 00:45 20.03.2022
3108 Clouds 13 1036 62 10000 2.57 80 23:19 19.03.2022
3109 Clouds 16 1036 51 10000 2.06 70 21:28 19.03.2022
3110 Clouds 14 1036 62 10000 2.06 140 20:49 19.03.2022
3111 Clouds 14 1039 62 10000 4.12 130 18:58 19.03.2022
3112 Clouds 14 1039 62 10000 4.12 130 18:23 19.03.2022
3113 Clouds 16 1040 54 10000 4.63 80 17:35 19.03.2022
3114 Clouds 12 1040 71 10000 2.57 110 15:44 19.03.2022
3115 Clouds 10 1040 81 6000 4.12 120 14:44 19.03.2022
3116 Fog 8 1039 93 4000 3.6 100 13:19 19.03.2022
3117 Fog 8 1039 93 4000 3.6 100 13:19 19.03.2022
3118 Fog 4 1038 100 4000 2.06 120 12:40 19.03.2022
3119 Fog 5 1038 100 4000 2.06 70 11:54 19.03.2022
3120 Fog 6 1038 100 4000 2.06 130 10:47 19.03.2022
3121 Clouds 8 1038 87 10000 5.14 80 06:51 19.03.2022
3122 Clouds 9 1039 87 10000 1.03 0 03:24 19.03.2022
3123 Clouds 9 1038 81 10000 4.63 200 02:29 19.03.2022
3124 Clouds 14 1035 71 10000 4.12 110 23:44 18.03.2022
3125 Clouds 16 1035 51 10000 2.06 50 22:27 18.03.2022
3126 Clouds 12 1035 76 10000 1.03 0 21:37 18.03.2022
3127 Clouds 14 1037 62 10000 2.57 130 19:51 18.03.2022
3128 Clouds 14 1037 62 10000 2.57 130 19:21 18.03.2022
3129 Clouds 14 1039 58 10000 4.12 150 17:43 18.03.2022
3130 Clouds 14 1039 62 10000 2.57 150 16:47 18.03.2022
3131 Clouds 10 1039 81 10000 2.06 80 14:51 18.03.2022
3132 Clouds 10 1039 81 10000 2.06 80 14:21 18.03.2022
3133 Fog 5 1038 100 4000 2.57 90 12:26 18.03.2022
3134 Fog 5 1036 93 4000 2.06 90 10:47 18.03.2022
3135 Fog 7 1036 93 4000 2.06 80 09:28 18.03.2022
3136 Fog 7 1036 100 3000 4.12 90 07:59 18.03.2022
3137 Fog 7 1036 100 2500 4.12 90 06:34 18.03.2022
3138 Clouds 7 1035 93 10000 3.09 100 02:51 18.03.2022
3139 Clouds 10 1034 76 10000 3.09 80 00:22 18.03.2022
3140 Clouds 14 1034 58 10000 4.12 90 23:21 17.03.2022
3141 Clouds 14 1034 62 10000 4.12 100 22:23 17.03.2022
3142 Clouds 13 1034 62 10000 4.12 60 21:48 17.03.2022
3143 Clouds 13 1034 62 10000 4.12 60 21:20 17.03.2022
3144 Clouds 16 1035 47 10000 4.12 220 20:41 17.03.2022
3145 Clouds 15 1035 54 10000 3.6 250 19:45 17.03.2022
3146 Clouds 14 1036 62 10000 4.12 170 18:57 17.03.2022
3147 Clouds 14 1037 58 10000 2.57 80 17:56 17.03.2022
3148 Clouds 12 1038 66 10000 3.09 220 16:43 17.03.2022
3149 Clouds 12 1037 76 10000 2.57 150 15:44 17.03.2022
3150 Clouds 12 1037 76 10000 2.57 150 15:22 17.03.2022
3151 Fog 7 1037 100 4000 1.54 50 13:49 17.03.2022
3152 Fog 5 1036 100 4000 1.03 0 12:49 17.03.2022
3153 Fog 5 1035 93 4000 2.57 120 11:53 17.03.2022
3154 Fog 5 1035 93 4000 2.57 120 11:22 17.03.2022
3155 Fog 6 1035 100 4000 1.54 60 09:47 17.03.2022
3156 Fog 5 1035 100 4000 2.06 60 08:31 17.03.2022
3157 Fog 7 1037 93 4000 2.06 100 06:25 17.03.2022
3158 Fog 5 1037 100 4000 2.57 60 05:39 17.03.2022
3159 Fog 5 1037 100 4000 2.57 60 05:39 17.03.2022
3160 Clouds 8 1034 93 10000 4.63 80 00:42 17.03.2022
3161 Clouds 9 1034 93 6000 4.12 90 22:59 16.03.2022
3162 Clouds 9 1034 93 6000 4.12 90 22:39 16.03.2022
3163 Clouds 9 1034 93 6000 4.12 90 22:19 16.03.2022
3164 Clouds 9 1035 93 5000 2.57 110 21:18 16.03.2022
3165 Clouds 9 1035 93 5000 2.57 110 21:18 16.03.2022
3166 Clouds 10 1036 81 10000 3.09 100 19:25 16.03.2022
3167 Clouds 12 1036 66 10000 4.63 110 18:43 16.03.2022
3168 Clouds 12 1036 66 10000 4.63 110 18:18 16.03.2022
3169 Clouds 10 1037 76 10000 4.63 110 17:36 16.03.2022
3170 Clouds 10 1038 71 10000 3.09 130 16:36 16.03.2022
3171 Clouds 10 1038 71 10000 2.57 90 15:34 16.03.2022
3172 Clouds 6 1037 100 6000 1.03 0 13:41 16.03.2022
3173 Fog 5 1037 100 4000 1.03 0 12:57 16.03.2022
3174 Rain 4 1037 100 4000 1.54 70 11:26 16.03.2022
3175 Fog 4 1037 100 4000 2.57 110 10:43 16.03.2022
3176 Fog 4 1036 100 4000 2.06 80 09:57 16.03.2022
3177 Fog 4 1037 100 4000 2.57 120 08:33 16.03.2022
3178 Fog 6 1037 100 4000 3.09 210 02:46 16.03.2022
3179 Clouds 9 1034 87 6000 1.03 0 22:58 15.03.2022
3180 Rain 9 1034 87 6000 1.03 0 22:36 15.03.2022
3181 Clouds 7 1035 100 5000 1.03 0 21:19 15.03.2022
3182 Clouds 9 1036 89 6000 5.14 120 19:46 15.03.2022
3183 Clouds 9 1038 87 6000 3.6 110 17:47 15.03.2022
3184 Clouds 9 1039 87 6000 3.09 140 16:41 15.03.2022
3185 Clouds 8 1039 87 6000 2.57 80 15:38 15.03.2022
3186 Clouds 7 1038 87 6000 1.54 140 14:54 15.03.2022
3187 Fog 5 1038 93 4000 1.03 0 13:56 15.03.2022
3188 Rain 5 1038 93 4000 1.03 0 13:23 15.03.2022
3189 Rain 4 1036 100 4000 1.03 0 11:33 15.03.2022
3190 Rain 4 1036 93 6000 1.03 0 10:52 15.03.2022
3191 Clouds 3 1036 100 5000 1.03 0 09:24 15.03.2022
3192 Rain 6 1018 93 2286 1.12 352 08:24 15.03.2022
3193 Rain 5 1037 100 4000 4.12 340 07:36 15.03.2022
3194 Fog 7 1037 100 4000 2.57 130 05:56 15.03.2022
3195 Clouds 9 1034 100 6000 3.09 90 00:31 15.03.2022
3196 Clouds 10 1034 93 7000 3.6 80 23:29 14.03.2022
3197 Clouds 13 1034 71 10000 3.6 90 22:49 14.03.2022
3198 Clouds 12 1034 76 10000 4.12 90 21:51 14.03.2022
3199 Clouds 11 1035 87 10000 4.12 130 20:55 14.03.2022
3200 Clouds 11 1035 87 10000 4.12 130 20:24 14.03.2022
3201 Clouds 10 1036 93 8000 3.09 260 19:22 14.03.2022
3202 Clouds 10 1038 87 6000 4.12 250 17:55 14.03.2022
3203 Rain 10 1038 87 6000 4.12 250 17:33 14.03.2022
3204 Clouds 10 1038 81 6000 1.03 0 16:27 14.03.2022
3205 Clouds 7 1038 93 4000 1.03 0 14:42 14.03.2022
3206 Clouds 7 1036 100 2000 1.03 0 12:55 14.03.2022
3207 Fog 7 1035 100 4000 0 0 10:57 14.03.2022
3208 Clouds 7 1035 100 8000 1.54 230 09:56 14.03.2022
3209 Clouds 7 1035 100 8000 1.54 230 09:23 14.03.2022
3210 Clouds 7 1036 100 6000 3.6 260 08:57 14.03.2022
3211 Rain 7 1036 93 6000 2.57 240 08:20 14.03.2022
3212 Fog 8 1037 100 4000 3.09 110 05:46 14.03.2022
3213 Clouds 9 1035 87 10000 1.54 350 02:57 14.03.2022
3214 Clouds 8 1034 87 10000 2.57 80 01:33 14.03.2022
3215 Clouds 12 1033 71 10000 4.12 50 23:25 13.03.2022
3216 Clouds 11 1034 81 8000 3.6 20 21:40 13.03.2022
3217 Clouds 11 1034 81 8000 3.6 20 21:19 13.03.2022
3218 Clouds 12 1034 81 8000 4.63 70 20:43 13.03.2022
3219 Clouds 14 1035 62 10000 4.63 80 20:20 13.03.2022
3220 Clouds 15 1036 58 10000 4.12 10 19:40 13.03.2022
3221 Clouds 15 1036 58 10000 4.12 10 19:19 13.03.2022
3222 Clouds 15 1037 58 10000 4.12 80 18:39 13.03.2022
3223 Clouds 11 1038 76 10000 3.09 70 17:47 13.03.2022
3224 Clouds 11 1038 76 10000 3.09 70 17:21 13.03.2022
3225 Clouds 11 1038 81 8000 3.6 90 16:33 13.03.2022
3226 Clouds 12 1038 81 6000 2.57 110 15:49 13.03.2022
3227 Fog 10 1038 87 4000 2.57 80 14:58 13.03.2022
3228 Fog 8 1037 100 3000 2.57 110 13:49 13.03.2022
3229 Fog 8 1037 100 3000 2.57 110 13:19 13.03.2022
3230 Fog 8 1036 93 2000 3.6 110 12:19 13.03.2022
3231 Fog 8 1036 93 4000 2.57 110 11:36 13.03.2022
3232 Fog 8 1035 100 4000 3.09 110 10:48 13.03.2022
3233 Fog 8 1035 100 4000 3.09 110 10:48 13.03.2022
3234 Fog 8 1035 100 4000 3.09 110 10:24 13.03.2022
3235 Fog 8 1035 100 4000 3.09 110 10:24 13.03.2022
3236 Fog 8 1035 100 1200 3.6 110 09:41 13.03.2022
3237 Fog 8 1036 100 3000 3.6 100 08:46 13.03.2022
3238 Fog 9 1036 100 4000 3.6 100 07:47 13.03.2022
3239 Fog 9 1037 100 4000 3.6 100 05:42 13.03.2022
3240 Clouds 10 1035 76 10000 1.03 0 02:43 13.03.2022
3241 Clouds 14 1032 66 10000 5.14 90 23:59 12.03.2022
3242 Clouds 12 1033 62 10000 4.63 270 22:31 12.03.2022
3243 Clouds 15 1033 54 8000 5.14 120 20:48 12.03.2022
3244 Clouds 16 1034 54 10000 5.14 120 19:48 12.03.2022
3245 Clouds 16 1034 54 10000 5.14 120 19:27 12.03.2022
3246 Clouds 15 1035 58 10000 2.06 190 18:23 12.03.2022
3247 Clouds 14 1036 62 10000 1.03 0 17:34 12.03.2022
3248 Clouds 13 1037 71 10000 3.09 250 16:24 12.03.2022
3249 Rain 12 1037 71 6000 1.03 0 15:23 12.03.2022
3250 Rain 11 1037 76 6000 2.06 230 14:40 12.03.2022
3251 Fog 8 1035 100 4000 1.03 0 12:56 12.03.2022
3252 Fog 8 1035 100 4000 2.06 100 11:56 12.03.2022
3253 Fog 8 1035 100 4000 2.06 100 11:35 12.03.2022
3254 Fog 8 1034 100 4000 2.57 130 10:52 12.03.2022
3255 Fog 9 1034 93 4000 1.03 0 09:45 12.03.2022
3256 Fog 9 1035 93 4000 2.57 90 08:55 12.03.2022
3257 Fog 9 1035 100 4000 1.54 90 07:19 12.03.2022
3258 Clouds 10 1035 76 10000 4.12 120 02:36 12.03.2022
3259 Clouds 12 1033 71 8000 1.54 320 23:56 11.03.2022
3260 Clouds 14 1033 62 10000 1.54 140 22:56 11.03.2022
3261 Clouds 14 1032 58 10000 2.57 60 21:35 11.03.2022
3262 Clouds 13 1033 62 10000 4.63 40 20:54 11.03.2022
3263 Clouds 13 1033 62 10000 4.63 40 20:28 11.03.2022
3264 Clouds 14 1034 62 10000 4.12 70 19:42 11.03.2022
3265 Clouds 14 1034 62 10000 4.12 70 19:20 11.03.2022
3266 Clouds 15 1036 76 10000 2.57 120 17:29 11.03.2022
3267 Clouds 14 1037 66 10000 1.54 100 16:27 11.03.2022
3268 Clouds 12 1037 76 10000 2.57 230 15:53 11.03.2022
3269 Clouds 10 1037 87 6000 1.03 0 14:19 11.03.2022
3270 Fog 8 1036 93 4000 2.06 70 12:43 11.03.2022
3271 Fog 8 1036 93 4000 2.06 70 12:20 11.03.2022
3272 Fog 7 1035 100 4000 2.57 70 11:40 11.03.2022
3273 Clouds 8 1034 87 10000 1.03 0 09:37 11.03.2022
3274 Clouds 7 1034 100 10000 3.09 80 08:29 11.03.2022
3275 Rain 8 1035 93 10000 4.12 50 07:48 11.03.2022
3276 Fog 8 1036 93 4000 3.09 50 06:55 11.03.2022
3277 Thunderstorm 9 1036 100 8000 2.57 230 04:44 11.03.2022
3278 Clouds 11 1034 76 10000 1.03 0 01:51 11.03.2022
3279 Clouds 13 1032 66 10000 5.14 330 22:33 10.03.2022
3280 Clouds 13 1033 66 10000 4.12 260 21:58 10.03.2022
3281 Clouds 13 1033 66 10000 4.12 260 21:26 10.03.2022
3282 Clouds 17 1033 38 8000 5.14 130 20:37 10.03.2022
3283 Clouds 18 1034 41 10000 3.6 90 19:22 10.03.2022
3284 Clouds 16 1035 51 10000 1.03 0 18:18 10.03.2022
3285 Clouds 12 1037 71 10000 2.06 240 16:53 10.03.2022
3286 Clouds 12 1037 71 6000 1.03 0 15:34 10.03.2022
3287 Clouds 10 1036 87 6000 2.06 120 13:51 10.03.2022
3288 Clouds 8 1035 93 10000 2.06 20 12:43 10.03.2022
3289 Fog 9 1035 93 4000 3.09 120 11:29 10.03.2022
3290 Clouds 9 1034 93 10000 2.06 80 09:43 10.03.2022
3291 Clouds 9 1035 93 10000 3.09 110 08:23 10.03.2022
3292 Clouds 10 1036 87 10000 3.6 110 05:32 10.03.2022
3293 Clouds 12 1035 71 10000 3.6 100 02:39 10.03.2022
3294 Clouds 16 1032 47 10000 4.63 110 23:37 09.03.2022
3295 Clouds 18 1032 41 10000 4.63 130 22:28 09.03.2022
3296 Clouds 19 1033 34 10000 5.66 100 21:47 09.03.2022
3297 Clouds 18 1034 41 10000 5.14 110 20:44 09.03.2022
3298 Clouds 17 1035 47 10000 4.63 130 18:50 09.03.2022
3299 Clouds 16 1036 51 10000 4.63 110 17:28 09.03.2022
3300 Clouds 14 1037 58 10000 4.12 110 16:39 09.03.2022
3301 Clouds 12 1037 71 10000 3.6 130 15:32 09.03.2022
3302 Clouds 10 1037 81 6000 3.6 140 14:19 09.03.2022
3303 Fog 8 1035 100 4000 3.6 120 12:59 09.03.2022
3304 Fog 8 1035 100 4000 3.6 120 12:20 09.03.2022
3305 Fog 8 1035 100 4000 3.6 140 11:45 09.03.2022
3306 Fog 9 1034 93 4000 2.57 100 10:49 09.03.2022
3307 Fog 8 1035 93 4000 1.03 0 09:22 09.03.2022
3308 Fog 8 1035 93 4000 1.03 0 08:42 09.03.2022
3309 Fog 10 1037 93 4000 2.57 140 04:47 09.03.2022
3310 Clouds 12 1034 66 10000 2.06 50 00:52 09.03.2022
3311 Clouds 14 1033 54 10000 2.57 80 23:18 08.03.2022
3312 Clouds 14 1033 54 10000 5.66 60 22:44 08.03.2022
3313 Clouds 17 1033 41 10000 4.63 130 21:24 08.03.2022
3314 Clouds 16 1034 51 10000 6.17 130 20:49 08.03.2022
3315 Clouds 17 1035 47 10000 5.14 110 19:53 08.03.2022
3316 Clouds 16 1036 47 10000 4.63 130 18:44 08.03.2022
3317 Clouds 15 1037 58 10000 4.12 110 17:40 08.03.2022
3318 Clouds 13 1037 62 10000 3.09 80 16:29 08.03.2022
3319 Clouds 11 1037 71 10000 2.57 50 14:20 08.03.2022
3320 Clouds 7 1036 93 8000 4.12 50 12:44 08.03.2022
3321 Fog 9 1035 93 4000 4.12 90 11:45 08.03.2022
3322 Rain 9 1034 76 10000 4.12 20 10:50 08.03.2022
3323 Rain 9 1034 87 10000 5.14 30 09:57 08.03.2022
3324 Fog 8 1035 100 4000 2.57 80 07:32 08.03.2022
3325 Clouds 9 1036 93 10000 3.09 130 05:43 08.03.2022
3326 Clouds 14 1032 62 10000 4.63 220 23:51 07.03.2022
3327 Clouds 18 1032 33 10000 3.09 110 21:57 07.03.2022
3328 Clouds 18 1032 33 10000 3.09 110 21:32 07.03.2022
3329 Clouds 18 1033 39 10000 4.63 100 20:46 07.03.2022
3330 Clouds 18 1033 39 10000 4.63 100 20:20 07.03.2022
3331 Clouds 19 1034 45 10000 4.12 110 19:31 07.03.2022
3332 Clouds 18 1035 48 10000 4.63 140 18:42 07.03.2022
3333 Clouds 17 1036 47 10000 1.54 150 17:48 07.03.2022
3334 Clouds 15 1037 67 10000 2.06 280 16:55 07.03.2022
3335 Clouds 13 1037 71 10000 2.06 250 15:35 07.03.2022
3336 Clouds 9 1036 81 10000 2.06 300 13:24 07.03.2022
3337 Clouds 7 1035 93 10000 1.54 50 12:23 07.03.2022
3338 Clouds 7 1034 93 10000 2.06 80 10:38 07.03.2022
3339 Rain 8 1034 93 10000 2.06 10 08:48 07.03.2022
3340 Clouds 11 1035 81 10000 4.12 90 03:41 07.03.2022
3341 Clouds 15 1032 47 10000 4.12 110 00:22 07.03.2022
3342 Clouds 18 1032 36 10000 3.09 90 23:31 06.03.2022
3343 Clouds 19 1032 34 10000 5.14 120 22:37 06.03.2022
3344 Clouds 19 1032 36 10000 5.14 120 21:45 06.03.2022
3345 Clouds 18 1033 39 10000 4.63 130 20:30 06.03.2022
3346 Clouds 18 1034 41 10000 4.63 130 19:50 06.03.2022
3347 Clouds 18 1036 41 10000 4.63 130 18:51 06.03.2022
3348 Clouds 17 1037 47 10000 4.63 130 17:54 06.03.2022
3349 Clouds 17 1037 47 10000 4.63 130 17:20 06.03.2022
3350 Clouds 16 1037 54 10000 2.57 100 16:40 06.03.2022
3351 Clouds 13 1037 71 10000 2.57 160 15:37 06.03.2022
3352 Clouds 12 1037 76 10000 1.03 0 14:49 06.03.2022
3353 Clouds 12 1037 76 10000 1.03 0 14:28 06.03.2022
3354 Clouds 6 1035 100 4000 2.06 100 12:43 06.03.2022
3355 Fog 7 1035 100 3000 2.57 100 11:56 06.03.2022
3356 Fog 7 1034 100 3000 2.57 100 10:43 06.03.2022
3357 Fog 8 1034 100 3000 2.57 90 09:25 06.03.2022
3358 Fog 8 1035 93 3000 2.57 100 08:28 06.03.2022
3359 Fog 6 1035 100 4000 3.09 70 07:33 06.03.2022
3360 Clouds 8 1036 93 10000 1.03 0 03:18 06.03.2022
3361 Clouds 14 1034 40 10000 3.09 110 00:41 06.03.2022
3362 Clouds 14 1034 40 10000 3.09 110 00:22 06.03.2022
3363 Clouds 16 1033 35 10000 4.12 140 23:19 05.03.2022
3364 Clouds 17 1033 36 10000 4.12 130 22:35 05.03.2022
3365 Clouds 18 1034 36 10000 4.12 120 21:31 05.03.2022
3366 Clouds 17 1035 44 10000 4.12 70 20:38 05.03.2022
3367 Clouds 17 1036 47 10000 4.63 100 19:22 05.03.2022
3368 Clouds 16 1037 58 10000 4.63 120 18:39 05.03.2022
3369 Clouds 16 1038 54 10000 4.63 110 17:34 05.03.2022
3370 Clouds 15 1038 54 10000 3.09 70 16:19 05.03.2022
3371 Clouds 12 1038 76 10000 3.6 130 15:20 05.03.2022
3372 Clouds 11 1038 81 6000 2.06 120 14:36 05.03.2022
3373 Clouds 9 1037 93 6000 1.03 0 13:42 05.03.2022
3374 Fog 8 1036 93 4000 1.03 0 12:40 05.03.2022
3375 Fog 8 1035 100 4000 1.54 100 11:20 05.03.2022
3376 Fog 9 1035 93 4000 3.09 130 10:52 05.03.2022
3377 Fog 8 1034 100 4000 2.57 100 09:31 05.03.2022
3378 Fog 7 1035 93 4000 2.06 90 08:24 05.03.2022
3379 Fog 10 1037 87 4000 3.09 120 06:33 05.03.2022
3380 Clouds 10 1037 87 10000 3.6 100 05:22 05.03.2022
3381 Clouds 15 1034 47 10000 3.6 140 00:30 05.03.2022
3382 Clouds 18 1034 36 10000 4.12 140 22:45 04.03.2022
3383 Clouds 18 1034 36 10000 4.12 140 22:24 04.03.2022
3384 Clouds 18 1034 39 10000 4.63 100 21:43 04.03.2022
3385 Clouds 18 1035 48 10000 4.63 90 20:39 04.03.2022
3386 Clouds 16 1036 54 10000 5.14 120 19:37 04.03.2022
3387 Clouds 16 1038 51 10000 4.63 110 18:54 04.03.2022
3388 Clouds 16 1038 51 10000 4.63 110 18:33 04.03.2022
3389 Clouds 16 1038 54 10000 3.6 130 17:29 04.03.2022
3390 Clouds 11 1038 76 10000 2.06 180 15:48 04.03.2022
3391 Clouds 11 1038 76 10000 1.03 0 14:45 04.03.2022
3392 Clouds 9 1037 87 10000 1.03 0 13:34 04.03.2022
3393 Clouds 7 1037 100 10000 2.06 240 11:59 04.03.2022
3394 Clouds 7 1037 100 10000 2.06 240 11:28 04.03.2022
3395 Clouds 7 1036 93 10000 2.06 300 10:23 04.03.2022
3396 Clouds 8 1036 93 10000 2.57 350 09:27 04.03.2022
3397 Clouds 8 1037 100 10000 2.06 280 07:47 04.03.2022
3398 Thunderstorm 8 1038 100 6000 2.57 230 05:44 04.03.2022
3399 Clouds 11 1035 76 10000 1.54 320 00:43 04.03.2022
3400 Clouds 11 1035 81 8000 4.63 220 23:28 03.03.2022
3401 Clouds 17 1034 44 10000 3.09 20 21:58 03.03.2022
3402 Clouds 17 1034 44 10000 3.09 20 21:35 03.03.2022
3403 Clouds 15 1035 50 10000 3.6 360 20:27 03.03.2022
3404 Clouds 16 1038 54 10000 2.06 220 18:58 03.03.2022
3405 Clouds 16 1038 54 10000 2.06 220 18:25 03.03.2022
3406 Clouds 15 1039 50 10000 2.57 250 17:31 03.03.2022
3407 Clouds 15 1039 54 10000 2.06 140 16:38 03.03.2022
3408 Clouds 11 1040 71 10000 2.06 100 15:43 03.03.2022
3409 Clouds 11 1040 76 6000 4.12 130 14:44 03.03.2022
3410 Clouds 11 1040 76 6000 4.12 130 14:25 03.03.2022
3411 Fog 7 1038 100 4000 2.57 70 12:32 03.03.2022
3412 Fog 7 1037 100 4000 2.57 90 10:58 03.03.2022
3413 Fog 7 1037 100 4000 1.54 120 09:58 03.03.2022
3414 Fog 8 1037 93 4000 2.57 110 08:42 03.03.2022
3415 Fog 8 1038 100 3000 2.57 80 06:54 03.03.2022
3416 Fog 9 1038 93 4000 4.12 90 05:20 03.03.2022
3417 Clouds 15 1034 54 10000 3.6 350 23:48 02.03.2022
3418 Clouds 16 1034 47 10000 4.12 60 22:54 02.03.2022
3419 Clouds 16 1034 47 10000 4.12 60 22:33 02.03.2022
3420 Clouds 19 1036 39 10000 4.63 120 20:59 02.03.2022
3421 Clouds 19 1036 39 10000 4.63 120 20:25 02.03.2022
3422 Clouds 18 1037 41 10000 4.63 80 19:37 02.03.2022
3423 Clouds 18 1037 41 10000 4.63 80 19:18 02.03.2022
3424 Clouds 17 1038 41 10000 5.66 70 18:31 02.03.2022
3425 Clouds 16 1039 54 10000 4.12 100 17:41 02.03.2022
3426 Clouds 15 1039 58 10000 4.12 120 16:52 02.03.2022
3427 Clouds 13 1039 58 10000 1.03 0 15:46 02.03.2022
3428 Clouds 11 1039 71 10000 1.03 0 14:29 02.03.2022
3429 Clouds 5 1038 100 6000 2.06 120 12:56 02.03.2022
3430 Clouds 5 1038 100 6000 2.06 120 12:34 02.03.2022
3431 Fog 7 1037 93 4000 1.03 0 11:27 02.03.2022
3432 Fog 7 1037 100 4000 1.03 0 10:39 02.03.2022
3433 Fog 6 1037 100 4000 1.03 0 09:36 02.03.2022
3434 Fog 6 1037 100 4000 1.03 0 08:34 02.03.2022
3435 Fog 7 1037 100 4000 0.51 0 07:23 02.03.2022
3436 Clouds 8 1038 100 10000 3.6 80 04:51 02.03.2022
3437 Clouds 13 1035 62 10000 4.63 110 00:40 02.03.2022
3438 Clouds 15 1035 50 10000 5.14 130 23:27 01.03.2022
3439 Clouds 16 1035 47 10000 5.14 60 22:38 01.03.2022
3440 Clouds 16 1036 47 10000 5.14 80 21:44 01.03.2022
3441 Clouds 16 1037 54 10000 5.66 80 20:40 01.03.2022
3442 Clouds 16 1037 54 10000 5.66 80 20:19 01.03.2022
3443 Clouds 10 1040 87 8000 5.14 30 18:53 01.03.2022
3444 Clouds 10 1040 87 8000 5.14 30 18:22 01.03.2022
3445 Clouds 15 1040 54 10000 4.63 100 17:42 01.03.2022
3446 Clouds 13 1040 58 10000 4.12 80 16:36 01.03.2022
3447 Clouds 14 1040 58 10000 3.09 80 15:47 01.03.2022
3448 Clouds 14 1040 58 10000 3.09 80 15:47 01.03.2022
3449 Clouds 12 1040 66 10000 2.06 80 14:53 01.03.2022
3450 Clouds 12 1040 66 10000 2.06 80 14:31 01.03.2022
3451 Clouds 9 1039 87 6000 3.09 110 13:26 01.03.2022
3452 Fog 8 1038 93 4000 2.57 140 12:36 01.03.2022
3453 Clouds 7 1037 93 10000 2.57 140 11:35 01.03.2022
3454 Fog 8 1037 93 4000 2.57 70 09:52 01.03.2022
3455 Fog 10 1036 87 4000 4.12 30 08:25 01.03.2022
3456 Fog 10 1038 93 4000 1.54 100 06:47 01.03.2022
3457 Clouds 10 1037 93 10000 4.63 90 03:26 01.03.2022
3458 Clouds 14 1034 54 10000 5.66 60 00:48 01.03.2022
3459 Clouds 17 1034 41 10000 6.17 80 23:39 28.02.2022
3460 Clouds 18 1034 39 10000 6.17 50 22:38 28.02.2022
3461 Clouds 18 1035 41 10000 6.69 50 21:47 28.02.2022
3462 Clouds 14 1036 58 10000 6.69 20 20:46 28.02.2022
3463 Clouds 17 1036 47 10000 4.63 100 19:51 28.02.2022
3464 Clouds 17 1038 55 10000 5.66 120 18:50 28.02.2022
3465 Clouds 17 1038 55 10000 4.63 120 17:43 28.02.2022
3466 Clouds 17 1038 55 10000 4.63 120 17:21 28.02.2022
3467 Clouds 15 1039 67 10000 4.63 120 16:21 28.02.2022
3468 Clouds 12 1038 81 10000 2.57 90 14:32 28.02.2022
3469 Fog 10 1038 93 4000 3.6 100 13:53 28.02.2022
3470 Fog 10 1038 93 4000 3.6 100 13:19 28.02.2022
3471 Fog 8 1036 100 4000 3.6 80 11:59 28.02.2022
3472 Fog 8 1036 100 4000 3.6 80 11:19 28.02.2022
3473 Fog 6 1036 100 3000 2.57 80 10:22 28.02.2022
3474 Clouds 5 1035 100 10000 1.54 60 09:44 28.02.2022
3475 Clouds 5 1036 100 10000 1.03 0 08:53 28.02.2022
3476 Clouds 7 1037 100 10000 1.03 0 07:58 28.02.2022
3477 Clouds 7 1038 100 10000 1.54 50 05:54 28.02.2022
3478 Clouds 8 1038 93 10000 1.03 0 04:30 28.02.2022
3479 Clouds 13 1036 71 10000 3.6 140 00:52 28.02.2022
3480 Clouds 13 1035 66 8000 4.63 40 22:44 27.02.2022
3481 Clouds 13 1035 66 8000 4.63 40 22:26 27.02.2022
3482 Clouds 18 1035 33 8000 2.57 50 21:37 27.02.2022
3483 Clouds 17 1036 44 10000 3.09 120 20:43 27.02.2022
3484 Clouds 17 1036 44 10000 3.09 120 20:18 27.02.2022
3485 Clouds 18 1037 48 10000 4.12 90 19:43 27.02.2022
3486 Clouds 18 1037 48 10000 4.12 90 19:21 27.02.2022
3487 Clouds 18 1039 41 10000 3.6 120 18:24 27.02.2022
3488 Clouds 16 1040 54 10000 1.03 0 17:45 27.02.2022
3489 Clouds 15 1041 62 10000 1.54 140 16:23 27.02.2022
3490 Clouds 11 1041 76 6000 1.03 0 14:29 27.02.2022
3491 Fog 7 1039 100 4000 2.57 90 12:36 27.02.2022
3492 Fog 7 1039 100 3000 3.09 90 11:46 27.02.2022
3493 Fog 6 1039 100 4000 2.57 70 10:36 27.02.2022
3494 Fog 7 1038 93 4000 2.06 60 09:58 27.02.2022
3495 Fog 7 1038 93 4000 2.06 60 09:23 27.02.2022
3496 Fog 7 1039 100 4000 2.57 60 08:44 27.02.2022
3497 Fog 7 1040 93 10000 2.06 90 05:45 27.02.2022
3498 Clouds 8 1039 81 10000 2.57 70 03:26 27.02.2022
3499 Clouds 16 1037 54 10000 3.6 90 23:51 26.02.2022
3500 Clouds 14 1037 62 10000 4.12 80 22:42 26.02.2022
3501 Clouds 15 1038 58 10000 3.6 110 21:27 26.02.2022
3502 Clouds 16 1039 54 10000 4.12 50 20:41 26.02.2022
3503 Clouds 16 1040 54 10000 5.66 60 19:55 26.02.2022
3504 Clouds 16 1040 54 10000 5.66 60 19:33 26.02.2022
3505 Clouds 15 1041 58 10000 5.14 80 18:33 26.02.2022
3506 Clouds 12 1042 71 10000 5.14 80 17:34 26.02.2022
3507 Rain 10 1043 81 10000 3.09 40 16:38 26.02.2022
3508 Clouds 9 1043 87 5000 3.09 350 15:28 26.02.2022
3509 Clouds 8 1042 93 5000 2.06 360 14:59 26.02.2022
3510 Clouds 8 1042 93 5000 2.06 360 14:41 26.02.2022
3511 Clouds 9 1041 93 6000 2.06 80 13:46 26.02.2022
3512 Fog 8 1039 100 4000 2.06 110 12:53 26.02.2022
3513 Fog 8 1039 100 4000 2.57 110 11:45 26.02.2022
3514 Fog 8 1039 100 4000 2.57 110 11:24 26.02.2022
3515 Fog 8 1038 93 4000 3.09 100 09:28 26.02.2022
3516 Fog 8 1038 93 4000 4.12 100 08:21 26.02.2022
3517 Clouds 10 1040 71 10000 4.63 50 04:22 26.02.2022
3518 Clouds 16 1037 51 10000 4.63 60 23:50 25.02.2022
3519 Clouds 16 1036 54 10000 4.12 80 22:31 25.02.2022
3520 Clouds 16 1037 54 10000 4.12 70 21:30 25.02.2022
3521 Clouds 16 1038 54 10000 5.14 70 20:34 25.02.2022
3522 Clouds 17 1039 51 10000 3.6 60 19:56 25.02.2022
3523 Clouds 14 1040 66 10000 5.14 100 17:54 25.02.2022
3524 Rain 14 1040 66 10000 5.14 80 16:47 25.02.2022
3525 Clouds 13 1040 76 10000 3.6 80 15:49 25.02.2022
3526 Clouds 13 1040 76 10000 3.6 80 15:23 25.02.2022
3527 Clouds 13 1040 76 10000 3.6 80 15:23 25.02.2022
3528 Clouds 11 1040 81 10000 5.14 90 14:50 25.02.2022
3529 Clouds 11 1040 81 10000 5.14 90 14:18 25.02.2022
3530 Fog 9 1039 93 4000 4.63 80 13:23 25.02.2022
3531 Fog 7 1037 100 4000 1.54 60 11:52 25.02.2022
3532 Fog 7 1037 100 4000 1.54 60 11:18 25.02.2022
3533 Fog 8 1037 100 4000 1.03 0 10:23 25.02.2022
3534 Fog 8 1037 100 4000 2.57 90 09:42 25.02.2022
3535 Fog 8 1037 100 4000 2.57 90 09:42 25.02.2022
3536 Fog 8 1037 93 4000 4.12 80 07:48 25.02.2022
3537 Fog 8 1037 100 4000 2.57 110 06:51 25.02.2022
3538 Fog 7 1038 100 4000 2.57 80 05:38 25.02.2022
3539 Clouds 13 1035 58 10000 5.14 50 00:46 25.02.2022
3540 Clouds 17 1033 51 10000 6.17 100 22:30 24.02.2022
3541 Clouds 17 1034 51 10000 4.63 90 21:43 24.02.2022
3542 Clouds 17 1034 51 10000 4.63 90 21:43 24.02.2022
3543 Clouds 17 1034 51 10000 4.63 90 21:21 24.02.2022
3544 Clouds 15 1035 62 10000 4.63 60 20:44 24.02.2022
3545 Clouds 15 1036 67 10000 4.63 40 19:31 24.02.2022
3546 Clouds 15 1036 71 10000 4.63 120 18:20 24.02.2022
3547 Clouds 15 1037 71 10000 4.63 110 17:52 24.02.2022
3548 Clouds 15 1037 71 10000 4.63 110 17:18 24.02.2022
3549 Clouds 15 1037 62 10000 4.12 100 16:25 24.02.2022
3550 Clouds 13 1037 71 10000 1.03 0 15:41 24.02.2022
3551 Clouds 13 1037 66 10000 1.03 0 14:44 24.02.2022
3552 Clouds 9 1037 87 10000 1.03 0 13:51 24.02.2022
3553 Clouds 9 1037 87 10000 1.03 0 13:30 24.02.2022
3554 Fog 8 1036 100 4000 2.57 170 10:50 24.02.2022
3555 Fog 8 1036 100 4000 2.57 170 10:31 24.02.2022
3556 Fog 9 1036 100 3000 2.06 110 08:43 24.02.2022
3557 Fog 10 1037 87 4000 1.03 0 06:28 24.02.2022
3558 Fog 10 1037 87 4000 2.06 210 05:37 24.02.2022
3559 Clouds 12 1035 71 10000 2.57 70 00:30 24.02.2022
3560 Clouds 12 1034 76 8000 5.66 40 21:56 23.02.2022
3561 Clouds 14 1035 62 10000 4.63 320 20:43 23.02.2022
3562 Clouds 14 1035 62 10000 4.63 320 20:20 23.02.2022
3563 Clouds 15 1036 58 10000 5.66 80 19:23 23.02.2022
3564 Clouds 14 1038 71 10000 3.6 140 17:56 23.02.2022
3565 Clouds 13 1039 71 10000 2.06 110 16:18 23.02.2022
3566 Fog 7 1038 100 3000 2.06 130 13:36 23.02.2022
3567 Fog 6 1037 100 3000 1.03 0 12:29 23.02.2022
3568 Fog 6 1036 100 3000 2.57 100 10:55 23.02.2022
3569 Fog 6 1036 100 3000 4.12 100 09:38 23.02.2022
3570 Fog 6 1036 100 2000 3.6 100 08:36 23.02.2022
3571 Fog 7 1036 100 3000 4.12 90 07:25 23.02.2022
3572 Clouds 8 1037 93 10000 2.06 60 02:23 23.02.2022
3573 Clouds 9 1036 93 10000 3.09 20 23:50 22.02.2022
3574 Clouds 9 1036 93 10000 3.09 20 23:31 22.02.2022
3575 Clouds 8 1012 100 7000 3.09 320 22:28 22.02.2022
3576 Clouds 7 1036 93 4000 3.09 320 21:40 22.02.2022
3577 Clouds 7 1036 93 4000 3.09 320 21:19 22.02.2022
3578 Clouds 15 1035 62 8000 5.66 120 20:31 22.02.2022
3579 Clouds 15 1035 62 8000 5.66 120 19:54 22.02.2022
3580 Clouds 16 1036 58 10000 5.14 100 19:33 22.02.2022
3581 Clouds 15 1037 62 10000 4.12 110 18:35 22.02.2022
3582 Clouds 14 1038 62 10000 4.63 120 17:27 22.02.2022
3583 Clouds 11 1038 76 10000 5.14 130 16:55 22.02.2022
3584 Clouds 11 1038 76 10000 5.14 130 16:19 22.02.2022
3585 Clouds 12 1038 76 10000 3.09 90 15:18 22.02.2022
3586 Clouds 9 1037 87 6000 1.03 0 13:37 22.02.2022
3587 Fog 7 1036 100 4000 1.03 0 10:54 22.02.2022
3588 Fog 6 1036 93 4000 0 0 09:22 22.02.2022
3589 Fog 8 1037 93 4000 1.03 0 07:28 22.02.2022
3590 Fog 7 1037 100 4000 1.03 0 06:53 22.02.2022
3591 Clouds 9 1037 81 10000 4.12 170 02:48 22.02.2022
3592 Clouds 10 1035 76 10000 7.2 50 23:18 21.02.2022
3593 Clouds 14 1034 62 10000 5.14 360 21:56 21.02.2022
3594 Clouds 11 1035 71 10000 1.03 0 20:38 21.02.2022
3595 Clouds 11 1035 71 10000 1.03 0 20:38 21.02.2022
3596 Clouds 15 1037 58 10000 3.09 100 18:47 21.02.2022
3597 Clouds 15 1037 58 10000 3.09 110 17:41 21.02.2022
3598 Clouds 15 1037 58 10000 3.09 110 17:41 21.02.2022
3599 Clouds 11 1038 71 10000 1.03 0 15:36 21.02.2022
3600 Clouds 11 1037 76 10000 3.09 280 14:22 21.02.2022
3601 Clouds 9 1036 81 10000 4.12 300 13:30 21.02.2022
3602 Clouds 8 1036 93 10000 2.57 300 12:24 21.02.2022
3603 Clouds 7 1035 100 10000 1.54 270 11:31 21.02.2022
3604 Clouds 8 1035 100 10000 1.03 0 10:23 21.02.2022
3605 Clouds 10 1036 81 10000 1.03 0 05:35 21.02.2022
3606 Clouds 12 1033 62 10000 4.12 70 00:20 21.02.2022
3607 Clouds 12 1033 71 10000 3.6 320 22:30 20.02.2022
3608 Clouds 11 1034 71 8000 6.69 250 21:43 20.02.2022
3609 Clouds 11 1034 71 8000 6.69 250 21:19 20.02.2022
3610 Clouds 15 1033 44 8000 5.66 310 20:42 20.02.2022
3611 Clouds 19 1034 48 10000 3.6 150 19:42 20.02.2022
3612 Clouds 18 1035 44 10000 4.63 110 18:54 20.02.2022
3613 Clouds 18 1035 44 10000 4.63 110 18:34 20.02.2022
3614 Clouds 16 1036 51 10000 4.63 130 17:53 20.02.2022
3615 Clouds 16 1036 62 10000 2.57 100 16:18 20.02.2022
3616 Clouds 12 1036 62 10000 1.03 0 14:52 20.02.2022
3617 Clouds 10 1035 76 10000 1.03 0 13:53 20.02.2022
3618 Clouds 6 1035 93 10000 1.54 20 12:34 20.02.2022
3619 Clouds 6 1034 93 10000 1.03 0 10:47 20.02.2022
3620 Clouds 6 1034 93 10000 1.03 0 10:20 20.02.2022
3621 Clouds 9 1034 76 10000 2.06 10 08:56 20.02.2022
3622 Clouds 12 1033 62 10000 3.6 210 00:55 20.02.2022
3623 Clouds 12 1033 62 10000 3.6 210 00:30 20.02.2022
3624 Clouds 16 1031 44 10000 5.14 120 23:18 19.02.2022
3625 Clouds 17 1031 38 10000 4.12 150 22:23 19.02.2022
3626 Clouds 18 1031 21 10000 4.63 140 21:34 19.02.2022
3627 Clouds 19 1034 29 10000 5.66 130 19:54 19.02.2022
3628 Clouds 19 1034 29 10000 5.66 130 19:33 19.02.2022
3629 Clouds 16 1035 51 10000 5.14 110 18:35 19.02.2022
3630 Clouds 16 1036 51 10000 4.12 160 17:37 19.02.2022
3631 Clouds 14 1036 54 10000 3.09 110 16:28 19.02.2022
3632 Clouds 13 1037 66 10000 1.03 0 15:18 19.02.2022
3633 Clouds 11 1037 76 10000 1.03 0 14:49 19.02.2022
3634 Clouds 8 1036 75 10000 1.03 0 13:45 19.02.2022
3635 Clouds 4 1035 100 10000 2.06 10 11:38 19.02.2022
3636 Clouds 4 1035 100 10000 1.54 50 09:55 19.02.2022
3637 Clouds 6 1036 93 10000 1.54 20 06:54 19.02.2022
3638 Clouds 7 1037 100 10000 1.03 0 03:38 19.02.2022
3639 Clouds 11 1034 71 10000 1.03 0 23:29 18.02.2022
3640 Clouds 10 1034 87 8000 4.12 110 21:49 18.02.2022
3641 Clouds 12 1034 71 6000 6.69 130 20:51 18.02.2022
3642 Clouds 13 1036 66 10000 2.57 280 19:53 18.02.2022
3643 Clouds 13 1037 66 10000 3.6 280 18:50 18.02.2022
3644 Clouds 13 1037 66 10000 3.6 280 18:22 18.02.2022
3645 Clouds 11 1038 76 10000 4.63 280 17:50 18.02.2022
3646 Mist 7 1039 93 4000 2.57 140 14:50 18.02.2022
3647 Mist 7 1039 93 4000 2.57 140 14:50 18.02.2022
3648 Fog 7 1038 100 5000 2.06 90 13:55 18.02.2022
3649 Rain 7 1037 100 2000 1.54 90 12:53 18.02.2022
3650 Rain 7 1036 100 3000 2.57 50 11:58 18.02.2022
3651 Rain 7 1036 100 3000 2.57 50 11:58 18.02.2022
3652 Rain 7 1036 100 3000 2.57 50 11:21 18.02.2022
3653 Rain 6 1036 100 4000 3.6 30 09:33 18.02.2022
3654 Fog 10 1037 93 4000 2.06 60 06:54 18.02.2022
3655 Clouds 10 1038 87 10000 2.57 70 05:39 18.02.2022
3656 Clouds 19 1034 36 10000 4.12 50 22:57 17.02.2022
3657 Clouds 18 1035 39 10000 5.14 60 21:44 17.02.2022
3658 Clouds 18 1037 44 10000 3.6 80 20:59 17.02.2022
3659 Clouds 18 1037 44 10000 3.6 80 20:34 17.02.2022
3660 Clouds 16 1038 51 10000 4.63 60 19:48 17.02.2022
3661 Clouds 16 1039 51 10000 3.6 90 18:38 17.02.2022
3662 Clouds 16 1040 54 10000 3.6 100 17:48 17.02.2022
3663 Clouds 13 1040 66 10000 4.63 150 16:20 17.02.2022
3664 Clouds 12 1040 76 10000 3.09 120 15:26 17.02.2022
3665 Clouds 11 1040 81 6000 4.12 100 14:20 17.02.2022
3666 Fog 6 1039 100 4000 2.57 100 12:24 17.02.2022
3667 Fog 6 1038 100 4000 1.54 100 11:21 17.02.2022
3668 Fog 7 1038 100 4000 3.09 70 08:43 17.02.2022
3669 Rain 13 1037 54 10000 6.17 40 00:29 17.02.2022
3670 Clouds 16 1036 44 10000 6.69 50 22:41 16.02.2022
3671 Clouds 16 1038 47 10000 4.63 80 20:46 16.02.2022
3672 Clouds 16 1039 54 10000 5.66 120 19:42 16.02.2022
3673 Clouds 15 1040 58 10000 6.17 100 18:36 16.02.2022
3674 Clouds 16 1040 51 10000 5.14 100 17:34 16.02.2022
3675 Clouds 12 1040 76 6000 3.6 110 15:26 16.02.2022
3676 Clouds 11 1040 81 6000 3.09 80 14:46 16.02.2022
3677 Fog 8 1038 93 4000 4.12 110 12:32 16.02.2022
3678 Fog 8 1038 93 4000 3.6 80 11:51 16.02.2022
3679 Fog 8 1037 100 4000 3.6 100 10:52 16.02.2022
3680 Fog 8 1037 100 4000 3.6 100 10:29 16.02.2022
3681 Fog 8 1038 100 4000 2.06 110 06:56 16.02.2022
3682 Clouds 9 1038 93 10000 4.12 80 03:41 16.02.2022
3683 Clouds 15 1035 62 10000 3.6 100 22:35 15.02.2022
3684 Clouds 12 1036 76 10000 3.6 50 21:52 15.02.2022
3685 Clouds 12 1036 76 10000 3.6 50 21:31 15.02.2022
3686 Clouds 17 1036 51 10000 5.14 120 20:58 15.02.2022
3687 Clouds 17 1036 51 10000 5.14 120 20:38 15.02.2022
3688 Clouds 16 1037 58 10000 4.63 130 19:48 15.02.2022
3689 Clouds 14 1038 62 10000 3.6 120 18:28 15.02.2022
3690 Clouds 14 1039 62 10000 3.6 110 17:57 15.02.2022
3691 Clouds 14 1039 62 10000 3.6 110 17:38 15.02.2022
3692 Clouds 13 1039 66 10000 3.6 100 15:44 15.02.2022
3693 Clouds 11 1039 71 10000 1.03 0 14:35 15.02.2022
3694 Clouds 8 1038 81 6000 2.57 360 13:26 15.02.2022
3695 Fog 8 1036 93 4000 4.63 80 11:43 15.02.2022
3696 Fog 8 1036 93 4000 4.12 80 10:32 15.02.2022
3697 Fog 10 1036 93 4000 3.09 110 08:56 15.02.2022
3698 Rain 9 1037 100 4000 1.54 100 06:47 15.02.2022
3699 Clouds 14 1033 62 10000 4.12 130 00:26 15.02.2022
3700 Clouds 17 1034 51 10000 5.14 90 21:58 14.02.2022
3701 Clouds 18 1034 44 10000 5.14 100 20:54 14.02.2022
3702 Clouds 18 1035 48 10000 4.12 130 19:49 14.02.2022
3703 Clouds 18 1035 48 10000 4.12 130 19:29 14.02.2022
3704 Clouds 17 1037 51 10000 4.12 120 18:24 14.02.2022
3705 Clouds 15 1038 54 10000 2.57 150 17:30 14.02.2022
3706 Clouds 14 1038 58 10000 1.03 0 16:37 14.02.2022
3707 Clouds 12 1038 66 10000 1.03 0 15:22 14.02.2022
3708 Clouds 8 1037 93 6000 2.57 50 13:35 14.02.2022
3709 Fog 4 1036 100 4000 2.06 70 12:58 14.02.2022
3710 Fog 4 1036 100 4000 2.06 70 12:32 14.02.2022
3711 Fog 7 1035 93 4000 2.06 130 11:38 14.02.2022
3712 Fog 7 1035 93 4000 1.03 0 10:18 14.02.2022
3713 Fog 7 1036 100 4000 2.57 70 07:49 14.02.2022
3714 Fog 7 1036 100 4000 2.57 70 07:24 14.02.2022
3715 Rain 13 1033 71 10000 3.6 120 22:48 13.02.2022
3716 Rain 13 1033 71 10000 3.6 120 22:30 13.02.2022
3717 Rain 12 1034 76 10000 4.12 140 21:57 13.02.2022
3718 Clouds 12 1034 76 10000 4.12 140 21:20 13.02.2022
3719 Thunderstorm 13 1035 71 10000 4.63 230 20:27 13.02.2022
3720 Clouds 14 1037 66 10000 4.63 110 18:58 13.02.2022
3721 Clouds 14 1037 66 10000 4.63 110 18:40 13.02.2022
3722 Clouds 12 1038 76 10000 3.09 150 16:53 13.02.2022
3723 Clouds 11 1038 76 10000 2.57 140 15:51 13.02.2022
3724 Clouds 11 1037 76 6000 2.06 140 14:50 13.02.2022
3725 Clouds 8 1037 87 6000 2.06 50 13:26 13.02.2022
3726 Clouds 7 1036 100 10000 1.03 0 12:40 13.02.2022
3727 Fog 6 1035 100 4000 1.03 0 10:40 13.02.2022
3728 Fog 6 1035 100 4000 1.54 130 09:50 13.02.2022
3729 Fog 6 1035 100 4000 1.54 70 08:55 13.02.2022
3730 Clouds 9 1035 93 10000 4.63 100 01:26 13.02.2022
3731 Clouds 10 1034 81 10000 4.63 100 00:21 13.02.2022
3732 Clouds 14 1034 62 10000 3.09 100 22:34 12.02.2022
3733 Clouds 13 1034 71 10000 4.12 120 22:00 12.02.2022
3734 Clouds 12 1036 76 10000 4.12 120 20:55 12.02.2022
3735 Clouds 11 1037 81 10000 3.6 80 19:56 12.02.2022
3736 Clouds 10 1038 81 10000 3.6 120 18:54 12.02.2022
3737 Clouds 10 1038 81 10000 3.6 120 18:36 12.02.2022
3738 Rain 9 1039 87 8000 4.63 120 17:39 12.02.2022
3739 Rain 10 1038 81 10000 4.63 110 16:45 12.02.2022
3740 Rain 9 1038 81 10000 2.57 60 15:53 12.02.2022
3741 Rain 9 1038 81 10000 2.57 60 15:20 12.02.2022
3742 Rain 8 1037 93 10000 3.6 70 14:25 12.02.2022
3743 Mist 7 1034 100 2500 2.57 100 11:31 12.02.2022
3744 Fog 7 1034 100 4000 2.57 110 10:30 12.02.2022
3745 Fog 7 1034 100 4000 2.57 80 09:37 12.02.2022
3746 Fog 7 1035 100 4000 3.6 90 08:46 12.02.2022
3747 Fog 4 1035 100 4000 2.57 70 06:52 12.02.2022
3748 Clouds 6 1035 100 10000 4.63 70 04:44 12.02.2022
3749 Clouds 6 1033 93 10000 2.57 100 02:19 12.02.2022
3750 Clouds 10 1033 71 10000 3.09 100 23:20 11.02.2022
3751 Clouds 8 1033 87 10000 5.14 60 22:21 11.02.2022
3752 Clouds 8 1034 81 8000 4.63 150 21:18 11.02.2022
3753 Clouds 8 1035 81 6000 3.6 60 20:26 11.02.2022
3754 Clouds 7 1035 81 6000 5.14 130 19:28 11.02.2022
3755 Clouds 13 1034 76 6000 5.66 40 18:29 11.02.2022
3756 Clouds 15 1034 54 10000 2.06 220 17:26 11.02.2022
3757 Clouds 14 1035 58 10000 3.6 240 16:37 11.02.2022
3758 Clouds 13 1035 71 10000 3.09 270 15:18 11.02.2022
3759 Clouds 12 1035 76 10000 1.03 0 14:37 11.02.2022
3760 Clouds 12 1035 76 10000 1.03 0 14:19 11.02.2022
3761 Fog 9 1035 100 4000 2.57 100 13:40 11.02.2022
3762 Fog 4 1033 100 4000 2.06 80 12:37 11.02.2022
3763 Fog 6 1032 100 2500 2.57 80 10:31 11.02.2022
3764 Fog 5 1032 100 3000 2.57 100 09:31 11.02.2022
3765 Fog 6 1033 100 2500 2.57 80 08:31 11.02.2022
3766 Clouds 7 1014 89 10000 0.6 178 07:40 11.02.2022
3767 Fog 9 1033 100 4000 4.12 80 02:40 11.02.2022
3768 Fog 9 1033 100 4000 4.12 80 02:20 11.02.2022
3769 Clouds 12 1031 81 10000 3.6 80 23:40 10.02.2022
3770 Clouds 12 1032 76 10000 4.63 90 21:55 10.02.2022
3771 Clouds 12 1032 76 10000 4.63 90 21:26 10.02.2022
3772 Clouds 13 1032 82 10000 4.63 70 20:48 10.02.2022
3773 Clouds 12 1033 76 8000 5.14 60 19:37 10.02.2022
3774 Clouds 15 1033 71 10000 6.17 90 19:18 10.02.2022
3775 Clouds 14 1035 71 6000 2.57 120 17:39 10.02.2022
3776 Clouds 14 1035 71 6000 2.57 120 17:19 10.02.2022
3777 Fog 12 1035 81 4000 2.06 120 16:20 10.02.2022
3778 Fog 11 1036 87 3000 2.57 130 15:33 10.02.2022
3779 Fog 10 1035 87 3000 3.09 280 14:49 10.02.2022
3780 Fog 10 1035 87 3000 3.09 280 14:29 10.02.2022
3781 Fog 8 1035 93 4000 1.03 0 13:33 10.02.2022
3782 Fog 7 1034 100 500 2.57 60 12:51 10.02.2022
3783 Fog 7 1033 100 3000 1.03 0 11:38 10.02.2022
3784 Fog 7 1033 100 3000 1.03 0 11:20 10.02.2022
3785 Fog 7 1033 100 3000 2.57 120 10:18 10.02.2022
3786 Fog 7 1033 100 1200 2.06 80 09:25 10.02.2022
3787 Fog 7 1033 100 500 4.63 90 07:37 10.02.2022
3788 Clouds 8 1034 93 10000 4.63 50 05:51 10.02.2022
3789 Clouds 8 1033 100 10000 2.57 70 01:52 10.02.2022
3790 Clouds 11 1032 81 10000 4.63 110 00:50 10.02.2022
3791 Clouds 11 1032 81 10000 4.63 110 00:29 10.02.2022
3792 Clouds 14 1032 66 10000 3.6 60 23:24 09.02.2022
3793 Clouds 11 1032 81 10000 2.06 30 22:36 09.02.2022
3794 Thunderstorm 11 1032 71 10000 3.09 280 21:52 09.02.2022
3795 Thunderstorm 11 1032 71 10000 3.09 280 21:30 09.02.2022
3796 Clouds 16 1033 54 10000 4.12 100 20:48 09.02.2022
3797 Clouds 16 1033 54 10000 4.12 100 20:29 09.02.2022
3798 Clouds 17 1034 51 10000 2.06 180 19:54 09.02.2022
3799 Clouds 17 1034 51 10000 2.06 180 19:31 09.02.2022
3800 Clouds 15 1036 50 10000 2.06 90 17:37 09.02.2022
3801 Clouds 13 1037 66 10000 2.06 150 16:48 09.02.2022
3802 Clouds 13 1037 66 10000 3.6 90 15:51 09.02.2022
3803 Clouds 13 1036 62 10000 2.06 110 14:35 09.02.2022
3804 Fog 7 1036 100 4000 2.06 90 12:28 09.02.2022
3805 Fog 6 1035 100 4000 2.57 70 10:54 09.02.2022
3806 Fog 6 1035 100 4000 2.57 70 10:26 09.02.2022
3807 Fog 7 1035 100 4000 4.12 80 09:40 09.02.2022
3808 Fog 7 1035 100 4000 4.12 80 09:19 09.02.2022
3809 Fog 8 1035 100 2000 3.09 90 07:53 09.02.2022
3810 Fog 8 1037 100 4000 2.06 90 05:30 09.02.2022
3811 Fog 8 1037 100 4000 2.06 90 05:30 09.02.2022
3812 Clouds 10 1037 76 10000 3.09 230 03:50 09.02.2022
3813 Clouds 10 1037 76 10000 3.09 230 03:50 09.02.2022
3814 Clouds 13 1034 62 10000 2.06 150 00:39 09.02.2022
3815 Clouds 14 1033 62 10000 5.14 130 23:31 08.02.2022
3816 Clouds 16 1033 41 10000 3.09 70 22:46 08.02.2022
3817 Clouds 16 1033 41 10000 3.09 70 22:21 08.02.2022
3818 Clouds 16 1033 41 10000 3.09 70 22:21 08.02.2022
3819 Clouds 16 1033 41 10000 3.09 70 22:21 08.02.2022
3820 Clouds 17 1034 41 10000 4.12 100 21:38 08.02.2022
3821 Clouds 17 1034 41 10000 4.12 100 21:20 08.02.2022
3822 Clouds 17 1035 47 10000 4.12 150 20:42 08.02.2022
3823 Clouds 17 1036 55 10000 4.12 100 19:46 08.02.2022
3824 Clouds 16 1037 58 10000 3.09 100 18:35 08.02.2022
3825 Clouds 15 1038 58 10000 3.09 140 17:38 08.02.2022
3826 Clouds 13 1038 62 10000 2.57 150 16:22 08.02.2022
3827 Clouds 11 1039 76 6000 3.09 60 15:29 08.02.2022
3828 Rain 9 1038 87 6000 4.12 90 14:26 08.02.2022
3829 Fog 6 1036 100 4000 4.12 80 12:41 08.02.2022
3830 Fog 6 1036 100 4000 3.09 70 11:28 08.02.2022
3831 Fog 6 1035 100 4000 2.57 100 10:18 08.02.2022
3832 Fog 6 1035 100 3000 3.09 80 09:41 08.02.2022
3833 Fog 6 1036 100 1200 3.09 60 07:37 08.02.2022
3834 Clouds 9 1038 93 10000 1.03 0 04:40 08.02.2022
3835 Clouds 9 1038 93 10000 1.03 0 04:22 08.02.2022
3836 Clouds 10 1038 87 10000 1.03 0 03:36 08.02.2022
3837 Clouds 10 1038 87 10000 1.03 0 03:18 08.02.2022
3838 Clouds 9 1037 93 10000 2.57 70 02:59 08.02.2022
3839 Clouds 9 1037 93 10000 2.57 70 02:37 08.02.2022
3840 Clouds 9 1037 93 10000 2.57 70 02:18 08.02.2022
3841 Clouds 10 1036 81 10000 3.6 120 01:45 08.02.2022
3842 Clouds 10 1036 81 10000 3.6 120 01:25 08.02.2022
3843 Clouds 11 1035 81 10000 5.66 110 00:55 08.02.2022
3844 Clouds 11 1035 81 10000 5.66 110 00:36 08.02.2022
3845 Clouds 13 1035 66 10000 4.12 100 23:45 07.02.2022
3846 Clouds 13 1035 66 10000 4.12 100 23:18 07.02.2022
3847 Clouds 14 1035 58 10000 6.17 90 22:59 07.02.2022
3848 Clouds 14 1035 58 10000 6.17 90 22:19 07.02.2022
3849 Rain 16 1035 54 10000 4.12 120 21:51 07.02.2022
3850 Rain 16 1035 54 10000 4.12 120 21:28 07.02.2022
3851 Clouds 17 1036 58 10000 4.12 100 20:47 07.02.2022
3852 Clouds 17 1036 58 10000 4.12 100 20:29 07.02.2022
3853 Clouds 16 1037 51 10000 4.12 100 19:47 07.02.2022
3854 Clouds 15 1039 62 10000 3.09 130 18:40 07.02.2022
3855 Clouds 14 1039 71 10000 3.6 130 17:33 07.02.2022
3856 Clouds 12 1039 76 6000 4.12 130 16:52 07.02.2022
3857 Clouds 12 1039 71 6000 2.06 80 15:48 07.02.2022
3858 Clouds 11 1039 71 6000 3.09 80 14:19 07.02.2022
3859 Fog 8 1038 93 4000 2.06 110 13:27 07.02.2022
3860 Fog 7 1038 100 4000 2.06 70 12:35 07.02.2022
3861 Fog 7 1037 100 4000 1.54 50 11:40 07.02.2022
3862 Fog 7 1037 100 4000 1.54 50 11:22 07.02.2022
3863 Fog 7 1037 100 4000 1.54 90 10:41 07.02.2022
3864 Fog 7 1037 100 4000 1.54 90 10:22 07.02.2022
3865 Fog 7 1037 100 4000 1.54 100 09:51 07.02.2022
3866 Fog 7 1037 100 4000 1.54 100 09:18 07.02.2022
3867 Fog 6 1037 100 4000 2.06 70 07:44 07.02.2022
3868 Fog 7 1038 100 4000 2.06 100 06:34 07.02.2022
3869 Fog 8 1039 100 3000 1.54 80 04:31 07.02.2022
3870 Clouds 7 1037 100 5000 2.57 250 01:37 07.02.2022
3871 Clouds 8 1035 87 6000 3.09 340 23:51 06.02.2022
3872 Clouds 8 1035 87 6000 3.09 340 23:19 06.02.2022
3873 Clouds 10 1035 81 10000 3.09 310 22:39 06.02.2022
3874 Clouds 12 1035 71 10000 4.63 120 21:37 06.02.2022
3875 Clouds 12 1035 71 10000 4.63 120 21:18 06.02.2022
3876 Clouds 13 1035 71 10000 4.12 90 20:48 06.02.2022
3877 Clouds 13 1035 71 10000 4.12 90 20:21 06.02.2022
3878 Clouds 13 1037 66 10000 2.57 100 18:54 06.02.2022
3879 Rain 13 1037 66 10000 2.57 100 18:27 06.02.2022
3880 Rain 12 1037 71 10000 2.57 100 17:29 06.02.2022
3881 Rain 12 1038 76 6000 2.57 130 16:50 06.02.2022
3882 Rain 10 1038 87 6000 3.6 120 15:51 06.02.2022
3883 Rain 10 1038 87 6000 3.6 120 15:28 06.02.2022
3884 Fog 9 1037 93 4000 2.57 120 14:59 06.02.2022
3885 Fog 8 1036 100 4000 2.57 140 13:57 06.02.2022
3886 Fog 8 1036 100 4000 2.57 140 13:20 06.02.2022
3887 Fog 8 1035 100 4000 2.06 70 11:45 06.02.2022
3888 Fog 8 1035 100 4000 3.09 110 10:33 06.02.2022
3889 Fog 8 1035 100 4000 2.57 110 09:29 06.02.2022
3890 Fog 8 1035 100 4000 3.09 140 08:41 06.02.2022
3891 Fog 9 1036 93 4000 4.12 80 06:27 06.02.2022
3892 Clouds 8 1036 93 10000 3.09 90 04:51 06.02.2022
3893 Clouds 10 1035 81 10000 4.63 100 02:25 06.02.2022
3894 Clouds 13 1033 71 10000 3.6 90 00:30 06.02.2022
3895 Clouds 14 1033 62 10000 4.12 60 23:25 05.02.2022
3896 Rain 17 1033 38 10000 2.57 260 21:38 05.02.2022
3897 Clouds 17 1034 41 10000 2.06 240 20:25 05.02.2022
3898 Clouds 17 1035 36 10000 3.6 180 19:50 05.02.2022
3899 Clouds 17 1035 36 10000 3.6 180 19:27 05.02.2022
3900 Clouds 17 1036 38 10000 2.57 250 18:23 05.02.2022
3901 Clouds 16 1037 38 10000 2.06 180 17:31 05.02.2022
3902 Clouds 13 1037 40 10000 2.06 270 15:42 05.02.2022
3903 Clouds 13 1037 40 10000 2.06 270 15:24 05.02.2022
3904 Clouds 5 1036 70 10000 2.06 10 12:54 05.02.2022
3905 Clouds 5 1036 70 10000 2.06 10 12:34 05.02.2022
3906 Clouds 6 1035 56 10000 1.54 340 10:53 05.02.2022
3907 Clouds 6 1035 56 10000 1.54 340 10:25 05.02.2022
3908 Clouds 5 1035 65 10000 1.03 0 09:46 05.02.2022
3909 Clouds 6 1035 65 10000 1.03 0 08:20 05.02.2022
3910 Clouds 6 1036 93 10000 1.03 0 06:58 05.02.2022
3911 Clouds 10 1037 76 10000 2.06 110 04:55 05.02.2022
3912 Clouds 9 1036 87 10000 4.63 190 01:19 05.02.2022
3913 Clouds 9 1035 87 8000 5.66 230 00:53 05.02.2022
3914 Clouds 11 1034 76 10000 4.63 80 23:58 04.02.2022
3915 Clouds 12 1033 71 10000 5.66 80 23:30 04.02.2022
3916 Clouds 14 1035 58 10000 4.12 300 21:59 04.02.2022
3917 Rain 14 1035 58 10000 4.12 300 21:36 04.02.2022
3918 Clouds 14 1035 58 10000 4.12 300 21:18 04.02.2022
3919 Rain 15 1035 54 10000 5.14 280 20:20 04.02.2022
3920 Clouds 14 1038 66 10000 4.12 270 17:43 04.02.2022
3921 Clouds 10 1038 81 10000 3.6 260 15:42 04.02.2022
3922 Clouds 8 1038 93 10000 2.57 290 14:55 04.02.2022
3923 Clouds 7 1037 93 8000 2.57 300 13:33 04.02.2022
3924 Clouds 6 1036 93 8000 1.03 0 12:43 04.02.2022
3925 Clouds 5 1036 100 6000 1.54 360 11:42 04.02.2022
3926 Rain 5 1036 100 6000 3.09 330 10:36 04.02.2022
3927 Rain 6 1036 100 4000 1.03 0 08:36 04.02.2022
3928 Fog 9 1036 100 4000 2.06 140 06:47 04.02.2022
3929 Fog 10 1035 87 4000 3.6 110 02:44 04.02.2022
3930 Fog 10 1035 93 4000 3.09 90 01:48 04.02.2022
3931 Clouds 11 1034 87 10000 4.12 130 23:29 03.02.2022
3932 Clouds 12 1034 81 10000 3.09 130 22:33 03.02.2022
3933 Clouds 14 1034 62 10000 1.54 140 21:49 03.02.2022
3934 Clouds 13 1034 71 10000 3.09 10 20:38 03.02.2022
3935 Clouds 13 1034 71 10000 3.09 10 20:38 03.02.2022
3936 Clouds 13 1034 71 10000 3.09 10 20:18 03.02.2022
3937 Clouds 13 1035 66 8000 3.6 320 19:30 03.02.2022
3938 Clouds 12 1036 71 10000 4.12 330 18:34 03.02.2022
3939 Clouds 13 1036 66 10000 1.54 50 17:32 03.02.2022
3940 Clouds 13 1037 66 10000 1.03 0 16:24 03.02.2022
3941 Clouds 11 1037 81 6000 1.03 0 14:28 03.02.2022
3942 Clouds 7 1035 93 10000 1.03 0 12:40 03.02.2022
3943 Clouds 7 1034 100 10000 1.03 0 10:45 03.02.2022
3944 Fog 7 1035 100 4000 2.06 60 08:35 03.02.2022
3945 Fog 9 1035 100 4000 3.6 110 03:57 03.02.2022
3946 Clouds 12 1033 76 10000 3.09 110 00:30 03.02.2022
3947 Clouds 14 1033 66 10000 4.12 110 22:55 02.02.2022
3948 Clouds 14 1033 54 10000 2.57 30 21:53 02.02.2022
3949 Clouds 14 1033 54 10000 2.57 30 21:30 02.02.2022
3950 Clouds 13 1034 62 10000 4.12 350 20:33 02.02.2022
3951 Clouds 11 1035 76 10000 3.09 360 19:51 02.02.2022
3952 Clouds 11 1035 76 10000 3.09 360 19:20 02.02.2022
3953 Clouds 11 1036 71 8000 5.14 40 18:27 02.02.2022
3954 Clouds 12 1036 66 10000 2.06 120 17:37 02.02.2022
3955 Clouds 12 1036 66 10000 2.06 120 17:18 02.02.2022
3956 Clouds 14 1037 66 6000 1.03 0 16:20 02.02.2022
3957 Fog 7 1035 100 4000 1.03 0 12:50 02.02.2022
3958 Fog 7 1035 100 4000 1.03 0 11:51 02.02.2022
3959 Fog 7 1035 100 4000 1.03 0 11:31 02.02.2022
3960 Fog 7 1034 100 4000 2.06 210 09:22 02.02.2022
3961 Fog 8 1036 100 3000 2.57 110 05:29 02.02.2022
3962 Clouds 11 1032 81 10000 1.54 100 22:44 01.02.2022
3963 Rain 10 1033 87 10000 1.03 0 21:30 01.02.2022
3964 Clouds 9 1034 93 10000 2.57 170 19:56 01.02.2022
3965 Clouds 13 1035 71 10000 3.6 80 17:38 01.02.2022
3966 Clouds 12 1036 76 10000 2.57 100 16:31 01.02.2022
3967 Fog 8 1035 93 4000 1.54 150 13:27 01.02.2022
3968 Fog 7 1034 93 4000 1.03 0 12:28 01.02.2022
3969 Fog 7 1033 93 4000 1.03 0 10:42 01.02.2022
3970 Fog 10 1034 93 4000 4.12 100 02:24 01.02.2022
3971 Clouds 13 1031 71 10000 5.14 90 23:39 31.01.2022
3972 Clouds 14 1031 58 10000 3.6 80 22:42 31.01.2022
3973 Clouds 15 1031 62 10000 4.12 50 21:36 31.01.2022
3974 Clouds 11 1033 76 10000 3.6 30 20:35 31.01.2022
3975 Clouds 9 1034 93 6000 4.12 20 19:59 31.01.2022
3976 Clouds 8 1034 93 6000 4.63 20 18:47 31.01.2022
3977 Clouds 12 1035 71 6000 4.63 50 17:57 31.01.2022
3978 Clouds 14 1035 62 10000 3.6 210 17:24 31.01.2022
3979 Clouds 14 1035 66 10000 3.6 260 16:25 31.01.2022
3980 Clouds 11 1035 81 6000 2.57 250 14:53 31.01.2022
3981 Clouds 8 1035 93 6000 1.03 0 13:35 31.01.2022
3982 Clouds 7 1034 100 10000 1.03 0 12:38 31.01.2022
3983 Fog 7 1033 100 4000 2.57 260 11:26 31.01.2022
3984 Clouds 7 1033 100 10000 3.09 260 10:48 31.01.2022
3985 Clouds 8 1033 93 10000 3.09 310 09:37 31.01.2022
3986 Fog 8 1033 87 4000 2.57 320 08:56 31.01.2022
3987 Fog 8 1033 87 4000 2.57 320 08:20 31.01.2022
3988 Fog 8 1034 93 4000 6.17 270 07:40 31.01.2022
3989 Fog 10 1035 100 4000 2.57 110 05:25 31.01.2022
3990 Clouds 12 1032 71 10000 2.57 130 00:24 31.01.2022
3991 Clouds 13 1032 71 10000 3.09 40 22:33 30.01.2022
3992 Clouds 10 1032 93 6000 4.12 20 21:46 30.01.2022
3993 Clouds 10 1032 93 6000 4.12 20 21:26 30.01.2022
3994 Clouds 12 1033 87 4000 2.06 10 20:53 30.01.2022
3995 Clouds 12 1033 87 4000 2.06 10 20:31 30.01.2022
3996 Clouds 13 1034 71 10000 2.06 230 19:56 30.01.2022
3997 Clouds 11 1035 93 10000 2.06 140 18:52 30.01.2022
3998 Clouds 11 1035 93 10000 2.06 140 18:22 30.01.2022
3999 Clouds 13 1035 76 10000 3.09 120 17:31 30.01.2022
4000 Clouds 12 1036 76 6000 1.03 0 16:43 30.01.2022
4001 Clouds 12 1036 76 6000 1.03 0 16:23 30.01.2022
4002 Clouds 11 1036 81 6000 2.06 160 15:55 30.01.2022
4003 Clouds 11 1036 81 6000 2.06 160 15:33 30.01.2022
4004 Fog 10 1035 87 4000 1.54 80 14:47 30.01.2022
4005 Fog 7 1035 100 2000 2.06 70 13:47 30.01.2022
4006 Fog 7 1035 100 2000 2.57 70 12:46 30.01.2022
4007 Fog 7 1033 100 2000 3.09 80 10:47 30.01.2022
4008 Fog 7 1033 100 2000 3.09 80 10:25 30.01.2022
4009 Rain 7 1034 100 8000 2.06 110 09:22 30.01.2022
4010 Rain 7 1035 100 6000 2.57 20 07:58 30.01.2022
4011 Clouds 10 1034 93 8000 3.6 210 02:44 30.01.2022
4012 Clouds 10 1034 93 8000 3.09 210 01:54 30.01.2022
4013 Clouds 13 1031 76 10000 2.57 60 23:49 29.01.2022
4014 Clouds 12 1031 87 8000 3.09 280 22:50 29.01.2022
4015 Clouds 15 1031 58 10000 3.09 340 21:29 29.01.2022
4016 Clouds 17 1032 55 10000 3.09 100 20:53 29.01.2022
4017 Clouds 17 1033 55 10000 5.14 100 19:51 29.01.2022
4018 Clouds 17 1033 55 10000 5.14 100 19:30 29.01.2022
4019 Clouds 14 1034 62 10000 4.12 130 18:44 29.01.2022
4020 Clouds 14 1035 62 10000 1.03 0 17:54 29.01.2022
4021 Clouds 13 1035 62 10000 1.03 0 16:44 29.01.2022
4022 Clouds 13 1035 66 6000 1.03 0 15:25 29.01.2022
4023 Clouds 9 1035 93 6000 2.06 200 13:48 29.01.2022
4024 Clouds 9 1035 93 6000 2.06 200 13:26 29.01.2022
4025 Clouds 8 1035 93 6000 1.03 0 12:52 29.01.2022
4026 Fog 7 1034 100 4000 1.03 0 11:39 29.01.2022
4027 Fog 7 1034 100 4000 1.03 0 10:31 29.01.2022
4028 Clouds 8 1035 100 6000 2.06 190 07:57 29.01.2022
4029 Clouds 11 1034 87 10000 2.06 260 01:37 29.01.2022
4030 Clouds 11 1033 87 10000 3.09 280 00:31 29.01.2022
4031 Clouds 12 1032 81 10000 3.6 100 23:22 28.01.2022
4032 Clouds 12 1032 81 10000 5.14 110 22:42 28.01.2022
4033 Clouds 12 1032 81 10000 5.14 110 22:18 28.01.2022
4034 Clouds 13 1033 82 10000 4.63 100 20:40 28.01.2022
4035 Clouds 13 1033 82 10000 4.63 100 20:40 28.01.2022
4036 Clouds 12 1034 87 10000 5.14 90 19:51 28.01.2022
4037 Clouds 15 1035 62 10000 4.12 110 18:49 28.01.2022
4038 Clouds 14 1015 66 10000 3.09 90 17:46 28.01.2022
4039 Clouds 11 1037 81 6000 1.03 0 15:45 28.01.2022
4040 Fog 10 1037 87 4000 2.06 110 14:18 28.01.2022
4041 Rain 8 1035 100 4000 2.57 100 12:35 28.01.2022
4042 Fog 8 1035 100 4000 3.09 100 11:38 28.01.2022
4043 Fog 8 1035 100 4000 2.57 120 10:21 28.01.2022
4044 Fog 8 1035 100 4000 2.06 110 09:44 28.01.2022
4045 Fog 9 1036 100 4000 2.06 130 07:39 28.01.2022
4046 Fog 10 1037 93 4000 1.54 150 05:23 28.01.2022
4047 Clouds 10 1037 81 10000 2.57 180 03:47 28.01.2022
4048 Clouds 10 1036 87 10000 2.57 120 02:23 28.01.2022
4049 Clouds 10 1035 87 10000 3.09 110 01:34 28.01.2022
4050 Clouds 12 1034 71 10000 3.6 320 23:33 27.01.2022
4051 Clouds 10 1036 81 8000 5.66 310 21:50 27.01.2022
4052 Clouds 10 1036 81 8000 5.66 310 21:30 27.01.2022
4053 Clouds 10 1036 81 8000 5.66 310 21:30 27.01.2022
4054 Clouds 14 1036 71 10000 4.12 120 20:44 27.01.2022
4055 Clouds 12 1036 81 10000 4.63 120 19:21 27.01.2022
4056 Rain 11 1038 87 6000 4.63 120 17:56 27.01.2022
4057 Clouds 8 1038 93 8000 2.57 150 15:30 27.01.2022
4058 Fog 9 1037 93 4000 2.06 220 13:37 27.01.2022
4059 Rain 8 1036 100 10000 2.06 110 12:45 27.01.2022
4060 Clouds 7 1035 100 8000 2.57 260 10:24 27.01.2022
4061 Fog 8 1035 93 4000 1.03 0 08:57 27.01.2022
4062 Fog 8 1035 93 4000 1.03 0 08:34 27.01.2022
4063 Clouds 10 1037 81 10000 1.03 0 05:59 27.01.2022
4064 Thunderstorm 13 1036 62 10000 3.09 200 02:43 27.01.2022
4065 Clouds 16 1033 54 10000 2.57 110 23:32 26.01.2022
4066 Clouds 13 1034 66 10000 3.6 330 21:57 26.01.2022
4067 Clouds 13 1034 66 10000 3.6 330 21:33 26.01.2022
4068 Clouds 17 1035 51 10000 2.57 160 20:36 26.01.2022
4069 Clouds 17 1036 58 10000 6.69 130 19:55 26.01.2022
4070 Clouds 17 1036 58 10000 6.69 130 19:20 26.01.2022
4071 Clouds 16 1037 51 10000 3.6 140 18:40 26.01.2022
4072 Clouds 15 1037 54 10000 3.09 140 17:49 26.01.2022
4073 Clouds 15 1037 54 10000 3.09 140 17:21 26.01.2022
4074 Clouds 14 1038 62 10000 3.09 130 16:27 26.01.2022
4075 Clouds 12 1038 71 6000 1.03 0 15:45 26.01.2022
4076 Fog 8 1037 100 4000 1.03 0 12:54 26.01.2022
4077 Fog 8 1036 93 4000 1.54 80 11:40 26.01.2022
4078 Fog 8 1036 100 4000 1.54 80 10:19 26.01.2022
4079 Fog 9 1036 93 4000 2.06 140 09:42 26.01.2022
4080 Fog 8 1036 100 4000 3.09 130 07:32 26.01.2022
4081 Clouds 13 1034 66 10000 2.57 250 00:48 26.01.2022
4082 Clouds 13 1034 66 10000 2.57 250 00:48 26.01.2022
4083 Clouds 14 1033 62 10000 3.09 260 23:48 25.01.2022
4084 Clouds 15 1033 54 10000 2.06 120 22:50 25.01.2022
4085 Clouds 15 1033 54 10000 2.06 120 22:50 25.01.2022
4086 Clouds 15 1033 54 10000 2.06 120 22:50 25.01.2022
4087 Clouds 15 1033 54 10000 2.06 120 22:21 25.01.2022
4088 Clouds 15 1034 58 10000 4.12 300 21:37 25.01.2022
4089 Clouds 14 1035 66 8000 3.6 110 20:46 25.01.2022
4090 Clouds 13 1035 76 8000 3.6 120 19:59 25.01.2022
4091 Clouds 12 1036 87 8000 4.12 120 19:40 25.01.2022
4092 Clouds 14 1037 66 10000 4.12 110 18:20 25.01.2022
4093 Clouds 15 1037 67 10000 4.63 120 17:40 25.01.2022
4094 Clouds 14 1038 66 10000 4.63 110 16:35 25.01.2022
4095 Clouds 12 1038 76 6000 3.6 90 15:43 25.01.2022
4096 Clouds 12 1038 76 6000 3.6 90 15:25 25.01.2022
4097 Clouds 10 1038 81 6000 2.57 110 14:57 25.01.2022
4098 Fog 7 1037 93 4000 2.57 130 12:32 25.01.2022
4099 Clouds 7 1017 84 10000 2 71 10:00 25.01.2022
4100 Fog 7 1036 100 3000 3.09 80 08:32 25.01.2022
4101 Fog 7 1036 93 3000 2.57 80 07:28 25.01.2022
4102 Fog 7 1037 100 4000 3.09 70 05:55 25.01.2022
4103 Fog 9 1035 100 4000 3.09 110 01:34 25.01.2022
4104 Clouds 9 1034 93 10000 1.03 0 23:36 24.01.2022
4105 Clouds 9 1034 93 10000 1.03 0 23:18 24.01.2022
4106 Clouds 10 1034 87 10000 2.57 260 22:58 24.01.2022
4107 Clouds 10 1034 87 10000 2.57 260 22:40 24.01.2022
4108 Clouds 10 1035 93 8000 2.57 250 21:43 24.01.2022
4109 Clouds 10 1035 93 8000 2.57 250 21:25 24.01.2022
4110 Clouds 10 1035 93 10000 1.03 0 20:28 24.01.2022
4111 Clouds 9 1036 93 7000 1.03 0 19:38 24.01.2022
4112 Thunderstorm 11 1037 87 7000 3.09 60 18:50 24.01.2022
4113 Clouds 11 1037 87 7000 3.6 50 17:43 24.01.2022
4114 Clouds 12 1037 76 10000 5.66 90 17:22 24.01.2022
4115 Clouds 11 1038 81 6000 6.17 100 16:32 24.01.2022
4116 Clouds 10 1038 81 6000 4.12 90 15:51 24.01.2022
4117 Fog 10 1037 93 4000 3.09 120 14:19 24.01.2022
4118 Fog 8 1037 100 500 2.06 110 12:35 24.01.2022
4119 Fog 8 1035 100 4000 2.06 70 11:42 24.01.2022
4120 Fog 8 1035 100 4000 1.54 60 10:19 24.01.2022
4121 Fog 8 1035 100 4000 1.03 0 09:45 24.01.2022
4122 Fog 8 1035 100 4000 1.54 180 08:18 24.01.2022
4123 Fog 9 1036 100 4000 1.03 0 02:26 24.01.2022
4124 Fog 9 1035 100 4000 2.57 110 01:26 24.01.2022
4125 Fog 9 1035 100 4000 2.57 110 01:26 24.01.2022
4126 Clouds 10 1033 87 10000 3.09 110 00:31 24.01.2022
4127 Clouds 11 1033 76 10000 2.06 80 23:40 23.01.2022
4128 Clouds 11 1033 76 10000 1.03 0 22:20 23.01.2022
4129 Clouds 10 1035 81 10000 4.12 30 21:40 23.01.2022
4130 Clouds 10 1035 81 10000 4.12 30 21:20 23.01.2022
4131 Clouds 12 1035 76 8000 4.63 70 20:22 23.01.2022
4132 Clouds 9 1036 100 10000 3.6 320 18:56 23.01.2022
4133 Clouds 9 1036 100 10000 3.6 320 18:24 23.01.2022
4134 Clouds 12 1037 76 8000 1.03 0 16:56 23.01.2022
4135 Clouds 13 1037 71 10000 2.57 170 15:56 23.01.2022
4136 Clouds 10 1037 81 6000 2.06 150 14:50 23.01.2022
4137 Clouds 10 1037 81 6000 2.06 150 14:18 23.01.2022
4138 Fog 8 1036 100 4000 1.03 0 12:45 23.01.2022
4139 Fog 8 1036 100 4000 1.03 0 12:19 23.01.2022
4140 Fog 8 1035 100 4000 1.03 0 11:26 23.01.2022
4141 Fog 8 1034 93 4000 2.57 100 10:57 23.01.2022
4142 Fog 8 1034 93 4000 2.57 100 10:25 23.01.2022
4143 Clouds 8 1035 87 10000 1.03 0 09:31 23.01.2022
4144 Clouds 8 1035 87 10000 2.06 140 08:33 23.01.2022
4145 Clouds 7 1037 93 8000 5.14 240 03:34 23.01.2022
4146 Clouds 11 1034 81 10000 1.03 0 01:37 23.01.2022
4147 Clouds 13 1033 66 10000 1.03 0 00:47 23.01.2022
4148 Clouds 14 1032 62 10000 2.57 90 23:59 22.01.2022
4149 Rain 13 1032 71 10000 1.03 0 22:49 22.01.2022
4150 Rain 13 1032 71 10000 1.03 0 22:19 22.01.2022
4151 Thunderstorm 14 1034 62 10000 2.57 50 20:33 22.01.2022
4152 Thunderstorm 14 1034 66 10000 1.03 0 19:46 22.01.2022
4153 Clouds 16 1036 51 10000 2.57 210 18:37 22.01.2022
4154 Clouds 14 1037 66 10000 2.06 110 17:46 22.01.2022
4155 Clouds 14 1037 66 10000 2.06 110 17:19 22.01.2022
4156 Clouds 13 1037 58 10000 1.03 0 16:54 22.01.2022
4157 Clouds 13 1037 71 10000 1.03 0 15:45 22.01.2022
4158 Fog 9 1037 93 4000 2.06 250 14:52 22.01.2022
4159 Fog 8 1036 93 4000 2.57 270 13:30 22.01.2022
4160 Fog 8 1036 93 4000 1.03 0 12:37 22.01.2022
4161 Fog 8 1036 93 4000 1.03 0 12:19 22.01.2022
4162 Fog 8 1035 93 4000 1.03 0 10:54 22.01.2022
4163 Fog 8 1035 93 4000 1.03 0 10:23 22.01.2022
4164 Clouds 9 1035 87 8000 2.06 100 08:56 22.01.2022
4165 Clouds 9 1035 87 8000 2.06 100 08:38 22.01.2022
4166 Clouds 8 1036 100 8000 1.03 0 06:46 22.01.2022
4167 Clouds 11 1035 76 10000 2.06 120 02:39 22.01.2022
4168 Clouds 10 1033 87 8000 3.6 50 23:50 21.01.2022
4169 Clouds 14 1032 62 8000 4.12 290 22:59 21.01.2022
4170 Clouds 16 1033 47 10000 4.12 90 21:18 21.01.2022
4171 Clouds 18 1035 41 10000 6.17 110 19:30 21.01.2022
4172 Clouds 15 1037 54 10000 5.66 110 17:50 21.01.2022
4173 Clouds 12 1038 71 6000 4.63 110 15:54 21.01.2022
4174 Fog 9 1038 87 4000 3.6 120 14:41 21.01.2022
4175 Fog 8 1037 100 4000 2.57 110 12:43 21.01.2022
4176 Fog 8 1036 93 4000 3.09 90 11:29 21.01.2022
4177 Fog 9 1036 93 4000 2.57 130 10:33 21.01.2022
4178 Fog 9 1036 93 4000 2.06 110 08:58 21.01.2022
4179 Fog 9 1036 93 4000 2.06 100 07:48 21.01.2022
4180 Clouds 12 1035 66 10000 4.12 90 01:48 21.01.2022
4181 Clouds 17 1034 41 10000 4.63 100 22:47 20.01.2022
4182 Clouds 18 1035 39 10000 3.6 160 21:48 20.01.2022
4183 Clouds 18 1035 39 10000 3.6 160 21:25 20.01.2022
4184 Clouds 17 1037 47 10000 5.14 110 19:47 20.01.2022
4185 Clouds 17 1037 47 10000 5.14 110 19:18 20.01.2022
4186 Clouds 15 1039 58 10000 4.12 110 17:37 20.01.2022
4187 Clouds 13 1040 66 10000 3.6 90 15:59 20.01.2022
4188 Clouds 13 1040 66 10000 3.6 90 15:29 20.01.2022
4189 Clouds 11 1040 71 10000 3.09 110 14:18 20.01.2022
4190 Fog 7 1039 93 4000 2.57 130 12:48 20.01.2022
4191 Fog 7 1039 93 4000 2.57 130 12:27 20.01.2022
4192 Fog 7 1038 100 4000 2.57 130 10:59 20.01.2022
4193 Rain 7 1038 93 4000 3.6 120 09:44 20.01.2022
4194 Rain 7 1038 100 4000 3.6 80 08:37 20.01.2022
4195 Fog 8 1039 100 4000 2.06 130 06:19 20.01.2022
4196 Clouds 13 1036 62 10000 3.6 310 23:56 19.01.2022
4197 Clouds 14 1036 54 8000 5.14 30 22:37 19.01.2022
4198 Clouds 16 1036 51 10000 4.63 110 21:26 19.01.2022
4199 Clouds 18 1037 48 10000 4.63 100 20:55 19.01.2022
4200 Clouds 18 1037 48 10000 4.63 100 20:24 19.01.2022
4201 Clouds 15 1038 62 10000 4.63 140 18:49 19.01.2022
4202 Clouds 15 1038 62 10000 4.63 140 18:49 19.01.2022
4203 Clouds 15 1039 58 10000 4.63 140 17:50 19.01.2022
4204 Clouds 12 1040 71 10000 4.63 120 16:59 19.01.2022
4205 Clouds 11 1040 76 6000 2.57 120 14:55 19.01.2022
4206 Fog 8 1039 93 4000 1.03 0 13:20 19.01.2022
4207 Fog 4 1038 100 4000 1.54 60 11:54 19.01.2022
4208 Fog 6 1037 100 4000 1.54 70 10:52 19.01.2022
4209 Fog 6 1037 100 4000 2.06 90 09:35 19.01.2022
4210 Fog 8 1038 93 4000 1.54 120 07:34 19.01.2022
4211 Fog 8 1039 93 4000 1.03 0 05:19 19.01.2022
4212 Clouds 9 1037 81 10000 4.12 270 23:53 18.01.2022
4213 Clouds 9 1037 81 10000 4.12 270 23:18 18.01.2022
4214 Clouds 10 1037 81 8000 3.09 310 21:43 18.01.2022
4215 Clouds 9 1037 93 6000 6.17 70 19:57 18.01.2022
4216 Rain 9 1037 93 6000 6.17 70 19:38 18.01.2022
4217 Clouds 9 1037 93 6000 6.17 70 19:18 18.01.2022
4218 Clouds 14 1037 66 10000 4.63 110 17:59 18.01.2022
4219 Clouds 14 1037 66 10000 4.63 110 17:27 18.01.2022
4220 Clouds 12 1038 71 6000 3.09 110 15:50 18.01.2022
4221 Clouds 12 1038 71 6000 3.09 110 15:23 18.01.2022
4222 Clouds 9 1037 87 6000 3.09 90 13:26 18.01.2022
4223 Clouds 7 1036 100 8000 2.57 10 10:48 18.01.2022
4224 Clouds 8 1035 93 10000 3.09 300 09:29 18.01.2022
4225 Clouds 8 1036 87 10000 1.03 0 07:56 18.01.2022
4226 Clouds 9 1038 87 10000 1.03 0 05:31 18.01.2022
4227 Rain 12 1033 57 10000 2.06 40 23:55 17.01.2022
4228 Clouds 10 1035 76 10000 5.14 300 22:29 17.01.2022
4229 Thunderstorm 12 1035 71 10000 2.57 360 21:35 17.01.2022
4230 Thunderstorm 13 1035 62 10000 4.12 40 20:27 17.01.2022
4231 Clouds 14 1036 54 10000 2.06 270 18:31 17.01.2022
4232 Clouds 9 1037 81 10000 3.09 260 17:51 17.01.2022
4233 Clouds 9 1038 76 10000 4.12 310 16:45 17.01.2022
4234 Clouds 14 1038 58 10000 2.57 280 15:23 17.01.2022
4235 Clouds 12 1038 66 10000 5.14 300 14:56 17.01.2022
4236 Clouds 10 1037 76 10000 4.12 310 13:27 17.01.2022
4237 Clouds 7 1036 93 10000 1.03 0 12:56 17.01.2022
4238 Fog 7 1036 100 4000 0 0 11:49 17.01.2022
4239 Fog 8 1035 93 4000 1.03 0 10:25 17.01.2022
4240 Fog 8 1035 93 4000 1.03 0 10:25 17.01.2022
4241 Fog 8 1036 87 4000 1.03 0 09:34 17.01.2022
4242 Fog 7 1036 100 4000 2.06 60 07:24 17.01.2022
4243 Fog 7 1037 100 4000 3.6 110 06:56 17.01.2022
4244 Clouds 11 1035 71 10000 1.03 0 00:55 17.01.2022
4245 Rain 11 1035 76 10000 1.03 0 22:29 16.01.2022
4246 Rain 12 1037 62 10000 3.6 20 20:36 16.01.2022
4247 Thunderstorm 11 1038 76 8000 5.66 20 18:52 16.01.2022
4248 Clouds 16 1038 58 10000 4.12 130 17:59 16.01.2022
4249 Clouds 16 1038 58 10000 4.12 130 17:21 16.01.2022
4250 Clouds 15 1038 50 10000 3.6 240 16:33 16.01.2022
4251 Clouds 12 1039 66 10000 3.6 300 14:31 16.01.2022
4252 Clouds 9 1038 87 10000 1.03 0 13:46 16.01.2022
4253 Clouds 7 1038 100 10000 1.03 0 12:46 16.01.2022
4254 Fog 6 1037 100 4000 2.06 100 11:41 16.01.2022
4255 Fog 7 1037 100 4000 1.03 0 10:53 16.01.2022
4256 Fog 8 1037 100 4000 2.57 60 09:59 16.01.2022
4257 Fog 8 1037 100 4000 2.57 60 09:40 16.01.2022
4258 Fog 8 1037 100 4000 2.57 60 09:22 16.01.2022
4259 Clouds 9 1038 100 6000 2.06 140 07:30 16.01.2022
4260 Clouds 12 1036 62 10000 2.57 110 00:38 16.01.2022
4261 Clouds 14 1035 58 10000 3.6 100 23:34 15.01.2022
4262 Clouds 10 1037 81 8000 5.14 360 21:23 15.01.2022
4263 Clouds 12 1037 66 8000 5.66 40 20:56 15.01.2022
4264 Clouds 14 1037 54 10000 3.6 60 20:36 15.01.2022
4265 Clouds 15 1038 44 10000 3.09 90 19:28 15.01.2022
4266 Clouds 15 1039 47 10000 3.09 270 18:28 15.01.2022
4267 Clouds 14 1039 58 10000 2.06 110 16:49 15.01.2022
4268 Clouds 12 1040 62 6000 2.57 70 15:38 15.01.2022
4269 Fog 8 1039 87 4000 1.03 0 13:29 15.01.2022
4270 Fog 6 1038 100 4000 2.06 260 11:33 15.01.2022
4271 Fog 6 1037 100 4000 2.57 250 09:46 15.01.2022
4272 Fog 6 1039 100 4000 1.03 0 05:18 15.01.2022
4273 Clouds 12 1035 53 10000 3.6 60 23:32 14.01.2022
4274 Clouds 12 1035 66 10000 5.14 50 21:19 14.01.2022
4275 Clouds 16 1035 33 10000 5.14 80 20:37 14.01.2022
4276 Clouds 16 1036 35 10000 5.14 110 19:55 14.01.2022
4277 Clouds 13 1037 43 10000 3.09 90 18:42 14.01.2022
4278 Clouds 14 1038 50 10000 6.17 100 17:39 14.01.2022
4279 Clouds 14 1038 50 10000 3.6 110 16:43 14.01.2022
4280 Clouds 12 1039 57 10000 1.03 0 15:32 14.01.2022
4281 Clouds 10 1039 76 6000 2.06 170 14:26 14.01.2022
4282 Clouds 8 1037 81 6000 1.03 0 12:58 14.01.2022
4283 Clouds 7 1037 87 10000 1.03 0 11:52 14.01.2022
4284 Clouds 6 1036 93 10000 1.03 0 10:39 14.01.2022
4285 Clouds 8 1036 75 10000 1.03 0 08:53 14.01.2022
4286 Clouds 7 1036 81 10000 1.03 0 07:30 14.01.2022
4287 Clouds 9 1037 76 10000 4.12 320 02:27 14.01.2022
4288 Clouds 13 1035 46 10000 3.6 150 00:21 14.01.2022
4289 Clouds 14 1035 43 10000 5.66 140 21:47 13.01.2022
4290 Clouds 14 1035 43 10000 5.66 140 21:29 13.01.2022
4291 Clouds 18 1037 33 10000 6.17 130 19:47 13.01.2022
4292 Clouds 18 1037 33 10000 6.17 130 19:29 13.01.2022
4293 Clouds 16 1038 38 10000 6.17 130 18:37 13.01.2022
4294 Clouds 13 1040 62 10000 4.63 150 16:52 13.01.2022
4295 Clouds 13 1040 58 10000 4.63 120 15:39 13.01.2022
4296 Clouds 13 1040 58 10000 4.63 120 15:20 13.01.2022
4297 Clouds 10 1039 81 6000 5.66 100 13:29 13.01.2022
4298 Fog 8 1037 93 4000 3.09 120 10:49 13.01.2022
4299 Fog 8 1037 93 4000 3.6 120 09:23 13.01.2022
4300 Fog 8 1038 93 3000 4.63 90 08:29 13.01.2022
4301 Clear 6 1020 83 10000 1.67 30 07:58 13.01.2022
4302 Clouds 6 1020 82 10000 2.03 44 07:18 13.01.2022
4303 Clouds 9 1039 93 10000 1.54 80 05:20 13.01.2022
4304 Clouds 10 1039 81 10000 2.57 130 03:34 13.01.2022
4305 Clouds 11 1037 71 10000 2.06 130 01:38 13.01.2022
4306 Clouds 15 1035 47 10000 4.12 90 23:53 12.01.2022
4307 Clouds 15 1035 47 10000 4.12 90 23:33 12.01.2022
4308 Clouds 15 1036 47 10000 5.66 70 21:58 12.01.2022
4309 Clouds 15 1036 47 10000 5.66 70 21:39 12.01.2022
4310 Clouds 17 1036 41 10000 4.12 110 21:18 12.01.2022
4311 Clouds 17 1037 36 10000 4.12 110 20:41 12.01.2022
4312 Clouds 15 1038 62 10000 6.69 100 18:48 12.01.2022
4313 Clouds 15 1039 67 10000 6.69 130 17:53 12.01.2022
4314 Clouds 13 1039 71 6000 3.6 100 16:42 12.01.2022
4315 Clouds 11 1039 81 6000 3.6 90 14:49 12.01.2022
4316 Fog 9 1039 93 4000 4.12 110 13:40 12.01.2022
4317 Fog 7 1038 100 4000 4.12 100 12:56 12.01.2022
4318 Rain 8 1037 93 10000 2.57 50 08:55 12.01.2022
4319 Fog 8 1037 87 4000 3.6 20 07:57 12.01.2022
4320 Fog 8 1037 87 4000 3.6 20 07:33 12.01.2022
4321 Clouds 9 1038 87 10000 2.06 290 02:20 12.01.2022
4322 Clouds 10 1035 87 10000 4.12 320 23:26 11.01.2022
4323 Clouds 10 1035 81 6000 5.66 340 22:25 11.01.2022
4324 Clouds 16 1034 44 10000 2.57 70 21:28 11.01.2022
4325 Clouds 16 1035 47 10000 4.63 120 20:36 11.01.2022
4326 Clouds 16 1036 47 10000 3.6 70 19:23 11.01.2022
4327 Clouds 15 1038 54 10000 3.09 90 17:46 11.01.2022
4328 Clouds 14 1039 58 10000 3.09 110 16:39 11.01.2022
4329 Clouds 14 1039 58 10000 3.09 110 16:18 11.01.2022
4330 Clouds 11 1039 71 10000 3.09 100 14:48 11.01.2022
4331 Clouds 11 1039 71 10000 3.09 100 14:30 11.01.2022
4332 Clouds 10 1038 76 6000 3.09 120 13:46 11.01.2022
4333 Clouds 10 1038 76 6000 3.09 120 13:25 11.01.2022
4334 Fog 8 1038 93 4000 3.09 120 12:24 11.01.2022
4335 Fog 7 1036 100 4000 3.09 120 10:26 11.01.2022
4336 Fog 8 1037 93 4000 2.06 110 07:38 11.01.2022
4337 Clouds 9 1038 87 10000 3.09 130 03:47 11.01.2022
4338 Rain 11 1036 71 10000 2.06 240 00:25 11.01.2022
4339 Clouds 11 1035 71 10000 4.12 320 23:38 10.01.2022
4340 Rain 12 1034 62 10000 6.69 300 22:20 10.01.2022
4341 Rain 16 1034 41 10000 4.12 30 21:56 10.01.2022
4342 Clouds 16 1034 41 10000 4.12 30 21:33 10.01.2022
4343 Clouds 14 1035 50 10000 6.69 60 20:58 10.01.2022
4344 Clouds 14 1035 50 10000 6.69 60 20:29 10.01.2022
4345 Clouds 15 1036 47 10000 5.66 170 19:48 10.01.2022
4346 Clouds 15 1036 47 10000 5.66 170 19:23 10.01.2022
4347 Clouds 13 1038 58 8000 4.12 50 18:55 10.01.2022
4348 Clouds 13 1038 58 8000 4.12 50 18:37 10.01.2022
4349 Clouds 14 1039 54 10000 4.12 150 16:48 10.01.2022
4350 Clouds 14 1039 54 10000 4.12 150 16:18 10.01.2022
4351 Clouds 12 1039 66 6000 2.06 150 14:41 10.01.2022
4352 Fog 8 1038 93 4000 1.03 0 12:50 10.01.2022
4353 Fog 8 1037 93 4000 3.09 130 11:55 10.01.2022
4354 Rain 7 1036 100 4000 2.06 90 10:46 10.01.2022
4355 Fog 9 1037 93 4000 2.57 130 08:59 10.01.2022
4356 Fog 8 1037 100 4000 3.09 90 05:51 10.01.2022
4357 Clouds 11 1035 81 10000 2.57 90 01:35 10.01.2022
4358 Clouds 12 1034 71 10000 3.09 120 00:44 10.01.2022
4359 Clouds 12 1034 71 10000 3.09 120 00:19 10.01.2022
4360 Clouds 12 1034 66 10000 3.6 300 22:43 09.01.2022
4361 Clouds 14 1035 62 8000 3.6 90 21:47 09.01.2022
4362 Clouds 14 1035 62 8000 3.6 90 21:25 09.01.2022
4363 Clouds 14 1035 62 8000 6.69 110 20:58 09.01.2022
4364 Clouds 14 1035 62 8000 6.69 110 20:39 09.01.2022
4365 Clouds 14 1035 62 8000 6.69 110 20:21 09.01.2022
4366 Clouds 15 1035 58 8000 6.17 110 19:38 09.01.2022
4367 Clouds 16 1036 51 10000 6.17 120 19:18 09.01.2022
4368 Clouds 17 1037 47 10000 4.63 120 18:37 09.01.2022
4369 Clouds 14 1038 58 10000 3.6 120 17:48 09.01.2022
4370 Clouds 14 1038 58 10000 3.6 120 17:29 09.01.2022
4371 Clouds 14 1038 58 6000 2.06 150 16:40 09.01.2022
4372 Clouds 10 1039 76 6000 2.57 180 15:40 09.01.2022
4373 Fog 10 1039 81 4000 2.06 210 14:50 09.01.2022
4374 Fog 10 1039 81 4000 2.06 210 14:23 09.01.2022
4375 Clouds 10 1038 71 6000 3.09 230 13:48 09.01.2022
4376 Fog 8 1037 87 4000 2.57 230 11:56 09.01.2022
4377 Fog 8 1037 87 4000 2.57 230 11:26 09.01.2022
4378 Fog 7 1037 100 4000 2.57 260 09:55 09.01.2022
4379 Fog 8 1037 93 4000 2.57 210 08:59 09.01.2022
4380 Clouds 9 1038 93 10000 2.06 260 06:56 09.01.2022
4381 Clouds 12 1036 57 10000 1.03 0 01:29 09.01.2022
4382 Clouds 13 1035 62 10000 3.6 250 00:37 09.01.2022
4383 Clouds 13 1034 58 10000 4.63 310 23:31 08.01.2022
4384 Clouds 16 1034 41 10000 4.12 90 22:48 08.01.2022
4385 Clouds 18 1034 39 10000 4.63 100 21:28 08.01.2022
4386 Clouds 19 1035 36 10000 6.17 100 20:43 08.01.2022
4387 Clouds 19 1035 36 10000 6.17 100 20:22 08.01.2022
4388 Clouds 18 1036 41 10000 4.12 120 19:22 08.01.2022
4389 Clouds 15 1038 50 10000 2.57 130 17:31 08.01.2022
4390 Rain 13 1039 62 10000 3.6 110 16:42 08.01.2022
4391 Clouds 11 1039 71 10000 5.14 100 15:28 08.01.2022
4392 Fog 8 1039 93 500 3.6 170 13:57 08.01.2022
4393 Fog 7 1037 100 4000 1.03 0 11:30 08.01.2022
4394 Clouds 9 1036 93 10000 0 0 10:33 08.01.2022
4395 Fog 9 1036 93 4000 1.03 0 09:57 08.01.2022
4396 Fog 9 1036 93 4000 1.03 0 09:30 08.01.2022
4397 Clouds 6 1038 100 10000 2.57 90 05:51 08.01.2022
4398 Clouds 10 1035 66 10000 2.57 60 01:24 08.01.2022
4399 Clouds 15 1033 44 10000 4.63 40 23:30 07.01.2022
4400 Clouds 18 1034 41 10000 3.09 100 21:47 07.01.2022
4401 Clouds 14 1035 62 10000 3.09 280 20:26 07.01.2022
4402 Clouds 15 1036 50 10000 4.12 300 19:27 07.01.2022
4403 Clouds 18 1037 41 10000 4.12 80 18:46 07.01.2022
4404 Clouds 18 1037 41 10000 4.12 80 18:18 07.01.2022
4405 Clouds 15 1038 50 10000 4.12 100 17:23 07.01.2022
4406 Clouds 10 1038 81 6000 3.6 140 14:55 07.01.2022
4407 Fog 8 1038 93 4000 3.09 130 13:52 07.01.2022
4408 Fog 8 1037 93 4000 3.6 120 12:50 07.01.2022
4409 Fog 7 1036 93 4000 4.12 110 10:21 07.01.2022
4410 Clouds 10 1036 81 10000 1.03 0 02:59 07.01.2022
4411 Clouds 10 1036 81 10000 1.03 0 02:59 07.01.2022
4412 Clouds 10 1036 81 10000 1.03 0 02:22 07.01.2022
4413 Clouds 10 1035 87 10000 1.03 0 01:48 07.01.2022
4414 Clouds 10 1035 87 10000 1.03 0 01:25 07.01.2022
4415 Clouds 12 1034 76 10000 2.57 290 00:29 07.01.2022
4416 Clouds 12 1034 81 10000 4.12 300 22:33 06.01.2022
4417 Clouds 15 1035 58 10000 3.09 280 20:43 06.01.2022
4418 Clouds 13 1036 58 10000 3.09 250 19:58 06.01.2022
4419 Clouds 13 1036 58 10000 3.09 250 19:36 06.01.2022
4420 Clouds 15 1010 54 10000 5.14 130 17:51 06.01.2022
4421 Clouds 15 1010 54 10000 5.14 130 17:21 06.01.2022
4422 Clouds 16 1037 51 10000 4.12 110 16:31 06.01.2022
4423 Clouds 15 1037 47 10000 2.57 60 15:43 06.01.2022
4424 Clouds 15 1037 47 10000 2.57 60 15:20 06.01.2022
4425 Clouds 14 1037 58 6000 4.12 90 14:19 06.01.2022
4426 Clouds 11 1037 71 6000 4.12 80 13:30 06.01.2022
4427 Fog 9 1036 87 4000 4.12 70 12:20 06.01.2022
4428 Fog 8 1035 87 4000 4.63 50 11:29 06.01.2022
4429 Fog 8 1034 93 4000 4.12 80 09:50 06.01.2022
4430 Clouds 10 1036 61 10000 5.66 60 05:55 06.01.2022
4431 Rain 14 1033 50 10000 2.57 290 23:56 05.01.2022
4432 Rain 14 1033 50 10000 2.57 290 23:21 05.01.2022
4433 Rain 17 1032 41 10000 5.66 100 22:42 05.01.2022
4434 Rain 17 1032 41 10000 5.66 100 22:18 05.01.2022
4435 Clouds 17 1032 44 10000 6.17 110 21:23 05.01.2022
4436 Rain 17 1033 41 10000 4.63 110 20:30 05.01.2022
4437 Clouds 17 1033 41 10000 4.63 110 20:30 05.01.2022
4438 Clouds 18 1034 31 10000 4.12 50 19:28 05.01.2022
4439 Clouds 16 1036 35 10000 6.17 60 17:56 05.01.2022
4440 Clouds 16 1036 44 10000 6.17 60 16:56 05.01.2022
4441 Clouds 15 1036 54 10000 5.14 70 15:46 05.01.2022
4442 Clouds 13 1036 62 10000 4.63 80 14:50 05.01.2022
4443 Clouds 10 1035 87 10000 3.09 100 13:33 05.01.2022
4444 Fog 7 1034 100 3000 3.09 60 11:46 05.01.2022
4445 Clouds 9 1033 81 10000 2.57 330 08:20 05.01.2022
4446 Clouds 10 1034 66 10000 2.57 290 06:36 05.01.2022
4447 Clouds 14 1032 50 10000 4.63 80 00:59 05.01.2022
4448 Clouds 16 1032 38 10000 4.63 90 23:38 04.01.2022
4449 Clouds 16 1032 38 10000 4.63 90 23:18 04.01.2022
4450 Clouds 17 1033 44 10000 5.14 60 21:31 04.01.2022
4451 Clouds 17 1034 44 10000 5.66 170 19:55 04.01.2022
4452 Clouds 19 1034 29 10000 5.14 110 18:19 04.01.2022
4453 Clouds 17 1036 44 10000 4.12 140 16:53 04.01.2022
4454 Clouds 17 1036 44 10000 4.12 140 16:30 04.01.2022
4455 Clouds 14 1036 54 10000 2.57 100 14:54 04.01.2022
4456 Clouds 14 1036 54 10000 2.57 100 14:36 04.01.2022
4457 Clouds 12 1036 66 10000 2.57 70 13:48 04.01.2022
4458 Clouds 6 1034 100 10000 1.03 0 10:59 04.01.2022
4459 Clouds 7 1034 75 10000 2.06 40 09:58 04.01.2022
4460 Clouds 10 1034 66 10000 2.06 340 08:35 04.01.2022
4461 Clouds 10 1036 76 10000 5.14 110 03:39 04.01.2022
4462 Clouds 12 1034 57 10000 2.57 50 00:42 04.01.2022
4463 Clouds 12 1035 71 10000 6.17 80 23:41 03.01.2022
4464 Clouds 12 1035 71 10000 6.17 100 22:21 03.01.2022
4465 Clouds 15 1034 47 8000 7.72 100 21:35 03.01.2022
4466 Clouds 18 1035 31 10000 7.2 210 20:28 03.01.2022
4467 Clouds 20 1037 22 10000 4.12 150 18:54 03.01.2022
4468 Clouds 20 1037 22 10000 4.12 150 18:28 03.01.2022
4469 Clouds 17 1039 41 10000 3.09 130 16:59 03.01.2022
4470 Clouds 16 1039 47 10000 2.57 230 15:40 03.01.2022
4471 Clouds 15 1039 50 10000 2.57 280 14:31 03.01.2022
4472 Clouds 11 1038 87 6000 1.03 0 12:48 03.01.2022
4473 Fog 9 1038 100 4000 3.6 100 11:39 03.01.2022
4474 Fog 9 1037 100 4000 2.06 80 10:37 03.01.2022
4475 Fog 9 1037 93 4000 1.03 0 08:48 03.01.2022
4476 Fog 11 1037 93 4000 1.03 0 07:36 03.01.2022
4477 Clouds 17 1034 38 10000 1.03 0 00:29 03.01.2022
4478 Clouds 19 1033 25 10000 3.6 80 23:22 02.01.2022
4479 Clouds 20 1033 24 10000 3.6 120 22:55 02.01.2022
4480 Clouds 20 1034 22 10000 2.57 140 21:52 02.01.2022
4481 Clouds 22 1035 21 10000 3.09 180 20:41 02.01.2022
4482 Clouds 22 1035 21 10000 3.09 180 20:22 02.01.2022
4483 Clouds 19 1036 25 10000 4.12 160 19:31 02.01.2022
4484 Clouds 19 1037 29 10000 3.09 140 18:47 02.01.2022
4485 Clouds 20 1038 25 10000 3.09 140 17:54 02.01.2022
4486 Clouds 20 1038 25 10000 3.09 140 17:36 02.01.2022
4487 Clouds 20 1038 25 10000 3.09 140 17:18 02.01.2022
4488 Clouds 19 1039 31 10000 2.57 190 16:26 02.01.2022
4489 Clear 15 1039 41 10000 2.06 220 14:32 02.01.2022
4490 Clouds 10 1037 61 10000 1.03 0 12:54 02.01.2022
4491 Clouds 10 1037 61 10000 1.03 0 12:22 02.01.2022
4492 Clouds 5 1037 87 10000 1.03 0 11:32 02.01.2022
4493 Clouds 5 1037 100 10000 1.54 30 10:46 02.01.2022
4494 Clouds 7 1037 93 10000 1.03 0 09:45 02.01.2022
4495 Clouds 10 1039 81 10000 6.69 120 05:21 02.01.2022
4496 Clouds 14 1037 40 10000 8.75 130 01:41 02.01.2022
4497 Clouds 16 1035 30 10000 6.17 360 23:39 01.01.2022
4498 Clouds 17 1035 33 8000 5.14 310 22:57 01.01.2022
4499 Clouds 17 1035 33 8000 5.14 310 22:22 01.01.2022
4500 Clouds 19 1035 34 10000 4.12 200 21:43 01.01.2022
4501 Clouds 22 1035 18 10000 4.12 210 20:53 01.01.2022
4502 Clouds 19 1036 34 10000 3.6 140 19:57 01.01.2022
4503 Clouds 19 1037 36 10000 3.6 200 18:58 01.01.2022
4504 Clouds 17 1038 41 10000 3.6 210 17:58 01.01.2022
4505 Clouds 16 1039 54 10000 2.57 320 16:37 01.01.2022
4506 Clouds 16 1039 54 10000 2.57 320 16:19 01.01.2022
4507 Clouds 14 1040 54 10000 3.6 200 15:22 01.01.2022
4508 Clouds 12 1039 66 10000 3.09 250 13:46 01.01.2022
4509 Clouds 12 1039 66 10000 3.09 250 13:46 01.01.2022
4510 Clouds 9 1038 76 10000 1.03 0 12:49 01.01.2022
4511 Clouds 7 1037 81 10000 1.03 0 11:51 01.01.2022
4512 Clouds 7 1037 81 10000 1.03 0 11:22 01.01.2022
4513 Clouds 8 1038 81 10000 2.57 350 10:26 01.01.2022
4514 Clouds 8 1038 87 10000 2.06 250 09:41 01.01.2022
4515 Clouds 7 1038 93 10000 2.57 240 08:25 01.01.2022
4516 Clouds 9 1038 76 10000 1.03 0 07:43 01.01.2022
4517 Clouds 9 1039 70 10000 2.06 220 06:46 01.01.2022
4518 Rain 9 1040 81 10000 3.6 220 05:26 01.01.2022
4519 Clouds 11 1040 66 8000 3.09 10 04:37 01.01.2022
4520 Clouds 12 1036 57 10000 5.66 50 01:28 01.01.2022
4521 Clouds 19 1034 29 10000 3.6 130 23:35 31.12.2021
4522 Clouds 20 1006 27 10000 3.6 70 21:52 31.12.2021
4523 Clouds 20 1036 27 10000 4.63 120 20:33 31.12.2021
4524 Clouds 20 1037 32 10000 5.14 110 19:30 31.12.2021
4525 Clouds 17 1012 44 10000 5.17 74 18:32 31.12.2021
4526 Clouds 17 1039 38 10000 2.57 130 17:38 31.12.2021
4527 Clouds 17 1039 38 10000 2.57 130 17:18 31.12.2021
4528 Clouds 16 1039 44 10000 3.09 120 16:24 31.12.2021
4529 Clouds 15 1040 47 10000 3.6 160 15:56 31.12.2021
4530 Clouds 15 1040 47 10000 3.6 160 15:28 31.12.2021
4531 Clouds 14 1039 47 10000 3.09 150 14:47 31.12.2021
4532 Clouds 14 1039 47 10000 3.09 150 14:28 31.12.2021
4533 Clouds 13 1038 62 10000 2.57 120 13:36 31.12.2021
4534 Clouds 8 1038 93 10000 1.54 40 12:44 31.12.2021
4535 Clouds 6 1036 93 10000 2.06 10 11:43 31.12.2021
4536 Clouds 6 1036 93 10000 2.06 10 11:20 31.12.2021
4537 Clouds 7 1036 87 10000 2.06 330 10:32 31.12.2021
4538 Clouds 7 1036 93 10000 1.03 0 09:35 31.12.2021
4539 Clouds 7 1036 93 10000 1.03 0 08:56 31.12.2021
4540 Clouds 7 1036 93 10000 1.03 0 08:25 31.12.2021
4541 Clouds 6 1037 93 10000 2.06 60 07:30 31.12.2021
4542 Rain 14 1036 54 10000 5.14 110 23:23 30.12.2021
4543 Clouds 18 1035 41 8000 4.63 110 22:33 30.12.2021
4544 Clouds 20 1035 27 10000 4.63 130 21:54 30.12.2021
4545 Clouds 20 1035 27 10000 4.63 130 21:36 30.12.2021
4546 Clouds 20 1036 29 10000 4.63 130 20:45 30.12.2021
4547 Clouds 20 1036 29 10000 4.63 130 20:24 30.12.2021
4548 Clouds 19 1037 34 10000 3.09 130 19:44 30.12.2021
4549 Clouds 18 1038 39 10000 3.6 140 18:29 30.12.2021
4550 Clouds 17 1039 47 10000 3.09 100 17:45 30.12.2021
4551 Clouds 14 1039 62 10000 2.57 120 15:58 30.12.2021
4552 Clouds 14 1039 62 10000 2.57 120 15:39 30.12.2021
4553 Clouds 13 1039 76 10000 1.03 0 14:37 30.12.2021
4554 Clouds 10 1039 87 10000 1.03 0 13:33 30.12.2021
4555 Fog 6 1039 100 4000 1.03 0 12:29 30.12.2021
4556 Clouds 5 1037 100 10000 1.03 0 10:58 30.12.2021
4557 Clouds 6 1038 100 10000 1.03 0 09:55 30.12.2021
4558 Clouds 8 1037 100 10000 2.06 340 08:49 30.12.2021
4559 Fog 7 1039 100 4000 1.03 0 06:51 30.12.2021
4560 Clouds 8 1038 100 10000 1.03 0 03:41 30.12.2021
4561 Clouds 8 1039 100 10000 2.57 80 02:42 30.12.2021
4562 Clouds 10 1037 87 10000 4.12 290 23:42 29.12.2021
4563 Clouds 10 1037 87 10000 4.12 290 23:22 29.12.2021
4564 Rain 9 1038 93 6000 4.12 120 22:19 29.12.2021
4565 Clouds 12 1037 71 8000 3.09 10 21:27 29.12.2021
4566 Clouds 9 1037 87 8000 4.12 50 20:34 29.12.2021
4567 Clouds 11 1038 81 8000 4.63 50 19:48 29.12.2021
4568 Clouds 14 1039 58 10000 4.63 240 18:47 29.12.2021
4569 Clouds 15 1039 67 10000 4.63 120 17:54 29.12.2021
4570 Clouds 15 1039 67 10000 4.63 120 17:27 29.12.2021
4571 Clouds 15 1040 62 10000 4.12 120 16:24 29.12.2021
4572 Clouds 12 1040 66 10000 2.57 100 15:45 29.12.2021
4573 Fog 9 1039 87 4000 3.09 100 13:55 29.12.2021
4574 Fog 8 1039 100 4000 3.09 120 12:36 29.12.2021
4575 Fog 8 1038 100 2500 3.09 100 11:27 29.12.2021
4576 Fog 8 1038 100 4000 3.09 120 09:56 29.12.2021
4577 Fog 9 1039 93 4000 1.03 0 07:51 29.12.2021
4578 Clouds 9 1039 87 10000 2.06 280 06:38 29.12.2021
4579 Clouds 9 1040 93 10000 1.03 0 05:58 29.12.2021
4580 Clouds 9 1040 93 10000 1.03 0 05:36 29.12.2021
4581 Clouds 11 1038 81 10000 2.57 110 02:22 29.12.2021
4582 Clouds 13 1037 66 10000 1.03 0 00:19 29.12.2021
4583 Clouds 14 1036 54 10000 2.57 70 23:31 28.12.2021
4584 Clouds 16 1036 51 10000 4.63 90 22:29 28.12.2021
4585 Clouds 14 1036 58 10000 2.06 290 21:57 28.12.2021
4586 Clouds 14 1036 58 10000 2.06 290 21:36 28.12.2021
4587 Clouds 15 1037 50 10000 7.2 70 20:35 28.12.2021
4588 Clouds 16 1038 62 10000 5.66 80 18:59 28.12.2021
4589 Clouds 16 1038 62 10000 5.66 80 18:29 28.12.2021
4590 Clouds 15 1038 67 10000 6.69 100 17:48 28.12.2021
4591 Clouds 14 1039 66 6000 6.17 90 16:29 28.12.2021
4592 Clouds 13 1039 82 6000 5.14 100 15:45 28.12.2021
4593 Clouds 13 1039 82 6000 5.14 100 15:19 28.12.2021
4594 Fog 10 1039 93 4000 4.63 110 14:45 28.12.2021
4595 Fog 10 1039 93 4000 4.63 110 14:20 28.12.2021
4596 Fog 9 1038 100 3000 3.6 120 13:38 28.12.2021
4597 Fog 9 1038 100 3000 3.6 120 13:38 28.12.2021
4598 Fog 8 1038 100 3000 3.6 100 12:57 28.12.2021
4599 Rain 8 1038 100 3000 3.6 100 12:38 28.12.2021
4600 Fog 9 1036 100 500 3.09 130 10:52 28.12.2021
4601 Fog 9 1037 100 6000 4.12 100 07:39 28.12.2021
4602 Fog 9 1037 100 2500 2.06 130 06:40 28.12.2021
4603 Clouds 13 1035 66 10000 3.09 80 23:42 27.12.2021
4604 Clouds 15 1034 58 10000 2.57 70 22:31 27.12.2021
4605 Clouds 15 1035 58 10000 3.09 300 21:33 27.12.2021
4606 Clouds 11 1036 87 10000 5.14 240 20:45 27.12.2021
4607 Clouds 15 1037 67 10000 4.63 140 19:56 27.12.2021
4608 Clouds 15 1037 67 10000 4.63 140 19:38 27.12.2021
4609 Clouds 15 1038 54 10000 5.14 100 17:55 27.12.2021
4610 Clouds 15 1038 54 10000 5.14 100 17:29 27.12.2021
4611 Clouds 13 1039 58 10000 4.63 100 16:32 27.12.2021
4612 Clouds 12 1039 62 10000 3.6 110 15:50 27.12.2021
4613 Clouds 12 1039 62 10000 3.09 130 14:29 27.12.2021
4614 Clouds 10 1039 71 10000 2.06 90 13:32 27.12.2021
4615 Clouds 7 1038 93 10000 2.06 80 11:34 27.12.2021
4616 Fog 7 1038 93 4000 2.06 100 10:27 27.12.2021
4617 Fog 7 1038 93 4000 1.03 0 09:38 27.12.2021
4618 Fog 7 1038 93 4000 4.12 170 07:35 27.12.2021
4619 Rain 8 1039 87 4000 3.09 170 06:30 27.12.2021
4620 Clouds 9 1037 87 10000 4.12 280 01:59 27.12.2021
4621 Clouds 12 1036 66 10000 2.06 10 23:50 26.12.2021
4622 Clouds 12 1036 66 10000 2.06 10 23:32 26.12.2021
4623 Clouds 8 1036 93 8000 4.12 340 21:48 26.12.2021
4624 Clouds 9 1037 93 6000 1.03 0 20:25 26.12.2021
4625 Clouds 9 1037 93 6000 5.14 200 19:27 26.12.2021
4626 Clouds 14 1037 62 10000 4.12 90 18:23 26.12.2021
4627 Clouds 13 1039 66 10000 2.06 90 15:55 26.12.2021
4628 Clouds 10 1039 81 10000 2.57 90 13:52 26.12.2021
4629 Clouds 10 1039 81 10000 2.57 90 13:32 26.12.2021
4630 Clouds 9 1037 87 6000 2.57 80 12:37 26.12.2021
4631 Clouds 8 1037 87 10000 2.57 100 11:57 26.12.2021
4632 Clouds 8 1037 87 10000 2.06 60 09:44 26.12.2021
4633 Clouds 8 1037 81 10000 2.57 300 08:59 26.12.2021
4634 Clouds 8 1037 81 10000 2.57 300 08:38 26.12.2021
4635 Clouds 8 1039 93 10000 1.03 0 06:47 26.12.2021
4636 Fog 10 1035 93 4000 4.12 80 00:45 26.12.2021
4637 Clouds 11 1034 87 10000 4.63 110 23:49 25.12.2021
4638 Clouds 11 1034 87 10000 4.63 110 23:25 25.12.2021
4639 Clouds 13 1035 76 10000 4.12 80 22:21 25.12.2021
4640 Rain 13 1035 71 10000 3.09 100 20:36 25.12.2021
4641 Rain 13 1037 76 10000 2.57 80 19:20 25.12.2021
4642 Rain 14 1038 62 10000 2.57 270 18:51 25.12.2021
4643 Clouds 11 1039 87 6000 4.12 280 16:52 25.12.2021
4644 Clouds 11 1039 81 6000 4.63 270 15:54 25.12.2021
4645 Clouds 11 1039 76 6000 2.06 260 14:25 25.12.2021
4646 Clouds 9 1037 87 10000 1.03 0 12:42 25.12.2021
4647 Clouds 8 1036 93 10000 1.03 0 11:21 25.12.2021
4648 Rain 8 1036 93 10000 1.54 270 09:49 25.12.2021
4649 Clouds 8 1037 93 10000 2.06 280 07:51 25.12.2021
4650 Fog 10 1035 100 4000 4.12 100 01:45 25.12.2021
4651 Clouds 11 1034 87 10000 3.6 110 00:27 25.12.2021
4652 Clouds 13 1034 71 10000 3.6 100 22:28 24.12.2021
4653 Clouds 12 1035 87 10000 2.06 310 19:36 24.12.2021
4654 Clouds 10 1036 93 7000 4.12 310 19:18 24.12.2021
4655 Clouds 12 1037 87 8000 4.12 100 16:50 24.12.2021
4656 Clouds 15 1037 71 10000 3.09 100 15:53 24.12.2021
4657 Clouds 15 1037 71 10000 3.09 100 15:34 24.12.2021
4658 Clouds 13 1037 71 6000 2.06 110 14:36 24.12.2021
4659 Clouds 13 1037 71 6000 2.06 110 14:36 24.12.2021
4660 Clouds 13 1037 71 6000 2.06 110 14:18 24.12.2021
4661 Clouds 11 1037 81 6000 1.03 0 13:33 24.12.2021
4662 Fog 10 1036 93 4000 1.03 0 12:47 24.12.2021
4663 Fog 9 1035 100 4000 2.06 90 11:47 24.12.2021
4664 Fog 9 1035 100 4000 2.06 90 11:24 24.12.2021
4665 Fog 9 1035 100 4000 2.06 110 10:45 24.12.2021
4666 Fog 9 1035 100 4000 2.06 110 09:32 24.12.2021
4667 Fog 10 1036 93 4000 1.54 120 08:23 24.12.2021
4668 Fog 9 1036 100 4000 1.54 60 07:46 24.12.2021
4669 Fog 11 1036 87 4000 2.06 110 01:30 24.12.2021
4670 Clouds 13 1035 76 10000 2.57 100 23:55 23.12.2021
4671 Clouds 14 1035 71 10000 4.12 60 22:54 23.12.2021
4672 Clouds 14 1035 71 10000 4.12 60 22:27 23.12.2021
4673 Clouds 13 1035 76 8000 3.09 10 21:59 23.12.2021
4674 Clouds 12 1036 81 8000 2.57 330 20:54 23.12.2021
4675 Clouds 13 1036 76 6000 1.03 0 19:39 23.12.2021
4676 Clouds 14 1037 71 8000 4.63 80 18:34 23.12.2021
4677 Clouds 13 1037 76 8000 3.09 60 17:55 23.12.2021
4678 Clouds 13 1038 66 6000 2.57 120 16:43 23.12.2021
4679 Rain 13 1038 66 6000 2.57 120 16:23 23.12.2021
4680 Rain 12 1038 76 6000 2.57 210 15:31 23.12.2021
4681 Fog 10 1037 93 4000 1.03 0 14:42 23.12.2021
4682 Fog 10 1037 93 4000 1.03 0 14:42 23.12.2021
4683 Fog 10 1037 93 4000 1.03 0 14:19 23.12.2021
4684 Fog 9 1036 93 4000 2.57 220 12:48 23.12.2021
4685 Fog 9 1035 93 4000 1.03 0 10:41 23.12.2021
4686 Fog 9 1034 87 4000 1.03 0 09:34 23.12.2021
4687 Fog 9 1035 100 4000 1.03 0 08:58 23.12.2021
4688 Fog 10 1035 93 4000 2.57 90 06:23 23.12.2021
4689 Clouds 10 1036 100 6000 1.03 0 03:28 23.12.2021
4690 Clouds 13 1032 76 10000 2.06 270 22:55 22.12.2021
4691 Clouds 13 1032 76 10000 2.06 270 22:23 22.12.2021
4692 Clouds 12 1033 81 10000 2.57 290 21:53 22.12.2021
4693 Clouds 12 1033 81 10000 2.57 290 21:27 22.12.2021
4694 Clouds 11 1033 93 6000 4.12 280 20:41 22.12.2021
4695 Rain 10 1034 91 6000 5.66 300 19:59 22.12.2021
4696 Clouds 11 1034 87 6000 3.6 130 18:57 22.12.2021
4697 Rain 12 1035 87 6000 3.6 120 17:39 22.12.2021
4698 Fog 10 1035 93 4000 3.6 140 16:32 22.12.2021
4699 Fog 10 1035 93 4000 3.6 120 15:24 22.12.2021
4700 Fog 9 1034 100 4000 2.57 80 12:59 22.12.2021
4701 Rain 8 1034 100 2000 2.06 200 11:58 22.12.2021
4702 Fog 8 1032 100 4000 2.06 210 09:53 22.12.2021
4703 Fog 8 1033 100 4000 2.06 230 08:58 22.12.2021
4704 Fog 9 1033 93 4000 2.57 280 07:21 22.12.2021
4705 Fog 9 1034 93 4000 3.6 280 05:39 22.12.2021
4706 Fog 9 1034 93 4000 3.6 280 05:20 22.12.2021
4707 Clouds 9 1035 100 6000 3.09 270 04:42 22.12.2021
4708 Rain 9 1035 100 6000 3.09 200 03:54 22.12.2021
4709 Fog 9 1035 100 6000 3.09 200 03:31 22.12.2021
4710 Clouds 13 1031 76 10000 3.6 80 23:49 21.12.2021
4711 Clouds 14 1031 76 10000 4.63 90 22:41 21.12.2021
4712 Clouds 14 1032 71 10000 5.14 100 21:58 21.12.2021
4713 Clouds 14 1032 71 10000 5.14 100 21:33 21.12.2021
4714 Clouds 13 1033 76 10000 4.63 90 20:42 21.12.2021
4715 Clouds 13 1033 76 10000 4.63 90 20:18 21.12.2021
4716 Clouds 12 1034 76 10000 3.6 110 19:34 21.12.2021
4717 Rain 12 1035 71 10000 4.12 100 18:28 21.12.2021
4718 Clouds 11 1036 81 6000 3.09 80 17:58 21.12.2021
4719 Clouds 11 1036 81 6000 3.09 80 17:39 21.12.2021
4720 Clouds 9 1036 93 6000 2.57 120 15:39 21.12.2021
4721 Clouds 8 1036 93 6000 1.03 0 14:21 21.12.2021
4722 Mist 7 1035 100 4000 2.06 80 13:42 21.12.2021
4723 Mist 7 1035 100 3000 2.06 60 12:26 21.12.2021
4724 Rain 7 1033 100 4000 1.54 210 10:38 21.12.2021
4725 Rain 7 1033 100 4000 1.54 200 09:50 21.12.2021
4726 Fog 7 1034 100 4000 1.03 0 08:55 21.12.2021
4727 Rain 7 1035 100 4000 2.06 220 07:44 21.12.2021
4728 Rain 7 1035 100 4000 2.06 220 07:22 21.12.2021
4729 Clouds 9 1036 100 10000 1.03 0 03:26 21.12.2021
4730 Clouds 9 1035 100 6000 2.57 330 01:25 21.12.2021
4731 Clouds 11 1033 93 8000 3.09 260 23:54 20.12.2021
4732 Clouds 11 1033 87 8000 1.03 0 22:35 20.12.2021
4733 Clouds 11 1033 87 6000 4.12 100 21:52 20.12.2021
4734 Clouds 11 1033 87 6000 4.12 100 21:24 20.12.2021
4735 Clouds 12 1033 93 6000 4.63 140 20:54 20.12.2021
4736 Clouds 12 1033 93 6000 4.63 140 20:19 20.12.2021
4737 Clouds 12 1035 87 10000 3.09 60 19:36 20.12.2021
4738 Clouds 12 1035 87 10000 3.09 60 19:18 20.12.2021
4739 Clouds 13 1036 76 10000 4.63 130 18:30 20.12.2021
4740 Clouds 14 1036 66 6000 4.12 110 17:49 20.12.2021
4741 Clouds 14 1036 66 6000 4.12 110 17:49 20.12.2021
4742 Rain 11 1037 81 6000 4.63 130 16:46 20.12.2021
4743 Mist 10 1037 93 4000 5.14 90 15:57 20.12.2021
4744 Rain 10 1037 93 4000 5.14 90 15:31 20.12.2021
4745 Fog 9 1036 93 4000 1.03 0 13:31 20.12.2021
4746 Fog 8 1035 100 4000 2.06 110 11:47 20.12.2021
4747 Rain 8 1034 100 10000 1.54 120 10:35 20.12.2021
4748 Clouds 8 1034 100 10000 2.57 80 09:38 20.12.2021
4749 Clouds 8 1035 100 10000 1.54 50 08:49 20.12.2021
4750 Clouds 8 1035 100 10000 1.54 50 08:31 20.12.2021
4751 Fog 8 1035 100 4000 3.6 140 07:32 20.12.2021
4752 Fog 9 1036 93 4000 1.54 130 06:32 20.12.2021
4753 Fog 9 1036 93 4000 1.54 130 06:32 20.12.2021
4754 Rain 9 1034 93 10000 3.09 70 00:19 20.12.2021
4755 Rain 13 1034 62 10000 6.69 110 22:56 19.12.2021
4756 Rain 14 1034 54 10000 5.14 120 21:58 19.12.2021
4757 Rain 14 1034 54 10000 5.14 120 21:32 19.12.2021
4758 Rain 14 1035 58 10000 5.14 140 20:35 19.12.2021
4759 Rain 15 1036 50 10000 5.66 120 19:53 19.12.2021
4760 Rain 15 1036 50 10000 5.66 120 19:32 19.12.2021
4761 Clouds 16 1037 47 10000 5.66 120 18:35 19.12.2021
4762 Clouds 14 1038 62 10000 4.12 120 17:53 19.12.2021
4763 Clouds 14 1038 62 10000 4.12 120 17:27 19.12.2021
4764 Rain 12 1038 71 10000 2.57 130 16:27 19.12.2021
4765 Rain 12 1038 71 10000 2.57 130 16:27 19.12.2021
4766 Clouds 11 1038 71 10000 1.54 160 15:50 19.12.2021
4767 Clouds 11 1038 71 10000 1.54 160 15:23 19.12.2021
4768 Clouds 9 1038 81 10000 1.54 280 14:44 19.12.2021
4769 Clouds 7 1038 87 10000 2.06 300 13:26 19.12.2021
4770 Clouds 6 1037 93 10000 2.06 320 12:47 19.12.2021
4771 Clouds 6 1037 93 10000 2.06 320 12:28 19.12.2021
4772 Clouds 5 1036 100 10000 1.54 320 11:26 19.12.2021
4773 Clouds 5 1037 100 10000 3.09 250 10:28 19.12.2021
4774 Clouds 6 1037 100 10000 3.09 210 09:48 19.12.2021
4775 Fog 6 1037 100 4000 3.09 210 08:43 19.12.2021
4776 Clouds 9 1038 93 10000 4.63 210 04:45 19.12.2021
4777 Clouds 10 1037 87 8000 5.14 110 01:34 19.12.2021
4778 Clouds 11 1036 87 8000 5.66 130 00:53 19.12.2021
4779 Clouds 12 1035 81 10000 2.06 260 22:42 18.12.2021
4780 Clouds 10 1035 81 10000 1.03 0 21:58 18.12.2021
4781 Clouds 10 1035 81 10000 1.03 0 21:36 18.12.2021
4782 Clouds 10 1036 81 8000 3.09 110 20:44 18.12.2021
4783 Clouds 10 1036 81 8000 3.09 110 20:19 18.12.2021
4784 Clouds 16 1037 58 10000 2.57 280 19:25 18.12.2021
4785 Clouds 15 1038 58 10000 2.57 130 18:22 18.12.2021
4786 Clouds 13 1039 66 10000 3.09 130 17:48 18.12.2021
4787 Clouds 12 1039 66 10000 3.09 330 16:26 18.12.2021
4788 Clouds 13 1039 62 10000 2.06 240 15:27 18.12.2021
4789 Clouds 10 1039 76 10000 1.03 0 14:48 18.12.2021
4790 Clouds 9 1039 81 6000 2.06 210 13:21 18.12.2021
4791 Fog 7 1037 93 4000 2.06 210 11:22 18.12.2021
4792 Rain 7 1037 93 4000 2.57 190 09:40 18.12.2021
4793 Fog 7 1037 100 4000 2.06 180 08:47 18.12.2021
4794 Fog 7 1037 100 4000 2.06 180 08:23 18.12.2021
4795 Fog 9 1038 93 4000 2.06 70 03:42 18.12.2021
4796 Rain 9 1036 87 8000 1.03 0 00:29 18.12.2021
4797 Clouds 10 1035 87 8000 4.12 210 23:44 17.12.2021
4798 Clouds 13 1035 66 10000 4.63 140 21:57 17.12.2021
4799 Clouds 13 1035 66 10000 4.63 140 21:18 17.12.2021
4800 Clouds 14 1036 62 10000 4.63 90 20:38 17.12.2021
4801 Clouds 13 1037 71 10000 6.17 60 19:19 17.12.2021
4802 Rain 13 1038 62 10000 4.63 90 18:38 17.12.2021
4803 Clouds 13 1038 62 10000 4.12 150 17:31 17.12.2021
4804 Clouds 12 1039 66 10000 2.57 110 16:46 17.12.2021
4805 Clouds 12 1039 66 10000 2.57 110 16:22 17.12.2021
4806 Rain 11 1039 71 10000 3.09 170 15:21 17.12.2021
4807 Rain 11 1039 71 10000 3.09 170 15:21 17.12.2021
4808 Clouds 9 1039 81 10000 3.6 180 14:39 17.12.2021
4809 Fog 7 1038 93 4000 2.06 270 12:46 17.12.2021
4810 Fog 6 1037 100 4000 2.06 270 11:34 17.12.2021
4811 Fog 6 1037 100 4000 2.06 290 10:37 17.12.2021
4812 Fog 6 1037 100 4000 2.57 250 08:58 17.12.2021
4813 Fog 6 1037 100 4000 2.57 250 08:29 17.12.2021
4814 Clouds 6 1039 100 10000 3.09 250 05:58 17.12.2021
4815 Clouds 8 1038 93 8000 5.14 230 02:53 17.12.2021
4816 Clouds 10 1035 93 6000 4.63 80 23:23 16.12.2021
4817 Clouds 10 1034 87 10000 4.63 100 22:24 16.12.2021
4818 Clouds 10 1034 87 10000 4.63 100 22:24 16.12.2021
4819 Clouds 10 1034 87 10000 4.63 100 22:24 16.12.2021
4820 Clouds 10 1035 93 8000 4.12 110 21:50 16.12.2021
4821 Clouds 10 1035 93 8000 4.12 110 21:25 16.12.2021
4822 Clouds 11 1035 93 8000 4.63 110 20:28 16.12.2021
4823 Clouds 10 1037 87 6000 4.63 90 19:36 16.12.2021
4824 Clouds 9 1037 100 6000 3.09 60 18:38 16.12.2021
4825 Clouds 10 1038 81 8000 2.06 130 17:49 16.12.2021
4826 Rain 10 1038 81 8000 2.06 130 17:19 16.12.2021
4827 Clouds 8 1038 100 6000 2.57 160 16:20 16.12.2021
4828 Rain 9 1037 87 6000 1.03 0 14:50 16.12.2021
4829 Rain 7 1035 93 4000 1.03 0 12:48 16.12.2021
4830 Fog 6 1035 100 4000 1.03 0 11:19 16.12.2021
4831 Fog 6 1034 100 4000 1.54 80 10:46 16.12.2021
4832 Fog 6 1034 100 4000 1.54 90 09:52 16.12.2021
4833 Clouds 8 1035 93 10000 2.06 60 07:19 16.12.2021
4834 Fog 7 1036 100 4000 2.06 70 06:19 16.12.2021
4835 Clouds 13 1033 54 10000 2.57 130 00:44 16.12.2021
4836 Clouds 15 1032 50 10000 3.6 190 23:21 15.12.2021
4837 Clouds 16 1032 47 10000 2.06 120 22:26 15.12.2021
4838 Clouds 16 1033 51 10000 1.03 0 21:46 15.12.2021
4839 Clouds 16 1033 51 10000 1.03 0 21:26 15.12.2021
4840 Clouds 13 1035 62 10000 3.09 130 19:55 15.12.2021
4841 Rain 13 1035 62 10000 3.09 130 19:19 15.12.2021
4842 Rain 15 1035 58 10000 4.63 140 18:26 15.12.2021
4843 Clouds 14 1036 62 10000 4.63 130 17:47 15.12.2021
4844 Clouds 14 1036 62 10000 4.63 130 17:21 15.12.2021
4845 Clouds 13 1037 58 10000 2.06 150 15:59 15.12.2021
4846 Clouds 13 1037 58 10000 2.06 150 15:41 15.12.2021
4847 Clouds 13 1037 58 10000 2.06 150 15:23 15.12.2021
4848 Clouds 9 1037 87 6000 3.6 70 13:48 15.12.2021
4849 Fog 7 1035 93 4000 2.57 120 11:52 15.12.2021
4850 Clouds 7 1035 93 10000 2.06 70 10:22 15.12.2021
4851 Clouds 8 1035 81 10000 2.06 180 08:27 15.12.2021
4852 Clouds 8 1037 87 10000 2.57 110 05:54 15.12.2021
4853 Clouds 9 1033 76 10000 3.09 200 00:39 15.12.2021
4854 Clouds 9 1032 81 10000 3.6 70 23:31 14.12.2021
4855 Rain 8 1032 93 10000 6.17 70 22:45 14.12.2021
4856 Rain 8 1034 93 4000 7.72 90 21:43 14.12.2021
4857 Rain 9 1034 87 10000 6.17 80 20:23 14.12.2021
4858 Rain 9 1035 87 8000 4.63 70 19:37 14.12.2021
4859 Clouds 12 1035 71 8000 6.17 70 18:39 14.12.2021
4860 Clouds 14 1035 58 8000 3.6 150 17:56 14.12.2021
4861 Clouds 14 1035 47 8000 1.03 0 16:47 14.12.2021
4862 Clouds 14 1036 50 10000 3.6 230 16:28 14.12.2021
4863 Clouds 12 1037 62 10000 2.57 230 14:32 14.12.2021
4864 Clouds 10 1035 76 10000 1.03 0 12:58 14.12.2021
4865 Clouds 6 1035 93 10000 2.06 330 11:44 14.12.2021
4866 Clouds 6 1035 93 10000 2.06 330 11:20 14.12.2021
4867 Clouds 7 1033 93 10000 2.06 220 09:55 14.12.2021
4868 Clouds 9 1034 76 10000 2.57 220 08:58 14.12.2021
4869 Clouds 9 1034 76 10000 2.57 220 08:21 14.12.2021
4870 Clouds 10 1014 66 10000 2.92 336 07:23 14.12.2021
4871 Clouds 17 1031 25 10000 5.14 290 23:52 13.12.2021
4872 Clouds 18 1031 29 10000 3.09 230 22:26 13.12.2021
4873 Clouds 21 1031 24 10000 6.17 290 21:39 13.12.2021
4874 Clouds 21 1032 24 10000 4.12 260 20:54 13.12.2021
4875 Clouds 21 1032 24 10000 4.12 260 20:22 13.12.2021
4876 Clouds 20 1033 27 10000 4.63 250 19:49 13.12.2021
4877 Clouds 17 1034 31 10000 3.09 260 17:39 13.12.2021
4878 Clouds 17 1034 31 10000 3.09 260 17:18 13.12.2021
4879 Clouds 15 1035 33 10000 2.06 170 15:47 13.12.2021
4880 Clouds 13 1035 37 10000 2.06 250 14:43 13.12.2021
4881 Clouds 11 1035 40 10000 1.03 0 13:37 13.12.2021
4882 Clouds 8 1034 52 10000 0 0 12:40 13.12.2021
4883 Clouds 4 1034 80 10000 0 0 11:53 13.12.2021
4884 Clouds 4 1034 80 10000 0 0 11:34 13.12.2021
4885 Clouds 6 1033 70 10000 2.06 360 10:37 13.12.2021
4886 Clouds 6 1033 60 10000 1.03 0 08:44 13.12.2021
4887 Clouds 7 1033 45 10000 1.03 0 06:55 13.12.2021
4888 Clouds 7 1034 60 10000 1.03 0 05:19 13.12.2021
4889 Clouds 15 1030 30 10000 3.09 300 00:27 13.12.2021
4890 Clouds 17 1030 26 10000 6.17 280 21:59 12.12.2021
4891 Clouds 17 1030 26 10000 6.17 280 21:24 12.12.2021
4892 Clouds 17 1032 25 10000 4.63 300 19:36 12.12.2021
4893 Clouds 17 1033 31 10000 5.66 280 18:23 12.12.2021
4894 Clouds 13 1034 37 10000 2.06 270 16:40 12.12.2021
4895 Clouds 12 1034 37 10000 2.57 230 15:58 12.12.2021
4896 Clouds 12 1034 37 10000 2.57 230 15:28 12.12.2021
4897 Clouds 9 1034 57 10000 1.03 0 14:51 12.12.2021
4898 Clouds 9 1034 57 10000 1.03 0 14:18 12.12.2021
4899 Clouds 6 1033 60 10000 2.06 290 12:48 12.12.2021
4900 Clouds 4 1032 69 10000 1.03 0 11:59 12.12.2021
4901 Clouds 4 1032 69 10000 1.03 0 11:32 12.12.2021
4902 Clouds 4 1032 69 10000 1.03 0 10:44 12.12.2021
4903 Clouds 4 1032 69 10000 1.03 0 10:20 12.12.2021
4904 Clouds 5 1032 70 10000 1.03 0 08:46 12.12.2021
4905 Clouds 7 1032 60 10000 1.03 0 07:25 12.12.2021
4906 Clouds 7 1034 65 10000 1.03 0 05:29 12.12.2021
4907 Clouds 8 1034 56 10000 3.6 210 04:19 12.12.2021
4908 Clouds 12 1031 66 6000 4.63 250 00:54 12.12.2021
4909 Clouds 18 1029 44 10000 4.12 260 22:56 11.12.2021
4910 Clouds 18 1029 44 10000 4.12 260 22:20 11.12.2021
4911 Clouds 14 1030 54 10000 3.09 130 21:26 11.12.2021
4912 Clouds 17 1031 51 10000 4.63 300 20:18 11.12.2021
4913 Clouds 17 1031 55 10000 5.66 230 19:21 11.12.2021
4914 Clouds 15 1032 62 10000 4.12 240 18:42 11.12.2021
4915 Clouds 15 1033 58 10000 2.57 350 17:48 11.12.2021
4916 Clouds 12 1035 66 10000 1.03 0 15:58 11.12.2021
4917 Clouds 12 1035 66 10000 1.03 0 15:39 11.12.2021
4918 Clouds 10 1035 76 6000 2.57 310 14:35 11.12.2021
4919 Fog 8 1034 100 4000 1.03 0 12:29 11.12.2021
4920 Clouds 8 1033 100 10000 1.03 0 10:49 11.12.2021
4921 Clouds 8 1032 100 8000 1.03 220 09:40 11.12.2021
4922 Clouds 8 1035 100 8000 0 0 03:57 11.12.2021
4923 Rain 11 1033 76 8000 1.03 0 00:47 11.12.2021
4924 Clouds 12 1032 76 10000 4.12 120 23:42 10.12.2021
4925 Clouds 14 1031 71 10000 3.09 70 22:33 10.12.2021
4926 Clouds 10 1032 76 8000 2.57 110 21:40 10.12.2021
4927 Clouds 10 1034 87 8000 2.06 30 20:22 10.12.2021
4928 Clouds 14 1034 62 8000 6.17 60 19:18 10.12.2021
4929 Clouds 13 1035 66 10000 1.54 240 17:31 10.12.2021
4930 Clouds 14 1036 66 10000 3.09 90 16:34 10.12.2021
4931 Clouds 14 1037 62 10000 3.6 100 15:43 10.12.2021
4932 Clouds 14 1037 62 10000 3.6 100 15:24 10.12.2021
4933 Fog 10 1037 81 6000 3.09 70 13:53 10.12.2021
4934 Fog 10 1037 81 6000 3.09 70 13:31 10.12.2021
4935 Fog 8 1036 93 4000 1.03 0 12:51 10.12.2021
4936 Fog 7 1035 93 3000 1.03 0 11:36 10.12.2021
4937 Fog 8 1035 93 4000 1.03 0 10:55 10.12.2021
4938 Fog 8 1035 93 4000 1.03 0 09:33 10.12.2021
4939 Fog 7 1035 100 4000 2.06 80 07:24 10.12.2021
4940 Fog 10 1037 87 4000 2.57 210 02:53 10.12.2021
4941 Clouds 10 1036 87 10000 2.57 310 01:32 10.12.2021
4942 Clouds 12 1034 76 8000 5.66 100 23:39 09.12.2021
4943 Clouds 14 1033 71 10000 5.14 100 22:41 09.12.2021
4944 Rain 14 1033 71 10000 5.14 100 22:20 09.12.2021
4945 Rain 12 1034 81 10000 4.12 100 21:20 09.12.2021
4946 Rain 12 1035 76 10000 2.06 100 20:34 09.12.2021
4947 Clouds 12 1036 76 8000 1.03 0 19:22 09.12.2021
4948 Rain 11 1036 87 10000 2.06 140 18:53 09.12.2021
4949 Rain 10 1037 87 10000 4.12 270 17:57 09.12.2021
4950 Rain 10 1037 87 10000 4.12 270 17:28 09.12.2021
4951 Clouds 12 1038 76 10000 2.57 80 16:57 09.12.2021
4952 Clouds 12 1038 76 10000 2.57 80 16:20 09.12.2021
4953 Clouds 12 1038 76 6000 2.06 110 14:52 09.12.2021
4954 Fog 10 1038 87 4000 2.57 70 13:50 09.12.2021
4955 Fog 8 1037 93 4000 2.57 110 12:47 09.12.2021
4956 Rain 8 1037 93 4000 2.57 90 11:25 09.12.2021
4957 Fog 8 1036 100 3000 3.6 130 09:45 09.12.2021
4958 Fog 9 1037 93 4000 4.63 100 06:51 09.12.2021
4959 Fog 10 1037 100 3000 3.6 90 03:46 09.12.2021
4960 Clouds 13 1034 82 10000 3.6 80 23:46 08.12.2021
4961 Clouds 13 1034 82 10000 3.6 80 23:26 08.12.2021
4962 Clouds 13 1034 58 10000 1.03 0 22:50 08.12.2021
4963 Clouds 12 1034 71 10000 2.57 40 21:46 08.12.2021
4964 Clouds 12 1034 71 10000 2.57 40 21:28 08.12.2021
4965 Rain 11 1036 81 10000 3.6 350 20:19 08.12.2021
4966 Thunderstorm 11 1037 81 8000 6.17 40 19:37 08.12.2021
4967 Thunderstorm 15 1036 58 8000 4.12 70 18:53 08.12.2021
4968 Clouds 16 1038 62 10000 2.57 130 17:52 08.12.2021
4969 Clouds 13 1039 76 10000 2.57 100 15:58 08.12.2021
4970 Clouds 13 1039 76 10000 2.57 100 15:29 08.12.2021
4971 Fog 9 1039 100 4000 2.57 100 14:50 08.12.2021
4972 Fog 8 1038 100 3000 2.06 200 12:32 08.12.2021
4973 Fog 8 1037 100 4000 2.06 220 10:32 08.12.2021
4974 Fog 8 1037 93 4000 1.03 0 09:30 08.12.2021
4975 Clouds 8 1038 93 8000 2.06 260 07:29 08.12.2021
4976 Clouds 8 1040 93 10000 1.03 0 04:57 08.12.2021
4977 Clouds 14 1034 54 10000 4.12 60 23:34 07.12.2021
4978 Clouds 18 1034 48 10000 5.14 90 21:55 07.12.2021
4979 Clouds 18 1034 48 10000 5.14 90 21:23 07.12.2021
4980 Clouds 17 1036 47 10000 4.63 80 20:24 07.12.2021
4981 Clouds 12 1038 71 8000 4.63 10 18:47 07.12.2021
4982 Clouds 14 1039 58 10000 2.57 140 17:53 07.12.2021
4983 Clouds 14 1039 58 10000 2.57 140 17:20 07.12.2021
4984 Clouds 14 1040 62 10000 3.6 120 16:31 07.12.2021
4985 Clouds 13 1040 66 10000 1.54 110 15:34 07.12.2021
4986 Clouds 11 1040 71 10000 2.57 130 14:23 07.12.2021
4987 Fog 8 1039 87 4000 2.06 80 12:55 07.12.2021
4988 Fog 7 1039 93 4000 1.54 210 11:29 07.12.2021
4989 Fog 7 1038 100 4000 1.03 0 10:36 07.12.2021
4990 Fog 7 1038 100 4000 1.03 0 08:39 07.12.2021
4991 Fog 7 1039 100 3000 4.63 100 06:20 07.12.2021
4992 Fog 7 1040 93 4000 2.06 70 05:37 07.12.2021
4993 Clouds 11 1036 66 10000 5.66 50 23:47 06.12.2021
4994 Clouds 13 1036 62 10000 6.69 50 22:57 06.12.2021
4995 Clouds 13 1036 62 10000 6.69 50 22:35 06.12.2021
4996 Clouds 15 1036 54 10000 6.69 50 21:51 06.12.2021
4997 Clouds 15 1037 54 10000 7.2 60 20:33 06.12.2021
4998 Clouds 14 1038 62 10000 3.6 90 19:56 06.12.2021
4999 Clouds 14 1038 62 10000 3.6 90 19:21 06.12.2021
5000 Clouds 13 1038 71 10000 4.63 120 18:28 06.12.2021
5001 Clouds 12 1039 76 10000 4.63 110 17:40 06.12.2021
5002 Clouds 12 1039 76 10000 4.63 110 17:40 06.12.2021
5003 Clouds 13 1040 71 10000 3.09 80 16:32 06.12.2021
5004 Clouds 12 1040 76 6000 2.57 110 15:38 06.12.2021
5005 Clouds 9 1039 81 6000 3.6 100 13:46 06.12.2021
5006 Fog 9 1038 87 4000 4.12 80 12:39 06.12.2021
5007 Fog 7 1038 93 4000 2.06 100 11:36 06.12.2021
5008 Fog 8 1037 87 4000 1.54 40 08:46 06.12.2021
5009 Fog 9 1038 93 4000 2.57 110 06:40 06.12.2021
5010 Clouds 14 1036 71 10000 4.12 110 22:54 05.12.2021
5011 Clouds 14 1036 71 10000 3.6 150 21:43 05.12.2021
5012 Clouds 14 1036 71 10000 3.6 150 21:19 05.12.2021
5013 Clouds 13 1037 76 10000 4.12 120 20:19 05.12.2021
5014 Clouds 13 1038 71 10000 2.06 40 19:33 05.12.2021
5015 Clouds 10 1039 81 6000 1.03 0 18:43 05.12.2021
5016 Rain 10 1039 81 6000 1.03 0 18:19 05.12.2021
5017 Rain 9 1040 93 6000 1.03 0 17:48 05.12.2021
5018 Rain 9 1040 93 6000 0 0 16:45 05.12.2021
5019 Rain 9 1040 93 6000 0 0 16:26 05.12.2021
5020 Rain 8 1040 93 4000 1.03 0 14:49 05.12.2021
5021 Fog 8 1040 93 4000 1.03 0 14:31 05.12.2021
5022 Rain 7 1040 93 4000 1.03 0 13:50 05.12.2021
5023 Rain 7 1040 93 4000 1.03 0 13:22 05.12.2021
5024 Rain 7 1039 93 4000 1.03 0 12:31 05.12.2021
5025 Clouds 7 1038 93 6000 2.06 240 11:57 05.12.2021
5026 Rain 7 1038 93 6000 2.57 220 10:52 05.12.2021
5027 Rain 7 1038 93 10000 3.6 230 09:59 05.12.2021
5028 Rain 8 1038 100 10000 2.57 290 07:55 05.12.2021
5029 Clouds 10 1038 93 10000 1.03 0 02:28 05.12.2021
5030 Clouds 13 1035 71 10000 2.57 80 23:31 04.12.2021
5031 Clouds 14 1034 66 10000 4.12 130 21:54 04.12.2021
5032 Clouds 15 1036 67 10000 3.09 260 20:50 04.12.2021
5033 Clouds 14 1037 71 10000 2.57 260 19:54 04.12.2021
5034 Clouds 14 1037 71 10000 2.57 260 19:31 04.12.2021
5035 Clouds 10 1038 87 4000 8.23 300 17:58 04.12.2021
5036 Clouds 10 1038 87 4000 8.23 300 17:37 04.12.2021
5037 Clouds 13 1039 71 6000 2.57 120 16:48 04.12.2021
5038 Clouds 13 1039 71 6000 2.57 120 16:30 04.12.2021
5039 Clouds 13 1039 71 6000 2.57 120 16:30 04.12.2021
5040 Fog 9 1038 93 4000 3.6 120 14:39 04.12.2021
5041 Fog 8 1036 93 3000 3.6 110 11:47 04.12.2021
5042 Rain 8 1036 93 10000 4.12 90 11:29 04.12.2021
5043 Rain 8 1035 87 10000 2.06 320 10:42 04.12.2021
5044 Rain 8 1035 93 10000 2.06 270 08:45 04.12.2021
5045 Clouds 7 1036 93 10000 3.09 90 06:24 04.12.2021
5046 Rain 7 1038 100 4000 4.12 80 04:41 04.12.2021
5047 Clouds 13 1033 76 10000 3.6 110 23:49 03.12.2021
5048 Clouds 13 1033 76 10000 3.6 110 23:49 03.12.2021
5049 Clouds 13 1033 71 10000 4.63 80 22:57 03.12.2021
5050 Clouds 13 1033 71 10000 4.63 80 22:38 03.12.2021
5051 Clouds 14 1033 58 10000 3.6 300 21:25 03.12.2021
5052 Clouds 14 1034 58 10000 1.03 0 20:44 03.12.2021
5053 Clouds 10 1035 87 10000 2.57 30 19:36 03.12.2021
5054 Clouds 9 1036 87 8000 4.63 350 18:26 03.12.2021
5055 Rain 11 1037 71 6000 5.14 40 17:44 03.12.2021
5056 Clouds 11 1037 81 6000 2.57 270 14:20 03.12.2021
5057 Fog 8 1036 100 4000 2.57 260 12:52 03.12.2021
5058 Fog 8 1035 100 4000 2.06 260 11:24 03.12.2021
5059 Clouds 8 1034 93 10000 1.54 230 09:57 03.12.2021
5060 Rain 8 1034 93 10000 1.03 0 08:24 03.12.2021
5061 Clouds 8 1035 93 10000 1.03 0 07:37 03.12.2021
5062 Clouds 11 1035 76 10000 2.06 90 01:56 03.12.2021
5063 Rain 12 1034 71 10000 4.63 110 00:47 03.12.2021
5064 Clouds 14 1033 62 10000 3.6 110 23:44 02.12.2021
5065 Clouds 13 1033 62 10000 4.63 90 21:42 02.12.2021
5066 Clouds 14 1034 54 10000 4.12 40 20:57 02.12.2021
5067 Rain 14 1034 54 10000 4.12 40 20:37 02.12.2021
5068 Rain 15 1035 54 10000 5.14 100 19:25 02.12.2021
5069 Clouds 17 1037 41 10000 1.54 90 17:43 02.12.2021
5070 Fog 10 1038 93 4000 2.06 70 15:42 02.12.2021
5071 Fog 10 1037 93 4000 3.09 100 14:59 02.12.2021
5072 Fog 9 1036 100 4000 3.09 90 13:58 02.12.2021
5073 Fog 9 1036 93 4000 3.09 70 12:52 02.12.2021
5074 Fog 9 1036 93 4000 3.09 70 12:18 02.12.2021
5075 Fog 8 1034 100 4000 2.57 90 09:34 02.12.2021
5076 Fog 8 1034 100 4000 2.06 80 08:49 02.12.2021
5077 Fog 9 1036 100 4000 1.03 0 04:54 02.12.2021
5078 Clouds 13 1033 71 10000 2.06 120 00:52 02.12.2021
5079 Clouds 15 1032 54 10000 1.03 0 23:19 01.12.2021
5080 Clouds 16 1032 54 10000 3.09 310 22:23 01.12.2021
5081 Clouds 16 1033 51 10000 3.6 70 20:36 01.12.2021
5082 Clouds 18 1034 41 10000 4.63 90 19:53 01.12.2021
5083 Clouds 18 1034 41 10000 4.63 90 19:28 01.12.2021
5084 Clouds 16 1035 54 10000 2.06 140 17:45 01.12.2021
5085 Clouds 17 1036 55 10000 2.06 230 16:42 01.12.2021
5086 Clouds 14 1036 66 10000 1.03 0 14:52 01.12.2021
5087 Clouds 12 1035 81 6000 2.57 120 13:44 01.12.2021
5088 Clouds 10 1035 81 6000 2.06 100 12:30 01.12.2021
5089 Fog 7 1033 100 4000 2.57 70 10:42 01.12.2021
5090 Mist 8 1033 100 4000 2.57 80 09:19 01.12.2021
5091 Fog 8 1033 100 4000 2.57 90 08:26 01.12.2021
5092 Fog 8 1034 100 4000 3.09 90 07:33 01.12.2021
5093 Fog 10 1035 93 4000 1.54 90 05:51 01.12.2021
5094 Fog 10 1034 100 4000 3.09 90 03:41 01.12.2021
5095 Clouds 13 1032 71 10000 2.57 90 00:52 01.12.2021
5096 Clouds 14 1032 58 10000 1.03 0 23:45 30.11.2021
5097 Clouds 14 1032 58 10000 4.12 270 22:48 30.11.2021
5098 Clouds 16 1032 54 10000 2.57 110 20:59 30.11.2021
5099 Clouds 16 1032 54 10000 2.57 110 20:34 30.11.2021
5100 Clouds 16 1033 54 10000 4.12 100 19:53 30.11.2021
5101 Clouds 16 1033 54 10000 4.12 100 19:30 30.11.2021
5102 Clouds 17 1034 55 10000 4.12 110 18:33 30.11.2021
5103 Clouds 15 1036 67 10000 3.09 120 16:34 30.11.2021
5104 Fog 9 1036 93 4000 2.57 80 14:35 30.11.2021
5105 Fog 9 1035 93 4000 3.09 100 13:52 30.11.2021
5106 Fog 9 1035 93 4000 3.09 100 13:24 30.11.2021
5107 Fog 9 1035 93 4000 3.09 100 13:24 30.11.2021
5108 Fog 8 1035 100 4000 3.09 80 12:44 30.11.2021
5109 Fog 8 1034 100 4000 2.57 90 11:27 30.11.2021
5110 Fog 8 1033 100 2000 2.06 90 10:47 30.11.2021
5111 Fog 8 1033 100 2000 2.06 90 10:29 30.11.2021
5112 Fog 8 1033 100 3000 4.12 90 08:51 30.11.2021
5113 Fog 8 1033 100 3000 4.12 90 08:20 30.11.2021
5114 Fog 9 1033 93 4000 3.6 120 07:39 30.11.2021
5115 Clouds 11 1033 81 10000 2.06 100 01:52 30.11.2021
5116 Clouds 11 1033 81 10000 2.06 100 01:32 30.11.2021
5117 Clouds 16 1031 51 10000 2.06 290 23:57 29.11.2021
5118 Clouds 16 1031 51 10000 2.06 290 23:21 29.11.2021
5119 Clouds 15 1031 54 10000 2.57 270 22:44 29.11.2021
5120 Clouds 15 1031 54 10000 2.57 270 22:25 29.11.2021
5121 Clouds 15 1032 54 10000 2.06 350 21:22 29.11.2021
5122 Clouds 14 1033 62 10000 3.09 270 20:56 29.11.2021
5123 Clouds 14 1033 62 10000 3.09 270 20:22 29.11.2021
5124 Clouds 12 1034 66 10000 3.09 350 19:44 29.11.2021
5125 Clouds 12 1034 66 10000 3.09 350 19:26 29.11.2021
5126 Rain 12 1011 67 5894 2.84 13 18:47 29.11.2021
5127 Rain 14 1011 57 10000 1.53 151 17:22 29.11.2021
5128 Rain 14 1011 57 10000 1.53 151 16:56 29.11.2021
5129 Rain 13 1012 57 9482 2.38 174 16:25 29.11.2021
5130 Rain 12 1014 62 10000 2.07 158 15:24 29.11.2021
5131 Rain 12 1014 62 10000 2.07 158 14:41 29.11.2021
5132 Rain 9 1016 80 10000 2.61 111 13:25 29.11.2021
5133 Clouds 9 1015 82 10000 2.22 107 12:20 29.11.2021
5134 Clouds 9 1015 82 10000 2.22 107 11:31 29.11.2021
5135 Clouds 9 1013 83 10000 2.06 110 10:27 29.11.2021
5136 Fog 10 1034 81 4000 2.06 310 07:48 29.11.2021
5137 Rain 10 1034 93 10000 1.03 0 05:52 29.11.2021
5138 Clouds 12 1033 71 10000 1.03 0 01:31 29.11.2021
5139 Clouds 12 1031 81 10000 2.57 70 00:35 29.11.2021
5140 Clouds 13 1031 66 10000 1.03 0 23:41 28.11.2021
5141 Rain 13 1032 71 10000 3.09 310 22:29 28.11.2021
5142 Rain 14 1032 62 10000 3.6 300 21:41 28.11.2021
5143 Rain 14 1032 58 10000 3.6 350 20:44 28.11.2021
5144 Rain 13 1033 66 10000 4.12 330 19:53 28.11.2021
5145 Rain 14 1033 66 8000 3.09 30 18:40 28.11.2021
5146 Clouds 14 1033 66 8000 3.09 30 18:22 28.11.2021
5147 Clouds 17 1034 47 10000 3.09 190 17:45 28.11.2021
5148 Clouds 16 1035 47 10000 3.09 260 16:48 28.11.2021
5149 Clouds 16 1035 47 10000 3.09 260 16:28 28.11.2021
5150 Clouds 16 1035 47 10000 3.09 260 16:28 28.11.2021
5151 Clouds 15 1035 54 10000 2.57 250 15:50 28.11.2021
5152 Clouds 13 1035 66 10000 3.09 250 14:56 28.11.2021
5153 Clouds 13 1035 66 10000 3.09 250 14:28 28.11.2021
5154 Clouds 13 1035 66 10000 3.09 250 14:28 28.11.2021
5155 Clouds 11 1034 76 10000 0 0 12:54 28.11.2021
5156 Clouds 7 1034 93 10000 1.54 340 11:39 28.11.2021
5157 Clouds 8 1033 87 10000 2.06 320 10:34 28.11.2021
5158 Clouds 7 1033 93 10000 2.06 280 09:51 28.11.2021
5159 Clouds 7 1033 93 10000 2.06 280 09:30 28.11.2021
5160 Clouds 13 1034 66 8000 4.12 280 00:53 28.11.2021
5161 Clouds 15 1032 50 10000 4.12 290 22:58 27.11.2021
5162 Clouds 17 1034 41 10000 8.23 80 19:51 27.11.2021
5163 Clouds 18 1034 36 10000 7.72 60 18:26 27.11.2021
5164 Clouds 14 1036 58 10000 5.14 90 16:19 27.11.2021
5165 Clouds 14 1036 58 10000 4.12 50 14:51 27.11.2021
5166 Clouds 12 1036 57 10000 7.2 50 13:39 27.11.2021
5167 Fog 7 1035 100 4000 1.54 90 11:37 27.11.2021
5168 Fog 7 1035 100 4000 2.57 100 10:19 27.11.2021
5169 Fog 7 1035 100 4000 3.09 130 09:18 27.11.2021
5170 Fog 8 1036 93 4000 3.09 120 06:59 27.11.2021
5171 Rain 8 1037 93 10000 4.63 120 04:53 27.11.2021
5172 Fog 9 1035 87 4000 3.6 120 00:25 27.11.2021
5173 Rain 10 1034 81 10000 4.12 110 22:51 26.11.2021
5174 Rain 10 1034 81 10000 4.12 110 22:24 26.11.2021
5175 Rain 11 1035 81 10000 3.09 110 21:31 26.11.2021
5176 Clouds 11 1035 76 10000 3.6 130 20:41 26.11.2021
5177 Clouds 9 1036 93 9000 4.12 140 19:56 26.11.2021
5178 Clouds 8 1037 93 6000 3.09 140 18:47 26.11.2021
5179 Clouds 9 1038 87 6000 2.06 70 17:45 26.11.2021
5180 Clouds 9 1038 87 6000 2.06 70 17:21 26.11.2021
5181 Rain 8 1038 87 6000 1.03 0 15:22 26.11.2021
5182 Rain 7 1038 93 6000 2.57 60 13:35 26.11.2021
5183 Rain 7 1036 93 8000 6.69 70 10:45 26.11.2021
5184 Rain 7 1036 93 4000 6.17 100 09:54 26.11.2021
5185 Rain 8 1036 93 4000 4.12 130 08:53 26.11.2021
5186 Rain 8 1036 93 4000 4.12 130 08:20 26.11.2021
5187 Clouds 9 1037 87 8000 3.6 160 06:41 26.11.2021
5188 Clouds 9 1037 87 8000 3.6 160 06:22 26.11.2021
5189 Clouds 12 1037 76 10000 3.09 150 03:44 26.11.2021
5190 Clouds 12 1034 62 10000 1.03 0 00:47 26.11.2021
5191 Clouds 12 1033 76 10000 3.6 280 22:36 25.11.2021
5192 Clouds 17 1033 41 8000 3.6 60 20:53 25.11.2021
5193 Clouds 20 1034 25 10000 2.57 140 19:35 25.11.2021
5194 Clouds 21 1035 22 10000 3.6 130 18:35 25.11.2021
5195 Clouds 19 1036 36 10000 3.09 180 17:28 25.11.2021
5196 Clouds 16 1037 47 10000 3.09 290 16:56 25.11.2021
5197 Clouds 16 1037 47 10000 3.09 290 16:25 25.11.2021
5198 Clouds 13 1038 62 10000 1.03 0 14:44 25.11.2021
5199 Clouds 11 1038 71 6000 1.03 0 13:20 25.11.2021
5200 Fog 9 1037 93 4000 1.03 0 12:19 25.11.2021
5201 Clouds 8 1036 93 10000 1.03 0 10:50 25.11.2021
5202 Clouds 8 1035 93 10000 2.06 240 08:30 25.11.2021
5203 Rain 9 1038 93 10000 4.63 190 03:42 25.11.2021
5204 Clouds 10 1038 81 8000 4.63 200 02:43 25.11.2021
5205 Clouds 19 1033 27 10000 5.66 110 22:41 24.11.2021
5206 Clouds 20 1034 29 10000 3.09 110 21:57 24.11.2021
5207 Clouds 20 1034 29 10000 3.09 110 21:26 24.11.2021
5208 Clouds 17 1035 41 10000 4.12 110 20:28 24.11.2021
5209 Clouds 17 1035 41 10000 4.12 110 20:28 24.11.2021
5210 Clouds 18 1036 39 10000 4.63 110 19:40 24.11.2021
5211 Clouds 17 1037 44 10000 5.66 120 18:29 24.11.2021
5212 Clouds 15 1039 54 10000 6.17 120 16:48 24.11.2021
5213 Clouds 13 1039 62 8000 5.14 120 15:22 24.11.2021
5214 Clouds 12 1040 66 6000 3.6 120 14:30 24.11.2021
5215 Clouds 11 1039 76 6000 3.6 130 13:43 24.11.2021
5216 Fog 8 1037 93 4000 2.06 70 11:36 24.11.2021
5217 Fog 8 1037 93 4000 2.06 70 11:18 24.11.2021
5218 Fog 8 1037 93 4000 1.54 150 10:36 24.11.2021
5219 Fog 6 1037 93 4000 1.03 0 09:35 24.11.2021
5220 Fog 6 1037 87 4000 2.57 60 07:41 24.11.2021
5221 Clouds 10 1039 61 10000 4.63 40 05:41 24.11.2021
5222 Clouds 11 1038 57 10000 5.14 50 03:44 24.11.2021
5223 Clouds 14 1035 47 10000 5.66 50 23:35 23.11.2021
5224 Rain 14 1035 43 10000 5.14 40 22:39 23.11.2021
5225 Rain 13 1036 54 10000 7.2 30 21:45 23.11.2021
5226 Rain 18 1035 31 10000 7.72 60 20:23 23.11.2021
5227 Clouds 19 1036 31 10000 6.69 90 19:34 23.11.2021
5228 Clouds 19 1037 36 10000 7.2 110 18:34 23.11.2021
5229 Clouds 19 1037 34 10000 5.66 90 17:41 23.11.2021
5230 Clouds 19 1037 34 10000 5.66 90 17:41 23.11.2021
5231 Clouds 16 1038 47 10000 4.12 140 16:37 23.11.2021
5232 Clouds 13 1039 66 10000 4.12 130 15:27 23.11.2021
5233 Clouds 12 1039 71 6000 4.63 110 14:54 23.11.2021
5234 Clouds 11 1038 71 6000 3.6 120 13:20 23.11.2021
5235 Fog 8 1036 93 4000 3.09 100 10:28 23.11.2021
5236 Fog 8 1036 93 4000 3.09 100 10:28 23.11.2021
5237 Fog 9 1036 93 4000 3.6 100 09:47 23.11.2021
5238 Fog 8 1036 100 4000 2.57 90 08:41 23.11.2021
5239 Clouds 11 1038 76 10000 4.12 110 04:53 23.11.2021
5240 Clouds 11 1037 61 10000 4.63 60 03:35 23.11.2021
5241 Clouds 18 1032 39 10000 4.12 110 23:41 22.11.2021
5242 Clouds 18 1032 39 10000 4.12 110 23:20 22.11.2021
5243 Clouds 19 1032 31 10000 4.12 70 22:30 22.11.2021
5244 Clouds 20 1033 32 10000 5.14 70 21:45 22.11.2021
5245 Clouds 20 1033 32 10000 5.14 70 21:19 22.11.2021
5246 Clouds 21 1034 30 10000 5.14 80 20:27 22.11.2021
5247 Clouds 20 1035 27 10000 4.12 130 19:20 22.11.2021
5248 Clouds 20 1036 24 10000 4.12 140 18:41 22.11.2021
5249 Clouds 17 1010 37 10000 3.24 102 17:48 22.11.2021
5250 Clouds 17 1011 35 10000 2.37 121 16:31 22.11.2021
5251 Clouds 14 1015 41 10000 1.15 153 15:29 22.11.2021
5252 Clouds 9 1018 61 10000 0.34 114 12:51 22.11.2021
5253 Clouds 8 1018 70 10000 0.75 76 11:34 22.11.2021
5254 Clouds 6 1018 76 10000 1.67 56 10:22 22.11.2021
5255 Clouds 6 1017 75 10000 1.84 50 08:43 22.11.2021
5256 Fog 6 1035 93 4000 3.09 90 07:33 22.11.2021
5257 Clouds 10 1035 66 10000 3.09 70 01:36 22.11.2021
5258 Clouds 15 1033 47 10000 5.66 100 23:20 21.11.2021
5259 Rain 16 1033 47 10000 6.17 110 22:42 21.11.2021
5260 Clouds 21 1034 34 10000 4.63 130 20:44 21.11.2021
5261 Clouds 21 1034 34 10000 4.63 130 20:26 21.11.2021
5262 Clouds 19 1036 39 10000 3.6 150 18:53 21.11.2021
5263 Clouds 18 1037 41 10000 3.09 140 17:52 21.11.2021
5264 Clouds 18 1037 41 10000 3.09 140 17:29 21.11.2021
5265 Clouds 12 1039 62 10000 5.14 110 14:49 21.11.2021
5266 Clouds 12 1039 62 10000 5.14 110 14:18 21.11.2021
5267 Fog 8 1038 87 4000 4.12 100 12:55 21.11.2021
5268 Fog 8 1038 87 4000 4.12 100 12:19 21.11.2021
5269 Fog 5 1037 93 4000 4.12 90 11:36 21.11.2021
5270 Fog 5 1036 100 4000 4.12 80 10:19 21.11.2021
5271 Fog 5 1036 100 4000 3.6 80 09:44 21.11.2021
5272 Fog 3 1036 100 4000 2.57 90 08:31 21.11.2021
5273 Fog 3 1037 100 4000 2.06 100 07:51 21.11.2021
5274 Fog 4 1037 93 4000 1.54 70 06:26 21.11.2021
5275 Clouds 4 1038 93 10000 1.54 70 05:39 21.11.2021
5276 Clouds 8 1037 81 10000 2.57 120 03:21 21.11.2021
5277 Clouds 8 1036 81 10000 3.6 80 02:54 21.11.2021
5278 Clouds 11 1035 61 10000 4.12 80 01:25 21.11.2021
5279 Clouds 12 1010 46 10000 6.17 80 00:41 21.11.2021
5280 Clouds 16 1033 41 10000 5.14 110 21:55 20.11.2021
5281 Clouds 16 1033 41 10000 5.14 110 21:30 20.11.2021
5282 Clouds 18 1034 36 10000 7.2 120 19:46 20.11.2021
5283 Clouds 18 1035 39 10000 3.6 140 18:45 20.11.2021
5284 Clouds 18 1035 39 10000 3.6 140 18:19 20.11.2021
5285 Clouds 17 1036 44 10000 4.12 130 17:21 20.11.2021
5286 Clouds 12 1038 66 6000 4.12 120 14:51 20.11.2021
5287 Clouds 12 1038 66 6000 4.12 120 14:28 20.11.2021
5288 Clouds 11 1037 76 6000 2.06 120 13:35 20.11.2021
5289 Fog 7 1035 100 4000 3.09 90 11:25 20.11.2021
5290 Fog 6 1035 100 4000 3.6 60 09:56 20.11.2021
5291 Fog 7 1035 100 4000 3.6 100 08:32 20.11.2021
5292 Fog 7 1036 100 4000 2.57 90 06:32 20.11.2021
5293 Clouds 8 1037 87 10000 1.03 0 04:51 20.11.2021
5294 Clouds 10 1036 66 10000 2.57 350 03:54 20.11.2021
5295 Clouds 11 1033 61 10000 9.26 100 00:42 20.11.2021
5296 Clouds 12 1033 57 8000 6.69 60 23:45 19.11.2021
5297 Clouds 12 1034 57 10000 7.2 290 22:53 19.11.2021
5298 Clouds 16 1032 33 10000 7.2 60 21:24 19.11.2021
5299 Clouds 19 1033 25 10000 7.2 90 20:40 19.11.2021
5300 Clouds 19 1033 25 10000 7.2 90 20:22 19.11.2021
5301 Clouds 17 1034 33 10000 6.17 70 19:43 19.11.2021
5302 Clouds 16 1035 41 10000 5.66 50 18:45 19.11.2021
5303 Clouds 17 1035 44 10000 3.6 90 17:44 19.11.2021
5304 Clouds 18 1036 41 10000 3.09 100 16:40 19.11.2021
5305 Clouds 13 1036 62 8000 2.06 150 14:51 19.11.2021
5306 Fog 7 1034 93 4000 2.57 130 11:32 19.11.2021
5307 Fog 7 1033 93 4000 3.09 100 10:23 19.11.2021
5308 Fog 8 1034 93 4000 3.09 110 08:32 19.11.2021
5309 Clouds 7 1034 70 10000 1.03 0 05:36 19.11.2021
5310 Clouds 11 1034 71 10000 2.57 110 03:37 19.11.2021
5311 Clouds 19 1029 22 10000 4.12 110 23:54 18.11.2021
5312 Clouds 21 1029 9 10000 3.6 260 22:49 18.11.2021
5313 Clouds 22 1031 13 10000 3.6 330 20:57 18.11.2021
5314 Clouds 22 1031 13 10000 3.6 330 20:39 18.11.2021
5315 Clouds 22 1031 13 10000 3.6 330 20:19 18.11.2021
5316 Clouds 22 1032 13 10000 3.6 200 19:36 18.11.2021
5317 Clouds 20 1033 17 10000 3.6 220 18:35 18.11.2021
5318 Clouds 19 1034 23 10000 3.09 290 17:52 18.11.2021
5319 Clouds 17 1035 29 10000 3.09 230 16:46 18.11.2021
5320 Clouds 15 1036 33 10000 1.03 0 15:52 18.11.2021
5321 Clouds 14 1036 35 10000 1.03 0 14:40 18.11.2021
5322 Clouds 9 1034 61 10000 1.54 20 12:55 18.11.2021
5323 Clouds 5 1034 75 10000 1.03 0 11:44 18.11.2021
5324 Clouds 5 1034 75 10000 1.03 0 11:25 18.11.2021
5325 Clouds 6 1033 70 10000 2.06 10 10:22 18.11.2021
5326 Clouds 7 1033 87 10000 1.03 0 08:26 18.11.2021
5327 Clouds 6 1034 93 10000 2.57 80 06:39 18.11.2021
5328 Clouds 7 1035 81 10000 1.54 70 05:43 18.11.2021
5329 Clouds 11 1033 76 10000 5.66 110 01:25 18.11.2021
5330 Clouds 13 1031 50 10000 4.12 30 23:30 17.11.2021
5331 Clouds 15 1030 50 8000 6.69 80 22:39 17.11.2021
5332 Rain 15 1030 50 8000 6.69 80 22:19 17.11.2021
5333 Clouds 18 1030 36 10000 3.6 50 21:35 17.11.2021
5334 Clouds 21 1032 24 10000 4.12 160 19:42 17.11.2021
5335 Clouds 17 1034 44 10000 2.06 120 17:35 17.11.2021
5336 Clouds 14 1036 62 10000 1.03 0 15:55 17.11.2021
5337 Clouds 11 1035 81 6000 2.57 150 13:18 17.11.2021
5338 Fog 9 1035 93 4000 1.54 90 12:36 17.11.2021
5339 Fog 9 1033 93 4000 3.6 120 10:52 17.11.2021
5340 Fog 9 1033 93 4000 3.6 110 09:37 17.11.2021
5341 Clouds 10 1034 87 10000 2.06 120 07:46 17.11.2021
5342 Clouds 10 1034 87 10000 2.06 120 07:23 17.11.2021
5343 Clouds 13 1034 40 10000 5.14 100 02:48 17.11.2021
5344 Clouds 15 1031 54 10000 7.2 120 23:58 16.11.2021
5345 Clouds 18 1030 31 10000 2.57 120 22:25 16.11.2021
5346 Clouds 20 1032 25 10000 5.14 140 20:19 16.11.2021
5347 Clouds 20 1033 27 10000 4.12 120 19:37 16.11.2021
5348 Clouds 19 1034 29 10000 3.6 150 18:43 16.11.2021
5349 Clouds 18 1035 41 10000 2.06 130 17:44 16.11.2021
5350 Clouds 17 1036 44 10000 2.06 130 16:59 16.11.2021
5351 Clouds 17 1036 44 10000 2.06 130 16:19 16.11.2021
5352 Clouds 15 1036 50 10000 1.03 0 15:41 16.11.2021
5353 Clouds 11 1036 71 10000 2.57 100 13:42 16.11.2021
5354 Clouds 6 1034 100 10000 1.03 0 10:22 16.11.2021
5355 Clouds 7 1033 93 10000 3.09 90 09:39 16.11.2021
5356 Clouds 7 1034 87 10000 2.57 100 07:41 16.11.2021
5357 Clouds 9 1034 76 10000 2.06 110 06:43 16.11.2021
5358 Clouds 12 1032 57 10000 5.14 40 23:26 15.11.2021
5359 Rain 11 1032 66 10000 6.69 50 22:40 15.11.2021
5360 Rain 11 1032 76 8000 7.2 130 21:56 15.11.2021
5361 Rain 11 1032 76 8000 7.2 130 21:30 15.11.2021
5362 Clouds 14 1032 50 8000 8.75 150 20:35 15.11.2021
5363 Clouds 20 1033 25 10000 3.09 190 19:18 15.11.2021
5364 Clouds 17 1035 41 10000 2.06 270 17:31 15.11.2021
5365 Clouds 13 1036 66 10000 1.03 0 15:50 15.11.2021
5366 Rain 13 1036 66 10000 1.03 0 15:32 15.11.2021
5367 Clouds 12 1036 76 10000 3.6 90 14:18 15.11.2021
5368 Fog 9 1034 81 4000 1.03 0 12:21 15.11.2021
5369 Fog 6 1033 93 4000 1.54 110 09:31 15.11.2021
5370 Clouds 7 1033 70 10000 1.03 0 08:57 15.11.2021
5371 Clouds 10 1034 57 10000 2.06 10 06:32 15.11.2021
5372 Clouds 13 1033 50 10000 2.06 260 00:34 15.11.2021
5373 Clouds 16 1032 41 10000 1.54 240 22:41 14.11.2021
5374 Clouds 17 1032 38 10000 3.6 40 21:18 14.11.2021
5375 Clouds 17 1034 44 10000 4.12 100 19:18 14.11.2021
5376 Clouds 17 1035 44 10000 4.12 120 18:54 14.11.2021
5377 Clouds 17 1035 44 10000 4.12 120 18:36 14.11.2021
5378 Clouds 17 1035 44 10000 4.12 120 18:18 14.11.2021
5379 Rain 17 1035 44 10000 4.63 110 17:57 14.11.2021
5380 Clouds 17 1035 44 10000 4.63 110 17:39 14.11.2021
5381 Clouds 17 1035 44 10000 4.63 110 17:21 14.11.2021
5382 Clouds 17 1036 47 10000 3.6 160 16:52 14.11.2021
5383 Clouds 17 1036 47 10000 3.6 160 16:22 14.11.2021
5384 Clouds 14 1037 58 10000 3.09 140 15:52 14.11.2021
5385 Clouds 14 1037 58 10000 3.09 140 15:19 14.11.2021
5386 Clouds 14 1037 54 8000 1.54 180 14:34 14.11.2021
5387 Clouds 12 1015 56 10000 1.66 217 14:00 14.11.2021
5388 Clouds 11 1037 76 10000 2.06 90 13:40 14.11.2021
5389 Clouds 9 1036 93 6000 2.06 70 12:45 14.11.2021
5390 Clouds 9 1036 93 6000 2.06 70 12:20 14.11.2021
5391 Fog 8 1034 93 4000 1.03 0 10:52 14.11.2021
5392 Fog 8 1034 93 4000 1.03 0 10:27 14.11.2021
5393 Clouds 8 1034 81 10000 1.03 0 08:58 14.11.2021
5394 Clouds 8 1034 81 10000 1.03 0 08:23 14.11.2021
5395 Clouds 13 1035 62 10000 2.57 160 02:20 14.11.2021
5396 Clouds 14 1032 54 10000 7.2 140 22:28 13.11.2021
5397 Clouds 14 1032 54 10000 7.2 140 22:28 13.11.2021
5398 Clouds 20 1032 32 10000 4.12 150 21:58 13.11.2021
5399 Clouds 20 1032 32 10000 4.12 150 21:27 13.11.2021
5400 Clouds 16 1032 41 10000 4.63 320 20:24 13.11.2021
5401 Clouds 17 1034 36 10000 4.12 150 18:48 13.11.2021
5402 Clouds 17 1034 36 10000 4.12 150 18:26 13.11.2021
5403 Clouds 16 1036 38 10000 3.6 160 16:48 13.11.2021
5404 Clouds 14 1037 54 10000 4.12 110 15:41 13.11.2021
5405 Clouds 13 1037 62 10000 3.09 110 14:34 13.11.2021
5406 Clouds 11 1037 71 6000 1.03 0 13:45 13.11.2021
5407 Fog 7 1036 100 4000 1.54 110 12:33 13.11.2021
5408 Fog 6 1035 93 4000 1.54 110 11:38 13.11.2021
5409 Fog 6 1035 93 4000 2.57 80 10:45 13.11.2021
5410 Fog 6 1035 93 4000 2.57 80 10:23 13.11.2021
5411 Fog 7 1035 100 4000 4.12 90 09:38 13.11.2021
5412 Fog 8 1036 93 4000 3.09 100 08:56 13.11.2021
5413 Fog 8 1036 93 4000 3.09 100 08:31 13.11.2021
5414 Clouds 6 1038 93 10000 0 0 05:59 13.11.2021
5415 Clouds 9 1038 70 10000 2.57 260 04:30 13.11.2021
5416 Clouds 12 1037 71 10000 4.12 110 01:38 13.11.2021
5417 Clouds 14 1034 54 10000 3.6 320 22:59 12.11.2021
5418 Clouds 13 1034 62 10000 4.63 320 21:49 12.11.2021
5419 Clouds 16 1035 44 10000 4.63 100 20:18 12.11.2021
5420 Clouds 19 1035 36 10000 7.2 120 19:28 12.11.2021
5421 Clouds 16 1037 47 10000 6.69 90 18:46 12.11.2021
5422 Clouds 16 1038 41 10000 4.63 140 16:39 12.11.2021
5423 Clouds 14 1039 58 10000 2.06 140 15:33 12.11.2021
5424 Mist 8 1038 93 2000 4.12 110 12:54 12.11.2021
5425 Mist 8 1038 93 2000 4.12 110 12:54 12.11.2021
5426 Fog 8 1037 93 4000 2.57 110 10:51 12.11.2021
5427 Fog 8 1036 93 3000 3.09 120 09:45 12.11.2021
5428 Fog 8 1036 93 4000 4.12 110 08:39 12.11.2021
5429 Rain 10 1037 71 10000 3.09 80 03:18 12.11.2021
5430 Clouds 17 1033 44 10000 3.6 50 23:42 11.11.2021
5431 Clouds 19 1032 36 10000 1.03 0 22:39 11.11.2021
5432 Clouds 18 1033 39 10000 1.03 0 21:28 11.11.2021
5433 Clouds 17 1034 44 10000 2.57 90 20:42 11.11.2021
5434 Clouds 17 1035 44 10000 3.6 110 19:24 11.11.2021
5435 Clouds 16 1037 51 10000 1.54 120 17:44 11.11.2021
5436 Clouds 14 1038 62 10000 2.06 80 16:58 11.11.2021
5437 Clouds 13 1039 66 10000 2.06 190 14:58 11.11.2021
5438 Clouds 13 1039 66 10000 2.06 190 14:29 11.11.2021
5439 Clouds 10 1038 71 6000 2.06 70 13:40 11.11.2021
5440 Fog 8 1037 87 4000 2.57 50 12:51 11.11.2021
5441 Fog 7 1036 100 4000 2.57 110 10:58 11.11.2021
5442 Fog 7 1036 100 4000 3.09 110 09:39 11.11.2021
5443 Fog 7 1035 100 4000 3.09 90 07:59 11.11.2021
5444 Fog 7 1036 93 4000 3.09 100 05:55 11.11.2021
5445 Clouds 12 1032 66 10000 6.17 60 23:45 10.11.2021
5446 Clouds 14 1031 62 10000 3.6 100 22:24 10.11.2021
5447 Clouds 17 1031 38 10000 2.57 60 21:31 10.11.2021
5448 Clouds 19 1032 36 10000 4.12 80 20:47 10.11.2021
5449 Clouds 17 1034 41 10000 6.17 80 19:47 10.11.2021
5450 Clouds 17 1034 41 10000 6.17 80 19:27 10.11.2021
5451 Clouds 15 1036 47 10000 5.14 130 16:38 10.11.2021
5452 Clouds 14 1037 47 10000 2.06 140 15:40 10.11.2021
5453 Clouds 10 1037 76 6000 2.57 140 13:51 10.11.2021
5454 Fog 9 1036 87 4000 3.6 110 12:59 10.11.2021
5455 Fog 7 1034 93 4000 3.6 80 10:56 10.11.2021
5456 Fog 8 1034 93 4000 4.63 110 08:47 10.11.2021
5457 Fog 9 1035 87 4000 3.6 90 07:48 10.11.2021
5458 Clouds 9 1035 81 10000 2.06 40 06:26 10.11.2021
5459 Clouds 7 1036 100 10000 2.06 70 05:51 10.11.2021
5460 Clouds 15 1032 47 10000 5.14 70 23:55 09.11.2021
5461 Clouds 21 1032 27 10000 3.09 40 21:50 09.11.2021
5462 Clouds 21 1032 27 10000 3.09 40 21:50 09.11.2021
5463 Clouds 20 1032 24 10000 3.6 140 20:32 09.11.2021
5464 Clouds 20 1032 24 10000 3.6 140 20:32 09.11.2021
5465 Clouds 19 1034 25 10000 4.12 100 19:25 09.11.2021
5466 Clouds 18 1036 31 10000 3.6 140 17:44 09.11.2021
5467 Clouds 14 1038 50 10000 3.6 130 15:45 09.11.2021
5468 Clouds 13 1038 54 10000 3.6 120 14:43 09.11.2021
5469 Clouds 8 1037 87 6000 4.12 80 12:53 09.11.2021
5470 Clouds 8 1037 87 6000 4.12 80 12:53 09.11.2021
5471 Fog 6 1036 93 4000 4.12 80 11:56 09.11.2021
5472 Fog 7 1035 93 4000 4.63 90 10:45 09.11.2021
5473 Fog 7 1034 93 4000 4.12 80 09:28 09.11.2021
5474 Clouds 7 1034 81 10000 2.06 80 08:26 09.11.2021
5475 Clouds 8 1036 70 10000 1.03 0 05:56 09.11.2021
5476 Clouds 9 1034 45 10000 3.09 80 02:23 09.11.2021
5477 Clouds 13 1033 37 10000 4.12 80 01:46 09.11.2021
5478 Clouds 18 1032 25 10000 4.12 50 23:58 08.11.2021
5479 Clouds 19 1031 23 10000 4.63 70 22:50 08.11.2021
5480 Clouds 21 1032 19 10000 6.17 50 21:59 08.11.2021
5481 Clouds 20 1033 20 10000 5.66 100 20:56 08.11.2021
5482 Clouds 21 1034 18 10000 4.63 140 19:52 08.11.2021
5483 Clouds 20 1035 22 10000 4.12 120 18:56 08.11.2021
5484 Clouds 16 1037 35 10000 4.63 110 16:34 08.11.2021
5485 Clouds 14 1037 54 10000 4.63 110 15:25 08.11.2021
5486 Clouds 12 1037 66 6000 4.63 100 14:40 08.11.2021
5487 Fog 9 1037 87 4000 3.09 90 13:33 08.11.2021
5488 Clouds 3 1035 100 10000 2.57 80 11:56 08.11.2021
5489 Fog 4 1035 93 4000 2.57 80 10:52 08.11.2021
5490 Clouds 5 1034 70 10000 2.06 90 09:44 08.11.2021
5491 Clouds 8 1034 49 10000 2.57 20 08:54 08.11.2021
5492 Clouds 8 1035 52 10000 1.03 0 07:29 08.11.2021
5493 Clouds 9 1036 57 10000 1.03 0 03:56 08.11.2021
5494 Clouds 9 1036 57 10000 1.03 0 03:28 08.11.2021
5495 Clouds 18 1033 16 10000 3.09 60 23:46 07.11.2021
5496 Clouds 22 1033 8 10000 4.12 130 21:48 07.11.2021
5497 Clouds 21 1034 9 10000 4.12 130 20:54 07.11.2021
5498 Clouds 21 1034 10 10000 5.14 120 19:30 07.11.2021
5499 Clouds 20 1035 13 10000 5.66 130 18:22 07.11.2021
5500 Clouds 17 1037 15 10000 5.66 130 16:50 07.11.2021
5501 Clouds 16 1038 23 10000 5.66 110 15:47 07.11.2021
5502 Clouds 14 1038 35 10000 5.14 100 14:28 07.11.2021
5503 Clouds 8 1037 87 10000 2.57 90 12:58 07.11.2021
5504 Clouds 4 1036 93 10000 2.06 90 11:42 07.11.2021
5505 Fog 6 1035 93 4000 3.09 90 09:49 07.11.2021
5506 Clouds 6 1036 100 10000 3.09 70 07:20 07.11.2021
5507 Clouds 12 1037 57 10000 5.14 250 02:34 07.11.2021
5508 Clouds 16 1033 35 10000 5.66 90 23:22 06.11.2021
5509 Clouds 17 1033 33 10000 6.69 120 22:42 06.11.2021
5510 Clouds 18 1032 31 10000 5.14 110 21:32 06.11.2021
5511 Clouds 19 1033 29 10000 4.12 110 20:50 06.11.2021
5512 Clouds 17 1036 36 10000 2.06 150 18:56 06.11.2021
5513 Clouds 15 1038 50 10000 2.57 100 16:44 06.11.2021
5514 Clouds 13 1038 50 10000 0 0 14:37 06.11.2021
5515 Fog 9 1038 93 4000 1.54 100 13:38 06.11.2021
5516 Clouds 7 1036 65 6000 2.57 100 11:25 06.11.2021
5517 Clouds 7 1035 81 10000 2.57 40 09:22 06.11.2021
5518 Clouds 8 1037 81 10000 3.09 60 04:56 06.11.2021
5519 Clouds 12 1033 53 10000 3.6 80 01:27 06.11.2021
5520 Clouds 15 1032 41 10000 3.6 60 23:34 05.11.2021
5521 Clouds 16 1032 41 10000 5.14 40 22:33 05.11.2021
5522 Clouds 16 1032 41 10000 5.14 40 22:33 05.11.2021
5523 Clouds 19 1032 31 10000 5.66 130 20:50 05.11.2021
5524 Clouds 19 1032 31 10000 5.66 130 20:19 05.11.2021
5525 Clouds 18 1033 36 10000 4.12 110 19:32 05.11.2021
5526 Clouds 19 1034 27 10000 3.6 80 18:38 05.11.2021
5527 Clouds 19 1035 27 10000 3.6 110 17:25 05.11.2021
5528 Clouds 15 1036 24 10000 1.54 60 14:54 05.11.2021
5529 Clouds 13 1036 50 10000 2.06 120 13:33 05.11.2021
5530 Clouds 8 1033 65 10000 1.03 0 09:59 05.11.2021
5531 Clouds 9 1033 53 10000 3.09 220 08:38 05.11.2021
5532 Clouds 10 1035 49 10000 4.63 360 06:50 05.11.2021
5533 Clouds 10 1037 53 8000 5.66 290 04:42 05.11.2021
5534 Clouds 10 1035 61 10000 5.14 170 02:22 05.11.2021
5535 Clouds 12 1032 66 10000 5.14 90 00:30 05.11.2021
5536 Clouds 15 1031 47 10000 5.14 130 22:56 04.11.2021
5537 Clouds 15 1031 47 10000 5.14 130 22:18 04.11.2021
5538 Clouds 18 1031 36 10000 4.12 70 21:29 04.11.2021
5539 Clouds 16 1032 44 10000 5.14 60 20:29 04.11.2021
5540 Clouds 18 1033 39 10000 8.23 90 19:50 04.11.2021
5541 Clouds 18 1033 39 10000 8.23 90 19:28 04.11.2021
5542 Clouds 15 1034 50 10000 7.72 100 18:30 04.11.2021
5543 Clouds 16 1034 44 10000 3.09 100 17:27 04.11.2021
5544 Clouds 16 1035 35 10000 2.06 280 16:23 04.11.2021
5545 Clouds 16 1035 35 10000 2.06 280 16:23 04.11.2021
5546 Clouds 13 1036 62 10000 2.57 120 14:19 04.11.2021
5547 Fog 5 1033 100 4000 2.57 60 10:52 04.11.2021
5548 Fog 5 1033 93 4000 2.06 80 08:48 04.11.2021
5549 Fog 5 1033 93 4000 2.06 80 08:26 04.11.2021
5550 Fog 5 1034 100 4000 2.57 60 07:33 04.11.2021
5551 Clouds 12 1032 46 10000 8.23 110 23:23 03.11.2021
5552 Clouds 18 1032 29 10000 3.09 70 22:29 03.11.2021
5553 Clouds 18 1032 31 10000 4.63 50 21:37 03.11.2021
5554 Clouds 19 1033 31 10000 3.6 30 20:44 03.11.2021
5555 Clouds 19 1033 31 10000 3.6 30 20:26 03.11.2021
5556 Clouds 18 1034 33 10000 4.63 50 19:37 03.11.2021
5557 Clouds 18 1035 41 10000 4.63 80 18:27 03.11.2021
5558 Clouds 16 1036 44 10000 4.12 160 17:48 03.11.2021
5559 Clouds 14 1037 58 10000 4.12 150 16:49 03.11.2021
5560 Clouds 13 1038 62 10000 4.12 160 15:49 03.11.2021
5561 Clouds 13 1038 62 10000 4.12 160 15:30 03.11.2021
5562 Clouds 10 1037 76 6000 1.54 90 13:42 03.11.2021
5563 Fog 6 1035 100 3000 3.6 110 11:37 03.11.2021
5564 Fog 5 1035 100 4000 2.06 90 10:50 03.11.2021
5565 Fog 6 1034 93 4000 2.57 70 09:47 03.11.2021
5566 Fog 6 1035 100 4000 3.09 80 08:53 03.11.2021
5567 Fog 7 1036 93 4000 4.12 80 07:55 03.11.2021
5568 Fog 7 1036 93 4000 4.12 80 07:32 03.11.2021
5569 Clouds 8 1037 87 10000 2.06 70 04:23 03.11.2021
5570 Clouds 12 1033 57 10000 4.63 100 00:58 03.11.2021
5571 Clouds 13 1033 54 10000 4.63 90 23:21 02.11.2021
5572 Clouds 13 1034 50 10000 5.14 50 21:57 02.11.2021
5573 Clouds 12 1034 66 10000 7.72 60 20:43 02.11.2021
5574 Clouds 9 1035 70 8000 6.17 120 19:57 02.11.2021
5575 Clouds 9 1035 70 8000 6.17 120 19:27 02.11.2021
5576 Clouds 18 1036 33 10000 4.12 110 18:35 02.11.2021
5577 Clouds 17 1037 38 10000 4.12 120 17:44 02.11.2021
5578 Clouds 16 1038 47 10000 3.09 110 16:47 02.11.2021
5579 Clouds 13 1039 58 10000 2.57 90 15:50 02.11.2021
5580 Clouds 14 1038 62 6000 2.57 110 14:56 02.11.2021
5581 Clouds 11 1038 81 6000 2.06 120 13:30 02.11.2021
5582 Fog 9 1037 93 4000 2.57 90 12:52 02.11.2021
5583 Fog 8 1037 100 4000 3.09 110 11:39 02.11.2021
5584 Fog 7 1036 100 4000 2.06 90 10:55 02.11.2021
5585 Fog 7 1036 100 4000 2.06 90 10:32 02.11.2021
5586 Fog 7 1036 100 4000 2.57 80 09:44 02.11.2021
5587 Fog 7 1036 100 4000 3.09 120 07:46 02.11.2021
5588 Clouds 10 1038 71 10000 1.03 0 04:58 02.11.2021
5589 Clouds 9 1038 81 10000 2.57 60 03:22 02.11.2021
5590 Clouds 17 1034 31 10000 1.03 0 23:42 01.11.2021
5591 Clouds 15 1035 47 10000 2.57 30 21:46 01.11.2021
5592 Clouds 14 1036 54 10000 3.6 240 20:44 01.11.2021
5593 Clouds 13 1037 54 8000 3.6 70 19:58 01.11.2021
5594 Clouds 13 1037 54 8000 3.6 70 19:38 01.11.2021
5595 Clouds 11 1039 61 8000 4.12 20 18:23 01.11.2021
5596 Clouds 14 1039 58 8000 5.14 100 17:36 01.11.2021
5597 Clouds 15 1015 44 10000 2.47 129 16:51 01.11.2021
5598 Thunderstorm 12 1040 62 10000 5.14 10 16:20 01.11.2021
5599 Clouds 11 1040 76 10000 2.57 80 15:29 01.11.2021
5600 Clouds 10 1040 81 6000 3.6 130 14:45 01.11.2021
5601 Clouds 10 1040 81 6000 3.6 130 14:23 01.11.2021
5602 Clouds 10 1028 76 6000 2.06 250 13:50 01.11.2021
5603 Fog 9 1039 87 4000 2.57 260 12:34 01.11.2021
5604 Fog 8 1037 93 4000 1.03 0 11:27 01.11.2021
5605 Fog 8 1037 93 4000 3.09 110 09:47 01.11.2021
5606 Fog 8 1037 100 4000 1.54 150 08:18 01.11.2021
5607 Fog 8 1037 93 4000 2.57 70 07:40 01.11.2021
5608 Clouds 10 1040 76 10000 3.6 100 03:47 01.11.2021
5609 Clouds 11 1036 61 10000 3.09 100 01:37 01.11.2021
5610 Clouds 17 1035 29 10000 1.03 0 22:32 31.10.2021
5611 Clouds 13 1038 50 10000 6.17 330 20:50 31.10.2021
5612 Clouds 13 1038 54 10000 8.75 290 19:20 31.10.2021
5613 Clouds 17 1038 41 10000 5.66 80 18:38 31.10.2021
5614 Clouds 14 1040 50 10000 6.69 60 17:32 31.10.2021
5615 Clouds 14 1040 50 10000 2.57 90 15:50 31.10.2021
5616 Clouds 9 1039 81 10000 1.03 0 13:58 31.10.2021
5617 Clouds 7 1038 93 10000 1.03 0 12:49 31.10.2021
5618 Clouds 7 1038 87 10000 1.03 0 11:40 31.10.2021
5619 Clouds 6 1037 93 10000 4.12 30 10:42 31.10.2021
5620 Fog 6 1038 100 4000 5.66 90 09:21 31.10.2021
5621 Fog 6 1038 100 4000 5.66 90 09:21 31.10.2021
5622 Thunderstorm 6 1039 100 8000 4.63 200 07:20 31.10.2021
5623 Clouds 14 1035 47 10000 6.17 90 00:54 31.10.2021
5624 Clouds 15 1034 41 10000 6.69 310 22:36 30.10.2021
5625 Clouds 17 1035 33 10000 6.17 60 21:34 30.10.2021
5626 Clouds 14 1013 53 10000 6.06 48 20:21 30.10.2021
5627 Clouds 18 1038 29 10000 3.09 140 18:43 30.10.2021
5628 Clouds 14 1039 40 10000 2.06 200 16:53 30.10.2021
5629 Clouds 14 1039 40 10000 2.06 200 16:53 30.10.2021
5630 Clouds 12 1038 62 10000 1.03 0 14:43 30.10.2021
5631 Clouds 8 1038 70 10000 1.54 30 13:39 30.10.2021
5632 Clouds 8 1038 70 10000 1.54 30 13:21 30.10.2021
5633 Clear 3 1036 86 10000 1.54 50 11:51 30.10.2021
5634 Clear 3 1036 86 10000 1.54 50 11:32 30.10.2021
5635 Clouds 6 1036 70 10000 2.06 20 10:24 30.10.2021
5636 Clouds 6 1037 81 10000 1.03 0 08:48 30.10.2021
5637 Clouds 7 1038 81 10000 1.03 0 06:26 30.10.2021
5638 Clouds 7 1039 87 10000 1.03 0 05:38 30.10.2021
5639 Clouds 8 1038 81 6000 8.75 90 00:43 30.10.2021
5640 Clouds 12 1014 57 10000 4.86 33 22:37 29.10.2021
5641 Clouds 15 1038 41 10000 6.17 40 21:52 29.10.2021
5642 Clouds 18 1039 39 10000 6.69 80 20:44 29.10.2021
5643 Clouds 17 1040 41 10000 3.6 80 19:49 29.10.2021
5644 Clouds 14 1041 54 10000 2.57 200 18:27 29.10.2021
5645 Clouds 12 1042 66 10000 2.57 250 16:50 29.10.2021
5646 Clouds 10 1042 76 6000 1.03 0 14:32 29.10.2021
5647 Clouds 6 1039 87 10000 1.03 0 10:56 29.10.2021
5648 Clouds 6 1039 87 10000 1.03 0 10:34 29.10.2021
5649 Clouds 8 1040 70 10000 5.14 50 07:25 29.10.2021
5650 Clouds 16 1037 35 10000 5.14 100 00:35 29.10.2021
5651 Clouds 19 1037 25 10000 5.14 90 22:53 28.10.2021
5652 Clouds 17 1038 26 10000 5.14 120 21:52 28.10.2021
5653 Clouds 18 1039 27 10000 5.14 80 20:25 28.10.2021
5654 Clouds 14 1017 48 10000 6.05 45 19:23 28.10.2021
5655 Clouds 16 1042 33 10000 4.12 120 17:59 28.10.2021
5656 Clouds 15 1042 41 10000 2.57 110 16:57 28.10.2021
5657 Clouds 13 1042 50 10000 2.06 110 15:20 28.10.2021
5658 Fog 6 1041 93 4000 2.06 90 13:35 28.10.2021
5659 Fog 4 1041 87 4000 1.03 0 12:53 28.10.2021
5660 Fog 4 1041 87 4000 1.03 0 12:34 28.10.2021
5661 Fog 2 1039 93 4000 1.54 100 10:48 28.10.2021
5662 Fog 3 1039 100 4000 2.06 60 09:38 28.10.2021
5663 Clouds 3 1039 93 10000 2.57 70 08:37 28.10.2021
5664 Clouds 4 1039 93 10000 3.09 70 07:47 28.10.2021
5665 Clouds 8 1039 61 10000 3.09 70 04:19 28.10.2021
5666 Clouds 15 1035 44 10000 6.69 50 23:26 27.10.2021
5667 Clouds 17 1036 38 10000 5.66 40 22:29 27.10.2021
5668 Clouds 18 1036 29 10000 4.63 110 21:32 27.10.2021
5669 Clouds 18 1037 27 10000 3.09 160 20:48 27.10.2021
5670 Clouds 17 1038 31 10000 3.09 220 19:50 27.10.2021
5671 Clouds 17 1039 36 10000 3.6 150 18:58 27.10.2021
5672 Clouds 17 1039 36 10000 3.6 150 18:38 27.10.2021
5673 Clouds 14 1041 50 10000 2.57 140 16:26 27.10.2021
5674 Clouds 12 1041 57 9000 2.06 140 15:29 27.10.2021
5675 Clouds 9 1040 76 6000 2.57 90 14:38 27.10.2021
5676 Fog 5 1038 93 4000 2.06 60 11:20 27.10.2021
5677 Fog 4 1037 100 4000 2.06 70 10:57 27.10.2021
5678 Clouds 5 1021 83 10000 1.52 126 09:38 27.10.2021
5679 Clouds 6 1021 80 10000 1.72 156 07:51 27.10.2021
5680 Clouds 6 1021 75 10000 1.93 131 06:36 27.10.2021
5681 Clouds 11 1035 49 10000 7.2 110 01:29 27.10.2021
5682 Clouds 14 1034 37 10000 2.06 130 00:55 27.10.2021
5683 Clouds 16 1034 33 10000 6.17 70 23:56 26.10.2021
5684 Clouds 16 1034 33 10000 6.17 70 23:18 26.10.2021
5685 Clouds 15 1034 30 10000 4.12 30 22:29 26.10.2021
5686 Clouds 15 1035 30 10000 6.17 60 21:51 26.10.2021
5687 Clouds 12 1037 43 10000 5.66 20 20:26 26.10.2021
5688 Clouds 15 1037 30 10000 6.69 80 19:25 26.10.2021
5689 Clouds 15 1038 30 10000 5.14 100 18:32 26.10.2021
5690 Clouds 13 1040 40 10000 4.12 70 15:54 26.10.2021
5691 Clouds 11 1039 49 10000 4.63 70 14:18 26.10.2021
5692 Fog 1 1038 86 4000 1.03 0 11:31 26.10.2021
5693 Clouds 4 1038 87 10000 2.06 30 09:28 26.10.2021
5694 Clouds 7 1038 65 10000 4.12 90 07:23 26.10.2021
5695 Clouds 16 1033 24 10000 6.69 90 00:50 26.10.2021
5696 Clouds 19 1014 9 10000 2.06 270 23:48 25.10.2021
5697 Clouds 19 1034 10 10000 4.12 320 22:36 25.10.2021
5698 Clouds 18 1035 10 10000 6.69 280 21:48 25.10.2021
5699 Clouds 18 1035 10 10000 6.69 280 21:23 25.10.2021
5700 Clouds 18 1037 16 10000 4.63 270 19:44 25.10.2021
5701 Clouds 18 1037 16 10000 4.63 270 19:24 25.10.2021
5702 Clouds 17 1038 17 10000 4.63 220 18:42 25.10.2021
5703 Clouds 15 1039 19 10000 3.6 250 17:42 25.10.2021
5704 Clouds 12 1019 32 10000 2.64 169 15:31 25.10.2021
5705 Clouds 7 1021 79 10000 2 145 13:29 25.10.2021
5706 Clouds 7 1019 85 10000 2.38 127 11:25 25.10.2021
5707 Fog 7 1037 87 4000 5.14 100 09:23 25.10.2021
5708 Fog 8 1038 87 4000 4.63 110 07:26 25.10.2021
5709 Fog 8 1038 87 4000 4.63 110 07:26 25.10.2021
5710 Fog 8 1038 93 4000 5.14 120 05:24 25.10.2021
5711 Fog 8 1038 93 4000 5.14 120 05:24 25.10.2021
5712 Clouds 18 1032 11 10000 5.14 310 00:52 25.10.2021
5713 Clouds 18 1032 11 10000 5.14 310 00:34 25.10.2021
5714 Clouds 20 1032 9 10000 8.23 300 23:42 24.10.2021
5715 Clouds 21 1033 9 10000 9.77 290 22:39 24.10.2021
5716 Clouds 21 1033 9 10000 9.77 290 22:20 24.10.2021
5717 Clouds 20 1033 12 10000 8.75 300 21:18 24.10.2021
5718 Clouds 21 1034 12 10000 9.26 280 20:36 24.10.2021
5719 Clouds 21 1035 10 10000 7.72 280 19:40 24.10.2021
5720 Clouds 19 1036 10 10000 6.17 300 18:29 24.10.2021
5721 Clear 18 1037 11 10000 6.17 280 17:44 24.10.2021
5722 Clear 15 1039 10 10000 3.6 280 15:56 24.10.2021
5723 Clear 13 1038 10 10000 2.06 310 14:42 24.10.2021
5724 Clouds 6 1037 19 10000 1.54 10 12:58 24.10.2021
5725 Clouds 6 1037 19 10000 3.09 360 11:45 24.10.2021
5726 Clear 6 1037 19 10000 3.09 360 11:25 24.10.2021
5727 Clear 7 1037 17 10000 2.57 10 10:27 24.10.2021
5728 Clouds 9 1038 18 10000 2.57 190 07:51 24.10.2021
5729 Clouds 17 1034 11 10000 6.17 260 01:25 24.10.2021
5730 Clouds 19 1034 12 10000 4.12 30 23:49 23.10.2021
5731 Clouds 22 1033 8 10000 5.66 290 22:29 23.10.2021
5732 Clouds 22 1035 8 10000 4.12 240 20:37 23.10.2021
5733 Clouds 20 1037 9 10000 3.6 170 18:59 23.10.2021
5734 Clouds 20 1037 9 10000 3.6 170 18:30 23.10.2021
5735 Clouds 19 1038 15 10000 2.57 230 17:43 23.10.2021
5736 Clouds 16 1039 15 10000 1.54 300 16:35 23.10.2021
5737 Clear 13 1038 17 10000 1.54 120 14:35 23.10.2021
5738 Clouds 10 1036 21 10000 2.57 220 09:45 23.10.2021
5739 Clouds 18 1033 31 10000 5.14 50 00:22 23.10.2021
5740 Clouds 22 1033 10 10000 2.57 180 23:18 22.10.2021
5741 Clouds 22 1035 8 10000 2.57 170 20:50 22.10.2021
5742 Clouds 19 1038 13 10000 2.06 120 18:45 22.10.2021
5743 Clouds 18 1038 16 10000 4.12 140 17:44 22.10.2021
5744 Clear 14 1039 15 10000 5.14 120 15:37 22.10.2021
5745 Clouds 10 1038 42 10000 2.57 110 13:54 22.10.2021
5746 Clouds 4 1037 75 10000 3.09 100 11:26 22.10.2021
5747 Clouds 6 1037 81 10000 3.6 90 10:41 22.10.2021
5748 Clouds 6 1037 93 10000 3.6 70 09:56 22.10.2021
5749 Clouds 5 1037 93 10000 3.6 90 08:36 22.10.2021
5750 Clouds 5 1038 81 10000 3.09 80 07:22 22.10.2021
5751 Clouds 13 1036 43 10000 3.09 70 02:57 22.10.2021
5752 Clouds 22 1034 10 10000 2.57 340 23:57 21.10.2021
5753 Clouds 22 1034 10 10000 2.57 340 23:38 21.10.2021
5754 Clouds 22 1035 8 10000 2.57 210 21:52 21.10.2021
5755 Clouds 21 1037 9 10000 3.6 190 20:40 21.10.2021
5756 Clouds 21 1037 9 10000 3.6 190 20:18 21.10.2021
5757 Clouds 20 1038 9 10000 3.6 220 19:29 21.10.2021
5758 Clouds 20 1039 9 10000 2.57 190 18:45 21.10.2021
5759 Clouds 18 1040 9 10000 2.06 100 17:56 21.10.2021
5760 Clouds 18 1040 9 10000 2.06 100 17:37 21.10.2021
5761 Clouds 15 1040 11 10000 2.06 140 15:49 21.10.2021
5762 Clouds 15 1040 11 10000 2.06 140 15:20 21.10.2021
5763 Clouds 13 1039 17 10000 2.06 110 14:38 21.10.2021
5764 Clouds 6 1038 41 10000 0 0 13:19 21.10.2021
5765 -273 0 0 0 0 0 10:43 21.10.2021
5766 Clouds 2 1037 74 10000 2.57 80 10:42 21.10.2021
5767 Clouds 2 1037 74 10000 2.57 80 10:42 21.10.2021
5768 -273 0 0 0 0 0 10:42 21.10.2021
5769 Clouds 3 1038 69 10000 2.06 100 08:21 21.10.2021
5770 Clouds 3 1038 80 10000 3.09 70 07:28 21.10.2021
5771 Clouds 10 1038 57 10000 2.57 100 03:29 21.10.2021
5772 Clouds 21 1035 15 10000 5.14 260 23:25 20.10.2021
5773 Clouds 21 1036 18 10000 3.6 260 21:51 20.10.2021
5774 Clouds 21 1036 18 10000 3.6 260 21:29 20.10.2021
5775 Clouds 21 1037 19 10000 2.57 270 20:49 20.10.2021
5776 Clouds 21 1037 19 10000 2.57 270 20:28 20.10.2021
5777 Clouds 20 1039 24 10000 2.06 140 19:40 20.10.2021
5778 Clouds 18 1040 31 10000 4.12 140 18:53 20.10.2021
5779 Clouds 16 1041 35 10000 2.57 140 17:41 20.10.2021
5780 Clouds 11 1040 61 8000 2.06 90 15:26 20.10.2021
5781 Fog 4 1037 93 4000 2.06 90 10:25 20.10.2021
5782 Fog 7 1038 93 3000 3.6 90 08:36 20.10.2021
5783 Clouds 11 1036 71 10000 3.09 70 02:47 20.10.2021
5784 Clouds 16 1034 44 10000 6.17 110 00:43 20.10.2021
5785 Clouds 21 1033 18 10000 4.63 190 23:32 19.10.2021
5786 Clouds 17 1008 37 10000 0.65 343 21:41 19.10.2021
5787 Clouds 21 1036 19 10000 4.63 280 20:45 19.10.2021
5788 Clouds 21 1036 19 10000 4.63 280 20:22 19.10.2021
5789 Clouds 20 1037 20 10000 4.63 260 19:39 19.10.2021
5790 Clouds 18 1038 25 10000 3.6 210 18:52 19.10.2021
5791 Clouds 16 1039 41 10000 3.09 150 17:57 19.10.2021
5792 Clouds 13 1039 62 6000 2.57 120 15:38 19.10.2021
5793 Clouds 13 1039 62 6000 2.57 120 15:18 19.10.2021
5794 Clouds 11 1039 66 6000 1.03 0 14:23 19.10.2021
5795 Fog 4 1038 100 4000 2.06 80 12:34 19.10.2021
5796 Fog 5 1037 93 4000 2.57 70 11:31 19.10.2021
5797 Fog 6 1036 93 4000 3.09 90 09:56 19.10.2021
5798 Fog 7 1037 93 4000 3.09 90 08:57 19.10.2021
5799 Clouds 9 1037 81 10000 5.66 90 05:23 19.10.2021
5800 Clouds 19 1033 17 10000 3.6 300 00:23 19.10.2021
5801 Clouds 20 1033 25 10000 5.14 260 23:49 18.10.2021
5802 Clouds 20 1033 25 10000 5.14 260 23:18 18.10.2021
5803 Clouds 21 1033 26 10000 5.14 100 22:31 18.10.2021
5804 Clouds 21 1033 26 10000 5.14 100 22:31 18.10.2021
5805 Clouds 20 1035 22 10000 4.12 100 20:57 18.10.2021
5806 Clouds 20 1035 22 10000 4.12 100 20:33 18.10.2021
5807 Clouds 18 1036 27 10000 4.63 150 19:49 18.10.2021
5808 Clouds 18 1036 27 10000 4.63 150 19:22 18.10.2021
5809 Clouds 18 1037 31 10000 4.12 120 18:50 18.10.2021
5810 Clouds 9 1038 76 6000 5.14 100 14:58 18.10.2021
5811 Fog 7 1036 93 4000 5.14 90 12:53 18.10.2021
5812 Fog 6 1035 100 4000 3.6 90 10:26 18.10.2021
5813 Clouds 3 1035 86 10000 2.57 100 09:26 18.10.2021
5814 Clouds 15 1034 33 10000 4.12 120 01:35 18.10.2021
5815 Clouds 21 1034 12 10000 4.12 290 23:20 17.10.2021
5816 Clouds 21 1035 10 10000 1.03 0 21:45 17.10.2021
5817 Clouds 20 1036 12 10000 4.63 240 20:59 17.10.2021
5818 Clouds 20 1036 12 10000 4.63 240 20:29 17.10.2021
5819 Clouds 20 1037 16 10000 4.12 190 19:38 17.10.2021
5820 Clouds 18 1012 17 10000 1.78 172 18:54 17.10.2021
5821 Clouds 15 1016 18 10000 1.45 191 17:27 17.10.2021
5822 Clouds 11 1039 66 10000 1.03 0 14:47 17.10.2021
5823 Clouds 11 1039 66 10000 1.03 0 14:24 17.10.2021
5824 Fog 4 1038 93 4000 3.09 80 13:34 17.10.2021
5825 Fog 4 1037 93 4000 2.57 80 11:54 17.10.2021
5826 Fog 4 1037 93 4000 2.57 80 11:54 17.10.2021
5827 Fog 5 1037 100 4000 3.09 80 10:20 17.10.2021
5828 Fog 5 1037 100 4000 3.6 80 09:23 17.10.2021
5829 Fog 7 1038 93 4000 3.09 80 06:56 17.10.2021
5830 Clouds 17 1033 31 10000 4.63 70 00:50 17.10.2021
5831 Clouds 19 1033 29 10000 4.63 110 23:43 16.10.2021
5832 Clouds 21 1034 15 10000 6.17 290 21:29 16.10.2021
5833 Clouds 21 1036 19 10000 6.69 290 20:30 16.10.2021
5834 Clouds 20 1037 25 10000 5.14 300 19:43 16.10.2021
5835 Clouds 20 1037 25 10000 5.14 300 19:21 16.10.2021
5836 Clouds 19 1038 29 10000 7.72 280 18:51 16.10.2021
5837 Clouds 19 1038 29 10000 7.72 280 18:29 16.10.2021
5838 Clouds 16 1039 38 10000 3.6 300 17:53 16.10.2021
5839 Clouds 16 1039 38 10000 3.6 300 17:21 16.10.2021
5840 Fog 7 1037 93 4000 3.09 70 13:59 16.10.2021
5841 Fog 7 1036 93 4000 1.03 0 11:26 16.10.2021
5842 Fog 7 1036 100 4000 2.06 50 09:48 16.10.2021
5843 Clouds 6 1037 81 10000 2.06 70 06:51 16.10.2021
5844 Clouds 13 1034 46 10000 5.66 50 01:25 16.10.2021
5845 Clouds 13 1034 46 10000 5.66 50 01:25 16.10.2021
5846 Clouds 13 1034 46 10000 5.66 50 01:25 16.10.2021
5847 Clouds 21 1033 15 10000 4.63 280 23:40 15.10.2021
5848 Clouds 21 1033 14 10000 5.14 280 22:22 15.10.2021
5849 Clouds 21 1034 14 10000 5.14 290 21:56 15.10.2021
5850 Clouds 21 1034 14 10000 5.14 290 21:21 15.10.2021
5851 Clouds 20 1035 17 10000 4.63 280 20:45 15.10.2021
5852 Clouds 20 1036 17 10000 5.14 280 19:23 15.10.2021
5853 Clouds 18 1037 20 10000 5.14 280 18:40 15.10.2021
5854 Clouds 15 1038 28 10000 4.12 280 16:28 15.10.2021
5855 Clouds 14 1038 30 10000 2.06 270 15:22 15.10.2021
5856 Clouds 6 1036 60 10000 1.54 10 12:31 15.10.2021
5857 Clear 7 1035 52 10000 1.54 10 11:26 15.10.2021
5858 Clear 5 1035 65 10000 0 0 10:42 15.10.2021
5859 Clouds 9 1035 53 10000 1.03 0 08:58 15.10.2021
5860 Clouds 11 1037 53 10000 1.03 0 05:31 15.10.2021
5861 Clouds 19 1032 20 8000 7.72 260 00:44 15.10.2021
5862 Clouds 21 1031 13 10000 7.2 300 23:49 14.10.2021
5863 Clouds 21 1032 14 10000 7.2 300 22:49 14.10.2021
5864 Clouds 22 1033 13 10000 6.69 280 21:43 14.10.2021
5865 Clouds 21 1034 16 10000 6.69 300 20:36 14.10.2021
5866 Clouds 21 1034 16 10000 6.69 300 20:18 14.10.2021
5867 Clouds 22 1035 18 10000 6.69 290 19:26 14.10.2021
5868 Clouds 19 1037 22 10000 4.63 270 17:26 14.10.2021
5869 Clouds 18 1037 21 10000 3.09 250 16:46 14.10.2021
5870 Clouds 16 1037 24 10000 2.06 270 15:24 14.10.2021
5871 Clouds 13 1037 24 10000 1.54 360 14:40 14.10.2021
5872 Clouds 9 1036 39 10000 2.06 360 13:35 14.10.2021
5873 Clouds 6 1034 65 10000 0 0 11:43 14.10.2021
5874 Clouds 9 1035 57 10000 2.06 350 09:50 14.10.2021
5875 Clouds 11 1014 72 10000 1.24 164 06:47 14.10.2021
5876 Clouds 14 1011 46 10000 1.4 19 00:52 14.10.2021
5877 Clouds 22 1034 13 10000 6.17 260 22:47 13.10.2021
5878 Clouds 23 1034 12 10000 6.69 270 21:37 13.10.2021
5879 Clouds 19 1008 26 10000 5.48 285 20:46 13.10.2021
5880 Clouds 21 1037 13 10000 3.09 280 19:47 13.10.2021
5881 Clouds 20 1038 16 10000 3.6 270 18:49 13.10.2021
5882 Clouds 20 1038 16 10000 3.6 270 18:49 13.10.2021
5883 Clouds 19 1039 19 10000 3.6 260 17:35 13.10.2021
5884 Clouds 15 1040 35 10000 3.6 280 15:21 13.10.2021
5885 Clouds 13 1040 32 10000 2.57 320 14:43 13.10.2021
5886 Clouds 8 1039 42 10000 3.09 360 12:48 13.10.2021
5887 Clouds 7 1038 60 10000 2.57 340 11:55 13.10.2021
5888 Clouds 6 1038 65 10000 2.06 340 10:21 13.10.2021
5889 Clouds 9 1038 45 10000 2.06 360 07:54 13.10.2021
5890 Clouds 10 1040 46 10000 2.06 360 05:40 13.10.2021
5891 Clouds 12 1038 43 10000 2.57 30 02:23 13.10.2021
5892 Rain 16 1036 44 10000 2.57 330 23:51 12.10.2021
5893 Rain 16 1036 44 10000 2.57 330 23:27 12.10.2021
5894 Clouds 17 1036 38 10000 4.63 360 22:41 12.10.2021
5895 Rain 20 1037 32 10000 3.09 120 20:55 12.10.2021
5896 Clouds 20 1037 32 10000 3.09 120 20:32 12.10.2021
5897 Clouds 20 1038 39 10000 2.57 130 19:50 12.10.2021
5898 Clouds 18 1039 48 10000 2.06 100 18:26 12.10.2021
5899 Clouds 17 1040 44 10000 2.57 180 17:35 12.10.2021
5900 Clouds 16 1040 51 10000 2.06 220 16:35 12.10.2021
5901 Clouds 15 1040 54 10000 3.09 270 15:35 12.10.2021
5902 Clouds 12 1040 66 10000 1.03 0 14:20 12.10.2021
5903 Clouds 9 1039 70 10000 2.06 30 13:41 12.10.2021
5904 Clouds 4 1038 93 10000 1.03 0 11:31 12.10.2021
5905 Clouds 4 1038 93 10000 1.03 0 11:30 12.10.2021
5906 Clouds 5 1038 93 10000 2.06 50 09:41 12.10.2021
5907 Clouds 8 1038 75 10000 2.06 60 08:31 12.10.2021
5908 Clouds 9 1018 93 10000 1.03 0 06:46 12.10.2021
5909 Clouds 10 1039 81 10000 4.12 90 04:49 12.10.2021
5910 Clouds 10 1039 81 10000 4.12 90 04:28 12.10.2021
5911 Clouds 19 1035 39 10000 7.2 50 23:53 11.10.2021
5912 Clouds 19 1035 39 10000 7.2 50 23:28 11.10.2021
5913 Clouds 21 1035 24 10000 3.09 80 22:51 11.10.2021
5914 Clouds 20 1037 25 10000 3.6 110 21:25 11.10.2021
5915 Clouds 19 1039 31 10000 3.09 130 19:53 11.10.2021
5916 Clouds 19 1039 31 10000 3.09 130 19:34 11.10.2021
5917 Clouds 17 1040 26 10000 2.57 110 18:23 11.10.2021
5918 Clouds 14 1041 26 10000 3.6 110 16:40 11.10.2021
5919 Clouds 14 1041 26 10000 3.6 110 16:20 11.10.2021
5920 Clouds 13 1040 37 10000 2.57 80 15:42 11.10.2021
5921 Clouds 11 1039 57 10000 3.09 120 14:53 11.10.2021
5922 Clouds 7 1039 93 10000 1.03 0 13:55 11.10.2021
5923 Clouds 7 1039 93 10000 1.03 0 13:32 11.10.2021
5924 Clouds 4 1037 100 10000 1.54 80 11:18 11.10.2021
5925 Clouds 6 1037 93 10000 1.54 60 09:45 11.10.2021
5926 Clouds 8 1038 87 10000 1.03 0 07:56 11.10.2021
5927 Thunderstorm 12 1036 81 8000 3.09 270 01:43 11.10.2021
5928 Clouds 13 1035 66 8000 5.14 10 00:55 11.10.2021
5929 Thunderstorm 13 1035 66 8000 5.14 10 00:33 11.10.2021
5930 Clouds 21 1035 22 10000 3.09 240 22:25 10.10.2021
5931 Clouds 22 1036 22 10000 1.54 160 21:36 10.10.2021
5932 Clouds 21 1037 24 10000 3.6 220 20:56 10.10.2021
5933 Clouds 21 1037 24 10000 3.6 220 20:36 10.10.2021
5934 Clouds 21 1037 24 10000 3.6 220 20:18 10.10.2021
5935 Clouds 20 1038 27 10000 2.57 120 19:40 10.10.2021
5936 Clouds 18 1039 33 10000 2.57 180 18:41 10.10.2021
5937 Clouds 17 1040 36 10000 3.09 160 17:50 10.10.2021
5938 Clouds 14 1040 47 10000 2.06 210 15:47 10.10.2021
5939 Clouds 11 1040 66 10000 0 0 14:44 10.10.2021
5940 Clouds 9 1039 93 10000 0 0 13:34 10.10.2021
5941 Fog 7 1038 100 4000 1.03 0 12:41 10.10.2021
5942 Fog 9 1037 93 4000 1.54 90 10:55 10.10.2021
5943 Fog 6 1037 93 4000 1.03 0 09:31 10.10.2021
5944 Fog 6 1037 93 4000 1.03 0 09:31 10.10.2021
5945 Fog 8 1038 100 4000 2.57 40 08:54 10.10.2021
5946 Fog 8 1038 93 4000 2.06 70 07:53 10.10.2021
5947 Clouds 10 1036 76 10000 3.09 80 03:28 10.10.2021
5948 Clouds 12 1035 62 10000 4.63 40 01:28 10.10.2021
5949 Clouds 13 1035 66 10000 4.63 80 00:33 10.10.2021
5950 Clouds 15 1005 54 10000 5.14 50 23:20 09.10.2021
5951 Clouds 16 1035 51 10000 3.09 40 21:48 09.10.2021
5952 Clouds 17 1035 51 10000 5.66 80 21:29 09.10.2021
5953 Clouds 17 1037 47 10000 3.09 160 19:45 09.10.2021
5954 Clouds 17 1037 47 10000 3.09 160 19:20 09.10.2021
5955 Clouds 16 1038 51 10000 4.12 200 18:33 09.10.2021
5956 Clouds 15 1038 54 10000 3.09 220 17:20 09.10.2021
5957 Clouds 15 1039 58 10000 2.57 110 16:19 09.10.2021
5958 Clouds 8 1037 81 10000 2.06 330 13:45 09.10.2021
5959 Clouds 5 1036 100 10000 1.03 0 12:40 09.10.2021
5960 Fog 6 1036 100 4000 1.03 0 11:48 09.10.2021
5961 Fog 7 1036 93 4000 1.03 20 10:42 09.10.2021
5962 Fog 8 1036 93 4000 2.06 60 09:52 09.10.2021
5963 Fog 7 1036 93 4000 2.57 70 08:30 09.10.2021
5964 Fog 7 1036 93 4000 2.57 70 08:30 09.10.2021
5965 Fog 8 1037 93 4000 2.57 90 07:48 09.10.2021
5966 Clouds 9 1037 81 10000 1.03 0 05:29 09.10.2021
5967 Clouds 10 1035 66 10000 3.6 50 02:59 09.10.2021
5968 Clouds 10 1035 66 10000 3.6 50 02:39 09.10.2021
5969 Clouds 14 1033 62 8000 4.63 50 23:41 08.10.2021
5970 Rain 19 1034 36 10000 3.09 280 22:54 08.10.2021
5971 Clouds 19 1034 36 10000 3.09 280 22:23 08.10.2021
5972 Clouds 17 1035 44 10000 5.14 30 20:53 08.10.2021
5973 Clouds 14 1037 58 10000 3.6 140 18:53 08.10.2021
5974 Clouds 14 1038 58 10000 4.63 130 17:34 08.10.2021
5975 Clouds 12 1038 71 6000 3.09 110 16:50 08.10.2021
5976 Clouds 12 1038 71 6000 3.09 110 16:23 08.10.2021
5977 Clouds 10 1018 65 10000 1.97 216 13:57 08.10.2021
5978 Mist 8 1036 100 3000 1.03 0 12:48 08.10.2021
5979 Fog 8 1036 100 4000 1.03 0 11:31 08.10.2021
5980 Clouds 8 1036 93 10000 0 0 10:40 08.10.2021
5981 Rain 8 1036 93 10000 2.06 240 08:27 08.10.2021
5982 Clouds 13 1034 66 10000 6.69 100 23:38 07.10.2021
5983 Clouds 15 1034 58 10000 5.14 80 22:59 07.10.2021
5984 Clouds 15 1034 58 10000 4.63 70 21:36 07.10.2021
5985 Clouds 14 1035 62 10000 4.63 80 20:58 07.10.2021
5986 Clouds 16 1037 47 10000 2.57 330 19:46 07.10.2021
5987 Clouds 16 1037 47 10000 2.57 330 19:27 07.10.2021
5988 Clouds 12 1038 76 8000 9.26 260 17:49 07.10.2021
5989 Rain 14 1038 66 10000 2.06 260 16:43 07.10.2021
5990 Clouds 12 1038 76 6000 1.03 0 15:24 07.10.2021
5991 Rain 8 1037 93 8000 3.6 270 13:45 07.10.2021
5992 Rain 8 1037 93 8000 3.6 270 13:27 07.10.2021
5993 Fog 8 1037 93 4000 1.03 0 12:39 07.10.2021
5994 Fog 9 1036 87 4000 2.06 330 10:49 07.10.2021
5995 Fog 9 1036 87 4000 2.06 330 10:19 07.10.2021
5996 Clouds 9 1036 81 10000 3.6 290 08:56 07.10.2021
5997 Rain 9 1036 81 10000 3.6 290 08:25 07.10.2021
5998 Clouds 9 1037 76 10000 2.06 310 07:41 07.10.2021
5999 Clouds 8 1038 87 10000 1.54 310 06:54 07.10.2021
6000 Clouds 10 1036 76 10000 2.06 330 02:22 07.10.2021
6001 Clouds 9 1034 81 8000 2.57 70 23:39 06.10.2021
6002 Clouds 12 1034 66 6000 4.63 60 22:45 06.10.2021
6003 Clouds 14 1035 58 10000 4.12 80 21:46 06.10.2021
6004 Clouds 15 1036 54 10000 5.14 80 20:34 06.10.2021
6005 Clouds 15 1037 54 8000 4.63 290 19:46 06.10.2021
6006 Clouds 12 1038 66 8000 3.6 270 18:33 06.10.2021
6007 Clouds 11 1039 71 6000 3.09 260 16:52 06.10.2021
6008 Clouds 9 1039 81 6000 3.09 280 15:25 06.10.2021
6009 Clouds 7 1038 93 6000 3.09 260 13:32 06.10.2021
6010 Rain 7 1037 93 4000 2.57 240 12:54 06.10.2021
6011 Fog 7 1037 93 4000 2.57 240 12:30 06.10.2021
6012 Fog 7 1036 100 4000 2.06 240 11:46 06.10.2021
6013 Fog 7 1036 100 4000 1.03 0 09:57 06.10.2021
6014 Fog 7 1036 100 4000 1.03 0 09:37 06.10.2021
6015 Fog 6 1036 100 4000 1.03 0 08:40 06.10.2021
6016 Fog 7 1037 100 4000 3.09 90 06:47 06.10.2021
6017 Clouds 9 1037 87 10000 3.09 80 04:56 06.10.2021
6018 Clouds 10 1034 71 10000 2.57 250 00:25 06.10.2021
6019 Clouds 11 1034 61 10000 2.57 20 23:52 05.10.2021
6020 Clouds 11 1034 61 10000 2.57 20 23:32 05.10.2021
6021 Clouds 10 1034 66 10000 3.6 220 22:38 05.10.2021
6022 Clouds 11 1035 71 8000 4.12 10 21:58 05.10.2021
6023 Clouds 11 1035 71 8000 4.12 10 21:32 05.10.2021
6024 Thunderstorm 10 1035 87 8000 6.17 60 20:38 05.10.2021
6025 Thunderstorm 10 1035 87 8000 6.17 60 20:18 05.10.2021
6026 Clouds 14 1036 58 10000 5.14 130 19:25 05.10.2021
6027 Clouds 14 1037 66 10000 4.63 130 18:45 05.10.2021
6028 Clouds 11 1038 76 8000 3.09 120 16:18 05.10.2021
6029 Clouds 8 1037 87 10000 2.57 90 14:29 05.10.2021
6030 Fog 5 1036 93 4000 2.57 50 13:27 05.10.2021
6031 Mist 5 1035 93 2000 3.09 70 12:35 05.10.2021
6032 Clouds 5 1035 93 10000 2.06 150 11:41 05.10.2021
6033 Clouds 4 1035 93 10000 1.03 0 10:39 05.10.2021
6034 Clouds 8 1035 70 10000 3.09 20 08:38 05.10.2021
6035 Clouds 11 1034 66 10000 7.2 90 01:47 05.10.2021
6036 Clouds 15 1033 47 10000 6.17 40 23:39 04.10.2021
6037 Clouds 16 1033 47 10000 6.17 70 21:42 04.10.2021
6038 Clouds 17 1036 31 10000 5.14 80 18:54 04.10.2021
6039 Clouds 15 1037 41 10000 6.69 60 17:44 04.10.2021
6040 Clouds 12 1037 57 8000 1.03 0 15:59 04.10.2021
6041 Clouds 12 1037 57 8000 1.03 0 15:29 04.10.2021
6042 Clouds 11 1037 66 6000 1.54 120 14:34 04.10.2021
6043 Clouds 5 1035 93 10000 2.06 70 13:47 04.10.2021
6044 Clouds 4 1035 75 10000 1.03 0 12:51 04.10.2021
6045 Clouds 5 1035 75 10000 1.03 0 11:34 04.10.2021
6046 Fog 4 1035 100 4000 1.03 0 10:47 04.10.2021
6047 Fog 6 1035 93 4000 1.54 80 09:45 04.10.2021
6048 Clouds 5 1035 87 10000 1.03 0 07:54 04.10.2021
6049 Clouds 8 1036 61 10000 2.57 20 06:50 04.10.2021
6050 Clouds 15 1032 44 8000 6.17 30 23:38 03.10.2021
6051 Clouds 18 1032 29 10000 4.63 70 22:30 03.10.2021
6052 Clouds 20 1032 24 10000 4.63 80 21:34 03.10.2021
6053 Clouds 20 1034 22 10000 4.63 80 20:49 03.10.2021
6054 Clouds 17 1035 29 10000 3.6 100 19:49 03.10.2021
6055 Clouds 18 1036 25 10000 3.6 160 18:30 03.10.2021
6056 Clouds 16 1037 24 10000 2.57 160 17:37 03.10.2021
6057 Clouds 12 1037 43 10000 3.09 150 15:30 03.10.2021
6058 Clouds 10 1036 66 8000 2.57 110 14:31 03.10.2021
6059 Clouds 10 1036 66 8000 2.57 110 14:31 03.10.2021
6060 Fog 4 1035 100 4000 3.09 90 13:36 03.10.2021
6061 Fog 5 1035 93 4000 3.6 90 12:47 03.10.2021
6062 Fog 7 1034 93 4000 4.12 100 11:37 03.10.2021
6063 Fog 6 1034 100 4000 2.57 90 09:58 03.10.2021
6064 Clouds 7 1035 87 10000 3.09 70 05:38 03.10.2021
6065 Clouds 21 1032 19 10000 3.09 280 22:59 02.10.2021
6066 Clouds 21 1033 22 10000 2.06 250 21:59 02.10.2021
6067 Clouds 19 1034 25 10000 3.09 190 20:33 02.10.2021
6068 Clouds 18 1037 29 10000 3.6 290 18:56 02.10.2021
6069 Clouds 18 1037 29 10000 3.6 290 18:20 02.10.2021
6070 Clouds 17 1037 38 10000 2.06 230 17:37 02.10.2021
6071 Clouds 14 1038 54 8000 2.57 270 16:39 02.10.2021
6072 Clouds 9 1016 76 10000 0.67 71 07:30 02.10.2021
6073 Clouds 12 1039 53 9000 2.06 320 15:37 30.09.2021
6074 Clouds 6 1038 81 10000 1.03 0 13:57 30.09.2021
6075 Clouds 5 1036 70 10000 2.06 30 11:54 30.09.2021
6076 Clouds 6 1036 70 10000 2.06 10 10:53 30.09.2021
6077 Clouds 6 1036 70 10000 2.06 10 10:22 30.09.2021
6078 Clouds 6 1037 75 10000 1.03 0 08:31 30.09.2021
6079 Clear 7 1018 59 10000 1.53 54 07:35 30.09.2021
6080 Clear 8 1020 64 10000 2.08 46 05:23 30.09.2021
6081 Clouds 13 1036 40 10000 4.63 40 01:41 30.09.2021
6082 Clouds 15 1036 35 10000 4.63 30 00:29 30.09.2021
6083 Clouds 19 1036 20 10000 6.69 60 22:39 29.09.2021
6084 Clouds 19 1037 22 10000 6.17 70 21:27 29.09.2021
6085 Clouds 19 1037 22 10000 6.69 40 20:28 29.09.2021
6086 Clouds 19 1038 25 10000 4.63 70 19:55 29.09.2021
6087 Clouds 17 1039 29 10000 4.63 80 18:52 29.09.2021
6088 Clouds 17 1040 31 10000 5.14 70 17:52 29.09.2021
6089 Clouds 15 1040 41 10000 4.63 70 16:51 29.09.2021
6090 Clouds 13 1040 46 8000 4.12 80 15:58 29.09.2021
6091 Clouds 10 1039 76 8000 3.6 90 14:39 29.09.2021
6092 Fog 8 1038 93 4000 3.6 110 13:58 29.09.2021
6093 Fog 8 1038 93 4000 3.6 110 13:22 29.09.2021
6094 Fog 7 1037 93 4000 4.63 100 12:35 29.09.2021
6095 Mist 5 1036 100 3000 1.03 0 10:50 29.09.2021
6096 Mist 4 1037 93 3000 1.03 0 09:53 29.09.2021
6097 Mist 4 1037 93 3000 1.03 0 09:34 29.09.2021
6098 Fog 6 1038 93 4000 1.54 90 07:33 29.09.2021
6099 Clouds 10 1038 81 10000 4.63 110 04:19 29.09.2021
6100 Clouds 20 1035 19 10000 5.14 140 23:27 28.09.2021
6101 Clouds 21 1035 15 10000 3.6 100 22:24 28.09.2021
6102 Clouds 20 1036 16 10000 6.17 150 21:44 28.09.2021
6103 Clouds 19 1038 13 10000 5.66 140 20:43 28.09.2021
6104 Clouds 18 1038 18 10000 4.12 120 19:46 28.09.2021
6105 Clouds 18 1039 20 10000 3.6 130 18:50 28.09.2021
6106 Clouds 18 1039 20 10000 3.6 130 18:18 28.09.2021
6107 Clouds 13 1041 50 10000 4.12 130 16:38 28.09.2021
6108 Clouds 8 1040 81 6000 3.09 110 14:30 28.09.2021
6109 Fog 1 1038 100 4000 2.06 90 12:50 28.09.2021
6110 Fog 1 1038 100 4000 2.06 90 12:21 28.09.2021
6111 Fog 2 1038 100 4000 2.06 90 11:46 28.09.2021
6112 Fog 2 1038 100 4000 2.06 90 11:19 28.09.2021
6113 Fog 5 1038 93 4000 2.57 80 10:19 28.09.2021
6114 Clear 7 1020 79 10000 1.21 107 09:00 28.09.2021
6115 Fog 7 1039 100 4000 4.12 90 08:38 28.09.2021
6116 Fog 5 1039 100 4000 3.09 80 07:47 28.09.2021
6117 Clouds 8 1040 87 8000 2.57 80 05:28 28.09.2021
6118 Clouds 13 1037 50 10000 5.14 110 01:24 28.09.2021
6119 Clouds 17 1036 33 10000 5.14 110 00:26 28.09.2021
6120 Clouds 20 1036 24 10000 3.6 80 23:41 27.09.2021
6121 Clouds 21 1036 22 10000 1.54 140 22:56 27.09.2021
6122 Clouds 20 1038 25 10000 4.63 30 21:55 27.09.2021
6123 Clouds 20 1039 24 10000 5.66 110 20:45 27.09.2021
6124 Clouds 19 1040 25 10000 3.6 110 19:56 27.09.2021
6125 Clouds 19 1040 25 10000 3.6 110 19:28 27.09.2021
6126 Clouds 18 1041 36 10000 3.6 140 18:50 27.09.2021
6127 Clouds 16 1041 44 9000 3.09 130 17:29 27.09.2021
6128 Clouds 15 1042 50 9000 1.54 170 16:50 27.09.2021
6129 Clouds 13 1041 54 8000 1.03 0 15:45 27.09.2021
6130 Clouds 13 1041 54 8000 1.03 0 15:18 27.09.2021
6131 Clouds 5 1040 87 8000 2.57 60 13:32 27.09.2021
6132 Fog 2 1039 100 4000 2.57 70 11:40 27.09.2021
6133 Fog 2 1039 100 4000 2.57 90 10:36 27.09.2021
6134 Fog 5 1040 100 4000 3.09 90 08:51 27.09.2021
6135 Clouds 8 1041 75 10000 1.54 310 05:22 27.09.2021
6136 Clouds 10 1039 57 10000 4.12 100 03:21 27.09.2021
6137 Clouds 18 1037 25 10000 4.12 80 22:38 26.09.2021
6138 Clouds 21 1038 14 10000 5.14 100 21:53 26.09.2021
6139 Clouds 21 1038 14 10000 5.14 100 21:25 26.09.2021
6140 Clouds 20 1038 16 10000 3.09 50 20:22 26.09.2021
6141 Clouds 19 1040 20 10000 2.06 120 19:52 26.09.2021
6142 Clouds 18 1041 29 10000 3.6 120 18:46 26.09.2021
6143 Clouds 16 1041 35 10000 3.09 170 17:57 26.09.2021
6144 Clouds 16 1041 35 10000 3.09 170 17:23 26.09.2021
6145 Clouds 14 1041 40 10000 3.6 140 16:54 26.09.2021
6146 Clouds 13 1041 50 10000 1.03 0 15:59 26.09.2021
6147 Clouds 9 1041 57 10000 1.03 0 14:59 26.09.2021
6148 Clear 3 1040 86 10000 1.54 100 13:57 26.09.2021
6149 Clear 3 1040 86 10000 1.54 100 13:20 26.09.2021
6150 Clear 6 1021 80 10000 0.1 141 12:25 26.09.2021
6151 Clouds 3 1039 80 10000 1.03 0 11:42 26.09.2021
6152 Clouds 3 1038 80 10000 1.54 40 10:25 26.09.2021
6153 Clouds 5 1039 93 10000 3.09 60 08:58 26.09.2021
6154 Clouds 4 1040 87 10000 1.03 0 07:39 26.09.2021
6155 Clouds 15 1038 41 10000 4.63 20 00:23 26.09.2021
6156 Clouds 16 1038 35 10000 3.6 320 23:26 25.09.2021
6157 Clouds 16 1038 38 10000 5.66 240 22:38 25.09.2021
6158 Clouds 17 1039 33 10000 5.14 100 21:55 25.09.2021
6159 Clouds 17 1039 33 10000 5.14 100 21:31 25.09.2021
6160 Clouds 17 1040 33 10000 4.63 110 20:48 25.09.2021
6161 Clouds 16 1016 38 10000 4.63 120 18:59 25.09.2021
6162 Clouds 16 1016 38 10000 4.63 120 18:24 25.09.2021
6163 Clouds 10 1043 71 10000 3.09 150 15:48 25.09.2021
6164 Clouds 3 1041 93 10000 1.54 100 13:57 25.09.2021
6165 Clouds 3 1041 93 10000 1.54 100 13:31 25.09.2021
6166 Fog 3 1040 93 4000 2.06 80 12:27 25.09.2021
6167 Fog 5 1040 93 4000 3.6 80 10:34 25.09.2021
6168 Fog 6 1040 93 4000 3.09 50 09:32 25.09.2021
6169 Clouds 4 1040 100 10000 2.06 90 07:56 25.09.2021
6170 Clouds 5 1041 93 10000 2.06 70 05:46 25.09.2021
6171 Clouds 13 1038 50 10000 4.63 120 23:50 24.09.2021
6172 Clouds 17 1038 31 10000 4.63 60 21:42 24.09.2021
6173 Clouds 12 1040 50 10000 6.69 10 20:34 24.09.2021
6174 Clouds 16 1040 38 10000 4.12 110 19:47 24.09.2021
6175 Clouds 16 1041 38 10000 3.09 140 18:33 24.09.2021
6176 Clouds 13 1042 50 10000 3.09 200 17:54 24.09.2021
6177 Clouds 13 1042 50 10000 3.09 200 17:36 24.09.2021
6178 Clouds 13 1042 50 10000 3.09 200 17:18 24.09.2021
6179 Clouds 4 1041 93 10000 2.06 50 13:57 24.09.2021
6180 Mist 4 1040 93 3000 1.03 0 12:46 24.09.2021
6181 Mist 4 1040 93 3000 1.03 0 12:27 24.09.2021
6182 Mist 5 1040 93 3000 1.03 0 11:59 24.09.2021
6183 Mist 3 1040 100 3000 1.03 0 10:25 24.09.2021
6184 Fog 4 1039 93 4000 3.09 80 08:29 24.09.2021
6185 Fog 3 1040 93 4000 1.54 90 07:33 24.09.2021
6186 Fog 4 1041 93 4000 3.6 60 06:44 24.09.2021
6187 Clouds 5 1040 87 10000 2.06 110 04:54 24.09.2021
6188 Clouds 10 1038 53 8000 4.63 330 23:57 23.09.2021
6189 Clouds 12 1037 53 10000 3.09 70 22:20 23.09.2021
6190 Clouds 12 1038 50 10000 5.14 70 21:44 23.09.2021
6191 Clouds 12 1039 62 10000 5.14 60 20:33 23.09.2021
6192 Clouds 10 1040 71 8000 5.66 70 19:18 23.09.2021
6193 Clouds 10 1040 71 8000 5.66 70 19:18 23.09.2021
6194 Clouds 9 1041 76 8000 5.14 60 17:45 23.09.2021
6195 Clouds 10 1021 49 10000 1.15 50 15:21 23.09.2021
6196 Clouds 7 1040 81 10000 1.54 340 14:59 23.09.2021
6197 Clouds 4 1039 87 10000 1.54 300 13:45 23.09.2021
6198 Clouds 4 1039 87 10000 1.54 300 13:18 23.09.2021
6199 Clouds 4 1039 93 10000 1.54 320 12:47 23.09.2021
6200 Clouds 4 1039 93 10000 1.54 320 12:22 23.09.2021
6201 Clouds 5 1038 87 10000 2.06 270 11:20 23.09.2021
6202 Clouds 6 1039 87 10000 2.57 230 10:19 23.09.2021
6203 Clouds 6 1039 81 10000 1.54 60 09:48 23.09.2021
6204 Clouds 7 1022 85 9646 2.55 244 06:32 23.09.2021
6205 Clouds 10 1037 61 10000 5.66 190 00:28 23.09.2021
6206 Clouds 14 1036 47 10000 5.14 220 22:58 22.09.2021
6207 Clouds 14 1036 47 10000 5.14 220 22:23 22.09.2021
6208 Clouds 14 1037 50 10000 2.57 120 21:46 22.09.2021
6209 Clouds 14 1038 54 10000 3.09 90 20:58 22.09.2021
6210 Clouds 14 1038 54 10000 3.09 90 20:27 22.09.2021
6211 Rain 14 1039 54 10000 3.6 90 19:27 22.09.2021
6212 Clouds 14 1041 54 10000 2.57 110 18:36 22.09.2021
6213 Rain 13 1018 43 10000 1.15 211 17:38 22.09.2021
6214 Clouds 11 1021 54 10000 1.49 261 15:53 22.09.2021
6215 Fog 7 1041 93 4000 2.06 80 14:37 22.09.2021
6216 Fog 6 1040 100 700 2.57 80 13:24 22.09.2021
6217 Fog 6 1039 100 4000 2.06 60 11:20 22.09.2021
6218 Mist 5 1040 100 1200 3.09 110 09:35 22.09.2021
6219 Fog 6 1040 100 400 3.6 80 08:51 22.09.2021
6220 Rain 6 1024 81 9288 1.41 345 07:41 22.09.2021
6221 Fog 6 1041 100 4000 4.12 80 06:54 22.09.2021
6222 Fog 5 1042 100 3000 2.57 80 05:49 22.09.2021
6223 Clouds 7 1041 81 8000 3.6 70 04:54 22.09.2021
6224 Clouds 7 1040 81 10000 4.12 170 03:33 22.09.2021
6225 Clouds 12 1037 53 10000 4.63 30 00:18 22.09.2021
6226 Clouds 13 1037 50 10000 6.17 30 22:27 21.09.2021
6227 Clouds 13 1015 54 10000 4.74 25 20:58 21.09.2021
6228 Clouds 13 1016 46 10000 5.3 38 19:37 21.09.2021
6229 Clouds 14 1016 42 10000 4.58 39 19:18 21.09.2021
6230 Clouds 10 1042 66 10000 4.12 90 16:48 21.09.2021
6231 Clouds 10 1041 71 10000 2.06 80 15:57 21.09.2021
6232 Clouds 8 1041 75 10000 2.06 80 14:59 21.09.2021
6233 Clouds 8 1041 75 10000 2.06 80 14:40 21.09.2021
6234 Fog 3 1040 93 4000 1.03 0 13:40 21.09.2021
6235 Fog 2 1039 93 4000 0 0 12:45 21.09.2021
6236 Clouds 6 1039 93 10000 1.03 0 10:44 21.09.2021
6237 Clouds 7 1039 87 10000 1.03 0 09:28 21.09.2021
6238 Clouds 7 1040 93 10000 2.57 270 07:40 21.09.2021
6239 Clouds 9 1040 65 10000 1.03 0 05:18 21.09.2021
6240 Clouds 14 1034 47 10000 7.72 50 23:19 20.09.2021
6241 Clouds 12 1035 57 10000 6.69 50 21:51 20.09.2021
6242 Clouds 12 1035 57 10000 6.69 50 21:30 20.09.2021
6243 Rain 16 1036 41 10000 5.14 90 19:49 20.09.2021
6244 Clouds 19 1038 27 10000 2.06 210 18:36 20.09.2021
6245 Clouds 16 1039 33 10000 2.57 270 17:25 20.09.2021
6246 Clouds 14 1040 40 10000 3.09 270 16:26 20.09.2021
6247 Clouds 12 1039 46 10000 2.06 270 15:43 20.09.2021
6248 Clouds 9 1038 57 10000 0 0 14:42 20.09.2021
6249 Clouds 1 1037 93 10000 1.03 0 12:44 20.09.2021
6250 Clouds 1 1037 93 10000 1.03 0 12:26 20.09.2021
6251 Clouds 5 1036 75 10000 1.54 10 10:56 20.09.2021
6252 Clouds 4 1036 80 10000 1.54 10 09:51 20.09.2021
6253 Clouds 4 1036 80 10000 1.54 10 09:32 20.09.2021
6254 Clouds 4 1037 80 10000 1.03 0 08:54 20.09.2021
6255 Clouds 8 1019 75 10000 0.38 32 06:33 20.09.2021
6256 Clouds 16 1034 35 10000 4.12 60 22:58 19.09.2021
6257 Clouds 16 1035 35 10000 5.66 90 21:50 19.09.2021
6258 Clouds 16 1035 35 10000 5.66 90 21:19 19.09.2021
6259 Clouds 15 1037 33 10000 4.12 100 19:59 19.09.2021
6260 Clouds 17 1038 29 10000 4.12 270 18:54 19.09.2021
6261 Clouds 16 1039 30 10000 2.06 160 17:49 19.09.2021
6262 Clouds 13 1039 43 10000 1.03 0 16:51 19.09.2021
6263 Clouds 11 1039 53 10000 1.03 0 15:32 19.09.2021
6264 Clouds 8 1038 56 10000 1.03 0 14:49 19.09.2021
6265 Clouds 5 1037 70 10000 1.54 10 13:57 19.09.2021
6266 Clouds 3 1036 75 10000 1.03 0 12:56 19.09.2021
6267 Clouds 4 1036 80 10000 1.03 0 11:49 19.09.2021
6268 Clouds 4 1036 80 10000 1.03 0 11:22 19.09.2021
6269 Clouds 6 1036 81 10000 1.03 0 09:51 19.09.2021
6270 Clouds 6 1036 81 10000 1.03 0 09:23 19.09.2021
6271 Clouds 8 1037 61 10000 4.12 50 06:48 19.09.2021
6272 Clouds 14 1035 35 10000 6.69 40 00:48 19.09.2021
6273 Clouds 17 1035 23 10000 7.2 30 22:58 18.09.2021
6274 Clouds 21 1035 18 10000 5.14 80 21:56 18.09.2021
6275 Clouds 20 1036 20 10000 5.14 100 20:46 18.09.2021
6276 Clouds 20 1038 24 10000 5.66 130 19:42 18.09.2021
6277 Clouds 20 1038 24 10000 5.66 130 19:22 18.09.2021
6278 Clouds 17 1039 31 10000 5.14 130 18:52 18.09.2021
6279 Clouds 17 1039 31 10000 5.14 130 18:29 18.09.2021
6280 Clouds 13 1040 46 10000 4.12 110 16:34 18.09.2021
6281 Mist 7 1039 93 2500 3.09 90 13:51 18.09.2021
6282 Mist 7 1039 93 2500 3.09 90 13:31 18.09.2021
6283 Mist 7 1038 100 3000 3.09 80 12:51 18.09.2021
6284 Fog 7 1038 100 2500 4.12 90 11:42 18.09.2021
6285 Fog 3 1038 86 4000 3.09 90 10:37 18.09.2021
6286 Clouds 3 1038 75 10000 2.06 50 09:55 18.09.2021
6287 Clouds 3 1038 75 10000 2.06 50 09:22 18.09.2021
6288 Clouds 8 1039 65 10000 1.03 0 07:36 18.09.2021
6289 Clouds 10 1018 68 10000 3.52 50 00:42 18.09.2021
6290 Clouds 11 1017 65 10000 2.86 39 23:53 17.09.2021
6291 Clouds 11 1018 69 10000 4.41 345 22:42 17.09.2021
6292 Clouds 13 1016 60 10000 5.76 39 22:21 17.09.2021
6293 Clouds 17 1038 29 10000 3.09 60 21:27 17.09.2021
6294 Clouds 16 1016 39 10000 3.25 135 19:29 17.09.2021
6295 Clouds 15 1018 41 10000 2.57 149 17:55 17.09.2021
6296 Clouds 12 1022 53 10000 1.27 133 16:27 17.09.2021
6297 Clouds 9 1023 68 10000 1.14 93 14:24 17.09.2021
6298 Fog 4 1040 100 4000 2.06 90 11:30 17.09.2021
6299 Fog 5 1022 93 4000 2.06 70 08:55 17.09.2021
6300 Clouds 4 1040 80 10000 1.54 80 07:33 17.09.2021
6301 Clouds 9 1043 65 10000 5.14 170 03:54 17.09.2021
6302 Clouds 13 1037 43 10000 6.17 50 23:36 16.09.2021
6303 Clouds 14 1037 47 10000 6.69 50 22:33 16.09.2021
6304 Clouds 16 1038 38 10000 6.69 60 21:52 16.09.2021
6305 Clouds 16 1038 38 10000 6.69 60 21:26 16.09.2021
6306 Clouds 15 1016 44 10000 3.53 36 20:19 16.09.2021
6307 Clouds 17 1041 41 10000 5.14 110 18:21 16.09.2021
6308 Clouds 15 1042 47 10000 5.14 100 17:33 16.09.2021
6309 Fog 8 1041 87 4000 2.57 80 14:58 16.09.2021
6310 Clouds 9 1023 74 10000 2.92 57 14:24 16.09.2021
6311 Fog 5 1040 100 4000 4.12 80 12:51 16.09.2021
6312 Fog 5 1040 100 4000 4.12 80 12:51 16.09.2021
6313 Fog 5 1040 100 4000 4.12 80 12:28 16.09.2021
6314 Clouds 8 1021 79 10000 1.9 72 11:26 16.09.2021
6315 Clouds 8 1021 79 10000 1.9 72 10:33 16.09.2021
6316 Fog 7 1039 93 4000 4.12 80 09:57 16.09.2021
6317 Fog 7 1040 100 4000 2.06 120 08:42 16.09.2021
6318 Clouds 9 1021 76 10000 1.98 71 07:22 16.09.2021
6319 Fog 6 1040 100 2500 2.06 100 06:43 16.09.2021
6320 Fog 6 1040 100 4000 2.57 50 05:26 16.09.2021
6321 Clouds 9 1019 72 10000 4.02 57 01:40 16.09.2021
6322 Clouds 11 1015 64 10000 5.23 41 23:45 15.09.2021
6323 Clouds 12 1015 61 10000 3.46 48 22:47 15.09.2021
6324 Clouds 11 1015 64 10000 2.96 22 21:44 15.09.2021
6325 Clouds 13 1015 56 10000 3.15 354 21:25 15.09.2021
6326 Clouds 13 1039 58 8000 2.06 330 19:52 15.09.2021
6327 Clouds 13 1039 58 8000 2.06 330 19:52 15.09.2021
6328 Clouds 14 1015 48 10000 2.53 27 19:19 15.09.2021
6329 Clouds 13 1017 50 10000 3.24 50 17:49 15.09.2021
6330 Clouds 11 1020 62 10000 3.69 50 16:54 15.09.2021
6331 Rain 10 1021 71 10000 3.38 47 15:33 15.09.2021
6332 Clouds 9 1021 71 10000 2.67 49 14:44 15.09.2021
6333 Fog 8 1038 87 4000 2.06 140 13:51 15.09.2021
6334 Rain 8 1020 77 9746 2.27 51 13:29 15.09.2021
6335 Fog 8 1037 87 4000 1.03 0 12:42 15.09.2021
6336 Fog 8 1037 87 4000 2.06 40 11:51 15.09.2021
6337 Clouds 8 1018 78 10000 2.27 26 11:19 15.09.2021
6338 Fog 8 1036 87 4000 3.09 100 10:50 15.09.2021
6339 Clouds 8 1017 78 10000 2.37 55 09:26 15.09.2021
6340 Clouds 9 1018 77 10000 2.53 44 07:37 15.09.2021
6341 Clouds 9 1019 73 10000 4.02 53 04:19 15.09.2021
6342 Clouds 19 1034 34 10000 6.69 50 22:38 14.09.2021
6343 Clouds 21 1034 16 10000 3.6 210 21:38 14.09.2021
6344 Clouds 21 1035 16 10000 4.63 300 20:27 14.09.2021
6345 Clouds 19 1036 20 10000 3.09 100 19:41 14.09.2021
6346 Clouds 17 1038 29 10000 3.6 110 17:34 14.09.2021
6347 Clouds 15 1039 28 10000 3.09 180 16:56 14.09.2021
6348 Clouds 12 1038 34 10000 2.06 160 15:27 14.09.2021
6349 Clouds 11 1038 37 10000 1.03 0 14:28 14.09.2021
6350 Clouds 6 1036 52 10000 1.54 20 11:50 14.09.2021
6351 Clouds 4 1036 60 10000 1.03 0 10:49 14.09.2021
6352 Clouds 7 1036 48 10000 1.03 0 09:50 14.09.2021
6353 Clouds 7 1037 60 10000 1.03 0 08:24 14.09.2021
6354 Clouds 9 1018 73 10000 1.86 151 05:38 14.09.2021
6355 Clouds 20 1033 16 10000 6.17 310 23:34 13.09.2021
6356 Clouds 21 1034 16 10000 6.69 270 22:28 13.09.2021
6357 Clouds 21 1035 18 10000 6.17 290 21:59 13.09.2021
6358 Clouds 21 1035 18 10000 6.17 290 21:33 13.09.2021
6359 Clouds 19 1037 27 10000 4.63 260 19:38 13.09.2021
6360 Clouds 18 1038 31 10000 3.6 280 18:45 13.09.2021
6361 Clouds 17 1040 31 10000 2.06 260 17:38 13.09.2021
6362 Clouds 14 1040 43 10000 2.57 260 16:49 13.09.2021
6363 Clouds 9 1039 76 6000 1.54 280 14:45 13.09.2021
6364 Fog 8 1037 93 4000 3.09 100 11:44 13.09.2021
6365 Fog 8 1037 93 4000 3.09 90 10:41 13.09.2021
6366 Clouds 8 1037 87 10000 2.06 90 08:23 13.09.2021
6367 Clouds 15 1035 47 10000 3.09 100 00:34 13.09.2021
6368 Clouds 20 1035 27 10000 6.17 290 22:51 12.09.2021
6369 Clouds 20 1035 27 10000 6.17 290 22:22 12.09.2021
6370 Clouds 20 1037 25 10000 5.66 280 20:53 12.09.2021
6371 Clouds 20 1037 25 10000 5.66 280 20:19 12.09.2021
6372 Clouds 19 1038 29 10000 5.14 270 19:30 12.09.2021
6373 Clouds 18 1038 31 10000 4.12 290 18:55 12.09.2021
6374 Clouds 17 1039 38 10000 4.12 270 17:18 12.09.2021
6375 Clouds 13 1039 50 10000 3.6 280 15:54 12.09.2021
6376 Clouds 10 1038 61 10000 1.03 0 14:38 12.09.2021
6377 Clouds 3 1037 80 10000 1.03 0 12:39 12.09.2021
6378 Clouds 7 1018 69 10000 1.2 336 10:21 12.09.2021
6379 Clouds 9 1038 61 10000 2.06 330 08:39 12.09.2021
6380 Clouds 8 1039 75 10000 1.54 70 04:59 12.09.2021
6381 Clouds 13 1035 43 10000 4.12 70 00:47 12.09.2021
6382 Clouds 16 1035 35 10000 5.66 70 22:35 11.09.2021
6383 Clouds 17 1036 31 10000 3.6 90 21:38 11.09.2021
6384 Clouds 17 1038 29 10000 3.09 100 19:35 11.09.2021
6385 Clouds 14 1040 37 10000 2.57 150 17:56 11.09.2021
6386 Clouds 14 1040 37 10000 2.57 150 17:21 11.09.2021
6387 Clouds 10 1039 61 6000 3.09 90 15:24 11.09.2021
6388 Fog 1 1038 93 4000 3.6 80 13:22 11.09.2021
6389 Fog 0 1037 100 4000 3.09 70 11:40 11.09.2021
6390 Fog 4 1037 100 4000 2.06 100 09:42 11.09.2021
6391 Fog 5 1038 100 4000 2.06 80 08:21 11.09.2021
6392 Fog 5 1038 100 4000 3.09 90 07:34 11.09.2021
6393 Clouds 9 1036 70 10000 4.12 80 02:29 11.09.2021
6394 Clouds 19 1034 22 10000 5.14 290 22:27 10.09.2021
6395 Clouds 19 1035 23 10000 6.17 270 21:56 10.09.2021
6396 Clouds 19 1035 23 10000 6.17 270 21:25 10.09.2021
6397 Clouds 16 1038 30 10000 3.6 310 18:43 10.09.2021
6398 Clouds 15 1039 35 10000 3.6 260 17:33 10.09.2021
6399 Clouds 10 1038 61 8000 1.03 0 15:38 10.09.2021
6400 Fog 5 1037 93 4000 1.03 0 13:18 10.09.2021
6401 Fog 6 1036 93 3000 3.09 70 10:32 10.09.2021
6402 Clouds 8 1037 75 10000 2.06 30 07:51 10.09.2021
6403 Rain 9 1037 81 8000 2.57 70 04:33 10.09.2021
6404 Clouds 19 1032 20 10000 4.63 290 23:24 09.09.2021
6405 Clouds 17 1034 38 10000 4.63 90 21:47 09.09.2021
6406 Clouds 16 1035 44 10000 6.17 70 20:47 09.09.2021
6407 Clouds 16 1035 44 10000 6.17 70 20:22 09.09.2021
6408 Clouds 13 1037 62 10000 3.6 120 18:37 09.09.2021
6409 Clouds 12 1038 62 10000 2.57 120 16:45 09.09.2021
6410 Clouds 12 1038 62 10000 2.57 120 16:26 09.09.2021
6411 Fog 7 1036 93 4000 2.57 80 13:33 09.09.2021
6412 Fog 5 1036 100 4000 1.54 100 11:50 09.09.2021
6413 Fog 4 1035 100 4000 2.57 90 10:48 09.09.2021
6414 Fog 6 1036 93 4000 3.09 70 08:58 09.09.2021
6415 Clouds 5 1037 87 10000 1.54 20 06:50 09.09.2021
6416 Clouds 10 1035 61 10000 4.63 90 03:44 09.09.2021
6417 Clouds 21 1033 15 10000 2.57 320 22:57 08.09.2021
6418 Clouds 21 1033 15 10000 3.09 230 21:39 08.09.2021
6419 Clouds 20 1035 14 10000 5.66 270 20:19 08.09.2021
6420 Clouds 19 1035 23 10000 4.12 300 19:29 08.09.2021
6421 Clouds 17 1036 33 10000 4.12 240 18:31 08.09.2021
6422 Clouds 17 1036 33 10000 4.12 240 18:30 08.09.2021
6423 Clouds 16 1037 38 10000 2.57 230 17:57 08.09.2021
6424 Clouds 13 1038 50 10000 2.57 280 16:38 08.09.2021
6425 Clouds 9 1037 81 10000 1.54 280 14:30 08.09.2021
6426 Clouds 9 1037 81 10000 1.54 280 14:30 08.09.2021
6427 Clouds 9 1037 81 10000 1.54 280 14:30 08.09.2021
6428 Clouds 9 1037 81 10000 1.54 280 14:30 08.09.2021
6429 Clouds 9 1037 81 10000 1.54 280 14:30 08.09.2021
6430 Clouds 6 1035 81 10000 2.06 210 12:54 08.09.2021
6431 Clouds 6 1035 81 10000 2.06 210 12:27 08.09.2021
6432 Clouds 5 1035 87 10000 3.09 360 11:38 08.09.2021
6433 Clouds 7 1035 87 10000 2.06 10 10:42 08.09.2021
6434 Clouds 7 1035 87 10000 2.06 10 10:24 08.09.2021
6435 Fog 8 1036 93 4000 1.03 0 08:54 08.09.2021
6436 Fog 8 1037 93 4000 1.54 110 07:38 08.09.2021
6437 Fog 9 1037 93 4000 2.06 100 05:34 08.09.2021
6438 Clouds 19 1033 29 10000 6.69 290 22:46 07.09.2021
6439 Clouds 19 1034 31 10000 6.69 290 21:59 07.09.2021
6440 Clouds 17 1036 33 10000 4.12 300 19:54 07.09.2021
6441 Rain 17 1037 36 10000 4.63 300 18:45 07.09.2021
6442 Clouds 15 1038 38 10000 4.63 310 17:49 07.09.2021
6443 Rain 15 1038 38 10000 4.12 330 16:38 07.09.2021
6444 Clouds 12 1038 37 10000 1.03 0 15:37 07.09.2021
6445 Clouds 6 1037 52 10000 1.03 0 14:42 07.09.2021
6446 Fog 1 1036 100 4000 2.57 80 12:43 07.09.2021
6447 Fog 1 1035 100 4000 2.06 60 11:45 07.09.2021
6448 Fog 2 1035 93 4000 2.06 80 10:41 07.09.2021
6449 Clouds 3 1037 69 10000 1.54 60 08:34 07.09.2021
6450 Clouds 7 1037 60 10000 2.06 30 07:23 07.09.2021
6451 Clouds 8 1037 70 10000 2.06 210 05:40 07.09.2021
6452 Clouds 8 1036 61 10000 1.54 60 02:34 07.09.2021
6453 Clouds 11 1035 46 10000 6.17 300 00:43 07.09.2021
6454 Clouds 14 1035 40 10000 5.14 300 23:34 06.09.2021
6455 Clouds 18 1035 29 10000 6.69 260 22:53 06.09.2021
6456 Clouds 18 1035 29 10000 6.69 260 22:33 06.09.2021
6457 Clouds 15 1037 33 10000 4.12 120 20:55 06.09.2021
6458 Clouds 16 1039 30 10000 1.03 0 19:23 06.09.2021
6459 Clouds 16 1040 28 10000 3.09 240 18:48 06.09.2021
6460 Clouds 16 1040 28 10000 3.09 240 18:23 06.09.2021
6461 Clouds 15 1041 35 9000 2.06 230 17:36 06.09.2021
6462 Clouds 10 1040 61 8000 1.03 0 15:52 06.09.2021
6463 Fog 4 1039 87 4000 1.03 0 13:48 06.09.2021
6464 Fog 4 1038 100 4000 1.54 130 12:47 06.09.2021
6465 Fog 2 1038 100 4000 2.57 80 10:45 06.09.2021
6466 Clouds 3 1039 69 10000 1.03 0 07:59 06.09.2021
6467 Clouds 6 1039 70 10000 3.09 60 04:45 06.09.2021
6468 Clouds 17 1036 31 10000 4.63 280 23:34 05.09.2021
6469 Clouds 17 1036 36 10000 7.2 300 22:47 05.09.2021
6470 Clouds 17 1037 36 10000 6.17 310 21:58 05.09.2021
6471 Clouds 17 1037 36 10000 6.17 310 21:30 05.09.2021
6472 Clouds 16 1038 30 10000 4.12 70 20:21 05.09.2021
6473 Clouds 15 1040 44 10000 4.63 120 18:42 05.09.2021
6474 Clouds 14 1040 47 10000 4.12 130 17:31 05.09.2021
6475 Clouds 10 1040 71 8000 3.6 110 15:28 05.09.2021
6476 Clouds 9 1039 81 10000 4.12 80 14:19 05.09.2021
6477 Fog 3 1038 93 4000 2.06 70 12:29 05.09.2021
6478 Mist 1 1037 93 2000 2.57 80 10:48 05.09.2021
6479 Mist 1 1037 93 2000 2.57 80 10:23 05.09.2021
6480 Clear 5 1037 56 10000 1.54 10 09:21 05.09.2021
6481 Clear 6 1039 100 10000 2.06 40 07:48 05.09.2021
6482 Clouds 16 1035 33 10000 5.14 50 00:51 05.09.2021
6483 Clouds 16 1035 33 10000 5.14 50 00:22 05.09.2021
6484 Clouds 16 1035 33 10000 5.14 50 00:22 05.09.2021
6485 Clouds 20 1035 15 10000 3.6 120 23:35 04.09.2021
6486 Clouds 20 1035 13 10000 4.12 120 22:35 04.09.2021
6487 Clouds 20 1035 13 10000 4.12 120 22:35 04.09.2021
6488 Clouds 20 1036 14 10000 4.12 130 21:55 04.09.2021
6489 Clouds 18 1038 20 10000 4.63 160 19:41 04.09.2021
6490 Clouds 17 1039 21 10000 4.63 140 18:39 04.09.2021
6491 Clouds 11 1040 49 10000 1.03 0 15:54 04.09.2021
6492 Clouds 0 1038 86 10000 1.03 0 12:48 04.09.2021
6493 Clouds 2 1037 93 10000 1.03 0 11:19 04.09.2021
6494 Clouds 4 1037 87 10000 2.06 100 08:58 04.09.2021
6495 Clouds 12 1037 46 10000 2.57 350 02:32 04.09.2021
6496 Clouds 14 1035 47 8000 6.69 50 00:23 04.09.2021
6497 Clouds 16 1035 38 10000 6.17 40 23:23 03.09.2021
6498 Clouds 18 1036 29 10000 3.09 130 21:53 03.09.2021
6499 Clouds 18 1036 29 10000 3.09 130 21:31 03.09.2021
6500 Clouds 19 1037 29 10000 4.12 90 20:41 03.09.2021
6501 Clouds 19 1038 25 10000 2.06 280 19:46 03.09.2021
6502 Clouds 16 1040 41 10000 2.06 200 18:52 03.09.2021
6503 Clouds 14 1040 47 10000 3.09 130 17:32 03.09.2021
6504 Clouds 11 1041 66 8000 3.6 110 16:23 03.09.2021
6505 Clouds 7 1039 87 8000 2.06 90 14:47 03.09.2021
6506 Clouds 7 1039 87 8000 2.06 90 14:47 03.09.2021
6507 Fog 3 1038 93 4000 2.06 90 11:47 03.09.2021
6508 Fog 7 1038 93 4000 3.6 100 10:22 03.09.2021
6509 Fog 3 1038 93 4000 1.03 0 08:38 03.09.2021
6510 Clouds 4 1039 93 10000 2.06 70 07:34 03.09.2021
6511 Clouds 17 1035 21 10000 4.63 120 00:24 03.09.2021
6512 Clouds 17 1035 21 10000 4.63 120 00:24 03.09.2021
6513 Clouds 21 1036 18 10000 2.06 130 22:43 02.09.2021
6514 Clouds 21 1036 16 10000 3.6 120 21:18 02.09.2021
6515 Clouds 18 1039 23 10000 5.14 120 18:57 02.09.2021
6516 Clouds 16 1040 26 10000 5.14 130 17:22 02.09.2021
6517 Clear 12 1040 50 8000 2.57 130 15:43 02.09.2021
6518 Clear 4 1038 80 10000 1.54 20 13:43 02.09.2021
6519 Fog 3 1038 100 4000 3.6 80 11:46 02.09.2021
6520 Fog 3 1038 100 4000 3.6 80 11:27 02.09.2021
6521 Fog 6 1038 93 4000 4.63 90 09:21 02.09.2021
6522 Fog 4 1038 100 4000 3.6 90 07:40 02.09.2021
6523 Fog 5 1038 100 4000 4.12 80 06:40 02.09.2021
6524 Clouds 12 1037 32 10000 1.54 330 02:38 02.09.2021
6525 Clouds 13 1036 22 10000 1.54 100 01:53 02.09.2021
6526 Clouds 17 1036 14 10000 2.57 80 00:24 02.09.2021
6527 Clouds 18 1036 12 10000 2.57 100 23:27 01.09.2021
6528 Clouds 21 1036 10 10000 3.6 110 22:30 01.09.2021
6529 Clouds 20 1037 10 10000 2.57 210 21:33 01.09.2021
6530 Clouds 19 1039 20 10000 2.06 250 19:38 01.09.2021
6531 Clouds 16 1041 30 9000 1.54 240 17:57 01.09.2021
6532 Clouds 16 1041 30 9000 1.54 240 17:18 01.09.2021
6533 Clouds 13 1041 37 8000 1.03 0 16:46 01.09.2021
6534 Clouds 10 1040 49 8000 1.03 0 15:18 01.09.2021
6535 Fog 1 1037 100 4000 2.57 90 11:48 01.09.2021
6536 Fog 3 1037 93 4000 2.57 80 10:39 01.09.2021
6537 Fog 2 1038 93 4000 2.57 60 08:42 01.09.2021
6538 Clouds 2 1038 80 10000 2.06 80 06:59 01.09.2021
6539 Clouds 17 1036 21 10000 4.63 120 23:32 31.08.2021
6540 Clouds 18 1036 21 10000 5.14 110 22:23 31.08.2021
6541 Clouds 17 1038 26 10000 4.63 140 20:19 31.08.2021
6542 Clouds 15 1039 30 10000 3.6 150 19:43 31.08.2021
6543 Clouds 13 1040 46 10000 3.6 120 17:52 31.08.2021
6544 Clouds 13 1040 46 10000 3.6 120 17:25 31.08.2021
6545 Clouds 10 1040 53 8000 3.09 100 16:41 31.08.2021
6546 Clouds 10 1039 42 8000 2.06 80 15:26 31.08.2021
6547 Fog 1 1037 100 4000 2.57 40 12:19 31.08.2021
6548 Clouds 0 1036 80 10000 2.06 70 11:19 31.08.2021
6549 Clear 2 1036 55 10000 1.54 20 10:43 31.08.2021
6550 Clear 4 1037 51 10000 2.06 10 09:41 31.08.2021
6551 Clouds 3 1038 86 10000 1.03 0 07:48 31.08.2021
6552 Clouds 6 1038 75 10000 4.12 90 05:56 31.08.2021
6553 Clouds 17 1036 9 10000 3.6 220 23:36 30.08.2021
6554 Clouds 18 1036 9 10000 3.6 190 22:36 30.08.2021
6555 Clouds 18 1037 10 10000 4.12 310 21:35 30.08.2021
6556 Clouds 17 1038 13 10000 3.6 260 20:41 30.08.2021
6557 Clouds 15 1039 19 10000 3.09 260 19:33 30.08.2021
6558 Clouds 14 1040 24 10000 3.09 250 18:58 30.08.2021
6559 Clouds 12 1041 34 10000 2.57 190 17:49 30.08.2021
6560 Clouds 11 1041 34 10000 2.57 220 16:27 30.08.2021
6561 Clouds 8 1041 42 10000 1.03 0 15:40 30.08.2021
6562 Clear 1 1040 69 10000 1.54 10 13:55 30.08.2021
6563 Clear -2 1039 93 10000 0 0 12:54 30.08.2021
6564 Clouds -1 1038 86 10000 1.03 0 10:42 30.08.2021
6565 Clouds 5 1038 75 10000 3.09 80 03:24 30.08.2021
6566 Clouds 17 1037 21 10000 4.12 260 21:35 29.08.2021
6567 Clouds 16 1038 33 10000 2.57 150 20:46 29.08.2021
6568 Clouds 14 1039 40 10000 2.57 130 19:27 29.08.2021
6569 Clouds 13 1041 43 10000 3.6 130 17:58 29.08.2021
6570 Clouds 8 1041 65 6000 4.12 120 15:54 29.08.2021
6571 Clouds 7 1041 75 6000 5.14 100 14:27 29.08.2021
6572 Fog 6 1040 87 4000 4.63 110 13:47 29.08.2021
6573 Fog 5 1039 93 4000 3.6 90 12:42 29.08.2021
6574 Fog 5 1039 93 4000 2.57 100 11:53 29.08.2021
6575 Fog 5 1039 93 4000 2.57 100 11:28 29.08.2021
6576 Fog 3 1039 100 4000 2.06 90 10:46 29.08.2021
6577 Fog 3 1039 100 4000 2.06 90 10:27 29.08.2021
6578 Clouds 3 1039 93 10000 1.54 80 09:21 29.08.2021
6579 Clouds 14 1035 16 10000 4.12 270 00:40 29.08.2021
6580 Clouds 17 1036 14 10000 7.2 280 21:58 28.08.2021
6581 Clouds 16 1037 19 10000 8.23 280 20:29 28.08.2021
6582 Clouds 14 1039 22 10000 6.17 260 18:43 28.08.2021
6583 Clouds 14 1039 22 10000 6.17 260 18:20 28.08.2021
6584 Clouds 14 1039 22 10000 3.09 270 17:20 28.08.2021
6585 Clouds 10 1039 31 10000 2.06 300 15:46 28.08.2021
6586 Clouds 6 1038 45 10000 1.03 0 14:26 28.08.2021
6587 Clouds 2 1037 55 10000 1.54 30 13:45 28.08.2021
6588 Clouds 2 1037 55 10000 1.54 340 12:44 28.08.2021
6589 Clouds 4 1036 44 10000 2.06 360 11:54 28.08.2021
6590 Clouds 1 1036 47 10000 1.03 0 10:41 28.08.2021
6591 Clouds 5 1037 35 10000 0 0 08:40 28.08.2021
6592 Clouds 8 1038 36 10000 2.06 260 07:24 28.08.2021
6593 Clouds 17 1033 20 10000 6.69 290 22:30 27.08.2021
6594 Clouds 18 1034 21 10000 8.75 290 20:59 27.08.2021
6595 Clouds 18 1034 21 10000 8.75 290 20:30 27.08.2021
6596 Clouds 15 1036 28 10000 7.2 290 18:57 27.08.2021
6597 Clouds 15 1036 28 10000 7.2 290 18:37 27.08.2021
6598 Clouds 12 1037 29 10000 3.6 280 16:56 27.08.2021
6599 Clouds 10 1037 34 10000 3.6 310 15:36 27.08.2021
6600 Clouds 7 1036 60 10000 2.06 330 14:41 27.08.2021
6601 Clouds 4 1034 93 10000 1.03 0 12:30 27.08.2021
6602 Clouds 5 1017 91 10000 1.26 132 11:24 27.08.2021
6603 Clouds 5 1034 87 10000 2.06 40 10:42 27.08.2021
6604 Clouds 4 1034 87 10000 2.06 40 09:30 27.08.2021
6605 Clouds 5 1035 65 8000 4.63 360 08:41 27.08.2021
6606 Fog 9 1035 87 4000 3.6 120 05:53 27.08.2021
6607 Clouds 11 1032 57 10000 4.12 100 02:44 27.08.2021
6608 Clouds 16 1030 18 10000 6.17 320 00:31 27.08.2021
6609 Clouds 18 1031 14 10000 8.75 280 22:28 26.08.2021
6610 Clouds 19 1031 17 10000 7.2 280 21:57 26.08.2021
6611 Clouds 17 1033 26 10000 7.72 290 19:54 26.08.2021
6612 Clouds 16 1034 30 10000 7.72 290 18:42 26.08.2021
6613 Clouds 14 1035 35 10000 7.2 290 17:28 26.08.2021
6614 Clouds 12 1036 50 10000 5.66 280 16:32 26.08.2021
6615 Clouds 9 1035 61 10000 3.09 300 15:37 26.08.2021
6616 Clouds 0 1034 74 10000 1.03 60 13:28 26.08.2021
6617 Clouds 1 1034 64 10000 1.03 0 12:49 26.08.2021
6618 Clouds 3 1034 64 10000 1.03 0 11:49 26.08.2021
6619 Clouds 3 1034 47 10000 1.03 0 09:30 26.08.2021
6620 Clouds 4 1034 41 10000 1.03 0 08:19 26.08.2021
6621 Clouds 17 1030 9 10000 9.26 300 23:45 25.08.2021
6622 Clouds 17 1031 8 10000 9.26 290 22:46 25.08.2021
6623 Clouds 17 1031 8 10000 9.26 290 22:26 25.08.2021
6624 Clouds 17 1032 10 10000 9.77 290 20:58 25.08.2021
6625 Clouds 17 1032 10 10000 9.77 290 20:30 25.08.2021
6626 Clouds 17 1032 10 10000 9.77 290 20:30 25.08.2021
6627 Clouds 16 1033 14 10000 10.8 290 19:24 25.08.2021
6628 Clear 14 1035 17 9000 11.32 300 17:53 25.08.2021
6629 Clouds 10 1034 25 10000 6.69 300 15:59 25.08.2021
6630 Clouds 10 1034 25 10000 6.69 300 15:59 25.08.2021
6631 Clouds 10 1034 25 10000 6.69 300 15:32 25.08.2021
6632 Clouds 8 1034 36 10000 4.12 310 14:46 25.08.2021
6633 Clouds 6 1033 41 10000 3.6 330 13:53 25.08.2021
6634 Clouds 4 1033 60 10000 1.03 0 12:20 25.08.2021
6635 Clouds 4 1033 55 10000 1.54 240 11:19 25.08.2021
6636 Mist 5 1032 87 3000 2.06 70 09:59 25.08.2021
6637 Mist 5 1032 87 3000 2.06 70 09:35 25.08.2021
6638 Fog 5 1033 87 4000 2.06 90 08:35 25.08.2021
6639 Fog 8 1034 87 4000 2.06 120 06:37 25.08.2021
6640 Clouds 14 1030 22 10000 4.12 310 01:20 25.08.2021
6641 Clouds 17 1029 15 10000 6.69 310 23:19 24.08.2021
6642 Clouds 19 1031 10 10000 6.17 300 20:57 24.08.2021
6643 Clouds 18 1032 14 10000 6.17 270 19:55 24.08.2021
6644 Clouds 18 1032 14 10000 6.17 270 19:23 24.08.2021
6645 Clouds 16 1034 28 10000 5.14 280 17:53 24.08.2021
6646 Clouds 16 1034 28 10000 5.14 280 17:21 24.08.2021
6647 Clouds 7 1033 52 8000 0 0 14:56 24.08.2021
6648 Clouds 4 1033 60 10000 1.54 40 13:38 24.08.2021
6649 Clouds 1 1032 69 10000 1.54 30 12:41 24.08.2021
6650 Clear 2 1032 64 10000 1.54 40 11:19 24.08.2021
6651 Clear 2 1032 69 10000 2.06 40 10:46 24.08.2021
6652 Clear 1 1033 69 10000 2.06 60 09:24 24.08.2021
6653 Clear 5 1034 56 10000 1.54 10 07:35 24.08.2021
6654 Clouds 5 1035 75 10000 1.03 0 05:37 24.08.2021
6655 Clouds 5 1035 75 10000 1.03 0 05:37 24.08.2021
6656 Clear 11 1032 34 10000 2.57 50 02:40 24.08.2021
6657 Clouds 18 1031 11 10000 6.17 290 23:28 23.08.2021
6658 Clouds 20 1032 9 10000 5.66 280 22:43 23.08.2021
6659 Clouds 19 1033 12 10000 5.14 270 20:58 23.08.2021
6660 Clouds 19 1035 11 10000 4.12 280 19:30 23.08.2021
6661 Clouds 16 1037 23 9000 3.6 290 17:23 23.08.2021
6662 Clear 11 1036 34 8000 2.57 270 15:32 23.08.2021
6663 Clear 5 1035 44 10000 2.06 350 13:47 23.08.2021
6664 Clouds 0 1034 54 10000 2.06 20 12:30 23.08.2021
6665 Clear 0 1034 59 10000 1.54 360 10:46 23.08.2021
6666 Clear 2 1034 51 10000 2.06 20 09:52 23.08.2021
6667 Clouds 4 1035 51 10000 1.54 360 08:34 23.08.2021
6668 Clouds 7 1036 48 10000 2.06 340 06:57 23.08.2021
6669 Clouds 7 1036 48 10000 2.06 340 06:38 23.08.2021
6670 Clouds 16 1033 13 10000 2.06 110 00:59 23.08.2021
6671 Clouds 19 1033 10 10000 2.06 90 23:38 22.08.2021
6672 Clouds 19 1033 10 10000 2.06 170 22:40 22.08.2021